<?xml version="1.0" encoding="UTF-8" standalone="no" ?>
<gpx xmlns="http://www.topografix.com/GPX/1/1" xmlns:xsi="http://www.w3.org/2001/XMLSchema-instance" xsi:schemaLocation="http://www.topografix.com/GPX/1/1 http://www.topografix.com/GPX/1/1/gpx.xsd" version="1.1" creator="VisuGPX - https://www.visugpx.com">
  <metadata>
    <name>Mont Archas en boucle depuis le Boréon</name>
    <desc><![CDATA[Boucle facile, la pente est douce dans ce sens de parcours. 
Chemin évident et bien entretenu, même dans la traversée d'un pierrier juste avant le col de la Valette.
Au Mont Archas, la vue est imprenable sur la chaine du Mercantour : Argentera, Gélas, cime du Diable, lac Nègre, et plus au Nord, le Pelat et la Barre des Ecrins (dans les nuages ce jour là). Une bien belle randonnée !

]]></desc>
  </metadata>
  <trk>
    <name><![CDATA[Mont Archas en boucle depuis le Boréon_1]]></name>
    <trkseg>
      <trkpt lat="44.1259" lon="7.2616">
        <ele>1662</ele>
        <time>2017-09-16T10:01:21Z</time>
      </trkpt>
      <trkpt lat="44.12595" lon="7.2616">
        <ele>1662</ele>
        <time>2017-09-16T10:01:21Z</time>
      </trkpt>
      <trkpt lat="44.12596" lon="7.26156">
        <ele>1662</ele>
        <time>2017-09-16T10:01:21Z</time>
      </trkpt>
      <trkpt lat="44.12601" lon="7.26149">
        <ele>1662</ele>
        <time>2017-09-16T10:01:21Z</time>
      </trkpt>
      <trkpt lat="44.12601" lon="7.26147">
        <ele>1662</ele>
        <time>2017-09-16T10:01:21Z</time>
      </trkpt>
      <trkpt lat="44.12589" lon="7.26148">
        <ele>1662</ele>
        <time>2017-09-16T10:04:41Z</time>
      </trkpt>
      <trkpt lat="44.12589" lon="7.26147">
        <ele>1662</ele>
        <time>2017-09-16T10:04:41Z</time>
      </trkpt>
      <trkpt lat="44.12589" lon="7.26146">
        <ele>1662</ele>
        <time>2017-09-16T10:04:41Z</time>
      </trkpt>
      <trkpt lat="44.12589" lon="7.26144">
        <ele>1662</ele>
        <time>2017-09-16T10:04:41Z</time>
      </trkpt>
      <trkpt lat="44.12589" lon="7.26143">
        <ele>1662</ele>
        <time>2017-09-16T10:04:41Z</time>
      </trkpt>
      <trkpt lat="44.1259" lon="7.26137">
        <ele>1662</ele>
        <time>2017-09-16T10:04:57Z</time>
      </trkpt>
      <trkpt lat="44.12591" lon="7.26125">
        <ele>1662</ele>
        <time>2017-09-16T10:04:57Z</time>
      </trkpt>
      <trkpt lat="44.12591" lon="7.26119">
        <ele>1670</ele>
        <time>2017-09-16T10:04:57Z</time>
      </trkpt>
      <trkpt lat="44.1259" lon="7.26115">
        <ele>1670</ele>
        <time>2017-09-16T10:04:57Z</time>
      </trkpt>
      <trkpt lat="44.1259" lon="7.26111">
        <ele>1670</ele>
        <time>2017-09-16T10:05:13Z</time>
      </trkpt>
      <trkpt lat="44.12591" lon="7.26103">
        <ele>1670</ele>
        <time>2017-09-16T10:05:13Z</time>
      </trkpt>
      <trkpt lat="44.12592" lon="7.26099">
        <ele>1670</ele>
        <time>2017-09-16T10:05:13Z</time>
      </trkpt>
      <trkpt lat="44.12592" lon="7.26097">
        <ele>1670</ele>
        <time>2017-09-16T10:05:13Z</time>
      </trkpt>
      <trkpt lat="44.12595" lon="7.26088">
        <ele>1670</ele>
        <time>2017-09-16T10:05:41Z</time>
      </trkpt>
      <trkpt lat="44.12595" lon="7.26088">
        <ele>1670</ele>
        <time>2017-09-16T10:05:41Z</time>
      </trkpt>
      <trkpt lat="44.12595" lon="7.26086">
        <ele>1670</ele>
        <time>2017-09-16T10:05:41Z</time>
      </trkpt>
      <trkpt lat="44.12596" lon="7.26081">
        <ele>1670</ele>
        <time>2017-09-16T10:05:41Z</time>
      </trkpt>
      <trkpt lat="44.12597" lon="7.26076">
        <ele>1670</ele>
        <time>2017-09-16T10:05:41Z</time>
      </trkpt>
      <trkpt lat="44.12594" lon="7.26072">
        <ele>1670</ele>
        <time>2017-09-16T10:06:17Z</time>
      </trkpt>
      <trkpt lat="44.12594" lon="7.26069">
        <ele>1670</ele>
        <time>2017-09-16T10:06:17Z</time>
      </trkpt>
      <trkpt lat="44.12591" lon="7.26062">
        <ele>1670</ele>
        <time>2017-09-16T10:06:17Z</time>
      </trkpt>
      <trkpt lat="44.1259" lon="7.26059">
        <ele>1670</ele>
        <time>2017-09-16T10:06:17Z</time>
      </trkpt>
      <trkpt lat="44.12589" lon="7.26052">
        <ele>1670</ele>
        <time>2017-09-16T10:06:17Z</time>
      </trkpt>
      <trkpt lat="44.12591" lon="7.26048">
        <ele>1670</ele>
        <time>2017-09-16T10:07:21Z</time>
      </trkpt>
      <trkpt lat="44.12591" lon="7.26041">
        <ele>1684</ele>
        <time>2017-09-16T10:07:21Z</time>
      </trkpt>
      <trkpt lat="44.12591" lon="7.26036">
        <ele>1684</ele>
        <time>2017-09-16T10:07:21Z</time>
      </trkpt>
      <trkpt lat="44.12592" lon="7.26035">
        <ele>1684</ele>
        <time>2017-09-16T10:07:21Z</time>
      </trkpt>
      <trkpt lat="44.12594" lon="7.26034">
        <ele>1684</ele>
        <time>2017-09-16T10:07:21Z</time>
      </trkpt>
      <trkpt lat="44.12595" lon="7.26033">
        <ele>1684</ele>
        <time>2017-09-16T10:07:37Z</time>
      </trkpt>
      <trkpt lat="44.12596" lon="7.2603">
        <ele>1684</ele>
        <time>2017-09-16T10:07:37Z</time>
      </trkpt>
      <trkpt lat="44.12598" lon="7.26026">
        <ele>1684</ele>
        <time>2017-09-16T10:07:37Z</time>
      </trkpt>
      <trkpt lat="44.12601" lon="7.26021">
        <ele>1684</ele>
        <time>2017-09-16T10:07:37Z</time>
      </trkpt>
      <trkpt lat="44.12603" lon="7.26017">
        <ele>1684</ele>
        <time>2017-09-16T10:07:57Z</time>
      </trkpt>
      <trkpt lat="44.12605" lon="7.26014">
        <ele>1684</ele>
        <time>2017-09-16T10:07:57Z</time>
      </trkpt>
      <trkpt lat="44.12607" lon="7.26011">
        <ele>1684</ele>
        <time>2017-09-16T10:07:57Z</time>
      </trkpt>
      <trkpt lat="44.12609" lon="7.26009">
        <ele>1684</ele>
        <time>2017-09-16T10:07:57Z</time>
      </trkpt>
      <trkpt lat="44.1261" lon="7.26006">
        <ele>1684</ele>
        <time>2017-09-16T10:07:57Z</time>
      </trkpt>
      <trkpt lat="44.12612" lon="7.26003">
        <ele>1684</ele>
        <time>2017-09-16T10:08:13Z</time>
      </trkpt>
      <trkpt lat="44.12614" lon="7.25999">
        <ele>1684</ele>
        <time>2017-09-16T10:08:13Z</time>
      </trkpt>
      <trkpt lat="44.12617" lon="7.25997">
        <ele>1684</ele>
        <time>2017-09-16T10:08:13Z</time>
      </trkpt>
      <trkpt lat="44.1262" lon="7.25995">
        <ele>1684</ele>
        <time>2017-09-16T10:08:13Z</time>
      </trkpt>
      <trkpt lat="44.12625" lon="7.25988">
        <ele>1695</ele>
        <time>2017-09-16T10:08:29Z</time>
      </trkpt>
      <trkpt lat="44.12627" lon="7.25985">
        <ele>1695</ele>
        <time>2017-09-16T10:08:29Z</time>
      </trkpt>
      <trkpt lat="44.12627" lon="7.25981">
        <ele>1695</ele>
        <time>2017-09-16T10:08:29Z</time>
      </trkpt>
      <trkpt lat="44.1263" lon="7.25977">
        <ele>1695</ele>
        <time>2017-09-16T10:08:29Z</time>
      </trkpt>
      <trkpt lat="44.1263" lon="7.25973">
        <ele>1695</ele>
        <time>2017-09-16T10:08:53Z</time>
      </trkpt>
      <trkpt lat="44.1263" lon="7.25973">
        <ele>1695</ele>
        <time>2017-09-16T10:08:53Z</time>
      </trkpt>
      <trkpt lat="44.12631" lon="7.2597">
        <ele>1695</ele>
        <time>2017-09-16T10:08:53Z</time>
      </trkpt>
      <trkpt lat="44.12633" lon="7.25966">
        <ele>1695</ele>
        <time>2017-09-16T10:08:53Z</time>
      </trkpt>
      <trkpt lat="44.12635" lon="7.25963">
        <ele>1695</ele>
        <time>2017-09-16T10:08:53Z</time>
      </trkpt>
      <trkpt lat="44.12636" lon="7.25961">
        <ele>1695</ele>
        <time>2017-09-16T10:09:09Z</time>
      </trkpt>
      <trkpt lat="44.12637" lon="7.25957">
        <ele>1705</ele>
        <time>2017-09-16T10:09:09Z</time>
      </trkpt>
      <trkpt lat="44.12639" lon="7.25952">
        <ele>1705</ele>
        <time>2017-09-16T10:09:09Z</time>
      </trkpt>
      <trkpt lat="44.12639" lon="7.25948">
        <ele>1705</ele>
        <time>2017-09-16T10:09:09Z</time>
      </trkpt>
      <trkpt lat="44.12638" lon="7.25949">
        <ele>1705</ele>
        <time>2017-09-16T10:09:29Z</time>
      </trkpt>
      <trkpt lat="44.12634" lon="7.25947">
        <ele>1705</ele>
        <time>2017-09-16T10:09:29Z</time>
      </trkpt>
      <trkpt lat="44.12634" lon="7.25944">
        <ele>1705</ele>
        <time>2017-09-16T10:09:29Z</time>
      </trkpt>
      <trkpt lat="44.12635" lon="7.25937">
        <ele>1705</ele>
        <time>2017-09-16T10:09:29Z</time>
      </trkpt>
      <trkpt lat="44.12636" lon="7.25927">
        <ele>1705</ele>
        <time>2017-09-16T10:09:29Z</time>
      </trkpt>
      <trkpt lat="44.12637" lon="7.25919">
        <ele>1705</ele>
        <time>2017-09-16T10:09:45Z</time>
      </trkpt>
      <trkpt lat="44.12638" lon="7.25913">
        <ele>1705</ele>
        <time>2017-09-16T10:09:45Z</time>
      </trkpt>
      <trkpt lat="44.12639" lon="7.25905">
        <ele>1705</ele>
        <time>2017-09-16T10:09:45Z</time>
      </trkpt>
      <trkpt lat="44.12639" lon="7.25903">
        <ele>1705</ele>
        <time>2017-09-16T10:09:45Z</time>
      </trkpt>
      <trkpt lat="44.12639" lon="7.25899">
        <ele>1705</ele>
        <time>2017-09-16T10:10:01Z</time>
      </trkpt>
      <trkpt lat="44.12639" lon="7.25894">
        <ele>1705</ele>
        <time>2017-09-16T10:10:01Z</time>
      </trkpt>
      <trkpt lat="44.12638" lon="7.25889">
        <ele>1705</ele>
        <time>2017-09-16T10:10:01Z</time>
      </trkpt>
      <trkpt lat="44.12636" lon="7.25883">
        <ele>1705</ele>
        <time>2017-09-16T10:10:01Z</time>
      </trkpt>
      <trkpt lat="44.12635" lon="7.25876">
        <ele>1705</ele>
        <time>2017-09-16T10:10:21Z</time>
      </trkpt>
      <trkpt lat="44.12634" lon="7.25872">
        <ele>1713</ele>
        <time>2017-09-16T10:10:21Z</time>
      </trkpt>
      <trkpt lat="44.12634" lon="7.25868">
        <ele>1713</ele>
        <time>2017-09-16T10:10:21Z</time>
      </trkpt>
      <trkpt lat="44.12633" lon="7.25864">
        <ele>1713</ele>
        <time>2017-09-16T10:10:21Z</time>
      </trkpt>
      <trkpt lat="44.12631" lon="7.25858">
        <ele>1713</ele>
        <time>2017-09-16T10:10:21Z</time>
      </trkpt>
      <trkpt lat="44.1263" lon="7.25856">
        <ele>1713</ele>
        <time>2017-09-16T10:10:41Z</time>
      </trkpt>
      <trkpt lat="44.12629" lon="7.25854">
        <ele>1713</ele>
        <time>2017-09-16T10:10:41Z</time>
      </trkpt>
      <trkpt lat="44.12627" lon="7.25851">
        <ele>1713</ele>
        <time>2017-09-16T10:10:41Z</time>
      </trkpt>
      <trkpt lat="44.12626" lon="7.25846">
        <ele>1713</ele>
        <time>2017-09-16T10:10:41Z</time>
      </trkpt>
      <trkpt lat="44.12623" lon="7.2584">
        <ele>1702</ele>
        <time>2017-09-16T10:10:41Z</time>
      </trkpt>
      <trkpt lat="44.12623" lon="7.25837">
        <ele>1702</ele>
        <time>2017-09-16T10:11:01Z</time>
      </trkpt>
      <trkpt lat="44.12621" lon="7.25833">
        <ele>1702</ele>
        <time>2017-09-16T10:11:01Z</time>
      </trkpt>
      <trkpt lat="44.1262" lon="7.25831">
        <ele>1702</ele>
        <time>2017-09-16T10:11:01Z</time>
      </trkpt>
      <trkpt lat="44.12619" lon="7.25828">
        <ele>1702</ele>
        <time>2017-09-16T10:11:01Z</time>
      </trkpt>
      <trkpt lat="44.12618" lon="7.25824">
        <ele>1702</ele>
        <time>2017-09-16T10:11:01Z</time>
      </trkpt>
      <trkpt lat="44.12617" lon="7.25824">
        <ele>1702</ele>
        <time>2017-09-16T10:11:17Z</time>
      </trkpt>
      <trkpt lat="44.12616" lon="7.25822">
        <ele>1702</ele>
        <time>2017-09-16T10:11:17Z</time>
      </trkpt>
      <trkpt lat="44.12614" lon="7.25815">
        <ele>1702</ele>
        <time>2017-09-16T10:11:17Z</time>
      </trkpt>
      <trkpt lat="44.12613" lon="7.25809">
        <ele>1702</ele>
        <time>2017-09-16T10:11:17Z</time>
      </trkpt>
      <trkpt lat="44.12612" lon="7.25805">
        <ele>1702</ele>
        <time>2017-09-16T10:11:33Z</time>
      </trkpt>
      <trkpt lat="44.12612" lon="7.25798">
        <ele>1702</ele>
        <time>2017-09-16T10:11:33Z</time>
      </trkpt>
      <trkpt lat="44.12611" lon="7.25794">
        <ele>1702</ele>
        <time>2017-09-16T10:11:33Z</time>
      </trkpt>
      <trkpt lat="44.12611" lon="7.2579">
        <ele>1717</ele>
        <time>2017-09-16T10:11:33Z</time>
      </trkpt>
      <trkpt lat="44.12611" lon="7.25785">
        <ele>1717</ele>
        <time>2017-09-16T10:11:53Z</time>
      </trkpt>
      <trkpt lat="44.12611" lon="7.2578">
        <ele>1717</ele>
        <time>2017-09-16T10:11:53Z</time>
      </trkpt>
      <trkpt lat="44.12611" lon="7.25778">
        <ele>1717</ele>
        <time>2017-09-16T10:11:53Z</time>
      </trkpt>
      <trkpt lat="44.12612" lon="7.25773">
        <ele>1717</ele>
        <time>2017-09-16T10:11:53Z</time>
      </trkpt>
      <trkpt lat="44.12612" lon="7.25771">
        <ele>1717</ele>
        <time>2017-09-16T10:11:53Z</time>
      </trkpt>
      <trkpt lat="44.12616" lon="7.25771">
        <ele>1717</ele>
        <time>2017-09-16T10:12:21Z</time>
      </trkpt>
      <trkpt lat="44.12618" lon="7.2577">
        <ele>1717</ele>
        <time>2017-09-16T10:12:21Z</time>
      </trkpt>
      <trkpt lat="44.12619" lon="7.2577">
        <ele>1717</ele>
        <time>2017-09-16T10:12:21Z</time>
      </trkpt>
      <trkpt lat="44.1262" lon="7.25771">
        <ele>1717</ele>
        <time>2017-09-16T10:12:21Z</time>
      </trkpt>
      <trkpt lat="44.12623" lon="7.25771">
        <ele>1717</ele>
        <time>2017-09-16T10:12:21Z</time>
      </trkpt>
      <trkpt lat="44.12626" lon="7.25767">
        <ele>1714</ele>
        <time>2017-09-16T10:12:37Z</time>
      </trkpt>
      <trkpt lat="44.1263" lon="7.25764">
        <ele>1714</ele>
        <time>2017-09-16T10:12:37Z</time>
      </trkpt>
      <trkpt lat="44.12633" lon="7.2576">
        <ele>1714</ele>
        <time>2017-09-16T10:12:37Z</time>
      </trkpt>
      <trkpt lat="44.12636" lon="7.25757">
        <ele>1714</ele>
        <time>2017-09-16T10:12:37Z</time>
      </trkpt>
      <trkpt lat="44.12639" lon="7.25754">
        <ele>1714</ele>
        <time>2017-09-16T10:12:57Z</time>
      </trkpt>
      <trkpt lat="44.12641" lon="7.25755">
        <ele>1714</ele>
        <time>2017-09-16T10:12:57Z</time>
      </trkpt>
      <trkpt lat="44.12642" lon="7.25754">
        <ele>1714</ele>
        <time>2017-09-16T10:12:57Z</time>
      </trkpt>
      <trkpt lat="44.12645" lon="7.25751">
        <ele>1714</ele>
        <time>2017-09-16T10:12:57Z</time>
      </trkpt>
      <trkpt lat="44.12649" lon="7.25746">
        <ele>1714</ele>
        <time>2017-09-16T10:12:57Z</time>
      </trkpt>
      <trkpt lat="44.12652" lon="7.25744">
        <ele>1714</ele>
        <time>2017-09-16T10:13:13Z</time>
      </trkpt>
      <trkpt lat="44.12657" lon="7.25739">
        <ele>1714</ele>
        <time>2017-09-16T10:13:13Z</time>
      </trkpt>
      <trkpt lat="44.12659" lon="7.25733">
        <ele>1714</ele>
        <time>2017-09-16T10:13:13Z</time>
      </trkpt>
      <trkpt lat="44.1266" lon="7.25733">
        <ele>1714</ele>
        <time>2017-09-16T10:13:13Z</time>
      </trkpt>
      <trkpt lat="44.12661" lon="7.25733">
        <ele>1714</ele>
        <time>2017-09-16T10:13:37Z</time>
      </trkpt>
      <trkpt lat="44.12663" lon="7.25731">
        <ele>1714</ele>
        <time>2017-09-16T10:13:37Z</time>
      </trkpt>
      <trkpt lat="44.12666" lon="7.25728">
        <ele>1714</ele>
        <time>2017-09-16T10:13:37Z</time>
      </trkpt>
      <trkpt lat="44.12667" lon="7.25727">
        <ele>1714</ele>
        <time>2017-09-16T10:13:37Z</time>
      </trkpt>
      <trkpt lat="44.1267" lon="7.25723">
        <ele>1714</ele>
        <time>2017-09-16T10:13:37Z</time>
      </trkpt>
      <trkpt lat="44.12675" lon="7.25719">
        <ele>1714</ele>
        <time>2017-09-16T10:14:01Z</time>
      </trkpt>
      <trkpt lat="44.12672" lon="7.25716">
        <ele>1714</ele>
        <time>2017-09-16T10:14:01Z</time>
      </trkpt>
      <trkpt lat="44.12672" lon="7.25714">
        <ele>1714</ele>
        <time>2017-09-16T10:14:01Z</time>
      </trkpt>
      <trkpt lat="44.12675" lon="7.25712">
        <ele>1714</ele>
        <time>2017-09-16T10:14:01Z</time>
      </trkpt>
      <trkpt lat="44.12677" lon="7.25711">
        <ele>1714</ele>
        <time>2017-09-16T10:14:01Z</time>
      </trkpt>
      <trkpt lat="44.12681" lon="7.25708">
        <ele>1719</ele>
        <time>2017-09-16T10:14:21Z</time>
      </trkpt>
      <trkpt lat="44.12683" lon="7.25706">
        <ele>1719</ele>
        <time>2017-09-16T10:14:21Z</time>
      </trkpt>
      <trkpt lat="44.12686" lon="7.25703">
        <ele>1719</ele>
        <time>2017-09-16T10:14:21Z</time>
      </trkpt>
      <trkpt lat="44.12687" lon="7.25702">
        <ele>1719</ele>
        <time>2017-09-16T10:14:21Z</time>
      </trkpt>
      <trkpt lat="44.12689" lon="7.257">
        <ele>1719</ele>
        <time>2017-09-16T10:14:21Z</time>
      </trkpt>
      <trkpt lat="44.12693" lon="7.25696">
        <ele>1719</ele>
        <time>2017-09-16T10:14:45Z</time>
      </trkpt>
      <trkpt lat="44.12697" lon="7.25693">
        <ele>1719</ele>
        <time>2017-09-16T10:14:45Z</time>
      </trkpt>
      <trkpt lat="44.12697" lon="7.25693">
        <ele>1719</ele>
        <time>2017-09-16T10:14:45Z</time>
      </trkpt>
      <trkpt lat="44.12698" lon="7.25692">
        <ele>1719</ele>
        <time>2017-09-16T10:14:45Z</time>
      </trkpt>
      <trkpt lat="44.12699" lon="7.25691">
        <ele>1719</ele>
        <time>2017-09-16T10:14:45Z</time>
      </trkpt>
      <trkpt lat="44.12697" lon="7.25686">
        <ele>1719</ele>
        <time>2017-09-16T10:15:05Z</time>
      </trkpt>
      <trkpt lat="44.12697" lon="7.25685">
        <ele>1719</ele>
        <time>2017-09-16T10:15:05Z</time>
      </trkpt>
      <trkpt lat="44.12699" lon="7.25683">
        <ele>1719</ele>
        <time>2017-09-16T10:15:05Z</time>
      </trkpt>
      <trkpt lat="44.12702" lon="7.25679">
        <ele>1719</ele>
        <time>2017-09-16T10:15:05Z</time>
      </trkpt>
      <trkpt lat="44.12703" lon="7.25676">
        <ele>1719</ele>
        <time>2017-09-16T10:15:05Z</time>
      </trkpt>
      <trkpt lat="44.12707" lon="7.25669">
        <ele>1719</ele>
        <time>2017-09-16T10:15:25Z</time>
      </trkpt>
      <trkpt lat="44.12707" lon="7.25666">
        <ele>1719</ele>
        <time>2017-09-16T10:15:25Z</time>
      </trkpt>
      <trkpt lat="44.12707" lon="7.25663">
        <ele>1719</ele>
        <time>2017-09-16T10:15:25Z</time>
      </trkpt>
      <trkpt lat="44.12709" lon="7.25659">
        <ele>1740</ele>
        <time>2017-09-16T10:15:25Z</time>
      </trkpt>
      <trkpt lat="44.12708" lon="7.25654">
        <ele>1719</ele>
        <time>2017-09-16T10:15:25Z</time>
      </trkpt>
      <trkpt lat="44.1271" lon="7.2565">
        <ele>1740</ele>
        <time>2017-09-16T10:15:41Z</time>
      </trkpt>
      <trkpt lat="44.12711" lon="7.25646">
        <ele>1740</ele>
        <time>2017-09-16T10:15:41Z</time>
      </trkpt>
      <trkpt lat="44.12711" lon="7.25642">
        <ele>1740</ele>
        <time>2017-09-16T10:15:41Z</time>
      </trkpt>
      <trkpt lat="44.12712" lon="7.25637">
        <ele>1740</ele>
        <time>2017-09-16T10:15:41Z</time>
      </trkpt>
      <trkpt lat="44.12711" lon="7.25632">
        <ele>1740</ele>
        <time>2017-09-16T10:15:57Z</time>
      </trkpt>
      <trkpt lat="44.12712" lon="7.25626">
        <ele>1740</ele>
        <time>2017-09-16T10:15:57Z</time>
      </trkpt>
      <trkpt lat="44.12714" lon="7.2562">
        <ele>1749</ele>
        <time>2017-09-16T10:15:57Z</time>
      </trkpt>
      <trkpt lat="44.12714" lon="7.25617">
        <ele>1749</ele>
        <time>2017-09-16T10:15:57Z</time>
      </trkpt>
      <trkpt lat="44.12714" lon="7.25614">
        <ele>1749</ele>
        <time>2017-09-16T10:16:13Z</time>
      </trkpt>
      <trkpt lat="44.12715" lon="7.25608">
        <ele>1749</ele>
        <time>2017-09-16T10:16:13Z</time>
      </trkpt>
      <trkpt lat="44.12716" lon="7.25603">
        <ele>1749</ele>
        <time>2017-09-16T10:16:13Z</time>
      </trkpt>
      <trkpt lat="44.12718" lon="7.25599">
        <ele>1749</ele>
        <time>2017-09-16T10:16:13Z</time>
      </trkpt>
      <trkpt lat="44.12717" lon="7.25596">
        <ele>1749</ele>
        <time>2017-09-16T10:16:33Z</time>
      </trkpt>
      <trkpt lat="44.12715" lon="7.25593">
        <ele>1749</ele>
        <time>2017-09-16T10:16:33Z</time>
      </trkpt>
      <trkpt lat="44.12713" lon="7.25589">
        <ele>1749</ele>
        <time>2017-09-16T10:16:33Z</time>
      </trkpt>
      <trkpt lat="44.12713" lon="7.25585">
        <ele>1749</ele>
        <time>2017-09-16T10:16:33Z</time>
      </trkpt>
      <trkpt lat="44.12713" lon="7.25582">
        <ele>1749</ele>
        <time>2017-09-16T10:16:33Z</time>
      </trkpt>
      <trkpt lat="44.12713" lon="7.2558">
        <ele>1749</ele>
        <time>2017-09-16T10:16:49Z</time>
      </trkpt>
      <trkpt lat="44.12714" lon="7.25576">
        <ele>1749</ele>
        <time>2017-09-16T10:16:49Z</time>
      </trkpt>
      <trkpt lat="44.12714" lon="7.25572">
        <ele>1749</ele>
        <time>2017-09-16T10:16:49Z</time>
      </trkpt>
      <trkpt lat="44.12715" lon="7.25568">
        <ele>1749</ele>
        <time>2017-09-16T10:16:49Z</time>
      </trkpt>
      <trkpt lat="44.12717" lon="7.2556">
        <ele>1749</ele>
        <time>2017-09-16T10:17:13Z</time>
      </trkpt>
      <trkpt lat="44.12716" lon="7.25557">
        <ele>1749</ele>
        <time>2017-09-16T10:17:13Z</time>
      </trkpt>
      <trkpt lat="44.12715" lon="7.25553">
        <ele>1749</ele>
        <time>2017-09-16T10:17:13Z</time>
      </trkpt>
      <trkpt lat="44.12714" lon="7.25551">
        <ele>1749</ele>
        <time>2017-09-16T10:17:13Z</time>
      </trkpt>
      <trkpt lat="44.12714" lon="7.25549">
        <ele>1749</ele>
        <time>2017-09-16T10:17:13Z</time>
      </trkpt>
      <trkpt lat="44.12713" lon="7.25544">
        <ele>1749</ele>
        <time>2017-09-16T10:17:33Z</time>
      </trkpt>
      <trkpt lat="44.12712" lon="7.25541">
        <ele>1759</ele>
        <time>2017-09-16T10:17:33Z</time>
      </trkpt>
      <trkpt lat="44.12712" lon="7.25537">
        <ele>1759</ele>
        <time>2017-09-16T10:17:33Z</time>
      </trkpt>
      <trkpt lat="44.12712" lon="7.25533">
        <ele>1759</ele>
        <time>2017-09-16T10:17:33Z</time>
      </trkpt>
      <trkpt lat="44.12713" lon="7.2553">
        <ele>1759</ele>
        <time>2017-09-16T10:17:33Z</time>
      </trkpt>
      <trkpt lat="44.12714" lon="7.25524">
        <ele>1759</ele>
        <time>2017-09-16T10:17:57Z</time>
      </trkpt>
      <trkpt lat="44.12713" lon="7.25523">
        <ele>1759</ele>
        <time>2017-09-16T10:17:57Z</time>
      </trkpt>
      <trkpt lat="44.12713" lon="7.25522">
        <ele>1759</ele>
        <time>2017-09-16T10:17:57Z</time>
      </trkpt>
      <trkpt lat="44.12714" lon="7.25518">
        <ele>1759</ele>
        <time>2017-09-16T10:17:57Z</time>
      </trkpt>
      <trkpt lat="44.12715" lon="7.25512">
        <ele>1759</ele>
        <time>2017-09-16T10:17:57Z</time>
      </trkpt>
      <trkpt lat="44.12716" lon="7.25501">
        <ele>1759</ele>
        <time>2017-09-16T10:18:41Z</time>
      </trkpt>
      <trkpt lat="44.12717" lon="7.25499">
        <ele>1759</ele>
        <time>2017-09-16T10:18:41Z</time>
      </trkpt>
      <trkpt lat="44.12717" lon="7.25498">
        <ele>1759</ele>
        <time>2017-09-16T10:18:41Z</time>
      </trkpt>
      <trkpt lat="44.12717" lon="7.25495">
        <ele>1759</ele>
        <time>2017-09-16T10:18:41Z</time>
      </trkpt>
      <trkpt lat="44.12717" lon="7.25494">
        <ele>1759</ele>
        <time>2017-09-16T10:18:41Z</time>
      </trkpt>
      <trkpt lat="44.12715" lon="7.25489">
        <ele>1759</ele>
        <time>2017-09-16T10:19:09Z</time>
      </trkpt>
      <trkpt lat="44.12714" lon="7.25486">
        <ele>1759</ele>
        <time>2017-09-16T10:19:09Z</time>
      </trkpt>
      <trkpt lat="44.12713" lon="7.25483">
        <ele>1759</ele>
        <time>2017-09-16T10:19:09Z</time>
      </trkpt>
      <trkpt lat="44.12712" lon="7.25483">
        <ele>1759</ele>
        <time>2017-09-16T10:19:09Z</time>
      </trkpt>
      <trkpt lat="44.1271" lon="7.25483">
        <ele>1759</ele>
        <time>2017-09-16T10:19:09Z</time>
      </trkpt>
      <trkpt lat="44.12708" lon="7.2548">
        <ele>1737</ele>
        <time>2017-09-16T10:19:29Z</time>
      </trkpt>
      <trkpt lat="44.12707" lon="7.25475">
        <ele>1737</ele>
        <time>2017-09-16T10:19:29Z</time>
      </trkpt>
      <trkpt lat="44.12706" lon="7.25471">
        <ele>1737</ele>
        <time>2017-09-16T10:19:29Z</time>
      </trkpt>
      <trkpt lat="44.12707" lon="7.25469">
        <ele>1737</ele>
        <time>2017-09-16T10:19:29Z</time>
      </trkpt>
      <trkpt lat="44.12708" lon="7.25467">
        <ele>1737</ele>
        <time>2017-09-16T10:19:29Z</time>
      </trkpt>
      <trkpt lat="44.1271" lon="7.25462">
        <ele>1759</ele>
        <time>2017-09-16T10:20:01Z</time>
      </trkpt>
      <trkpt lat="44.12711" lon="7.2546">
        <ele>1759</ele>
        <time>2017-09-16T10:20:01Z</time>
      </trkpt>
      <trkpt lat="44.12711" lon="7.2546">
        <ele>1759</ele>
        <time>2017-09-16T10:20:01Z</time>
      </trkpt>
      <trkpt lat="44.12713" lon="7.25457">
        <ele>1759</ele>
        <time>2017-09-16T10:20:01Z</time>
      </trkpt>
      <trkpt lat="44.12716" lon="7.25455">
        <ele>1759</ele>
        <time>2017-09-16T10:20:01Z</time>
      </trkpt>
      <trkpt lat="44.12716" lon="7.25452">
        <ele>1759</ele>
        <time>2017-09-16T10:20:21Z</time>
      </trkpt>
      <trkpt lat="44.12717" lon="7.25451">
        <ele>1759</ele>
        <time>2017-09-16T10:20:21Z</time>
      </trkpt>
      <trkpt lat="44.12718" lon="7.25449">
        <ele>1759</ele>
        <time>2017-09-16T10:20:21Z</time>
      </trkpt>
      <trkpt lat="44.12721" lon="7.25445">
        <ele>1759</ele>
        <time>2017-09-16T10:20:21Z</time>
      </trkpt>
      <trkpt lat="44.12723" lon="7.25442">
        <ele>1759</ele>
        <time>2017-09-16T10:20:21Z</time>
      </trkpt>
      <trkpt lat="44.12724" lon="7.25439">
        <ele>1759</ele>
        <time>2017-09-16T10:20:45Z</time>
      </trkpt>
      <trkpt lat="44.12724" lon="7.25438">
        <ele>1759</ele>
        <time>2017-09-16T10:20:45Z</time>
      </trkpt>
      <trkpt lat="44.12726" lon="7.25433">
        <ele>1759</ele>
        <time>2017-09-16T10:20:45Z</time>
      </trkpt>
      <trkpt lat="44.12728" lon="7.2543">
        <ele>1759</ele>
        <time>2017-09-16T10:20:45Z</time>
      </trkpt>
      <trkpt lat="44.12728" lon="7.25427">
        <ele>1759</ele>
        <time>2017-09-16T10:20:45Z</time>
      </trkpt>
      <trkpt lat="44.1273" lon="7.25424">
        <ele>1759</ele>
        <time>2017-09-16T10:21:01Z</time>
      </trkpt>
      <trkpt lat="44.12735" lon="7.25419">
        <ele>1759</ele>
        <time>2017-09-16T10:21:01Z</time>
      </trkpt>
      <trkpt lat="44.12738" lon="7.25415">
        <ele>1759</ele>
        <time>2017-09-16T10:21:01Z</time>
      </trkpt>
      <trkpt lat="44.1274" lon="7.25412">
        <ele>1759</ele>
        <time>2017-09-16T10:21:01Z</time>
      </trkpt>
      <trkpt lat="44.12746" lon="7.25406">
        <ele>1759</ele>
        <time>2017-09-16T10:21:25Z</time>
      </trkpt>
      <trkpt lat="44.12746" lon="7.25403">
        <ele>1759</ele>
        <time>2017-09-16T10:21:25Z</time>
      </trkpt>
      <trkpt lat="44.12747" lon="7.25402">
        <ele>1759</ele>
        <time>2017-09-16T10:21:25Z</time>
      </trkpt>
      <trkpt lat="44.12748" lon="7.254">
        <ele>1759</ele>
        <time>2017-09-16T10:21:25Z</time>
      </trkpt>
      <trkpt lat="44.1275" lon="7.25399">
        <ele>1759</ele>
        <time>2017-09-16T10:21:25Z</time>
      </trkpt>
      <trkpt lat="44.12751" lon="7.25395">
        <ele>1759</ele>
        <time>2017-09-16T10:21:53Z</time>
      </trkpt>
      <trkpt lat="44.1275" lon="7.25393">
        <ele>1759</ele>
        <time>2017-09-16T10:21:53Z</time>
      </trkpt>
      <trkpt lat="44.1275" lon="7.2539">
        <ele>1759</ele>
        <time>2017-09-16T10:21:53Z</time>
      </trkpt>
      <trkpt lat="44.12751" lon="7.25387">
        <ele>1759</ele>
        <time>2017-09-16T10:21:53Z</time>
      </trkpt>
      <trkpt lat="44.1275" lon="7.25384">
        <ele>1759</ele>
        <time>2017-09-16T10:21:53Z</time>
      </trkpt>
      <trkpt lat="44.12752" lon="7.2538">
        <ele>1759</ele>
        <time>2017-09-16T10:22:09Z</time>
      </trkpt>
      <trkpt lat="44.12754" lon="7.25376">
        <ele>1759</ele>
        <time>2017-09-16T10:22:09Z</time>
      </trkpt>
      <trkpt lat="44.12755" lon="7.25372">
        <ele>1766</ele>
        <time>2017-09-16T10:22:09Z</time>
      </trkpt>
      <trkpt lat="44.12757" lon="7.25368">
        <ele>1766</ele>
        <time>2017-09-16T10:22:09Z</time>
      </trkpt>
      <trkpt lat="44.12758" lon="7.25365">
        <ele>1766</ele>
        <time>2017-09-16T10:22:25Z</time>
      </trkpt>
      <trkpt lat="44.1276" lon="7.25363">
        <ele>1766</ele>
        <time>2017-09-16T10:22:25Z</time>
      </trkpt>
      <trkpt lat="44.12762" lon="7.2536">
        <ele>1766</ele>
        <time>2017-09-16T10:22:25Z</time>
      </trkpt>
      <trkpt lat="44.12765" lon="7.25356">
        <ele>1766</ele>
        <time>2017-09-16T10:22:25Z</time>
      </trkpt>
      <trkpt lat="44.12769" lon="7.25346">
        <ele>1766</ele>
        <time>2017-09-16T10:23:17Z</time>
      </trkpt>
      <trkpt lat="44.1277" lon="7.25342">
        <ele>1766</ele>
        <time>2017-09-16T10:23:17Z</time>
      </trkpt>
      <trkpt lat="44.1277" lon="7.25339">
        <ele>1766</ele>
        <time>2017-09-16T10:23:17Z</time>
      </trkpt>
      <trkpt lat="44.12772" lon="7.25336">
        <ele>1766</ele>
        <time>2017-09-16T10:23:17Z</time>
      </trkpt>
      <trkpt lat="44.12771" lon="7.25333">
        <ele>1766</ele>
        <time>2017-09-16T10:23:17Z</time>
      </trkpt>
      <trkpt lat="44.12769" lon="7.25331">
        <ele>1766</ele>
        <time>2017-09-16T10:23:37Z</time>
      </trkpt>
      <trkpt lat="44.1277" lon="7.25327">
        <ele>1766</ele>
        <time>2017-09-16T10:23:37Z</time>
      </trkpt>
      <trkpt lat="44.12772" lon="7.25323">
        <ele>1766</ele>
        <time>2017-09-16T10:23:37Z</time>
      </trkpt>
      <trkpt lat="44.12773" lon="7.25321">
        <ele>1766</ele>
        <time>2017-09-16T10:23:37Z</time>
      </trkpt>
      <trkpt lat="44.12774" lon="7.25319">
        <ele>1766</ele>
        <time>2017-09-16T10:23:37Z</time>
      </trkpt>
      <trkpt lat="44.12775" lon="7.25318">
        <ele>1766</ele>
        <time>2017-09-16T10:24:01Z</time>
      </trkpt>
      <trkpt lat="44.12777" lon="7.25315">
        <ele>1766</ele>
        <time>2017-09-16T10:24:01Z</time>
      </trkpt>
      <trkpt lat="44.12777" lon="7.25315">
        <ele>1766</ele>
        <time>2017-09-16T10:24:01Z</time>
      </trkpt>
      <trkpt lat="44.1278" lon="7.25312">
        <ele>1766</ele>
        <time>2017-09-16T10:24:01Z</time>
      </trkpt>
      <trkpt lat="44.12784" lon="7.25306">
        <ele>1766</ele>
        <time>2017-09-16T10:24:01Z</time>
      </trkpt>
      <trkpt lat="44.12788" lon="7.25299">
        <ele>1766</ele>
        <time>2017-09-16T10:24:29Z</time>
      </trkpt>
      <trkpt lat="44.1279" lon="7.25296">
        <ele>1766</ele>
        <time>2017-09-16T10:24:29Z</time>
      </trkpt>
      <trkpt lat="44.12791" lon="7.25295">
        <ele>1766</ele>
        <time>2017-09-16T10:24:29Z</time>
      </trkpt>
      <trkpt lat="44.12791" lon="7.25296">
        <ele>1766</ele>
        <time>2017-09-16T10:24:29Z</time>
      </trkpt>
      <trkpt lat="44.12792" lon="7.25294">
        <ele>1782</ele>
        <time>2017-09-16T10:24:29Z</time>
      </trkpt>
      <trkpt lat="44.12792" lon="7.25289">
        <ele>1787</ele>
        <time>2017-09-16T10:24:57Z</time>
      </trkpt>
      <trkpt lat="44.12792" lon="7.25288">
        <ele>1787</ele>
        <time>2017-09-16T10:24:57Z</time>
      </trkpt>
      <trkpt lat="44.12795" lon="7.25286">
        <ele>1787</ele>
        <time>2017-09-16T10:24:57Z</time>
      </trkpt>
      <trkpt lat="44.12797" lon="7.25283">
        <ele>1787</ele>
        <time>2017-09-16T10:24:57Z</time>
      </trkpt>
      <trkpt lat="44.12801" lon="7.25279">
        <ele>1787</ele>
        <time>2017-09-16T10:24:57Z</time>
      </trkpt>
      <trkpt lat="44.12802" lon="7.25277">
        <ele>1787</ele>
        <time>2017-09-16T10:25:41Z</time>
      </trkpt>
      <trkpt lat="44.12802" lon="7.25277">
        <ele>1787</ele>
        <time>2017-09-16T10:25:41Z</time>
      </trkpt>
      <trkpt lat="44.12803" lon="7.25272">
        <ele>1787</ele>
        <time>2017-09-16T10:25:41Z</time>
      </trkpt>
      <trkpt lat="44.12808" lon="7.25267">
        <ele>1787</ele>
        <time>2017-09-16T10:25:41Z</time>
      </trkpt>
      <trkpt lat="44.12811" lon="7.25264">
        <ele>1787</ele>
        <time>2017-09-16T10:25:41Z</time>
      </trkpt>
      <trkpt lat="44.12813" lon="7.25257">
        <ele>1787</ele>
        <time>2017-09-16T10:27:09Z</time>
      </trkpt>
      <trkpt lat="44.12813" lon="7.25256">
        <ele>1787</ele>
        <time>2017-09-16T10:27:09Z</time>
      </trkpt>
      <trkpt lat="44.12815" lon="7.25255">
        <ele>1787</ele>
        <time>2017-09-16T10:27:09Z</time>
      </trkpt>
      <trkpt lat="44.12817" lon="7.25251">
        <ele>1787</ele>
        <time>2017-09-16T10:27:09Z</time>
      </trkpt>
      <trkpt lat="44.12817" lon="7.2525">
        <ele>1787</ele>
        <time>2017-09-16T10:27:09Z</time>
      </trkpt>
      <trkpt lat="44.12818" lon="7.25249">
        <ele>1787</ele>
        <time>2017-09-16T10:27:29Z</time>
      </trkpt>
      <trkpt lat="44.12819" lon="7.25247">
        <ele>1787</ele>
        <time>2017-09-16T10:27:29Z</time>
      </trkpt>
      <trkpt lat="44.12821" lon="7.25245">
        <ele>1787</ele>
        <time>2017-09-16T10:27:29Z</time>
      </trkpt>
      <trkpt lat="44.12822" lon="7.25241">
        <ele>1787</ele>
        <time>2017-09-16T10:27:29Z</time>
      </trkpt>
      <trkpt lat="44.12825" lon="7.25236">
        <ele>1787</ele>
        <time>2017-09-16T10:27:29Z</time>
      </trkpt>
      <trkpt lat="44.12829" lon="7.25229">
        <ele>1787</ele>
        <time>2017-09-16T10:28:09Z</time>
      </trkpt>
      <trkpt lat="44.1283" lon="7.25227">
        <ele>1787</ele>
        <time>2017-09-16T10:28:09Z</time>
      </trkpt>
      <trkpt lat="44.12833" lon="7.25222">
        <ele>1787</ele>
        <time>2017-09-16T10:28:09Z</time>
      </trkpt>
      <trkpt lat="44.12836" lon="7.25217">
        <ele>1787</ele>
        <time>2017-09-16T10:28:09Z</time>
      </trkpt>
      <trkpt lat="44.12838" lon="7.25214">
        <ele>1787</ele>
        <time>2017-09-16T10:28:09Z</time>
      </trkpt>
      <trkpt lat="44.12839" lon="7.2521">
        <ele>1787</ele>
        <time>2017-09-16T10:28:33Z</time>
      </trkpt>
      <trkpt lat="44.12842" lon="7.25206">
        <ele>1801</ele>
        <time>2017-09-16T10:28:33Z</time>
      </trkpt>
      <trkpt lat="44.12841" lon="7.25204">
        <ele>1801</ele>
        <time>2017-09-16T10:28:33Z</time>
      </trkpt>
      <trkpt lat="44.1284" lon="7.25204">
        <ele>1801</ele>
        <time>2017-09-16T10:28:33Z</time>
      </trkpt>
      <trkpt lat="44.12842" lon="7.252">
        <ele>1801</ele>
        <time>2017-09-16T10:28:33Z</time>
      </trkpt>
      <trkpt lat="44.12842" lon="7.25196">
        <ele>1801</ele>
        <time>2017-09-16T10:28:49Z</time>
      </trkpt>
      <trkpt lat="44.12842" lon="7.25192">
        <ele>1801</ele>
        <time>2017-09-16T10:28:49Z</time>
      </trkpt>
      <trkpt lat="44.12842" lon="7.25185">
        <ele>1801</ele>
        <time>2017-09-16T10:28:49Z</time>
      </trkpt>
      <trkpt lat="44.12842" lon="7.25184">
        <ele>1801</ele>
        <time>2017-09-16T10:28:49Z</time>
      </trkpt>
      <trkpt lat="44.12843" lon="7.25183">
        <ele>1801</ele>
        <time>2017-09-16T10:29:09Z</time>
      </trkpt>
      <trkpt lat="44.12844" lon="7.25181">
        <ele>1801</ele>
        <time>2017-09-16T10:29:09Z</time>
      </trkpt>
      <trkpt lat="44.12844" lon="7.25177">
        <ele>1801</ele>
        <time>2017-09-16T10:29:09Z</time>
      </trkpt>
      <trkpt lat="44.12846" lon="7.25172">
        <ele>1801</ele>
        <time>2017-09-16T10:29:09Z</time>
      </trkpt>
      <trkpt lat="44.12846" lon="7.25168">
        <ele>1801</ele>
        <time>2017-09-16T10:29:09Z</time>
      </trkpt>
      <trkpt lat="44.12847" lon="7.25165">
        <ele>1801</ele>
        <time>2017-09-16T10:29:25Z</time>
      </trkpt>
      <trkpt lat="44.12847" lon="7.25163">
        <ele>1801</ele>
        <time>2017-09-16T10:29:25Z</time>
      </trkpt>
      <trkpt lat="44.12847" lon="7.25158">
        <ele>1801</ele>
        <time>2017-09-16T10:29:25Z</time>
      </trkpt>
      <trkpt lat="44.12847" lon="7.25152">
        <ele>1801</ele>
        <time>2017-09-16T10:29:25Z</time>
      </trkpt>
      <trkpt lat="44.12849" lon="7.25144">
        <ele>1801</ele>
        <time>2017-09-16T10:29:57Z</time>
      </trkpt>
      <trkpt lat="44.12849" lon="7.25142">
        <ele>1801</ele>
        <time>2017-09-16T10:29:57Z</time>
      </trkpt>
      <trkpt lat="44.1285" lon="7.25142">
        <ele>1801</ele>
        <time>2017-09-16T10:29:57Z</time>
      </trkpt>
      <trkpt lat="44.12849" lon="7.25139">
        <ele>1801</ele>
        <time>2017-09-16T10:29:57Z</time>
      </trkpt>
      <trkpt lat="44.12848" lon="7.25135">
        <ele>1801</ele>
        <time>2017-09-16T10:29:57Z</time>
      </trkpt>
      <trkpt lat="44.12848" lon="7.25133">
        <ele>1801</ele>
        <time>2017-09-16T10:30:13Z</time>
      </trkpt>
      <trkpt lat="44.12851" lon="7.25134">
        <ele>1801</ele>
        <time>2017-09-16T10:30:13Z</time>
      </trkpt>
      <trkpt lat="44.12857" lon="7.2513">
        <ele>1801</ele>
        <time>2017-09-16T10:30:13Z</time>
      </trkpt>
      <trkpt lat="44.12863" lon="7.25126">
        <ele>1801</ele>
        <time>2017-09-16T10:30:13Z</time>
      </trkpt>
      <trkpt lat="44.12868" lon="7.25123">
        <ele>1816</ele>
        <time>2017-09-16T10:30:29Z</time>
      </trkpt>
      <trkpt lat="44.12871" lon="7.25121">
        <ele>1816</ele>
        <time>2017-09-16T10:30:29Z</time>
      </trkpt>
      <trkpt lat="44.12874" lon="7.25118">
        <ele>1816</ele>
        <time>2017-09-16T10:30:29Z</time>
      </trkpt>
      <trkpt lat="44.12876" lon="7.25115">
        <ele>1814</ele>
        <time>2017-09-16T10:30:29Z</time>
      </trkpt>
      <trkpt lat="44.12877" lon="7.25113">
        <ele>1814</ele>
        <time>2017-09-16T10:30:45Z</time>
      </trkpt>
      <trkpt lat="44.1288" lon="7.25112">
        <ele>1814</ele>
        <time>2017-09-16T10:30:45Z</time>
      </trkpt>
      <trkpt lat="44.12884" lon="7.25109">
        <ele>1814</ele>
        <time>2017-09-16T10:30:45Z</time>
      </trkpt>
      <trkpt lat="44.12887" lon="7.25106">
        <ele>1814</ele>
        <time>2017-09-16T10:30:45Z</time>
      </trkpt>
      <trkpt lat="44.12885" lon="7.25102">
        <ele>1814</ele>
        <time>2017-09-16T10:31:17Z</time>
      </trkpt>
      <trkpt lat="44.12887" lon="7.25099">
        <ele>1814</ele>
        <time>2017-09-16T10:31:17Z</time>
      </trkpt>
      <trkpt lat="44.12889" lon="7.25096">
        <ele>1814</ele>
        <time>2017-09-16T10:31:17Z</time>
      </trkpt>
      <trkpt lat="44.12889" lon="7.25093">
        <ele>1814</ele>
        <time>2017-09-16T10:31:17Z</time>
      </trkpt>
      <trkpt lat="44.12893" lon="7.25088">
        <ele>1814</ele>
        <time>2017-09-16T10:31:17Z</time>
      </trkpt>
      <trkpt lat="44.12896" lon="7.25084">
        <ele>1814</ele>
        <time>2017-09-16T10:31:41Z</time>
      </trkpt>
      <trkpt lat="44.12899" lon="7.25079">
        <ele>1814</ele>
        <time>2017-09-16T10:31:41Z</time>
      </trkpt>
      <trkpt lat="44.129" lon="7.25077">
        <ele>1814</ele>
        <time>2017-09-16T10:31:41Z</time>
      </trkpt>
      <trkpt lat="44.129" lon="7.25076">
        <ele>1814</ele>
        <time>2017-09-16T10:31:41Z</time>
      </trkpt>
      <trkpt lat="44.12902" lon="7.25072">
        <ele>1814</ele>
        <time>2017-09-16T10:31:41Z</time>
      </trkpt>
      <trkpt lat="44.12901" lon="7.25071">
        <ele>1814</ele>
        <time>2017-09-16T10:32:01Z</time>
      </trkpt>
      <trkpt lat="44.12903" lon="7.2507">
        <ele>1814</ele>
        <time>2017-09-16T10:32:01Z</time>
      </trkpt>
      <trkpt lat="44.12906" lon="7.25066">
        <ele>1814</ele>
        <time>2017-09-16T10:32:01Z</time>
      </trkpt>
      <trkpt lat="44.12907" lon="7.25064">
        <ele>1814</ele>
        <time>2017-09-16T10:32:01Z</time>
      </trkpt>
      <trkpt lat="44.12909" lon="7.25062">
        <ele>1814</ele>
        <time>2017-09-16T10:32:01Z</time>
      </trkpt>
      <trkpt lat="44.12906" lon="7.2506">
        <ele>1814</ele>
        <time>2017-09-16T10:32:25Z</time>
      </trkpt>
      <trkpt lat="44.12905" lon="7.25058">
        <ele>1814</ele>
        <time>2017-09-16T10:32:25Z</time>
      </trkpt>
      <trkpt lat="44.12904" lon="7.25056">
        <ele>1814</ele>
        <time>2017-09-16T10:32:25Z</time>
      </trkpt>
      <trkpt lat="44.12904" lon="7.25052">
        <ele>1814</ele>
        <time>2017-09-16T10:32:25Z</time>
      </trkpt>
      <trkpt lat="44.12902" lon="7.25047">
        <ele>1814</ele>
        <time>2017-09-16T10:32:25Z</time>
      </trkpt>
      <trkpt lat="44.12901" lon="7.25042">
        <ele>1814</ele>
        <time>2017-09-16T10:32:41Z</time>
      </trkpt>
      <trkpt lat="44.129" lon="7.25037">
        <ele>1825</ele>
        <time>2017-09-16T10:32:41Z</time>
      </trkpt>
      <trkpt lat="44.12901" lon="7.25033">
        <ele>1825</ele>
        <time>2017-09-16T10:32:41Z</time>
      </trkpt>
      <trkpt lat="44.12903" lon="7.25027">
        <ele>1825</ele>
        <time>2017-09-16T10:32:41Z</time>
      </trkpt>
      <trkpt lat="44.12905" lon="7.2502">
        <ele>1825</ele>
        <time>2017-09-16T10:33:09Z</time>
      </trkpt>
      <trkpt lat="44.12905" lon="7.25018">
        <ele>1825</ele>
        <time>2017-09-16T10:33:09Z</time>
      </trkpt>
      <trkpt lat="44.12906" lon="7.25016">
        <ele>1825</ele>
        <time>2017-09-16T10:33:09Z</time>
      </trkpt>
      <trkpt lat="44.12908" lon="7.25014">
        <ele>1825</ele>
        <time>2017-09-16T10:33:09Z</time>
      </trkpt>
      <trkpt lat="44.12909" lon="7.25011">
        <ele>1825</ele>
        <time>2017-09-16T10:33:09Z</time>
      </trkpt>
      <trkpt lat="44.12911" lon="7.25012">
        <ele>1825</ele>
        <time>2017-09-16T10:33:29Z</time>
      </trkpt>
      <trkpt lat="44.12912" lon="7.25007">
        <ele>1825</ele>
        <time>2017-09-16T10:33:29Z</time>
      </trkpt>
      <trkpt lat="44.12913" lon="7.25007">
        <ele>1825</ele>
        <time>2017-09-16T10:33:29Z</time>
      </trkpt>
      <trkpt lat="44.12914" lon="7.25004">
        <ele>1825</ele>
        <time>2017-09-16T10:33:29Z</time>
      </trkpt>
      <trkpt lat="44.12915" lon="7.25">
        <ele>1825</ele>
        <time>2017-09-16T10:33:29Z</time>
      </trkpt>
      <trkpt lat="44.12916" lon="7.24993">
        <ele>1825</ele>
        <time>2017-09-16T10:33:53Z</time>
      </trkpt>
      <trkpt lat="44.12917" lon="7.24992">
        <ele>1825</ele>
        <time>2017-09-16T10:33:53Z</time>
      </trkpt>
      <trkpt lat="44.12919" lon="7.2499">
        <ele>1825</ele>
        <time>2017-09-16T10:33:53Z</time>
      </trkpt>
      <trkpt lat="44.1292" lon="7.24989">
        <ele>1825</ele>
        <time>2017-09-16T10:33:53Z</time>
      </trkpt>
      <trkpt lat="44.12922" lon="7.24987">
        <ele>1825</ele>
        <time>2017-09-16T10:33:53Z</time>
      </trkpt>
      <trkpt lat="44.12929" lon="7.24985">
        <ele>1825</ele>
        <time>2017-09-16T10:34:09Z</time>
      </trkpt>
      <trkpt lat="44.12935" lon="7.24983">
        <ele>1825</ele>
        <time>2017-09-16T10:34:09Z</time>
      </trkpt>
      <trkpt lat="44.12938" lon="7.24983">
        <ele>1825</ele>
        <time>2017-09-16T10:34:09Z</time>
      </trkpt>
      <trkpt lat="44.12942" lon="7.24982">
        <ele>1825</ele>
        <time>2017-09-16T10:34:09Z</time>
      </trkpt>
      <trkpt lat="44.12944" lon="7.2498">
        <ele>1825</ele>
        <time>2017-09-16T10:34:29Z</time>
      </trkpt>
      <trkpt lat="44.12947" lon="7.24978">
        <ele>1825</ele>
        <time>2017-09-16T10:34:29Z</time>
      </trkpt>
      <trkpt lat="44.1295" lon="7.24976">
        <ele>1825</ele>
        <time>2017-09-16T10:34:29Z</time>
      </trkpt>
      <trkpt lat="44.12951" lon="7.24975">
        <ele>1825</ele>
        <time>2017-09-16T10:34:29Z</time>
      </trkpt>
      <trkpt lat="44.12953" lon="7.24973">
        <ele>1825</ele>
        <time>2017-09-16T10:34:29Z</time>
      </trkpt>
      <trkpt lat="44.12955" lon="7.24972">
        <ele>1825</ele>
        <time>2017-09-16T10:34:49Z</time>
      </trkpt>
      <trkpt lat="44.12956" lon="7.2497">
        <ele>1825</ele>
        <time>2017-09-16T10:34:49Z</time>
      </trkpt>
      <trkpt lat="44.12957" lon="7.24969">
        <ele>1825</ele>
        <time>2017-09-16T10:34:49Z</time>
      </trkpt>
      <trkpt lat="44.12959" lon="7.24964">
        <ele>1835</ele>
        <time>2017-09-16T10:34:49Z</time>
      </trkpt>
      <trkpt lat="44.12962" lon="7.2496">
        <ele>1835</ele>
        <time>2017-09-16T10:34:49Z</time>
      </trkpt>
      <trkpt lat="44.12963" lon="7.24955">
        <ele>1839</ele>
        <time>2017-09-16T10:35:13Z</time>
      </trkpt>
      <trkpt lat="44.12963" lon="7.24955">
        <ele>1839</ele>
        <time>2017-09-16T10:35:13Z</time>
      </trkpt>
      <trkpt lat="44.12966" lon="7.24952">
        <ele>1839</ele>
        <time>2017-09-16T10:35:13Z</time>
      </trkpt>
      <trkpt lat="44.12967" lon="7.24951">
        <ele>1839</ele>
        <time>2017-09-16T10:35:13Z</time>
      </trkpt>
      <trkpt lat="44.1297" lon="7.24948">
        <ele>1839</ele>
        <time>2017-09-16T10:35:13Z</time>
      </trkpt>
      <trkpt lat="44.12972" lon="7.24943">
        <ele>1839</ele>
        <time>2017-09-16T10:35:41Z</time>
      </trkpt>
      <trkpt lat="44.12972" lon="7.24942">
        <ele>1839</ele>
        <time>2017-09-16T10:35:41Z</time>
      </trkpt>
      <trkpt lat="44.12974" lon="7.2494">
        <ele>1839</ele>
        <time>2017-09-16T10:35:41Z</time>
      </trkpt>
      <trkpt lat="44.12975" lon="7.24939">
        <ele>1839</ele>
        <time>2017-09-16T10:35:41Z</time>
      </trkpt>
      <trkpt lat="44.12976" lon="7.24938">
        <ele>1839</ele>
        <time>2017-09-16T10:35:41Z</time>
      </trkpt>
      <trkpt lat="44.12979" lon="7.24933">
        <ele>1839</ele>
        <time>2017-09-16T10:36:05Z</time>
      </trkpt>
      <trkpt lat="44.12981" lon="7.24931">
        <ele>1839</ele>
        <time>2017-09-16T10:36:05Z</time>
      </trkpt>
      <trkpt lat="44.12982" lon="7.2493">
        <ele>1839</ele>
        <time>2017-09-16T10:36:05Z</time>
      </trkpt>
      <trkpt lat="44.12985" lon="7.24928">
        <ele>1839</ele>
        <time>2017-09-16T10:36:05Z</time>
      </trkpt>
      <trkpt lat="44.12988" lon="7.24924">
        <ele>1839</ele>
        <time>2017-09-16T10:36:05Z</time>
      </trkpt>
      <trkpt lat="44.12996" lon="7.24922">
        <ele>1839</ele>
        <time>2017-09-16T10:36:37Z</time>
      </trkpt>
      <trkpt lat="44.12996" lon="7.24921">
        <ele>1839</ele>
        <time>2017-09-16T10:36:37Z</time>
      </trkpt>
      <trkpt lat="44.12997" lon="7.2492">
        <ele>1839</ele>
        <time>2017-09-16T10:36:37Z</time>
      </trkpt>
      <trkpt lat="44.12998" lon="7.24919">
        <ele>1839</ele>
        <time>2017-09-16T10:36:37Z</time>
      </trkpt>
      <trkpt lat="44.13" lon="7.24917">
        <ele>1839</ele>
        <time>2017-09-16T10:36:37Z</time>
      </trkpt>
      <trkpt lat="44.13002" lon="7.24917">
        <ele>1839</ele>
        <time>2017-09-16T10:36:53Z</time>
      </trkpt>
      <trkpt lat="44.13004" lon="7.24915">
        <ele>1839</ele>
        <time>2017-09-16T10:36:53Z</time>
      </trkpt>
      <trkpt lat="44.13008" lon="7.24912">
        <ele>1839</ele>
        <time>2017-09-16T10:36:53Z</time>
      </trkpt>
      <trkpt lat="44.13011" lon="7.24911">
        <ele>1839</ele>
        <time>2017-09-16T10:36:53Z</time>
      </trkpt>
      <trkpt lat="44.13016" lon="7.24908">
        <ele>1839</ele>
        <time>2017-09-16T10:37:21Z</time>
      </trkpt>
      <trkpt lat="44.13018" lon="7.24907">
        <ele>1839</ele>
        <time>2017-09-16T10:37:21Z</time>
      </trkpt>
      <trkpt lat="44.13019" lon="7.24906">
        <ele>1839</ele>
        <time>2017-09-16T10:37:21Z</time>
      </trkpt>
      <trkpt lat="44.1302" lon="7.24904">
        <ele>1839</ele>
        <time>2017-09-16T10:37:21Z</time>
      </trkpt>
      <trkpt lat="44.13021" lon="7.24902">
        <ele>1839</ele>
        <time>2017-09-16T10:37:21Z</time>
      </trkpt>
      <trkpt lat="44.13023" lon="7.249">
        <ele>1839</ele>
        <time>2017-09-16T10:37:41Z</time>
      </trkpt>
      <trkpt lat="44.13024" lon="7.24899">
        <ele>1839</ele>
        <time>2017-09-16T10:37:41Z</time>
      </trkpt>
      <trkpt lat="44.13026" lon="7.24896">
        <ele>1839</ele>
        <time>2017-09-16T10:37:41Z</time>
      </trkpt>
      <trkpt lat="44.13027" lon="7.24892">
        <ele>1839</ele>
        <time>2017-09-16T10:37:41Z</time>
      </trkpt>
      <trkpt lat="44.1303" lon="7.24888">
        <ele>1839</ele>
        <time>2017-09-16T10:37:41Z</time>
      </trkpt>
      <trkpt lat="44.13031" lon="7.24886">
        <ele>1839</ele>
        <time>2017-09-16T10:38:01Z</time>
      </trkpt>
      <trkpt lat="44.13034" lon="7.24884">
        <ele>1839</ele>
        <time>2017-09-16T10:38:01Z</time>
      </trkpt>
      <trkpt lat="44.13037" lon="7.2488">
        <ele>1839</ele>
        <time>2017-09-16T10:38:01Z</time>
      </trkpt>
      <trkpt lat="44.13038" lon="7.2488">
        <ele>1839</ele>
        <time>2017-09-16T10:38:01Z</time>
      </trkpt>
      <trkpt lat="44.13039" lon="7.24878">
        <ele>1839</ele>
        <time>2017-09-16T10:38:01Z</time>
      </trkpt>
      <trkpt lat="44.13044" lon="7.24865">
        <ele>1848</ele>
        <time>2017-09-16T10:38:45Z</time>
      </trkpt>
      <trkpt lat="44.13043" lon="7.24864">
        <ele>1848</ele>
        <time>2017-09-16T10:38:45Z</time>
      </trkpt>
      <trkpt lat="44.13045" lon="7.24862">
        <ele>1848</ele>
        <time>2017-09-16T10:38:45Z</time>
      </trkpt>
      <trkpt lat="44.13047" lon="7.2486">
        <ele>1848</ele>
        <time>2017-09-16T10:38:45Z</time>
      </trkpt>
      <trkpt lat="44.1305" lon="7.24857">
        <ele>1848</ele>
        <time>2017-09-16T10:38:45Z</time>
      </trkpt>
      <trkpt lat="44.13053" lon="7.24853">
        <ele>1848</ele>
        <time>2017-09-16T10:39:01Z</time>
      </trkpt>
      <trkpt lat="44.13054" lon="7.24851">
        <ele>1848</ele>
        <time>2017-09-16T10:39:01Z</time>
      </trkpt>
      <trkpt lat="44.13056" lon="7.24847">
        <ele>1848</ele>
        <time>2017-09-16T10:39:01Z</time>
      </trkpt>
      <trkpt lat="44.1306" lon="7.24843">
        <ele>1848</ele>
        <time>2017-09-16T10:39:01Z</time>
      </trkpt>
      <trkpt lat="44.13063" lon="7.24838">
        <ele>1848</ele>
        <time>2017-09-16T10:39:25Z</time>
      </trkpt>
      <trkpt lat="44.13064" lon="7.24835">
        <ele>1848</ele>
        <time>2017-09-16T10:39:25Z</time>
      </trkpt>
      <trkpt lat="44.13065" lon="7.24831">
        <ele>1848</ele>
        <time>2017-09-16T10:39:25Z</time>
      </trkpt>
      <trkpt lat="44.13065" lon="7.2483">
        <ele>1848</ele>
        <time>2017-09-16T10:39:25Z</time>
      </trkpt>
      <trkpt lat="44.13067" lon="7.24827">
        <ele>1848</ele>
        <time>2017-09-16T10:39:25Z</time>
      </trkpt>
      <trkpt lat="44.13069" lon="7.24825">
        <ele>1848</ele>
        <time>2017-09-16T10:39:41Z</time>
      </trkpt>
      <trkpt lat="44.13071" lon="7.24822">
        <ele>1848</ele>
        <time>2017-09-16T10:39:41Z</time>
      </trkpt>
      <trkpt lat="44.13074" lon="7.24819">
        <ele>1848</ele>
        <time>2017-09-16T10:39:41Z</time>
      </trkpt>
      <trkpt lat="44.13077" lon="7.24818">
        <ele>1848</ele>
        <time>2017-09-16T10:39:41Z</time>
      </trkpt>
      <trkpt lat="44.13081" lon="7.2481">
        <ele>1848</ele>
        <time>2017-09-16T10:40:09Z</time>
      </trkpt>
      <trkpt lat="44.13081" lon="7.2481">
        <ele>1848</ele>
        <time>2017-09-16T10:40:09Z</time>
      </trkpt>
      <trkpt lat="44.13082" lon="7.24807">
        <ele>1848</ele>
        <time>2017-09-16T10:40:09Z</time>
      </trkpt>
      <trkpt lat="44.13083" lon="7.24804">
        <ele>1848</ele>
        <time>2017-09-16T10:40:09Z</time>
      </trkpt>
      <trkpt lat="44.13083" lon="7.24802">
        <ele>1848</ele>
        <time>2017-09-16T10:40:09Z</time>
      </trkpt>
      <trkpt lat="44.13085" lon="7.24798">
        <ele>1848</ele>
        <time>2017-09-16T10:40:25Z</time>
      </trkpt>
      <trkpt lat="44.13087" lon="7.24794">
        <ele>1848</ele>
        <time>2017-09-16T10:40:25Z</time>
      </trkpt>
      <trkpt lat="44.13089" lon="7.24789">
        <ele>1864</ele>
        <time>2017-09-16T10:40:25Z</time>
      </trkpt>
      <trkpt lat="44.13091" lon="7.24786">
        <ele>1864</ele>
        <time>2017-09-16T10:40:25Z</time>
      </trkpt>
      <trkpt lat="44.13092" lon="7.24781">
        <ele>1864</ele>
        <time>2017-09-16T10:40:49Z</time>
      </trkpt>
      <trkpt lat="44.13092" lon="7.24779">
        <ele>1864</ele>
        <time>2017-09-16T10:40:49Z</time>
      </trkpt>
      <trkpt lat="44.13093" lon="7.24777">
        <ele>1864</ele>
        <time>2017-09-16T10:40:49Z</time>
      </trkpt>
      <trkpt lat="44.13093" lon="7.24776">
        <ele>1864</ele>
        <time>2017-09-16T10:40:49Z</time>
      </trkpt>
      <trkpt lat="44.13095" lon="7.24772">
        <ele>1864</ele>
        <time>2017-09-16T10:40:49Z</time>
      </trkpt>
      <trkpt lat="44.13097" lon="7.24763">
        <ele>1864</ele>
        <time>2017-09-16T10:41:17Z</time>
      </trkpt>
      <trkpt lat="44.13098" lon="7.2476">
        <ele>1864</ele>
        <time>2017-09-16T10:41:17Z</time>
      </trkpt>
      <trkpt lat="44.13098" lon="7.24759">
        <ele>1864</ele>
        <time>2017-09-16T10:41:17Z</time>
      </trkpt>
      <trkpt lat="44.13099" lon="7.24756">
        <ele>1864</ele>
        <time>2017-09-16T10:41:17Z</time>
      </trkpt>
      <trkpt lat="44.131" lon="7.24754">
        <ele>1864</ele>
        <time>2017-09-16T10:41:17Z</time>
      </trkpt>
      <trkpt lat="44.13103" lon="7.24742">
        <ele>1864</ele>
        <time>2017-09-16T10:42:09Z</time>
      </trkpt>
      <trkpt lat="44.13104" lon="7.24739">
        <ele>1864</ele>
        <time>2017-09-16T10:42:09Z</time>
      </trkpt>
      <trkpt lat="44.13106" lon="7.24735">
        <ele>1864</ele>
        <time>2017-09-16T10:42:09Z</time>
      </trkpt>
      <trkpt lat="44.13107" lon="7.24732">
        <ele>1864</ele>
        <time>2017-09-16T10:42:09Z</time>
      </trkpt>
      <trkpt lat="44.13108" lon="7.24731">
        <ele>1864</ele>
        <time>2017-09-16T10:42:09Z</time>
      </trkpt>
      <trkpt lat="44.1311" lon="7.24728">
        <ele>1864</ele>
        <time>2017-09-16T10:42:25Z</time>
      </trkpt>
      <trkpt lat="44.13113" lon="7.24726">
        <ele>1864</ele>
        <time>2017-09-16T10:42:25Z</time>
      </trkpt>
      <trkpt lat="44.13114" lon="7.24725">
        <ele>1864</ele>
        <time>2017-09-16T10:42:25Z</time>
      </trkpt>
      <trkpt lat="44.13119" lon="7.24723">
        <ele>1864</ele>
        <time>2017-09-16T10:42:25Z</time>
      </trkpt>
      <trkpt lat="44.13125" lon="7.2472">
        <ele>1867</ele>
        <time>2017-09-16T10:42:49Z</time>
      </trkpt>
      <trkpt lat="44.13127" lon="7.2472">
        <ele>1867</ele>
        <time>2017-09-16T10:42:49Z</time>
      </trkpt>
      <trkpt lat="44.13128" lon="7.24719">
        <ele>1867</ele>
        <time>2017-09-16T10:42:49Z</time>
      </trkpt>
      <trkpt lat="44.1313" lon="7.24717">
        <ele>1867</ele>
        <time>2017-09-16T10:42:49Z</time>
      </trkpt>
      <trkpt lat="44.13132" lon="7.24716">
        <ele>1867</ele>
        <time>2017-09-16T10:42:49Z</time>
      </trkpt>
      <trkpt lat="44.13136" lon="7.24714">
        <ele>1867</ele>
        <time>2017-09-16T10:43:05Z</time>
      </trkpt>
      <trkpt lat="44.13141" lon="7.2471">
        <ele>1867</ele>
        <time>2017-09-16T10:43:05Z</time>
      </trkpt>
      <trkpt lat="44.13143" lon="7.24708">
        <ele>1878</ele>
        <time>2017-09-16T10:43:05Z</time>
      </trkpt>
      <trkpt lat="44.13146" lon="7.24706">
        <ele>1878</ele>
        <time>2017-09-16T10:43:05Z</time>
      </trkpt>
      <trkpt lat="44.13149" lon="7.24701">
        <ele>1878</ele>
        <time>2017-09-16T10:43:29Z</time>
      </trkpt>
      <trkpt lat="44.13152" lon="7.24698">
        <ele>1878</ele>
        <time>2017-09-16T10:43:29Z</time>
      </trkpt>
      <trkpt lat="44.13155" lon="7.24697">
        <ele>1878</ele>
        <time>2017-09-16T10:43:29Z</time>
      </trkpt>
      <trkpt lat="44.13155" lon="7.24696">
        <ele>1878</ele>
        <time>2017-09-16T10:43:29Z</time>
      </trkpt>
      <trkpt lat="44.13158" lon="7.24695">
        <ele>1878</ele>
        <time>2017-09-16T10:43:29Z</time>
      </trkpt>
      <trkpt lat="44.13161" lon="7.24693">
        <ele>1878</ele>
        <time>2017-09-16T10:43:53Z</time>
      </trkpt>
      <trkpt lat="44.13163" lon="7.24692">
        <ele>1878</ele>
        <time>2017-09-16T10:43:53Z</time>
      </trkpt>
      <trkpt lat="44.13163" lon="7.24691">
        <ele>1878</ele>
        <time>2017-09-16T10:43:53Z</time>
      </trkpt>
      <trkpt lat="44.13165" lon="7.24688">
        <ele>1878</ele>
        <time>2017-09-16T10:43:53Z</time>
      </trkpt>
      <trkpt lat="44.13166" lon="7.24686">
        <ele>1878</ele>
        <time>2017-09-16T10:43:53Z</time>
      </trkpt>
      <trkpt lat="44.13168" lon="7.24684">
        <ele>1878</ele>
        <time>2017-09-16T10:44:09Z</time>
      </trkpt>
      <trkpt lat="44.13173" lon="7.2468">
        <ele>1878</ele>
        <time>2017-09-16T10:44:09Z</time>
      </trkpt>
      <trkpt lat="44.13173" lon="7.24679">
        <ele>1878</ele>
        <time>2017-09-16T10:44:09Z</time>
      </trkpt>
      <trkpt lat="44.13177" lon="7.24677">
        <ele>1878</ele>
        <time>2017-09-16T10:44:09Z</time>
      </trkpt>
      <trkpt lat="44.13181" lon="7.24674">
        <ele>1878</ele>
        <time>2017-09-16T10:44:33Z</time>
      </trkpt>
      <trkpt lat="44.13183" lon="7.24671">
        <ele>1878</ele>
        <time>2017-09-16T10:44:33Z</time>
      </trkpt>
      <trkpt lat="44.13184" lon="7.24671">
        <ele>1878</ele>
        <time>2017-09-16T10:44:33Z</time>
      </trkpt>
      <trkpt lat="44.13185" lon="7.2467">
        <ele>1878</ele>
        <time>2017-09-16T10:44:33Z</time>
      </trkpt>
      <trkpt lat="44.13187" lon="7.24667">
        <ele>1878</ele>
        <time>2017-09-16T10:44:33Z</time>
      </trkpt>
      <trkpt lat="44.1319" lon="7.24665">
        <ele>1878</ele>
        <time>2017-09-16T10:44:53Z</time>
      </trkpt>
      <trkpt lat="44.13191" lon="7.24664">
        <ele>1878</ele>
        <time>2017-09-16T10:44:53Z</time>
      </trkpt>
      <trkpt lat="44.13194" lon="7.24661">
        <ele>1878</ele>
        <time>2017-09-16T10:44:53Z</time>
      </trkpt>
      <trkpt lat="44.13197" lon="7.24659">
        <ele>1878</ele>
        <time>2017-09-16T10:44:53Z</time>
      </trkpt>
      <trkpt lat="44.132" lon="7.24656">
        <ele>1878</ele>
        <time>2017-09-16T10:44:53Z</time>
      </trkpt>
      <trkpt lat="44.13201" lon="7.24654">
        <ele>1878</ele>
        <time>2017-09-16T10:45:13Z</time>
      </trkpt>
      <trkpt lat="44.13204" lon="7.24651">
        <ele>1878</ele>
        <time>2017-09-16T10:45:13Z</time>
      </trkpt>
      <trkpt lat="44.13206" lon="7.2465">
        <ele>1878</ele>
        <time>2017-09-16T10:45:13Z</time>
      </trkpt>
      <trkpt lat="44.13209" lon="7.24648">
        <ele>1886</ele>
        <time>2017-09-16T10:45:13Z</time>
      </trkpt>
      <trkpt lat="44.1321" lon="7.24646">
        <ele>1886</ele>
        <time>2017-09-16T10:45:13Z</time>
      </trkpt>
      <trkpt lat="44.13211" lon="7.2464">
        <ele>1886</ele>
        <time>2017-09-16T10:45:45Z</time>
      </trkpt>
      <trkpt lat="44.13212" lon="7.24638">
        <ele>1886</ele>
        <time>2017-09-16T10:45:45Z</time>
      </trkpt>
      <trkpt lat="44.13216" lon="7.24635">
        <ele>1886</ele>
        <time>2017-09-16T10:45:45Z</time>
      </trkpt>
      <trkpt lat="44.13218" lon="7.24634">
        <ele>1886</ele>
        <time>2017-09-16T10:45:45Z</time>
      </trkpt>
      <trkpt lat="44.13221" lon="7.24631">
        <ele>1886</ele>
        <time>2017-09-16T10:45:45Z</time>
      </trkpt>
      <trkpt lat="44.13229" lon="7.24621">
        <ele>1887</ele>
        <time>2017-09-16T10:46:21Z</time>
      </trkpt>
      <trkpt lat="44.1323" lon="7.24621">
        <ele>1887</ele>
        <time>2017-09-16T10:46:21Z</time>
      </trkpt>
      <trkpt lat="44.13231" lon="7.24618">
        <ele>1887</ele>
        <time>2017-09-16T10:46:21Z</time>
      </trkpt>
      <trkpt lat="44.13235" lon="7.24615">
        <ele>1887</ele>
        <time>2017-09-16T10:46:21Z</time>
      </trkpt>
      <trkpt lat="44.13237" lon="7.24614">
        <ele>1887</ele>
        <time>2017-09-16T10:46:21Z</time>
      </trkpt>
      <trkpt lat="44.13241" lon="7.24611">
        <ele>1887</ele>
        <time>2017-09-16T10:46:53Z</time>
      </trkpt>
      <trkpt lat="44.13241" lon="7.24609">
        <ele>1887</ele>
        <time>2017-09-16T10:46:53Z</time>
      </trkpt>
      <trkpt lat="44.13242" lon="7.24606">
        <ele>1887</ele>
        <time>2017-09-16T10:46:53Z</time>
      </trkpt>
      <trkpt lat="44.13243" lon="7.24604">
        <ele>1887</ele>
        <time>2017-09-16T10:46:53Z</time>
      </trkpt>
      <trkpt lat="44.13243" lon="7.24602">
        <ele>1887</ele>
        <time>2017-09-16T10:46:53Z</time>
      </trkpt>
      <trkpt lat="44.13243" lon="7.24599">
        <ele>1887</ele>
        <time>2017-09-16T10:47:13Z</time>
      </trkpt>
      <trkpt lat="44.13245" lon="7.24594">
        <ele>1887</ele>
        <time>2017-09-16T10:47:13Z</time>
      </trkpt>
      <trkpt lat="44.13246" lon="7.24593">
        <ele>1887</ele>
        <time>2017-09-16T10:47:13Z</time>
      </trkpt>
      <trkpt lat="44.13247" lon="7.2459">
        <ele>1887</ele>
        <time>2017-09-16T10:47:13Z</time>
      </trkpt>
      <trkpt lat="44.13248" lon="7.24588">
        <ele>1887</ele>
        <time>2017-09-16T10:47:13Z</time>
      </trkpt>
      <trkpt lat="44.1325" lon="7.24583">
        <ele>1887</ele>
        <time>2017-09-16T10:47:33Z</time>
      </trkpt>
      <trkpt lat="44.13251" lon="7.24577">
        <ele>1887</ele>
        <time>2017-09-16T10:47:33Z</time>
      </trkpt>
      <trkpt lat="44.13252" lon="7.24574">
        <ele>1887</ele>
        <time>2017-09-16T10:47:33Z</time>
      </trkpt>
      <trkpt lat="44.13252" lon="7.24572">
        <ele>1887</ele>
        <time>2017-09-16T10:47:33Z</time>
      </trkpt>
      <trkpt lat="44.13253" lon="7.24567">
        <ele>1887</ele>
        <time>2017-09-16T10:47:33Z</time>
      </trkpt>
      <trkpt lat="44.13253" lon="7.24565">
        <ele>1887</ele>
        <time>2017-09-16T10:47:53Z</time>
      </trkpt>
      <trkpt lat="44.13255" lon="7.24562">
        <ele>1887</ele>
        <time>2017-09-16T10:47:53Z</time>
      </trkpt>
      <trkpt lat="44.13257" lon="7.24559">
        <ele>1887</ele>
        <time>2017-09-16T10:47:53Z</time>
      </trkpt>
      <trkpt lat="44.13259" lon="7.24556">
        <ele>1887</ele>
        <time>2017-09-16T10:47:53Z</time>
      </trkpt>
      <trkpt lat="44.1326" lon="7.24553">
        <ele>1887</ele>
        <time>2017-09-16T10:47:53Z</time>
      </trkpt>
      <trkpt lat="44.13261" lon="7.24551">
        <ele>1887</ele>
        <time>2017-09-16T10:48:13Z</time>
      </trkpt>
      <trkpt lat="44.13262" lon="7.24548">
        <ele>1887</ele>
        <time>2017-09-16T10:48:13Z</time>
      </trkpt>
      <trkpt lat="44.13264" lon="7.24545">
        <ele>1887</ele>
        <time>2017-09-16T10:48:13Z</time>
      </trkpt>
      <trkpt lat="44.13265" lon="7.24541">
        <ele>1898</ele>
        <time>2017-09-16T10:48:13Z</time>
      </trkpt>
      <trkpt lat="44.13266" lon="7.24537">
        <ele>1898</ele>
        <time>2017-09-16T10:48:13Z</time>
      </trkpt>
      <trkpt lat="44.13268" lon="7.24526">
        <ele>1898</ele>
        <time>2017-09-16T10:48:41Z</time>
      </trkpt>
      <trkpt lat="44.13269" lon="7.24524">
        <ele>1898</ele>
        <time>2017-09-16T10:48:41Z</time>
      </trkpt>
      <trkpt lat="44.1327" lon="7.24523">
        <ele>1898</ele>
        <time>2017-09-16T10:48:41Z</time>
      </trkpt>
      <trkpt lat="44.13271" lon="7.24522">
        <ele>1898</ele>
        <time>2017-09-16T10:48:41Z</time>
      </trkpt>
      <trkpt lat="44.13271" lon="7.24521">
        <ele>1898</ele>
        <time>2017-09-16T10:48:41Z</time>
      </trkpt>
      <trkpt lat="44.13275" lon="7.24514">
        <ele>1898</ele>
        <time>2017-09-16T10:49:05Z</time>
      </trkpt>
      <trkpt lat="44.13276" lon="7.24512">
        <ele>1898</ele>
        <time>2017-09-16T10:49:05Z</time>
      </trkpt>
      <trkpt lat="44.13276" lon="7.24509">
        <ele>1898</ele>
        <time>2017-09-16T10:49:05Z</time>
      </trkpt>
      <trkpt lat="44.13277" lon="7.24506">
        <ele>1898</ele>
        <time>2017-09-16T10:49:05Z</time>
      </trkpt>
      <trkpt lat="44.13278" lon="7.24502">
        <ele>1898</ele>
        <time>2017-09-16T10:49:05Z</time>
      </trkpt>
      <trkpt lat="44.13278" lon="7.24499">
        <ele>1898</ele>
        <time>2017-09-16T10:49:25Z</time>
      </trkpt>
      <trkpt lat="44.13278" lon="7.24495">
        <ele>1898</ele>
        <time>2017-09-16T10:49:25Z</time>
      </trkpt>
      <trkpt lat="44.13278" lon="7.24493">
        <ele>1898</ele>
        <time>2017-09-16T10:49:25Z</time>
      </trkpt>
      <trkpt lat="44.13278" lon="7.2449">
        <ele>1898</ele>
        <time>2017-09-16T10:49:25Z</time>
      </trkpt>
      <trkpt lat="44.13278" lon="7.24484">
        <ele>1898</ele>
        <time>2017-09-16T10:49:25Z</time>
      </trkpt>
      <trkpt lat="44.13278" lon="7.2448">
        <ele>1898</ele>
        <time>2017-09-16T10:49:45Z</time>
      </trkpt>
      <trkpt lat="44.13278" lon="7.24477">
        <ele>1898</ele>
        <time>2017-09-16T10:49:45Z</time>
      </trkpt>
      <trkpt lat="44.13277" lon="7.24471">
        <ele>1898</ele>
        <time>2017-09-16T10:49:45Z</time>
      </trkpt>
      <trkpt lat="44.13276" lon="7.24468">
        <ele>1898</ele>
        <time>2017-09-16T10:49:45Z</time>
      </trkpt>
      <trkpt lat="44.13276" lon="7.24464">
        <ele>1898</ele>
        <time>2017-09-16T10:49:45Z</time>
      </trkpt>
      <trkpt lat="44.13278" lon="7.2446">
        <ele>1898</ele>
        <time>2017-09-16T10:50:01Z</time>
      </trkpt>
      <trkpt lat="44.1328" lon="7.24456">
        <ele>1905</ele>
        <time>2017-09-16T10:50:01Z</time>
      </trkpt>
      <trkpt lat="44.13284" lon="7.24451">
        <ele>1905</ele>
        <time>2017-09-16T10:50:01Z</time>
      </trkpt>
      <trkpt lat="44.13286" lon="7.24449">
        <ele>1905</ele>
        <time>2017-09-16T10:50:01Z</time>
      </trkpt>
      <trkpt lat="44.13293" lon="7.24439">
        <ele>1906</ele>
        <time>2017-09-16T10:50:37Z</time>
      </trkpt>
      <trkpt lat="44.13295" lon="7.24436">
        <ele>1906</ele>
        <time>2017-09-16T10:50:37Z</time>
      </trkpt>
      <trkpt lat="44.13297" lon="7.24434">
        <ele>1906</ele>
        <time>2017-09-16T10:50:37Z</time>
      </trkpt>
      <trkpt lat="44.13298" lon="7.24433">
        <ele>1906</ele>
        <time>2017-09-16T10:50:37Z</time>
      </trkpt>
      <trkpt lat="44.133" lon="7.24431">
        <ele>1906</ele>
        <time>2017-09-16T10:50:37Z</time>
      </trkpt>
      <trkpt lat="44.13302" lon="7.24425">
        <ele>1906</ele>
        <time>2017-09-16T10:51:09Z</time>
      </trkpt>
      <trkpt lat="44.13303" lon="7.24423">
        <ele>1906</ele>
        <time>2017-09-16T10:51:09Z</time>
      </trkpt>
      <trkpt lat="44.13306" lon="7.24421">
        <ele>1906</ele>
        <time>2017-09-16T10:51:09Z</time>
      </trkpt>
      <trkpt lat="44.13309" lon="7.24421">
        <ele>1906</ele>
        <time>2017-09-16T10:51:09Z</time>
      </trkpt>
      <trkpt lat="44.13309" lon="7.24419">
        <ele>1906</ele>
        <time>2017-09-16T10:51:09Z</time>
      </trkpt>
      <trkpt lat="44.1331" lon="7.24418">
        <ele>1906</ele>
        <time>2017-09-16T10:51:25Z</time>
      </trkpt>
      <trkpt lat="44.13313" lon="7.24415">
        <ele>1906</ele>
        <time>2017-09-16T10:51:25Z</time>
      </trkpt>
      <trkpt lat="44.13315" lon="7.24413">
        <ele>1906</ele>
        <time>2017-09-16T10:51:25Z</time>
      </trkpt>
      <trkpt lat="44.1332" lon="7.24406">
        <ele>1906</ele>
        <time>2017-09-16T10:51:25Z</time>
      </trkpt>
      <trkpt lat="44.13321" lon="7.24404">
        <ele>1906</ele>
        <time>2017-09-16T10:51:45Z</time>
      </trkpt>
      <trkpt lat="44.13324" lon="7.244">
        <ele>1906</ele>
        <time>2017-09-16T10:51:45Z</time>
      </trkpt>
      <trkpt lat="44.13326" lon="7.24398">
        <ele>1906</ele>
        <time>2017-09-16T10:51:45Z</time>
      </trkpt>
      <trkpt lat="44.13326" lon="7.24396">
        <ele>1906</ele>
        <time>2017-09-16T10:51:45Z</time>
      </trkpt>
      <trkpt lat="44.13328" lon="7.24392">
        <ele>1906</ele>
        <time>2017-09-16T10:51:45Z</time>
      </trkpt>
      <trkpt lat="44.1333" lon="7.24389">
        <ele>1906</ele>
        <time>2017-09-16T10:52:05Z</time>
      </trkpt>
      <trkpt lat="44.13332" lon="7.24385">
        <ele>1906</ele>
        <time>2017-09-16T10:52:05Z</time>
      </trkpt>
      <trkpt lat="44.13334" lon="7.24383">
        <ele>1906</ele>
        <time>2017-09-16T10:52:05Z</time>
      </trkpt>
      <trkpt lat="44.13335" lon="7.24379">
        <ele>1906</ele>
        <time>2017-09-16T10:52:05Z</time>
      </trkpt>
      <trkpt lat="44.13337" lon="7.24372">
        <ele>1911</ele>
        <time>2017-09-16T10:52:05Z</time>
      </trkpt>
      <trkpt lat="44.13338" lon="7.24367">
        <ele>1911</ele>
        <time>2017-09-16T10:52:25Z</time>
      </trkpt>
      <trkpt lat="44.1334" lon="7.24364">
        <ele>1911</ele>
        <time>2017-09-16T10:52:25Z</time>
      </trkpt>
      <trkpt lat="44.13341" lon="7.24361">
        <ele>1911</ele>
        <time>2017-09-16T10:52:25Z</time>
      </trkpt>
      <trkpt lat="44.13343" lon="7.24358">
        <ele>1911</ele>
        <time>2017-09-16T10:52:25Z</time>
      </trkpt>
      <trkpt lat="44.13345" lon="7.24351">
        <ele>1911</ele>
        <time>2017-09-16T10:52:25Z</time>
      </trkpt>
      <trkpt lat="44.13344" lon="7.24344">
        <ele>1911</ele>
        <time>2017-09-16T10:52:53Z</time>
      </trkpt>
      <trkpt lat="44.13345" lon="7.24344">
        <ele>1911</ele>
        <time>2017-09-16T10:52:53Z</time>
      </trkpt>
      <trkpt lat="44.13345" lon="7.2434">
        <ele>1911</ele>
        <time>2017-09-16T10:52:53Z</time>
      </trkpt>
      <trkpt lat="44.13346" lon="7.24337">
        <ele>1911</ele>
        <time>2017-09-16T10:52:53Z</time>
      </trkpt>
      <trkpt lat="44.13348" lon="7.24333">
        <ele>1911</ele>
        <time>2017-09-16T10:52:53Z</time>
      </trkpt>
      <trkpt lat="44.13348" lon="7.24331">
        <ele>1911</ele>
        <time>2017-09-16T10:53:13Z</time>
      </trkpt>
      <trkpt lat="44.13349" lon="7.24329">
        <ele>1911</ele>
        <time>2017-09-16T10:53:13Z</time>
      </trkpt>
      <trkpt lat="44.13351" lon="7.24325">
        <ele>1911</ele>
        <time>2017-09-16T10:53:13Z</time>
      </trkpt>
      <trkpt lat="44.13352" lon="7.24323">
        <ele>1911</ele>
        <time>2017-09-16T10:53:13Z</time>
      </trkpt>
      <trkpt lat="44.13354" lon="7.24319">
        <ele>1911</ele>
        <time>2017-09-16T10:53:13Z</time>
      </trkpt>
      <trkpt lat="44.13355" lon="7.24313">
        <ele>1911</ele>
        <time>2017-09-16T10:53:41Z</time>
      </trkpt>
      <trkpt lat="44.13356" lon="7.24312">
        <ele>1911</ele>
        <time>2017-09-16T10:53:41Z</time>
      </trkpt>
      <trkpt lat="44.13356" lon="7.24309">
        <ele>1911</ele>
        <time>2017-09-16T10:53:41Z</time>
      </trkpt>
      <trkpt lat="44.13358" lon="7.24306">
        <ele>1911</ele>
        <time>2017-09-16T10:53:41Z</time>
      </trkpt>
      <trkpt lat="44.13359" lon="7.24302">
        <ele>1911</ele>
        <time>2017-09-16T10:53:41Z</time>
      </trkpt>
      <trkpt lat="44.13365" lon="7.24295">
        <ele>1911</ele>
        <time>2017-09-16T10:54:13Z</time>
      </trkpt>
      <trkpt lat="44.13365" lon="7.24294">
        <ele>1911</ele>
        <time>2017-09-16T10:54:13Z</time>
      </trkpt>
      <trkpt lat="44.13365" lon="7.24292">
        <ele>1911</ele>
        <time>2017-09-16T10:54:13Z</time>
      </trkpt>
      <trkpt lat="44.13366" lon="7.24289">
        <ele>1919</ele>
        <time>2017-09-16T10:54:13Z</time>
      </trkpt>
      <trkpt lat="44.13366" lon="7.24286">
        <ele>1919</ele>
        <time>2017-09-16T10:54:13Z</time>
      </trkpt>
      <trkpt lat="44.13369" lon="7.24282">
        <ele>1919</ele>
        <time>2017-09-16T10:54:29Z</time>
      </trkpt>
      <trkpt lat="44.13372" lon="7.24278">
        <ele>1919</ele>
        <time>2017-09-16T10:54:29Z</time>
      </trkpt>
      <trkpt lat="44.13374" lon="7.24277">
        <ele>1919</ele>
        <time>2017-09-16T10:54:29Z</time>
      </trkpt>
      <trkpt lat="44.13378" lon="7.24273">
        <ele>1922</ele>
        <time>2017-09-16T10:54:29Z</time>
      </trkpt>
      <trkpt lat="44.13383" lon="7.24265">
        <ele>1922</ele>
        <time>2017-09-16T10:54:53Z</time>
      </trkpt>
      <trkpt lat="44.13385" lon="7.24264">
        <ele>1922</ele>
        <time>2017-09-16T10:54:53Z</time>
      </trkpt>
      <trkpt lat="44.13386" lon="7.24263">
        <ele>1922</ele>
        <time>2017-09-16T10:54:53Z</time>
      </trkpt>
      <trkpt lat="44.13388" lon="7.24262">
        <ele>1922</ele>
        <time>2017-09-16T10:54:53Z</time>
      </trkpt>
      <trkpt lat="44.13389" lon="7.24261">
        <ele>1922</ele>
        <time>2017-09-16T10:54:53Z</time>
      </trkpt>
      <trkpt lat="44.13392" lon="7.24261">
        <ele>1922</ele>
        <time>2017-09-16T10:55:25Z</time>
      </trkpt>
      <trkpt lat="44.13392" lon="7.24261">
        <ele>1922</ele>
        <time>2017-09-16T10:55:25Z</time>
      </trkpt>
      <trkpt lat="44.13394" lon="7.2426">
        <ele>1922</ele>
        <time>2017-09-16T10:55:25Z</time>
      </trkpt>
      <trkpt lat="44.13399" lon="7.24253">
        <ele>1922</ele>
        <time>2017-09-16T10:55:25Z</time>
      </trkpt>
      <trkpt lat="44.13401" lon="7.24249">
        <ele>1922</ele>
        <time>2017-09-16T10:55:25Z</time>
      </trkpt>
      <trkpt lat="44.13403" lon="7.24245">
        <ele>1922</ele>
        <time>2017-09-16T10:55:45Z</time>
      </trkpt>
      <trkpt lat="44.13406" lon="7.24241">
        <ele>1922</ele>
        <time>2017-09-16T10:55:45Z</time>
      </trkpt>
      <trkpt lat="44.13409" lon="7.2424">
        <ele>1922</ele>
        <time>2017-09-16T10:55:45Z</time>
      </trkpt>
      <trkpt lat="44.1341" lon="7.24238">
        <ele>1922</ele>
        <time>2017-09-16T10:55:45Z</time>
      </trkpt>
      <trkpt lat="44.13412" lon="7.24237">
        <ele>1922</ele>
        <time>2017-09-16T10:55:45Z</time>
      </trkpt>
      <trkpt lat="44.13414" lon="7.24236">
        <ele>1922</ele>
        <time>2017-09-16T10:56:05Z</time>
      </trkpt>
      <trkpt lat="44.13415" lon="7.24234">
        <ele>1922</ele>
        <time>2017-09-16T10:56:05Z</time>
      </trkpt>
      <trkpt lat="44.13418" lon="7.2423">
        <ele>1922</ele>
        <time>2017-09-16T10:56:05Z</time>
      </trkpt>
      <trkpt lat="44.13418" lon="7.24228">
        <ele>1922</ele>
        <time>2017-09-16T10:56:05Z</time>
      </trkpt>
      <trkpt lat="44.13422" lon="7.24222">
        <ele>1922</ele>
        <time>2017-09-16T10:56:05Z</time>
      </trkpt>
      <trkpt lat="44.13426" lon="7.24217">
        <ele>1922</ele>
        <time>2017-09-16T10:56:25Z</time>
      </trkpt>
      <trkpt lat="44.13428" lon="7.24213">
        <ele>1922</ele>
        <time>2017-09-16T10:56:25Z</time>
      </trkpt>
      <trkpt lat="44.1343" lon="7.24212">
        <ele>1922</ele>
        <time>2017-09-16T10:56:25Z</time>
      </trkpt>
      <trkpt lat="44.13432" lon="7.24208">
        <ele>1925</ele>
        <time>2017-09-16T10:56:25Z</time>
      </trkpt>
      <trkpt lat="44.13435" lon="7.24206">
        <ele>1925</ele>
        <time>2017-09-16T10:56:25Z</time>
      </trkpt>
      <trkpt lat="44.13437" lon="7.24205">
        <ele>1925</ele>
        <time>2017-09-16T10:56:45Z</time>
      </trkpt>
      <trkpt lat="44.13438" lon="7.24205">
        <ele>1925</ele>
        <time>2017-09-16T10:56:45Z</time>
      </trkpt>
      <trkpt lat="44.13441" lon="7.24204">
        <ele>1925</ele>
        <time>2017-09-16T10:56:45Z</time>
      </trkpt>
      <trkpt lat="44.13443" lon="7.24202">
        <ele>1925</ele>
        <time>2017-09-16T10:56:45Z</time>
      </trkpt>
      <trkpt lat="44.13445" lon="7.242">
        <ele>1925</ele>
        <time>2017-09-16T10:56:45Z</time>
      </trkpt>
      <trkpt lat="44.13448" lon="7.24198">
        <ele>1925</ele>
        <time>2017-09-16T10:57:05Z</time>
      </trkpt>
      <trkpt lat="44.13451" lon="7.24196">
        <ele>1925</ele>
        <time>2017-09-16T10:57:05Z</time>
      </trkpt>
      <trkpt lat="44.13452" lon="7.24194">
        <ele>1925</ele>
        <time>2017-09-16T10:57:05Z</time>
      </trkpt>
      <trkpt lat="44.13454" lon="7.24191">
        <ele>1925</ele>
        <time>2017-09-16T10:57:05Z</time>
      </trkpt>
      <trkpt lat="44.13456" lon="7.24189">
        <ele>1925</ele>
        <time>2017-09-16T10:57:05Z</time>
      </trkpt>
      <trkpt lat="44.13458" lon="7.24187">
        <ele>1925</ele>
        <time>2017-09-16T10:57:25Z</time>
      </trkpt>
      <trkpt lat="44.13459" lon="7.24186">
        <ele>1940</ele>
        <time>2017-09-16T10:57:25Z</time>
      </trkpt>
      <trkpt lat="44.13462" lon="7.24183">
        <ele>1940</ele>
        <time>2017-09-16T10:57:25Z</time>
      </trkpt>
      <trkpt lat="44.13463" lon="7.24179">
        <ele>1940</ele>
        <time>2017-09-16T10:57:25Z</time>
      </trkpt>
      <trkpt lat="44.13465" lon="7.24177">
        <ele>1940</ele>
        <time>2017-09-16T10:57:25Z</time>
      </trkpt>
      <trkpt lat="44.13466" lon="7.24174">
        <ele>1940</ele>
        <time>2017-09-16T10:57:45Z</time>
      </trkpt>
      <trkpt lat="44.13468" lon="7.24171">
        <ele>1940</ele>
        <time>2017-09-16T10:57:45Z</time>
      </trkpt>
      <trkpt lat="44.1347" lon="7.24167">
        <ele>1940</ele>
        <time>2017-09-16T10:57:45Z</time>
      </trkpt>
      <trkpt lat="44.1347" lon="7.24165">
        <ele>1940</ele>
        <time>2017-09-16T10:57:45Z</time>
      </trkpt>
      <trkpt lat="44.13472" lon="7.24162">
        <ele>1940</ele>
        <time>2017-09-16T10:57:45Z</time>
      </trkpt>
      <trkpt lat="44.13474" lon="7.24159">
        <ele>1940</ele>
        <time>2017-09-16T10:58:05Z</time>
      </trkpt>
      <trkpt lat="44.13476" lon="7.24155">
        <ele>1940</ele>
        <time>2017-09-16T10:58:05Z</time>
      </trkpt>
      <trkpt lat="44.13478" lon="7.24151">
        <ele>1940</ele>
        <time>2017-09-16T10:58:05Z</time>
      </trkpt>
      <trkpt lat="44.13477" lon="7.24147">
        <ele>1940</ele>
        <time>2017-09-16T10:58:05Z</time>
      </trkpt>
      <trkpt lat="44.13478" lon="7.24143">
        <ele>1940</ele>
        <time>2017-09-16T10:58:05Z</time>
      </trkpt>
      <trkpt lat="44.13479" lon="7.24139">
        <ele>1940</ele>
        <time>2017-09-16T10:58:25Z</time>
      </trkpt>
      <trkpt lat="44.13482" lon="7.24135">
        <ele>1940</ele>
        <time>2017-09-16T10:58:25Z</time>
      </trkpt>
      <trkpt lat="44.13483" lon="7.24134">
        <ele>1940</ele>
        <time>2017-09-16T10:58:25Z</time>
      </trkpt>
      <trkpt lat="44.13484" lon="7.24132">
        <ele>1940</ele>
        <time>2017-09-16T10:58:25Z</time>
      </trkpt>
      <trkpt lat="44.13487" lon="7.24127">
        <ele>1940</ele>
        <time>2017-09-16T10:58:25Z</time>
      </trkpt>
      <trkpt lat="44.13489" lon="7.2412">
        <ele>1940</ele>
        <time>2017-09-16T10:58:49Z</time>
      </trkpt>
      <trkpt lat="44.13488" lon="7.24118">
        <ele>1940</ele>
        <time>2017-09-16T10:58:49Z</time>
      </trkpt>
      <trkpt lat="44.13487" lon="7.24115">
        <ele>1940</ele>
        <time>2017-09-16T10:58:49Z</time>
      </trkpt>
      <trkpt lat="44.13487" lon="7.24112">
        <ele>1940</ele>
        <time>2017-09-16T10:58:49Z</time>
      </trkpt>
      <trkpt lat="44.13487" lon="7.24108">
        <ele>1940</ele>
        <time>2017-09-16T10:58:49Z</time>
      </trkpt>
      <trkpt lat="44.13487" lon="7.24105">
        <ele>1940</ele>
        <time>2017-09-16T10:59:09Z</time>
      </trkpt>
      <trkpt lat="44.13487" lon="7.241">
        <ele>1940</ele>
        <time>2017-09-16T10:59:09Z</time>
      </trkpt>
      <trkpt lat="44.13487" lon="7.24098">
        <ele>1940</ele>
        <time>2017-09-16T10:59:09Z</time>
      </trkpt>
      <trkpt lat="44.13487" lon="7.24095">
        <ele>1940</ele>
        <time>2017-09-16T10:59:09Z</time>
      </trkpt>
      <trkpt lat="44.13485" lon="7.24092">
        <ele>1940</ele>
        <time>2017-09-16T10:59:09Z</time>
      </trkpt>
      <trkpt lat="44.13485" lon="7.24088">
        <ele>1940</ele>
        <time>2017-09-16T10:59:25Z</time>
      </trkpt>
      <trkpt lat="44.13483" lon="7.24084">
        <ele>1940</ele>
        <time>2017-09-16T10:59:25Z</time>
      </trkpt>
      <trkpt lat="44.1348" lon="7.24079">
        <ele>1940</ele>
        <time>2017-09-16T10:59:25Z</time>
      </trkpt>
      <trkpt lat="44.13479" lon="7.24075">
        <ele>1940</ele>
        <time>2017-09-16T10:59:25Z</time>
      </trkpt>
      <trkpt lat="44.13479" lon="7.2407">
        <ele>1940</ele>
        <time>2017-09-16T10:59:41Z</time>
      </trkpt>
      <trkpt lat="44.13479" lon="7.24062">
        <ele>1940</ele>
        <time>2017-09-16T10:59:41Z</time>
      </trkpt>
      <trkpt lat="44.13478" lon="7.24055">
        <ele>1940</ele>
        <time>2017-09-16T10:59:41Z</time>
      </trkpt>
      <trkpt lat="44.13479" lon="7.24054">
        <ele>1940</ele>
        <time>2017-09-16T10:59:41Z</time>
      </trkpt>
      <trkpt lat="44.1348" lon="7.24047">
        <ele>1940</ele>
        <time>2017-09-16T11:00:05Z</time>
      </trkpt>
      <trkpt lat="44.1348" lon="7.24045">
        <ele>1940</ele>
        <time>2017-09-16T11:00:05Z</time>
      </trkpt>
      <trkpt lat="44.13479" lon="7.24044">
        <ele>1940</ele>
        <time>2017-09-16T11:00:05Z</time>
      </trkpt>
      <trkpt lat="44.1348" lon="7.2404">
        <ele>1944</ele>
        <time>2017-09-16T11:00:05Z</time>
      </trkpt>
      <trkpt lat="44.13482" lon="7.24037">
        <ele>1944</ele>
        <time>2017-09-16T11:00:05Z</time>
      </trkpt>
      <trkpt lat="44.13481" lon="7.24027">
        <ele>1944</ele>
        <time>2017-09-16T11:00:41Z</time>
      </trkpt>
      <trkpt lat="44.13483" lon="7.24026">
        <ele>1944</ele>
        <time>2017-09-16T11:00:41Z</time>
      </trkpt>
      <trkpt lat="44.13484" lon="7.24021">
        <ele>1944</ele>
        <time>2017-09-16T11:00:41Z</time>
      </trkpt>
      <trkpt lat="44.13485" lon="7.24017">
        <ele>1944</ele>
        <time>2017-09-16T11:00:41Z</time>
      </trkpt>
      <trkpt lat="44.13484" lon="7.24015">
        <ele>1944</ele>
        <time>2017-09-16T11:00:41Z</time>
      </trkpt>
      <trkpt lat="44.13484" lon="7.2401">
        <ele>1944</ele>
        <time>2017-09-16T11:01:01Z</time>
      </trkpt>
      <trkpt lat="44.13483" lon="7.24008">
        <ele>1944</ele>
        <time>2017-09-16T11:01:01Z</time>
      </trkpt>
      <trkpt lat="44.13481" lon="7.24007">
        <ele>1944</ele>
        <time>2017-09-16T11:01:01Z</time>
      </trkpt>
      <trkpt lat="44.13481" lon="7.24002">
        <ele>1944</ele>
        <time>2017-09-16T11:01:01Z</time>
      </trkpt>
      <trkpt lat="44.1348" lon="7.23996">
        <ele>1944</ele>
        <time>2017-09-16T11:01:01Z</time>
      </trkpt>
      <trkpt lat="44.13479" lon="7.23994">
        <ele>1944</ele>
        <time>2017-09-16T11:01:21Z</time>
      </trkpt>
      <trkpt lat="44.13479" lon="7.2399">
        <ele>1944</ele>
        <time>2017-09-16T11:01:21Z</time>
      </trkpt>
      <trkpt lat="44.13478" lon="7.23989">
        <ele>1944</ele>
        <time>2017-09-16T11:01:21Z</time>
      </trkpt>
      <trkpt lat="44.13476" lon="7.23984">
        <ele>1944</ele>
        <time>2017-09-16T11:01:21Z</time>
      </trkpt>
      <trkpt lat="44.13476" lon="7.23981">
        <ele>1944</ele>
        <time>2017-09-16T11:01:21Z</time>
      </trkpt>
      <trkpt lat="44.13475" lon="7.23976">
        <ele>1944</ele>
        <time>2017-09-16T11:01:37Z</time>
      </trkpt>
      <trkpt lat="44.13475" lon="7.23973">
        <ele>1944</ele>
        <time>2017-09-16T11:01:37Z</time>
      </trkpt>
      <trkpt lat="44.13475" lon="7.23965">
        <ele>1944</ele>
        <time>2017-09-16T11:01:37Z</time>
      </trkpt>
      <trkpt lat="44.13475" lon="7.23961">
        <ele>1944</ele>
        <time>2017-09-16T11:01:37Z</time>
      </trkpt>
      <trkpt lat="44.13478" lon="7.23956">
        <ele>1949</ele>
        <time>2017-09-16T11:02:05Z</time>
      </trkpt>
      <trkpt lat="44.13479" lon="7.23954">
        <ele>1949</ele>
        <time>2017-09-16T11:02:05Z</time>
      </trkpt>
      <trkpt lat="44.13479" lon="7.23951">
        <ele>1949</ele>
        <time>2017-09-16T11:02:05Z</time>
      </trkpt>
      <trkpt lat="44.13478" lon="7.2395">
        <ele>1949</ele>
        <time>2017-09-16T11:02:05Z</time>
      </trkpt>
      <trkpt lat="44.13479" lon="7.23946">
        <ele>1949</ele>
        <time>2017-09-16T11:02:05Z</time>
      </trkpt>
      <trkpt lat="44.13481" lon="7.23943">
        <ele>1949</ele>
        <time>2017-09-16T11:02:21Z</time>
      </trkpt>
      <trkpt lat="44.13483" lon="7.23939">
        <ele>1949</ele>
        <time>2017-09-16T11:02:21Z</time>
      </trkpt>
      <trkpt lat="44.13484" lon="7.23936">
        <ele>1949</ele>
        <time>2017-09-16T11:02:21Z</time>
      </trkpt>
      <trkpt lat="44.13485" lon="7.23932">
        <ele>1949</ele>
        <time>2017-09-16T11:02:21Z</time>
      </trkpt>
      <trkpt lat="44.1349" lon="7.23924">
        <ele>1949</ele>
        <time>2017-09-16T11:02:49Z</time>
      </trkpt>
      <trkpt lat="44.13491" lon="7.23923">
        <ele>1949</ele>
        <time>2017-09-16T11:02:49Z</time>
      </trkpt>
      <trkpt lat="44.13491" lon="7.23923">
        <ele>1949</ele>
        <time>2017-09-16T11:02:49Z</time>
      </trkpt>
      <trkpt lat="44.13492" lon="7.23921">
        <ele>1949</ele>
        <time>2017-09-16T11:02:49Z</time>
      </trkpt>
      <trkpt lat="44.13493" lon="7.23917">
        <ele>1949</ele>
        <time>2017-09-16T11:02:49Z</time>
      </trkpt>
      <trkpt lat="44.13494" lon="7.23915">
        <ele>1949</ele>
        <time>2017-09-16T11:03:09Z</time>
      </trkpt>
      <trkpt lat="44.13496" lon="7.23912">
        <ele>1949</ele>
        <time>2017-09-16T11:03:09Z</time>
      </trkpt>
      <trkpt lat="44.13497" lon="7.23909">
        <ele>1949</ele>
        <time>2017-09-16T11:03:09Z</time>
      </trkpt>
      <trkpt lat="44.13499" lon="7.23905">
        <ele>1949</ele>
        <time>2017-09-16T11:03:09Z</time>
      </trkpt>
      <trkpt lat="44.135" lon="7.23904">
        <ele>1949</ele>
        <time>2017-09-16T11:03:09Z</time>
      </trkpt>
      <trkpt lat="44.13503" lon="7.23894">
        <ele>1949</ele>
        <time>2017-09-16T11:03:37Z</time>
      </trkpt>
      <trkpt lat="44.13504" lon="7.23892">
        <ele>1949</ele>
        <time>2017-09-16T11:03:37Z</time>
      </trkpt>
      <trkpt lat="44.13506" lon="7.23892">
        <ele>1949</ele>
        <time>2017-09-16T11:03:37Z</time>
      </trkpt>
      <trkpt lat="44.13508" lon="7.23892">
        <ele>1949</ele>
        <time>2017-09-16T11:03:37Z</time>
      </trkpt>
      <trkpt lat="44.1351" lon="7.2389">
        <ele>1949</ele>
        <time>2017-09-16T11:03:37Z</time>
      </trkpt>
      <trkpt lat="44.13515" lon="7.23888">
        <ele>1949</ele>
        <time>2017-09-16T11:04:01Z</time>
      </trkpt>
      <trkpt lat="44.13516" lon="7.23888">
        <ele>1949</ele>
        <time>2017-09-16T11:04:01Z</time>
      </trkpt>
      <trkpt lat="44.13518" lon="7.23887">
        <ele>1949</ele>
        <time>2017-09-16T11:04:01Z</time>
      </trkpt>
      <trkpt lat="44.1352" lon="7.23883">
        <ele>1949</ele>
        <time>2017-09-16T11:04:01Z</time>
      </trkpt>
      <trkpt lat="44.13521" lon="7.23881">
        <ele>1949</ele>
        <time>2017-09-16T11:04:01Z</time>
      </trkpt>
      <trkpt lat="44.13521" lon="7.23877">
        <ele>1949</ele>
        <time>2017-09-16T11:04:21Z</time>
      </trkpt>
      <trkpt lat="44.13523" lon="7.23874">
        <ele>1957</ele>
        <time>2017-09-16T11:04:21Z</time>
      </trkpt>
      <trkpt lat="44.13524" lon="7.23871">
        <ele>1957</ele>
        <time>2017-09-16T11:04:21Z</time>
      </trkpt>
      <trkpt lat="44.13525" lon="7.23868">
        <ele>1957</ele>
        <time>2017-09-16T11:04:21Z</time>
      </trkpt>
      <trkpt lat="44.13528" lon="7.23865">
        <ele>1957</ele>
        <time>2017-09-16T11:04:21Z</time>
      </trkpt>
      <trkpt lat="44.13529" lon="7.23862">
        <ele>1957</ele>
        <time>2017-09-16T11:04:37Z</time>
      </trkpt>
      <trkpt lat="44.13531" lon="7.23858">
        <ele>1957</ele>
        <time>2017-09-16T11:04:37Z</time>
      </trkpt>
      <trkpt lat="44.13533" lon="7.23854">
        <ele>1957</ele>
        <time>2017-09-16T11:04:37Z</time>
      </trkpt>
      <trkpt lat="44.13535" lon="7.2385">
        <ele>1957</ele>
        <time>2017-09-16T11:04:37Z</time>
      </trkpt>
      <trkpt lat="44.13536" lon="7.23847">
        <ele>1957</ele>
        <time>2017-09-16T11:04:57Z</time>
      </trkpt>
      <trkpt lat="44.13538" lon="7.23844">
        <ele>1957</ele>
        <time>2017-09-16T11:04:57Z</time>
      </trkpt>
      <trkpt lat="44.13539" lon="7.23839">
        <ele>1957</ele>
        <time>2017-09-16T11:04:57Z</time>
      </trkpt>
      <trkpt lat="44.1354" lon="7.23837">
        <ele>1957</ele>
        <time>2017-09-16T11:04:57Z</time>
      </trkpt>
      <trkpt lat="44.13543" lon="7.23832">
        <ele>1973</ele>
        <time>2017-09-16T11:04:57Z</time>
      </trkpt>
      <trkpt lat="44.13544" lon="7.2383">
        <ele>1973</ele>
        <time>2017-09-16T11:05:17Z</time>
      </trkpt>
      <trkpt lat="44.13544" lon="7.23829">
        <ele>1973</ele>
        <time>2017-09-16T11:05:17Z</time>
      </trkpt>
      <trkpt lat="44.13547" lon="7.23827">
        <ele>1973</ele>
        <time>2017-09-16T11:05:17Z</time>
      </trkpt>
      <trkpt lat="44.1355" lon="7.23823">
        <ele>1973</ele>
        <time>2017-09-16T11:05:17Z</time>
      </trkpt>
      <trkpt lat="44.13552" lon="7.2382">
        <ele>1973</ele>
        <time>2017-09-16T11:05:17Z</time>
      </trkpt>
      <trkpt lat="44.13553" lon="7.23817">
        <ele>1973</ele>
        <time>2017-09-16T11:05:33Z</time>
      </trkpt>
      <trkpt lat="44.13557" lon="7.23813">
        <ele>1973</ele>
        <time>2017-09-16T11:05:33Z</time>
      </trkpt>
      <trkpt lat="44.1356" lon="7.23809">
        <ele>1973</ele>
        <time>2017-09-16T11:05:33Z</time>
      </trkpt>
      <trkpt lat="44.13562" lon="7.23807">
        <ele>1973</ele>
        <time>2017-09-16T11:05:33Z</time>
      </trkpt>
      <trkpt lat="44.13561" lon="7.23805">
        <ele>1973</ele>
        <time>2017-09-16T11:05:53Z</time>
      </trkpt>
      <trkpt lat="44.13562" lon="7.23803">
        <ele>1973</ele>
        <time>2017-09-16T11:05:53Z</time>
      </trkpt>
      <trkpt lat="44.13564" lon="7.23798">
        <ele>1973</ele>
        <time>2017-09-16T11:05:53Z</time>
      </trkpt>
      <trkpt lat="44.13564" lon="7.23795">
        <ele>1973</ele>
        <time>2017-09-16T11:05:53Z</time>
      </trkpt>
      <trkpt lat="44.13565" lon="7.23793">
        <ele>1973</ele>
        <time>2017-09-16T11:05:53Z</time>
      </trkpt>
      <trkpt lat="44.13565" lon="7.2379">
        <ele>1972</ele>
        <time>2017-09-16T11:06:13Z</time>
      </trkpt>
      <trkpt lat="44.13566" lon="7.23786">
        <ele>1972</ele>
        <time>2017-09-16T11:06:13Z</time>
      </trkpt>
      <trkpt lat="44.13567" lon="7.23782">
        <ele>1972</ele>
        <time>2017-09-16T11:06:13Z</time>
      </trkpt>
      <trkpt lat="44.13566" lon="7.2378">
        <ele>1972</ele>
        <time>2017-09-16T11:06:13Z</time>
      </trkpt>
      <trkpt lat="44.13565" lon="7.23773">
        <ele>1972</ele>
        <time>2017-09-16T11:06:13Z</time>
      </trkpt>
      <trkpt lat="44.13566" lon="7.23767">
        <ele>1972</ele>
        <time>2017-09-16T11:06:37Z</time>
      </trkpt>
      <trkpt lat="44.13567" lon="7.23765">
        <ele>1972</ele>
        <time>2017-09-16T11:06:37Z</time>
      </trkpt>
      <trkpt lat="44.13568" lon="7.23762">
        <ele>1972</ele>
        <time>2017-09-16T11:06:37Z</time>
      </trkpt>
      <trkpt lat="44.13568" lon="7.2376">
        <ele>1972</ele>
        <time>2017-09-16T11:06:37Z</time>
      </trkpt>
      <trkpt lat="44.13569" lon="7.23757">
        <ele>1972</ele>
        <time>2017-09-16T11:06:37Z</time>
      </trkpt>
      <trkpt lat="44.13569" lon="7.23752">
        <ele>1972</ele>
        <time>2017-09-16T11:06:57Z</time>
      </trkpt>
      <trkpt lat="44.13569" lon="7.2375">
        <ele>1972</ele>
        <time>2017-09-16T11:06:57Z</time>
      </trkpt>
      <trkpt lat="44.1357" lon="7.23748">
        <ele>1972</ele>
        <time>2017-09-16T11:06:57Z</time>
      </trkpt>
      <trkpt lat="44.13572" lon="7.23743">
        <ele>1972</ele>
        <time>2017-09-16T11:06:57Z</time>
      </trkpt>
      <trkpt lat="44.13573" lon="7.23738">
        <ele>1972</ele>
        <time>2017-09-16T11:06:57Z</time>
      </trkpt>
      <trkpt lat="44.13574" lon="7.23735">
        <ele>1972</ele>
        <time>2017-09-16T11:07:17Z</time>
      </trkpt>
      <trkpt lat="44.13575" lon="7.23733">
        <ele>1972</ele>
        <time>2017-09-16T11:07:17Z</time>
      </trkpt>
      <trkpt lat="44.13578" lon="7.23729">
        <ele>1972</ele>
        <time>2017-09-16T11:07:17Z</time>
      </trkpt>
      <trkpt lat="44.13579" lon="7.23727">
        <ele>1972</ele>
        <time>2017-09-16T11:07:17Z</time>
      </trkpt>
      <trkpt lat="44.13581" lon="7.23722">
        <ele>1972</ele>
        <time>2017-09-16T11:07:17Z</time>
      </trkpt>
      <trkpt lat="44.1358" lon="7.2372">
        <ele>1972</ele>
        <time>2017-09-16T11:07:45Z</time>
      </trkpt>
      <trkpt lat="44.13582" lon="7.23716">
        <ele>1972</ele>
        <time>2017-09-16T11:07:45Z</time>
      </trkpt>
      <trkpt lat="44.13583" lon="7.23713">
        <ele>1972</ele>
        <time>2017-09-16T11:07:45Z</time>
      </trkpt>
      <trkpt lat="44.13583" lon="7.23709">
        <ele>1972</ele>
        <time>2017-09-16T11:07:45Z</time>
      </trkpt>
      <trkpt lat="44.13583" lon="7.23704">
        <ele>1976</ele>
        <time>2017-09-16T11:07:45Z</time>
      </trkpt>
      <trkpt lat="44.13585" lon="7.23699">
        <ele>1976</ele>
        <time>2017-09-16T11:08:05Z</time>
      </trkpt>
      <trkpt lat="44.13585" lon="7.23697">
        <ele>1976</ele>
        <time>2017-09-16T11:08:05Z</time>
      </trkpt>
      <trkpt lat="44.13586" lon="7.23694">
        <ele>1976</ele>
        <time>2017-09-16T11:08:05Z</time>
      </trkpt>
      <trkpt lat="44.13587" lon="7.23692">
        <ele>1976</ele>
        <time>2017-09-16T11:08:05Z</time>
      </trkpt>
      <trkpt lat="44.13589" lon="7.23687">
        <ele>1976</ele>
        <time>2017-09-16T11:08:05Z</time>
      </trkpt>
      <trkpt lat="44.13591" lon="7.23684">
        <ele>1976</ele>
        <time>2017-09-16T11:08:25Z</time>
      </trkpt>
      <trkpt lat="44.13592" lon="7.23679">
        <ele>1976</ele>
        <time>2017-09-16T11:08:25Z</time>
      </trkpt>
      <trkpt lat="44.13593" lon="7.23677">
        <ele>1976</ele>
        <time>2017-09-16T11:08:25Z</time>
      </trkpt>
      <trkpt lat="44.13594" lon="7.23672">
        <ele>1976</ele>
        <time>2017-09-16T11:08:25Z</time>
      </trkpt>
      <trkpt lat="44.13594" lon="7.2367">
        <ele>1976</ele>
        <time>2017-09-16T11:08:25Z</time>
      </trkpt>
      <trkpt lat="44.13595" lon="7.23667">
        <ele>1976</ele>
        <time>2017-09-16T11:08:41Z</time>
      </trkpt>
      <trkpt lat="44.13596" lon="7.23662">
        <ele>1976</ele>
        <time>2017-09-16T11:08:41Z</time>
      </trkpt>
      <trkpt lat="44.13597" lon="7.23658">
        <ele>1976</ele>
        <time>2017-09-16T11:08:41Z</time>
      </trkpt>
      <trkpt lat="44.13599" lon="7.23654">
        <ele>1976</ele>
        <time>2017-09-16T11:08:41Z</time>
      </trkpt>
      <trkpt lat="44.136" lon="7.23651">
        <ele>1976</ele>
        <time>2017-09-16T11:09:01Z</time>
      </trkpt>
      <trkpt lat="44.13601" lon="7.23646">
        <ele>1976</ele>
        <time>2017-09-16T11:09:01Z</time>
      </trkpt>
      <trkpt lat="44.13601" lon="7.23643">
        <ele>1976</ele>
        <time>2017-09-16T11:09:01Z</time>
      </trkpt>
      <trkpt lat="44.13602" lon="7.2364">
        <ele>1976</ele>
        <time>2017-09-16T11:09:01Z</time>
      </trkpt>
      <trkpt lat="44.13602" lon="7.23638">
        <ele>1976</ele>
        <time>2017-09-16T11:09:01Z</time>
      </trkpt>
      <trkpt lat="44.13602" lon="7.23636">
        <ele>1976</ele>
        <time>2017-09-16T11:09:17Z</time>
      </trkpt>
      <trkpt lat="44.13605" lon="7.23631">
        <ele>1976</ele>
        <time>2017-09-16T11:09:17Z</time>
      </trkpt>
      <trkpt lat="44.13606" lon="7.23626">
        <ele>1976</ele>
        <time>2017-09-16T11:09:17Z</time>
      </trkpt>
      <trkpt lat="44.13607" lon="7.23623">
        <ele>1982</ele>
        <time>2017-09-16T11:09:17Z</time>
      </trkpt>
      <trkpt lat="44.1361" lon="7.23617">
        <ele>1982</ele>
        <time>2017-09-16T11:09:37Z</time>
      </trkpt>
      <trkpt lat="44.13611" lon="7.23613">
        <ele>1982</ele>
        <time>2017-09-16T11:09:37Z</time>
      </trkpt>
      <trkpt lat="44.13612" lon="7.23611">
        <ele>1982</ele>
        <time>2017-09-16T11:09:37Z</time>
      </trkpt>
      <trkpt lat="44.13613" lon="7.23608">
        <ele>1982</ele>
        <time>2017-09-16T11:09:37Z</time>
      </trkpt>
      <trkpt lat="44.13614" lon="7.23605">
        <ele>1982</ele>
        <time>2017-09-16T11:09:37Z</time>
      </trkpt>
      <trkpt lat="44.13618" lon="7.236">
        <ele>1982</ele>
        <time>2017-09-16T11:10:05Z</time>
      </trkpt>
      <trkpt lat="44.13618" lon="7.236">
        <ele>1982</ele>
        <time>2017-09-16T11:10:05Z</time>
      </trkpt>
      <trkpt lat="44.1362" lon="7.23598">
        <ele>1982</ele>
        <time>2017-09-16T11:10:05Z</time>
      </trkpt>
      <trkpt lat="44.13622" lon="7.23596">
        <ele>1982</ele>
        <time>2017-09-16T11:10:05Z</time>
      </trkpt>
      <trkpt lat="44.13624" lon="7.23593">
        <ele>1982</ele>
        <time>2017-09-16T11:10:05Z</time>
      </trkpt>
      <trkpt lat="44.13625" lon="7.23591">
        <ele>1995</ele>
        <time>2017-09-16T11:10:25Z</time>
      </trkpt>
      <trkpt lat="44.13627" lon="7.23588">
        <ele>1995</ele>
        <time>2017-09-16T11:10:25Z</time>
      </trkpt>
      <trkpt lat="44.13628" lon="7.23585">
        <ele>1995</ele>
        <time>2017-09-16T11:10:25Z</time>
      </trkpt>
      <trkpt lat="44.13629" lon="7.23582">
        <ele>1995</ele>
        <time>2017-09-16T11:10:25Z</time>
      </trkpt>
      <trkpt lat="44.13631" lon="7.23578">
        <ele>1995</ele>
        <time>2017-09-16T11:10:25Z</time>
      </trkpt>
      <trkpt lat="44.13632" lon="7.23575">
        <ele>1995</ele>
        <time>2017-09-16T11:10:45Z</time>
      </trkpt>
      <trkpt lat="44.13634" lon="7.23573">
        <ele>1995</ele>
        <time>2017-09-16T11:10:45Z</time>
      </trkpt>
      <trkpt lat="44.13634" lon="7.23573">
        <ele>1995</ele>
        <time>2017-09-16T11:10:45Z</time>
      </trkpt>
      <trkpt lat="44.13637" lon="7.23571">
        <ele>1995</ele>
        <time>2017-09-16T11:10:45Z</time>
      </trkpt>
      <trkpt lat="44.1364" lon="7.23569">
        <ele>1995</ele>
        <time>2017-09-16T11:10:45Z</time>
      </trkpt>
      <trkpt lat="44.13643" lon="7.23565">
        <ele>1995</ele>
        <time>2017-09-16T11:11:05Z</time>
      </trkpt>
      <trkpt lat="44.13645" lon="7.23563">
        <ele>1995</ele>
        <time>2017-09-16T11:11:05Z</time>
      </trkpt>
      <trkpt lat="44.13646" lon="7.23562">
        <ele>1995</ele>
        <time>2017-09-16T11:11:05Z</time>
      </trkpt>
      <trkpt lat="44.13648" lon="7.23559">
        <ele>1995</ele>
        <time>2017-09-16T11:11:05Z</time>
      </trkpt>
      <trkpt lat="44.1365" lon="7.23556">
        <ele>1995</ele>
        <time>2017-09-16T11:11:05Z</time>
      </trkpt>
      <trkpt lat="44.13652" lon="7.23554">
        <ele>1995</ele>
        <time>2017-09-16T11:11:25Z</time>
      </trkpt>
      <trkpt lat="44.13654" lon="7.23552">
        <ele>1995</ele>
        <time>2017-09-16T11:11:25Z</time>
      </trkpt>
      <trkpt lat="44.13657" lon="7.2355">
        <ele>1995</ele>
        <time>2017-09-16T11:11:25Z</time>
      </trkpt>
      <trkpt lat="44.1366" lon="7.23547">
        <ele>1995</ele>
        <time>2017-09-16T11:11:25Z</time>
      </trkpt>
      <trkpt lat="44.13661" lon="7.23544">
        <ele>1995</ele>
        <time>2017-09-16T11:11:25Z</time>
      </trkpt>
      <trkpt lat="44.13661" lon="7.23542">
        <ele>1996</ele>
        <time>2017-09-16T11:11:45Z</time>
      </trkpt>
      <trkpt lat="44.13664" lon="7.23539">
        <ele>1996</ele>
        <time>2017-09-16T11:11:45Z</time>
      </trkpt>
      <trkpt lat="44.13665" lon="7.23535">
        <ele>1996</ele>
        <time>2017-09-16T11:11:45Z</time>
      </trkpt>
      <trkpt lat="44.13667" lon="7.23532">
        <ele>1996</ele>
        <time>2017-09-16T11:11:45Z</time>
      </trkpt>
      <trkpt lat="44.13669" lon="7.2353">
        <ele>1996</ele>
        <time>2017-09-16T11:11:45Z</time>
      </trkpt>
      <trkpt lat="44.13672" lon="7.23529">
        <ele>1996</ele>
        <time>2017-09-16T11:12:05Z</time>
      </trkpt>
      <trkpt lat="44.13674" lon="7.23527">
        <ele>1996</ele>
        <time>2017-09-16T11:12:05Z</time>
      </trkpt>
      <trkpt lat="44.13675" lon="7.23522">
        <ele>1996</ele>
        <time>2017-09-16T11:12:05Z</time>
      </trkpt>
      <trkpt lat="44.13676" lon="7.2352">
        <ele>1996</ele>
        <time>2017-09-16T11:12:05Z</time>
      </trkpt>
      <trkpt lat="44.13677" lon="7.23515">
        <ele>1996</ele>
        <time>2017-09-16T11:12:05Z</time>
      </trkpt>
      <trkpt lat="44.13675" lon="7.23506">
        <ele>1996</ele>
        <time>2017-09-16T11:12:45Z</time>
      </trkpt>
      <trkpt lat="44.13673" lon="7.23502">
        <ele>1996</ele>
        <time>2017-09-16T11:12:45Z</time>
      </trkpt>
      <trkpt lat="44.13671" lon="7.23499">
        <ele>1996</ele>
        <time>2017-09-16T11:12:45Z</time>
      </trkpt>
      <trkpt lat="44.13669" lon="7.23495">
        <ele>1996</ele>
        <time>2017-09-16T11:12:45Z</time>
      </trkpt>
      <trkpt lat="44.13668" lon="7.23492">
        <ele>1996</ele>
        <time>2017-09-16T11:12:45Z</time>
      </trkpt>
      <trkpt lat="44.13667" lon="7.23487">
        <ele>1996</ele>
        <time>2017-09-16T11:13:05Z</time>
      </trkpt>
      <trkpt lat="44.13667" lon="7.23485">
        <ele>1996</ele>
        <time>2017-09-16T11:13:05Z</time>
      </trkpt>
      <trkpt lat="44.13665" lon="7.23482">
        <ele>1996</ele>
        <time>2017-09-16T11:13:05Z</time>
      </trkpt>
      <trkpt lat="44.13665" lon="7.23478">
        <ele>1996</ele>
        <time>2017-09-16T11:13:05Z</time>
      </trkpt>
      <trkpt lat="44.13666" lon="7.23475">
        <ele>1996</ele>
        <time>2017-09-16T11:13:05Z</time>
      </trkpt>
      <trkpt lat="44.13665" lon="7.23471">
        <ele>1996</ele>
        <time>2017-09-16T11:13:25Z</time>
      </trkpt>
      <trkpt lat="44.13665" lon="7.23465">
        <ele>1996</ele>
        <time>2017-09-16T11:13:25Z</time>
      </trkpt>
      <trkpt lat="44.13665" lon="7.23461">
        <ele>1996</ele>
        <time>2017-09-16T11:13:25Z</time>
      </trkpt>
      <trkpt lat="44.13664" lon="7.23459">
        <ele>1996</ele>
        <time>2017-09-16T11:13:25Z</time>
      </trkpt>
      <trkpt lat="44.13663" lon="7.23455">
        <ele>2002</ele>
        <time>2017-09-16T11:13:25Z</time>
      </trkpt>
      <trkpt lat="44.13661" lon="7.23449">
        <ele>2002</ele>
        <time>2017-09-16T11:13:41Z</time>
      </trkpt>
      <trkpt lat="44.1366" lon="7.23444">
        <ele>2002</ele>
        <time>2017-09-16T11:13:41Z</time>
      </trkpt>
      <trkpt lat="44.13659" lon="7.2344">
        <ele>2002</ele>
        <time>2017-09-16T11:13:41Z</time>
      </trkpt>
      <trkpt lat="44.13657" lon="7.23438">
        <ele>2002</ele>
        <time>2017-09-16T11:13:41Z</time>
      </trkpt>
      <trkpt lat="44.13654" lon="7.23435">
        <ele>2002</ele>
        <time>2017-09-16T11:14:01Z</time>
      </trkpt>
      <trkpt lat="44.13652" lon="7.23432">
        <ele>2002</ele>
        <time>2017-09-16T11:14:01Z</time>
      </trkpt>
      <trkpt lat="44.1365" lon="7.2343">
        <ele>2002</ele>
        <time>2017-09-16T11:14:01Z</time>
      </trkpt>
      <trkpt lat="44.13648" lon="7.23426">
        <ele>2002</ele>
        <time>2017-09-16T11:14:01Z</time>
      </trkpt>
      <trkpt lat="44.13646" lon="7.23419">
        <ele>2002</ele>
        <time>2017-09-16T11:14:01Z</time>
      </trkpt>
      <trkpt lat="44.13647" lon="7.23415">
        <ele>2002</ele>
        <time>2017-09-16T11:14:21Z</time>
      </trkpt>
      <trkpt lat="44.13647" lon="7.2341">
        <ele>2002</ele>
        <time>2017-09-16T11:14:21Z</time>
      </trkpt>
      <trkpt lat="44.13648" lon="7.23406">
        <ele>2002</ele>
        <time>2017-09-16T11:14:21Z</time>
      </trkpt>
      <trkpt lat="44.13648" lon="7.23404">
        <ele>2002</ele>
        <time>2017-09-16T11:14:21Z</time>
      </trkpt>
      <trkpt lat="44.13649" lon="7.234">
        <ele>2002</ele>
        <time>2017-09-16T11:14:21Z</time>
      </trkpt>
      <trkpt lat="44.13649" lon="7.23396">
        <ele>2002</ele>
        <time>2017-09-16T11:14:41Z</time>
      </trkpt>
      <trkpt lat="44.13649" lon="7.23392">
        <ele>2002</ele>
        <time>2017-09-16T11:14:41Z</time>
      </trkpt>
      <trkpt lat="44.13648" lon="7.23389">
        <ele>2002</ele>
        <time>2017-09-16T11:14:41Z</time>
      </trkpt>
      <trkpt lat="44.13648" lon="7.23384">
        <ele>2002</ele>
        <time>2017-09-16T11:14:41Z</time>
      </trkpt>
      <trkpt lat="44.13649" lon="7.23379">
        <ele>2002</ele>
        <time>2017-09-16T11:14:41Z</time>
      </trkpt>
      <trkpt lat="44.13652" lon="7.23375">
        <ele>2017</ele>
        <time>2017-09-16T11:14:57Z</time>
      </trkpt>
      <trkpt lat="44.13654" lon="7.2337">
        <ele>2017</ele>
        <time>2017-09-16T11:14:57Z</time>
      </trkpt>
      <trkpt lat="44.13655" lon="7.23366">
        <ele>2017</ele>
        <time>2017-09-16T11:14:57Z</time>
      </trkpt>
      <trkpt lat="44.13659" lon="7.23363">
        <ele>2017</ele>
        <time>2017-09-16T11:14:57Z</time>
      </trkpt>
      <trkpt lat="44.13664" lon="7.23358">
        <ele>2017</ele>
        <time>2017-09-16T11:15:37Z</time>
      </trkpt>
      <trkpt lat="44.13665" lon="7.23355">
        <ele>2017</ele>
        <time>2017-09-16T11:15:37Z</time>
      </trkpt>
      <trkpt lat="44.13666" lon="7.23354">
        <ele>2017</ele>
        <time>2017-09-16T11:15:37Z</time>
      </trkpt>
      <trkpt lat="44.13667" lon="7.23353">
        <ele>2017</ele>
        <time>2017-09-16T11:15:37Z</time>
      </trkpt>
      <trkpt lat="44.13669" lon="7.23353">
        <ele>2017</ele>
        <time>2017-09-16T11:15:37Z</time>
      </trkpt>
      <trkpt lat="44.1367" lon="7.23348">
        <ele>2017</ele>
        <time>2017-09-16T11:16:05Z</time>
      </trkpt>
      <trkpt lat="44.13669" lon="7.23347">
        <ele>2017</ele>
        <time>2017-09-16T11:16:05Z</time>
      </trkpt>
      <trkpt lat="44.13669" lon="7.23346">
        <ele>2017</ele>
        <time>2017-09-16T11:16:05Z</time>
      </trkpt>
      <trkpt lat="44.13672" lon="7.23344">
        <ele>2017</ele>
        <time>2017-09-16T11:16:05Z</time>
      </trkpt>
      <trkpt lat="44.13675" lon="7.2334">
        <ele>2017</ele>
        <time>2017-09-16T11:16:05Z</time>
      </trkpt>
      <trkpt lat="44.13678" lon="7.23338">
        <ele>2017</ele>
        <time>2017-09-16T11:16:21Z</time>
      </trkpt>
      <trkpt lat="44.13681" lon="7.23335">
        <ele>2017</ele>
        <time>2017-09-16T11:16:21Z</time>
      </trkpt>
      <trkpt lat="44.13685" lon="7.23335">
        <ele>2017</ele>
        <time>2017-09-16T11:16:21Z</time>
      </trkpt>
      <trkpt lat="44.1369" lon="7.23336">
        <ele>2017</ele>
        <time>2017-09-16T11:16:21Z</time>
      </trkpt>
      <trkpt lat="44.13693" lon="7.23335">
        <ele>2017</ele>
        <time>2017-09-16T11:16:41Z</time>
      </trkpt>
      <trkpt lat="44.13694" lon="7.23336">
        <ele>2017</ele>
        <time>2017-09-16T11:16:41Z</time>
      </trkpt>
      <trkpt lat="44.13696" lon="7.23337">
        <ele>2017</ele>
        <time>2017-09-16T11:16:41Z</time>
      </trkpt>
      <trkpt lat="44.13699" lon="7.23339">
        <ele>2017</ele>
        <time>2017-09-16T11:16:41Z</time>
      </trkpt>
      <trkpt lat="44.13701" lon="7.23341">
        <ele>2017</ele>
        <time>2017-09-16T11:16:41Z</time>
      </trkpt>
      <trkpt lat="44.13695" lon="7.23348">
        <ele>2017</ele>
        <time>2017-09-16T11:17:49Z</time>
      </trkpt>
      <trkpt lat="44.13701" lon="7.23351">
        <ele>2017</ele>
        <time>2017-09-16T11:17:49Z</time>
      </trkpt>
      <trkpt lat="44.13703" lon="7.23351">
        <ele>2017</ele>
        <time>2017-09-16T11:17:49Z</time>
      </trkpt>
      <trkpt lat="44.13708" lon="7.23353">
        <ele>2017</ele>
        <time>2017-09-16T11:17:49Z</time>
      </trkpt>
      <trkpt lat="44.13712" lon="7.23354">
        <ele>2042</ele>
        <time>2017-09-16T11:17:49Z</time>
      </trkpt>
      <trkpt lat="44.13717" lon="7.23355">
        <ele>2042</ele>
        <time>2017-09-16T11:18:09Z</time>
      </trkpt>
      <trkpt lat="44.13719" lon="7.23357">
        <ele>2042</ele>
        <time>2017-09-16T11:18:09Z</time>
      </trkpt>
      <trkpt lat="44.13721" lon="7.23359">
        <ele>2042</ele>
        <time>2017-09-16T11:18:09Z</time>
      </trkpt>
      <trkpt lat="44.13724" lon="7.23359">
        <ele>2042</ele>
        <time>2017-09-16T11:18:09Z</time>
      </trkpt>
      <trkpt lat="44.13727" lon="7.2336">
        <ele>2042</ele>
        <time>2017-09-16T11:18:09Z</time>
      </trkpt>
      <trkpt lat="44.13731" lon="7.23362">
        <ele>2042</ele>
        <time>2017-09-16T11:18:25Z</time>
      </trkpt>
      <trkpt lat="44.13734" lon="7.23364">
        <ele>2042</ele>
        <time>2017-09-16T11:18:25Z</time>
      </trkpt>
      <trkpt lat="44.13736" lon="7.23367">
        <ele>2042</ele>
        <time>2017-09-16T11:18:25Z</time>
      </trkpt>
      <trkpt lat="44.13738" lon="7.2337">
        <ele>2042</ele>
        <time>2017-09-16T11:18:25Z</time>
      </trkpt>
      <trkpt lat="44.13742" lon="7.23374">
        <ele>2042</ele>
        <time>2017-09-16T11:18:49Z</time>
      </trkpt>
      <trkpt lat="44.13743" lon="7.23375">
        <ele>2022</ele>
        <time>2017-09-16T11:18:49Z</time>
      </trkpt>
      <trkpt lat="44.13744" lon="7.23379">
        <ele>2022</ele>
        <time>2017-09-16T11:18:49Z</time>
      </trkpt>
      <trkpt lat="44.13744" lon="7.23383">
        <ele>2022</ele>
        <time>2017-09-16T11:18:49Z</time>
      </trkpt>
      <trkpt lat="44.13743" lon="7.23389">
        <ele>2022</ele>
        <time>2017-09-16T11:18:49Z</time>
      </trkpt>
      <trkpt lat="44.13743" lon="7.23394">
        <ele>2022</ele>
        <time>2017-09-16T11:19:09Z</time>
      </trkpt>
      <trkpt lat="44.13742" lon="7.23397">
        <ele>2022</ele>
        <time>2017-09-16T11:19:09Z</time>
      </trkpt>
      <trkpt lat="44.13742" lon="7.23401">
        <ele>2022</ele>
        <time>2017-09-16T11:19:09Z</time>
      </trkpt>
      <trkpt lat="44.13741" lon="7.23405">
        <ele>2022</ele>
        <time>2017-09-16T11:19:09Z</time>
      </trkpt>
      <trkpt lat="44.13739" lon="7.23407">
        <ele>2022</ele>
        <time>2017-09-16T11:19:09Z</time>
      </trkpt>
      <trkpt lat="44.13736" lon="7.23409">
        <ele>2022</ele>
        <time>2017-09-16T11:19:29Z</time>
      </trkpt>
      <trkpt lat="44.13735" lon="7.23413">
        <ele>2022</ele>
        <time>2017-09-16T11:19:29Z</time>
      </trkpt>
      <trkpt lat="44.13734" lon="7.23417">
        <ele>2022</ele>
        <time>2017-09-16T11:19:29Z</time>
      </trkpt>
      <trkpt lat="44.13734" lon="7.2342">
        <ele>2022</ele>
        <time>2017-09-16T11:19:29Z</time>
      </trkpt>
      <trkpt lat="44.13735" lon="7.23425">
        <ele>2022</ele>
        <time>2017-09-16T11:19:29Z</time>
      </trkpt>
      <trkpt lat="44.13736" lon="7.23429">
        <ele>2022</ele>
        <time>2017-09-16T11:19:45Z</time>
      </trkpt>
      <trkpt lat="44.13738" lon="7.23433">
        <ele>2022</ele>
        <time>2017-09-16T11:19:45Z</time>
      </trkpt>
      <trkpt lat="44.13741" lon="7.23436">
        <ele>2022</ele>
        <time>2017-09-16T11:19:45Z</time>
      </trkpt>
      <trkpt lat="44.13743" lon="7.2344">
        <ele>2022</ele>
        <time>2017-09-16T11:19:45Z</time>
      </trkpt>
      <trkpt lat="44.13745" lon="7.23444">
        <ele>2022</ele>
        <time>2017-09-16T11:20:01Z</time>
      </trkpt>
      <trkpt lat="44.13748" lon="7.23448">
        <ele>2022</ele>
        <time>2017-09-16T11:20:01Z</time>
      </trkpt>
      <trkpt lat="44.13749" lon="7.23452">
        <ele>2022</ele>
        <time>2017-09-16T11:20:01Z</time>
      </trkpt>
      <trkpt lat="44.13751" lon="7.23455">
        <ele>2022</ele>
        <time>2017-09-16T11:20:01Z</time>
      </trkpt>
      <trkpt lat="44.13752" lon="7.23459">
        <ele>2019</ele>
        <time>2017-09-16T11:20:17Z</time>
      </trkpt>
      <trkpt lat="44.13755" lon="7.23464">
        <ele>2019</ele>
        <time>2017-09-16T11:20:17Z</time>
      </trkpt>
      <trkpt lat="44.13759" lon="7.23471">
        <ele>2019</ele>
        <time>2017-09-16T11:20:17Z</time>
      </trkpt>
      <trkpt lat="44.13759" lon="7.23472">
        <ele>2019</ele>
        <time>2017-09-16T11:20:17Z</time>
      </trkpt>
      <trkpt lat="44.13759" lon="7.23475">
        <ele>2019</ele>
        <time>2017-09-16T11:20:33Z</time>
      </trkpt>
      <trkpt lat="44.13757" lon="7.23478">
        <ele>2019</ele>
        <time>2017-09-16T11:20:33Z</time>
      </trkpt>
      <trkpt lat="44.13758" lon="7.23484">
        <ele>2019</ele>
        <time>2017-09-16T11:20:33Z</time>
      </trkpt>
      <trkpt lat="44.13758" lon="7.23488">
        <ele>2019</ele>
        <time>2017-09-16T11:20:33Z</time>
      </trkpt>
      <trkpt lat="44.13758" lon="7.23492">
        <ele>2019</ele>
        <time>2017-09-16T11:20:53Z</time>
      </trkpt>
      <trkpt lat="44.13758" lon="7.23495">
        <ele>2019</ele>
        <time>2017-09-16T11:20:53Z</time>
      </trkpt>
      <trkpt lat="44.13758" lon="7.23498">
        <ele>2019</ele>
        <time>2017-09-16T11:20:53Z</time>
      </trkpt>
      <trkpt lat="44.13758" lon="7.23501">
        <ele>2019</ele>
        <time>2017-09-16T11:20:53Z</time>
      </trkpt>
      <trkpt lat="44.13757" lon="7.23508">
        <ele>2019</ele>
        <time>2017-09-16T11:20:53Z</time>
      </trkpt>
      <trkpt lat="44.13757" lon="7.23511">
        <ele>2019</ele>
        <time>2017-09-16T11:21:09Z</time>
      </trkpt>
      <trkpt lat="44.13757" lon="7.23515">
        <ele>2019</ele>
        <time>2017-09-16T11:21:09Z</time>
      </trkpt>
      <trkpt lat="44.13756" lon="7.23519">
        <ele>2019</ele>
        <time>2017-09-16T11:21:09Z</time>
      </trkpt>
      <trkpt lat="44.13754" lon="7.23523">
        <ele>2019</ele>
        <time>2017-09-16T11:21:09Z</time>
      </trkpt>
      <trkpt lat="44.13753" lon="7.23528">
        <ele>2019</ele>
        <time>2017-09-16T11:21:29Z</time>
      </trkpt>
      <trkpt lat="44.13752" lon="7.23533">
        <ele>2019</ele>
        <time>2017-09-16T11:21:29Z</time>
      </trkpt>
      <trkpt lat="44.13752" lon="7.23537">
        <ele>2019</ele>
        <time>2017-09-16T11:21:29Z</time>
      </trkpt>
      <trkpt lat="44.13752" lon="7.23539">
        <ele>2019</ele>
        <time>2017-09-16T11:21:29Z</time>
      </trkpt>
      <trkpt lat="44.13753" lon="7.23545">
        <ele>2027</ele>
        <time>2017-09-16T11:21:29Z</time>
      </trkpt>
      <trkpt lat="44.13755" lon="7.23549">
        <ele>2027</ele>
        <time>2017-09-16T11:21:45Z</time>
      </trkpt>
      <trkpt lat="44.13757" lon="7.23553">
        <ele>2027</ele>
        <time>2017-09-16T11:21:45Z</time>
      </trkpt>
      <trkpt lat="44.13761" lon="7.23556">
        <ele>2027</ele>
        <time>2017-09-16T11:21:45Z</time>
      </trkpt>
      <trkpt lat="44.13767" lon="7.23558">
        <ele>2027</ele>
        <time>2017-09-16T11:21:45Z</time>
      </trkpt>
      <trkpt lat="44.13766" lon="7.23551">
        <ele>2027</ele>
        <time>2017-09-16T11:29:29Z</time>
      </trkpt>
      <trkpt lat="44.13768" lon="7.23549">
        <ele>2027</ele>
        <time>2017-09-16T11:29:29Z</time>
      </trkpt>
      <trkpt lat="44.13769" lon="7.23546">
        <ele>2027</ele>
        <time>2017-09-16T11:29:29Z</time>
      </trkpt>
      <trkpt lat="44.13771" lon="7.23545">
        <ele>2027</ele>
        <time>2017-09-16T11:29:29Z</time>
      </trkpt>
      <trkpt lat="44.13773" lon="7.23541">
        <ele>2019</ele>
        <time>2017-09-16T11:29:29Z</time>
      </trkpt>
      <trkpt lat="44.13774" lon="7.23539">
        <ele>2019</ele>
        <time>2017-09-16T11:29:49Z</time>
      </trkpt>
      <trkpt lat="44.13775" lon="7.23534">
        <ele>2019</ele>
        <time>2017-09-16T11:29:49Z</time>
      </trkpt>
      <trkpt lat="44.13775" lon="7.23531">
        <ele>2019</ele>
        <time>2017-09-16T11:29:49Z</time>
      </trkpt>
      <trkpt lat="44.13776" lon="7.23529">
        <ele>2019</ele>
        <time>2017-09-16T11:29:49Z</time>
      </trkpt>
      <trkpt lat="44.13777" lon="7.23526">
        <ele>2019</ele>
        <time>2017-09-16T11:29:49Z</time>
      </trkpt>
      <trkpt lat="44.13778" lon="7.23523">
        <ele>2019</ele>
        <time>2017-09-16T11:30:09Z</time>
      </trkpt>
      <trkpt lat="44.1378" lon="7.23519">
        <ele>2019</ele>
        <time>2017-09-16T11:30:09Z</time>
      </trkpt>
      <trkpt lat="44.13782" lon="7.23517">
        <ele>2019</ele>
        <time>2017-09-16T11:30:09Z</time>
      </trkpt>
      <trkpt lat="44.13784" lon="7.23514">
        <ele>2019</ele>
        <time>2017-09-16T11:30:09Z</time>
      </trkpt>
      <trkpt lat="44.13785" lon="7.23512">
        <ele>2019</ele>
        <time>2017-09-16T11:30:09Z</time>
      </trkpt>
      <trkpt lat="44.13786" lon="7.2351">
        <ele>2019</ele>
        <time>2017-09-16T11:30:29Z</time>
      </trkpt>
      <trkpt lat="44.13788" lon="7.23505">
        <ele>2019</ele>
        <time>2017-09-16T11:30:29Z</time>
      </trkpt>
      <trkpt lat="44.13788" lon="7.23502">
        <ele>2019</ele>
        <time>2017-09-16T11:30:29Z</time>
      </trkpt>
      <trkpt lat="44.13787" lon="7.23499">
        <ele>2019</ele>
        <time>2017-09-16T11:30:29Z</time>
      </trkpt>
      <trkpt lat="44.13784" lon="7.23495">
        <ele>2019</ele>
        <time>2017-09-16T11:30:29Z</time>
      </trkpt>
      <trkpt lat="44.13781" lon="7.23491">
        <ele>2019</ele>
        <time>2017-09-16T11:30:45Z</time>
      </trkpt>
      <trkpt lat="44.13779" lon="7.23482">
        <ele>2019</ele>
        <time>2017-09-16T11:30:45Z</time>
      </trkpt>
      <trkpt lat="44.13778" lon="7.23478">
        <ele>2019</ele>
        <time>2017-09-16T11:30:45Z</time>
      </trkpt>
      <trkpt lat="44.13775" lon="7.23473">
        <ele>2019</ele>
        <time>2017-09-16T11:30:45Z</time>
      </trkpt>
      <trkpt lat="44.13773" lon="7.23467">
        <ele>2019</ele>
        <time>2017-09-16T11:31:01Z</time>
      </trkpt>
      <trkpt lat="44.13773" lon="7.2346">
        <ele>2019</ele>
        <time>2017-09-16T11:31:01Z</time>
      </trkpt>
      <trkpt lat="44.13773" lon="7.23459">
        <ele>2019</ele>
        <time>2017-09-16T11:31:01Z</time>
      </trkpt>
      <trkpt lat="44.13775" lon="7.23455">
        <ele>2022</ele>
        <time>2017-09-16T11:31:01Z</time>
      </trkpt>
      <trkpt lat="44.13775" lon="7.23451">
        <ele>2022</ele>
        <time>2017-09-16T11:31:17Z</time>
      </trkpt>
      <trkpt lat="44.13776" lon="7.23446">
        <ele>2022</ele>
        <time>2017-09-16T11:31:17Z</time>
      </trkpt>
      <trkpt lat="44.13776" lon="7.2344">
        <ele>2022</ele>
        <time>2017-09-16T11:31:17Z</time>
      </trkpt>
      <trkpt lat="44.13775" lon="7.23435">
        <ele>2022</ele>
        <time>2017-09-16T11:31:17Z</time>
      </trkpt>
      <trkpt lat="44.13773" lon="7.23432">
        <ele>2022</ele>
        <time>2017-09-16T11:31:41Z</time>
      </trkpt>
      <trkpt lat="44.13773" lon="7.23431">
        <ele>2022</ele>
        <time>2017-09-16T11:31:41Z</time>
      </trkpt>
      <trkpt lat="44.13772" lon="7.23429">
        <ele>2022</ele>
        <time>2017-09-16T11:31:41Z</time>
      </trkpt>
      <trkpt lat="44.13771" lon="7.23424">
        <ele>2022</ele>
        <time>2017-09-16T11:31:41Z</time>
      </trkpt>
      <trkpt lat="44.13769" lon="7.23419">
        <ele>2022</ele>
        <time>2017-09-16T11:31:41Z</time>
      </trkpt>
      <trkpt lat="44.13769" lon="7.23418">
        <ele>2022</ele>
        <time>2017-09-16T11:31:57Z</time>
      </trkpt>
      <trkpt lat="44.13768" lon="7.23414">
        <ele>2022</ele>
        <time>2017-09-16T11:31:57Z</time>
      </trkpt>
      <trkpt lat="44.13768" lon="7.23409">
        <ele>2022</ele>
        <time>2017-09-16T11:31:57Z</time>
      </trkpt>
      <trkpt lat="44.13769" lon="7.23403">
        <ele>2022</ele>
        <time>2017-09-16T11:31:57Z</time>
      </trkpt>
      <trkpt lat="44.13773" lon="7.23383">
        <ele>2022</ele>
        <time>2017-09-16T11:32:29Z</time>
      </trkpt>
      <trkpt lat="44.13772" lon="7.23381">
        <ele>2022</ele>
        <time>2017-09-16T11:32:29Z</time>
      </trkpt>
      <trkpt lat="44.13773" lon="7.23378">
        <ele>2022</ele>
        <time>2017-09-16T11:32:29Z</time>
      </trkpt>
      <trkpt lat="44.13773" lon="7.23375">
        <ele>2042</ele>
        <time>2017-09-16T11:32:29Z</time>
      </trkpt>
      <trkpt lat="44.13775" lon="7.23372">
        <ele>2042</ele>
        <time>2017-09-16T11:32:29Z</time>
      </trkpt>
      <trkpt lat="44.13767" lon="7.23376">
        <ele>2022</ele>
        <time>2017-09-16T11:33:45Z</time>
      </trkpt>
      <trkpt lat="44.13767" lon="7.23378">
        <ele>2022</ele>
        <time>2017-09-16T11:33:45Z</time>
      </trkpt>
      <trkpt lat="44.13765" lon="7.23377">
        <ele>2022</ele>
        <time>2017-09-16T11:33:45Z</time>
      </trkpt>
      <trkpt lat="44.13764" lon="7.23374">
        <ele>2042</ele>
        <time>2017-09-16T11:33:45Z</time>
      </trkpt>
      <trkpt lat="44.13764" lon="7.23373">
        <ele>2042</ele>
        <time>2017-09-16T11:33:45Z</time>
      </trkpt>
      <trkpt lat="44.13764" lon="7.23369">
        <ele>2042</ele>
        <time>2017-09-16T11:34:21Z</time>
      </trkpt>
      <trkpt lat="44.13764" lon="7.23367">
        <ele>2042</ele>
        <time>2017-09-16T11:34:21Z</time>
      </trkpt>
      <trkpt lat="44.13765" lon="7.23362">
        <ele>2042</ele>
        <time>2017-09-16T11:34:21Z</time>
      </trkpt>
      <trkpt lat="44.13766" lon="7.23359">
        <ele>2042</ele>
        <time>2017-09-16T11:34:21Z</time>
      </trkpt>
      <trkpt lat="44.13766" lon="7.23353">
        <ele>2042</ele>
        <time>2017-09-16T11:34:21Z</time>
      </trkpt>
      <trkpt lat="44.13767" lon="7.23346">
        <ele>2042</ele>
        <time>2017-09-16T11:34:37Z</time>
      </trkpt>
      <trkpt lat="44.13767" lon="7.23339">
        <ele>2042</ele>
        <time>2017-09-16T11:34:37Z</time>
      </trkpt>
      <trkpt lat="44.13767" lon="7.23337">
        <ele>2042</ele>
        <time>2017-09-16T11:34:37Z</time>
      </trkpt>
      <trkpt lat="44.13767" lon="7.23332">
        <ele>2042</ele>
        <time>2017-09-16T11:34:37Z</time>
      </trkpt>
      <trkpt lat="44.13766" lon="7.23318">
        <ele>2042</ele>
        <time>2017-09-16T11:35:13Z</time>
      </trkpt>
      <trkpt lat="44.13765" lon="7.23316">
        <ele>2042</ele>
        <time>2017-09-16T11:35:13Z</time>
      </trkpt>
      <trkpt lat="44.13765" lon="7.23311">
        <ele>2042</ele>
        <time>2017-09-16T11:35:13Z</time>
      </trkpt>
      <trkpt lat="44.13765" lon="7.23311">
        <ele>2042</ele>
        <time>2017-09-16T11:35:13Z</time>
      </trkpt>
      <trkpt lat="44.13765" lon="7.23308">
        <ele>2042</ele>
        <time>2017-09-16T11:35:13Z</time>
      </trkpt>
      <trkpt lat="44.13763" lon="7.23307">
        <ele>2042</ele>
        <time>2017-09-16T11:35:37Z</time>
      </trkpt>
      <trkpt lat="44.13764" lon="7.23299">
        <ele>2042</ele>
        <time>2017-09-16T11:35:37Z</time>
      </trkpt>
      <trkpt lat="44.13762" lon="7.23299">
        <ele>2042</ele>
        <time>2017-09-16T11:35:37Z</time>
      </trkpt>
      <trkpt lat="44.13762" lon="7.23298">
        <ele>2042</ele>
        <time>2017-09-16T11:35:37Z</time>
      </trkpt>
      <trkpt lat="44.13761" lon="7.23295">
        <ele>2042</ele>
        <time>2017-09-16T11:35:37Z</time>
      </trkpt>
      <trkpt lat="44.13759" lon="7.23289">
        <ele>2061</ele>
        <time>2017-09-16T11:36:01Z</time>
      </trkpt>
      <trkpt lat="44.13757" lon="7.23292">
        <ele>2042</ele>
        <time>2017-09-16T11:36:01Z</time>
      </trkpt>
      <trkpt lat="44.13756" lon="7.23288">
        <ele>2061</ele>
        <time>2017-09-16T11:36:01Z</time>
      </trkpt>
      <trkpt lat="44.13754" lon="7.23284">
        <ele>2061</ele>
        <time>2017-09-16T11:36:01Z</time>
      </trkpt>
      <trkpt lat="44.13754" lon="7.23281">
        <ele>2061</ele>
        <time>2017-09-16T11:36:01Z</time>
      </trkpt>
      <trkpt lat="44.13753" lon="7.23279">
        <ele>2061</ele>
        <time>2017-09-16T11:36:37Z</time>
      </trkpt>
      <trkpt lat="44.13752" lon="7.23276">
        <ele>2061</ele>
        <time>2017-09-16T11:36:37Z</time>
      </trkpt>
      <trkpt lat="44.13752" lon="7.23272">
        <ele>2061</ele>
        <time>2017-09-16T11:36:37Z</time>
      </trkpt>
      <trkpt lat="44.13751" lon="7.23271">
        <ele>2061</ele>
        <time>2017-09-16T11:36:37Z</time>
      </trkpt>
      <trkpt lat="44.13751" lon="7.23269">
        <ele>2061</ele>
        <time>2017-09-16T11:36:37Z</time>
      </trkpt>
      <trkpt lat="44.13746" lon="7.23268">
        <ele>2061</ele>
        <time>2017-09-16T11:37:05Z</time>
      </trkpt>
      <trkpt lat="44.13745" lon="7.23266">
        <ele>2061</ele>
        <time>2017-09-16T11:37:05Z</time>
      </trkpt>
      <trkpt lat="44.13745" lon="7.23262">
        <ele>2061</ele>
        <time>2017-09-16T11:37:05Z</time>
      </trkpt>
      <trkpt lat="44.13744" lon="7.23258">
        <ele>2061</ele>
        <time>2017-09-16T11:37:05Z</time>
      </trkpt>
      <trkpt lat="44.13743" lon="7.23256">
        <ele>2061</ele>
        <time>2017-09-16T11:37:05Z</time>
      </trkpt>
      <trkpt lat="44.13742" lon="7.23251">
        <ele>2061</ele>
        <time>2017-09-16T11:37:33Z</time>
      </trkpt>
      <trkpt lat="44.13742" lon="7.23249">
        <ele>2061</ele>
        <time>2017-09-16T11:37:33Z</time>
      </trkpt>
      <trkpt lat="44.1374" lon="7.2325">
        <ele>2061</ele>
        <time>2017-09-16T11:37:33Z</time>
      </trkpt>
      <trkpt lat="44.13738" lon="7.23249">
        <ele>2061</ele>
        <time>2017-09-16T11:37:33Z</time>
      </trkpt>
      <trkpt lat="44.13737" lon="7.23244">
        <ele>2061</ele>
        <time>2017-09-16T11:37:33Z</time>
      </trkpt>
      <trkpt lat="44.13736" lon="7.23241">
        <ele>2061</ele>
        <time>2017-09-16T11:37:53Z</time>
      </trkpt>
      <trkpt lat="44.13735" lon="7.23237">
        <ele>2061</ele>
        <time>2017-09-16T11:37:53Z</time>
      </trkpt>
      <trkpt lat="44.13733" lon="7.23233">
        <ele>2061</ele>
        <time>2017-09-16T11:37:53Z</time>
      </trkpt>
      <trkpt lat="44.13732" lon="7.23232">
        <ele>2061</ele>
        <time>2017-09-16T11:37:53Z</time>
      </trkpt>
      <trkpt lat="44.13731" lon="7.23228">
        <ele>2061</ele>
        <time>2017-09-16T11:37:53Z</time>
      </trkpt>
      <trkpt lat="44.1373" lon="7.23226">
        <ele>2061</ele>
        <time>2017-09-16T11:38:21Z</time>
      </trkpt>
      <trkpt lat="44.13728" lon="7.23222">
        <ele>2061</ele>
        <time>2017-09-16T11:38:21Z</time>
      </trkpt>
      <trkpt lat="44.13726" lon="7.23219">
        <ele>2061</ele>
        <time>2017-09-16T11:38:21Z</time>
      </trkpt>
      <trkpt lat="44.13725" lon="7.23218">
        <ele>2061</ele>
        <time>2017-09-16T11:38:21Z</time>
      </trkpt>
      <trkpt lat="44.13723" lon="7.23216">
        <ele>2061</ele>
        <time>2017-09-16T11:38:21Z</time>
      </trkpt>
      <trkpt lat="44.13721" lon="7.23213">
        <ele>2061</ele>
        <time>2017-09-16T11:38:41Z</time>
      </trkpt>
      <trkpt lat="44.13719" lon="7.23211">
        <ele>2061</ele>
        <time>2017-09-16T11:38:41Z</time>
      </trkpt>
      <trkpt lat="44.13717" lon="7.23207">
        <ele>2064</ele>
        <time>2017-09-16T11:38:41Z</time>
      </trkpt>
      <trkpt lat="44.13716" lon="7.23205">
        <ele>2064</ele>
        <time>2017-09-16T11:38:41Z</time>
      </trkpt>
      <trkpt lat="44.13715" lon="7.23199">
        <ele>2064</ele>
        <time>2017-09-16T11:38:41Z</time>
      </trkpt>
      <trkpt lat="44.13713" lon="7.23195">
        <ele>2064</ele>
        <time>2017-09-16T11:39:05Z</time>
      </trkpt>
      <trkpt lat="44.13712" lon="7.23194">
        <ele>2064</ele>
        <time>2017-09-16T11:39:05Z</time>
      </trkpt>
      <trkpt lat="44.13711" lon="7.23189">
        <ele>2064</ele>
        <time>2017-09-16T11:39:05Z</time>
      </trkpt>
      <trkpt lat="44.13711" lon="7.23187">
        <ele>2064</ele>
        <time>2017-09-16T11:39:05Z</time>
      </trkpt>
      <trkpt lat="44.1371" lon="7.23183">
        <ele>2064</ele>
        <time>2017-09-16T11:39:05Z</time>
      </trkpt>
      <trkpt lat="44.13707" lon="7.23177">
        <ele>2076</ele>
        <time>2017-09-16T11:39:29Z</time>
      </trkpt>
      <trkpt lat="44.13706" lon="7.23176">
        <ele>2076</ele>
        <time>2017-09-16T11:39:29Z</time>
      </trkpt>
      <trkpt lat="44.13706" lon="7.23174">
        <ele>2076</ele>
        <time>2017-09-16T11:39:29Z</time>
      </trkpt>
      <trkpt lat="44.13704" lon="7.23171">
        <ele>2076</ele>
        <time>2017-09-16T11:39:29Z</time>
      </trkpt>
      <trkpt lat="44.13702" lon="7.23168">
        <ele>2076</ele>
        <time>2017-09-16T11:39:29Z</time>
      </trkpt>
      <trkpt lat="44.13695" lon="7.23159">
        <ele>2076</ele>
        <time>2017-09-16T11:40:09Z</time>
      </trkpt>
      <trkpt lat="44.13694" lon="7.23156">
        <ele>2076</ele>
        <time>2017-09-16T11:40:09Z</time>
      </trkpt>
      <trkpt lat="44.13693" lon="7.23155">
        <ele>2076</ele>
        <time>2017-09-16T11:40:09Z</time>
      </trkpt>
      <trkpt lat="44.13692" lon="7.2315">
        <ele>2076</ele>
        <time>2017-09-16T11:40:09Z</time>
      </trkpt>
      <trkpt lat="44.13689" lon="7.23144">
        <ele>2076</ele>
        <time>2017-09-16T11:40:09Z</time>
      </trkpt>
      <trkpt lat="44.13686" lon="7.23135">
        <ele>2076</ele>
        <time>2017-09-16T11:42:01Z</time>
      </trkpt>
      <trkpt lat="44.13686" lon="7.23134">
        <ele>2076</ele>
        <time>2017-09-16T11:42:01Z</time>
      </trkpt>
      <trkpt lat="44.13686" lon="7.23134">
        <ele>2076</ele>
        <time>2017-09-16T11:42:01Z</time>
      </trkpt>
      <trkpt lat="44.13687" lon="7.23132">
        <ele>2076</ele>
        <time>2017-09-16T11:42:01Z</time>
      </trkpt>
      <trkpt lat="44.13689" lon="7.23125">
        <ele>2076</ele>
        <time>2017-09-16T11:42:01Z</time>
      </trkpt>
      <trkpt lat="44.13692" lon="7.23118">
        <ele>2100</ele>
        <time>2017-09-16T11:42:21Z</time>
      </trkpt>
      <trkpt lat="44.13695" lon="7.23113">
        <ele>2100</ele>
        <time>2017-09-16T11:42:21Z</time>
      </trkpt>
      <trkpt lat="44.13696" lon="7.23112">
        <ele>2100</ele>
        <time>2017-09-16T11:42:21Z</time>
      </trkpt>
      <trkpt lat="44.13698" lon="7.23111">
        <ele>2100</ele>
        <time>2017-09-16T11:42:21Z</time>
      </trkpt>
      <trkpt lat="44.137" lon="7.23107">
        <ele>2100</ele>
        <time>2017-09-16T11:42:21Z</time>
      </trkpt>
      <trkpt lat="44.13701" lon="7.23105">
        <ele>2100</ele>
        <time>2017-09-16T11:42:49Z</time>
      </trkpt>
      <trkpt lat="44.13702" lon="7.23102">
        <ele>2100</ele>
        <time>2017-09-16T11:42:49Z</time>
      </trkpt>
      <trkpt lat="44.13704" lon="7.23099">
        <ele>2100</ele>
        <time>2017-09-16T11:42:49Z</time>
      </trkpt>
      <trkpt lat="44.13705" lon="7.23097">
        <ele>2100</ele>
        <time>2017-09-16T11:42:49Z</time>
      </trkpt>
      <trkpt lat="44.13707" lon="7.23095">
        <ele>2100</ele>
        <time>2017-09-16T11:42:49Z</time>
      </trkpt>
      <trkpt lat="44.13709" lon="7.23091">
        <ele>2081</ele>
        <time>2017-09-16T11:43:09Z</time>
      </trkpt>
      <trkpt lat="44.13713" lon="7.23087">
        <ele>2081</ele>
        <time>2017-09-16T11:43:09Z</time>
      </trkpt>
      <trkpt lat="44.13715" lon="7.23086">
        <ele>2081</ele>
        <time>2017-09-16T11:43:09Z</time>
      </trkpt>
      <trkpt lat="44.13717" lon="7.23084">
        <ele>2081</ele>
        <time>2017-09-16T11:43:09Z</time>
      </trkpt>
      <trkpt lat="44.13719" lon="7.23083">
        <ele>2081</ele>
        <time>2017-09-16T11:43:09Z</time>
      </trkpt>
      <trkpt lat="44.13723" lon="7.23077">
        <ele>2081</ele>
        <time>2017-09-16T11:43:33Z</time>
      </trkpt>
      <trkpt lat="44.13725" lon="7.23075">
        <ele>2081</ele>
        <time>2017-09-16T11:43:33Z</time>
      </trkpt>
      <trkpt lat="44.13727" lon="7.23076">
        <ele>2081</ele>
        <time>2017-09-16T11:43:33Z</time>
      </trkpt>
      <trkpt lat="44.13729" lon="7.23075">
        <ele>2081</ele>
        <time>2017-09-16T11:43:33Z</time>
      </trkpt>
      <trkpt lat="44.13731" lon="7.23073">
        <ele>2081</ele>
        <time>2017-09-16T11:43:33Z</time>
      </trkpt>
      <trkpt lat="44.1373" lon="7.23074">
        <ele>2081</ele>
        <time>2017-09-16T11:44:01Z</time>
      </trkpt>
      <trkpt lat="44.13728" lon="7.23075">
        <ele>2081</ele>
        <time>2017-09-16T11:44:01Z</time>
      </trkpt>
      <trkpt lat="44.13727" lon="7.23075">
        <ele>2081</ele>
        <time>2017-09-16T11:44:01Z</time>
      </trkpt>
      <trkpt lat="44.13725" lon="7.23077">
        <ele>2081</ele>
        <time>2017-09-16T11:44:01Z</time>
      </trkpt>
      <trkpt lat="44.13722" lon="7.23079">
        <ele>2081</ele>
        <time>2017-09-16T11:44:01Z</time>
      </trkpt>
      <trkpt lat="44.13719" lon="7.2308">
        <ele>2081</ele>
        <time>2017-09-16T11:44:25Z</time>
      </trkpt>
      <trkpt lat="44.13718" lon="7.23078">
        <ele>2081</ele>
        <time>2017-09-16T11:44:25Z</time>
      </trkpt>
      <trkpt lat="44.13715" lon="7.23076">
        <ele>2081</ele>
        <time>2017-09-16T11:44:25Z</time>
      </trkpt>
      <trkpt lat="44.13712" lon="7.23075">
        <ele>2081</ele>
        <time>2017-09-16T11:44:25Z</time>
      </trkpt>
      <trkpt lat="44.13709" lon="7.23074">
        <ele>2081</ele>
        <time>2017-09-16T11:44:25Z</time>
      </trkpt>
      <trkpt lat="44.13706" lon="7.23069">
        <ele>2100</ele>
        <time>2017-09-16T11:45:17Z</time>
      </trkpt>
      <trkpt lat="44.13707" lon="7.23067">
        <ele>2100</ele>
        <time>2017-09-16T11:45:17Z</time>
      </trkpt>
      <trkpt lat="44.13709" lon="7.23062">
        <ele>2081</ele>
        <time>2017-09-16T11:45:17Z</time>
      </trkpt>
      <trkpt lat="44.13709" lon="7.23057">
        <ele>2081</ele>
        <time>2017-09-16T11:45:17Z</time>
      </trkpt>
      <trkpt lat="44.13711" lon="7.23057">
        <ele>2081</ele>
        <time>2017-09-16T11:45:17Z</time>
      </trkpt>
      <trkpt lat="44.13708" lon="7.2306">
        <ele>2100</ele>
        <time>2017-09-16T11:46:29Z</time>
      </trkpt>
      <trkpt lat="44.13707" lon="7.2306">
        <ele>2100</ele>
        <time>2017-09-16T11:46:29Z</time>
      </trkpt>
      <trkpt lat="44.13703" lon="7.23061">
        <ele>2100</ele>
        <time>2017-09-16T11:46:29Z</time>
      </trkpt>
      <trkpt lat="44.137" lon="7.2306">
        <ele>2100</ele>
        <time>2017-09-16T11:46:29Z</time>
      </trkpt>
      <trkpt lat="44.13697" lon="7.23058">
        <ele>2100</ele>
        <time>2017-09-16T11:46:29Z</time>
      </trkpt>
      <trkpt lat="44.13696" lon="7.23058">
        <ele>2100</ele>
        <time>2017-09-16T11:46:49Z</time>
      </trkpt>
      <trkpt lat="44.13695" lon="7.23058">
        <ele>2100</ele>
        <time>2017-09-16T11:46:49Z</time>
      </trkpt>
      <trkpt lat="44.13692" lon="7.23058">
        <ele>2100</ele>
        <time>2017-09-16T11:46:49Z</time>
      </trkpt>
      <trkpt lat="44.13689" lon="7.2306">
        <ele>2100</ele>
        <time>2017-09-16T11:46:49Z</time>
      </trkpt>
      <trkpt lat="44.13687" lon="7.2306">
        <ele>2100</ele>
        <time>2017-09-16T11:46:49Z</time>
      </trkpt>
      <trkpt lat="44.13685" lon="7.2306">
        <ele>2100</ele>
        <time>2017-09-16T11:47:09Z</time>
      </trkpt>
      <trkpt lat="44.13683" lon="7.23062">
        <ele>2100</ele>
        <time>2017-09-16T11:47:09Z</time>
      </trkpt>
      <trkpt lat="44.13682" lon="7.23062">
        <ele>2100</ele>
        <time>2017-09-16T11:47:09Z</time>
      </trkpt>
      <trkpt lat="44.13679" lon="7.23064">
        <ele>2100</ele>
        <time>2017-09-16T11:47:09Z</time>
      </trkpt>
      <trkpt lat="44.13677" lon="7.23067">
        <ele>2100</ele>
        <time>2017-09-16T11:47:09Z</time>
      </trkpt>
      <trkpt lat="44.13679" lon="7.23068">
        <ele>2100</ele>
        <time>2017-09-16T11:48:29Z</time>
      </trkpt>
      <trkpt lat="44.1368" lon="7.23066">
        <ele>2100</ele>
        <time>2017-09-16T11:48:29Z</time>
      </trkpt>
      <trkpt lat="44.13679" lon="7.23061">
        <ele>2100</ele>
        <time>2017-09-16T11:48:29Z</time>
      </trkpt>
      <trkpt lat="44.13678" lon="7.23059">
        <ele>2100</ele>
        <time>2017-09-16T11:48:29Z</time>
      </trkpt>
      <trkpt lat="44.13676" lon="7.23054">
        <ele>2100</ele>
        <time>2017-09-16T11:48:29Z</time>
      </trkpt>
      <trkpt lat="44.13673" lon="7.23052">
        <ele>2100</ele>
        <time>2017-09-16T11:49:09Z</time>
      </trkpt>
      <trkpt lat="44.13671" lon="7.23049">
        <ele>2100</ele>
        <time>2017-09-16T11:49:09Z</time>
      </trkpt>
      <trkpt lat="44.1367" lon="7.23048">
        <ele>2100</ele>
        <time>2017-09-16T11:49:09Z</time>
      </trkpt>
      <trkpt lat="44.13667" lon="7.23046">
        <ele>2100</ele>
        <time>2017-09-16T11:49:09Z</time>
      </trkpt>
      <trkpt lat="44.13665" lon="7.23042">
        <ele>2100</ele>
        <time>2017-09-16T11:49:09Z</time>
      </trkpt>
      <trkpt lat="44.13661" lon="7.23037">
        <ele>2106</ele>
        <time>2017-09-16T11:49:33Z</time>
      </trkpt>
      <trkpt lat="44.13659" lon="7.23035">
        <ele>2106</ele>
        <time>2017-09-16T11:49:33Z</time>
      </trkpt>
      <trkpt lat="44.13657" lon="7.23034">
        <ele>2106</ele>
        <time>2017-09-16T11:49:33Z</time>
      </trkpt>
      <trkpt lat="44.13656" lon="7.23033">
        <ele>2106</ele>
        <time>2017-09-16T11:49:33Z</time>
      </trkpt>
      <trkpt lat="44.13653" lon="7.23032">
        <ele>2106</ele>
        <time>2017-09-16T11:49:33Z</time>
      </trkpt>
      <trkpt lat="44.1365" lon="7.23027">
        <ele>2106</ele>
        <time>2017-09-16T11:49:57Z</time>
      </trkpt>
      <trkpt lat="44.13648" lon="7.23026">
        <ele>2106</ele>
        <time>2017-09-16T11:49:57Z</time>
      </trkpt>
      <trkpt lat="44.13647" lon="7.23025">
        <ele>2106</ele>
        <time>2017-09-16T11:49:57Z</time>
      </trkpt>
      <trkpt lat="44.13644" lon="7.23022">
        <ele>2106</ele>
        <time>2017-09-16T11:49:57Z</time>
      </trkpt>
      <trkpt lat="44.13641" lon="7.23019">
        <ele>2106</ele>
        <time>2017-09-16T11:49:57Z</time>
      </trkpt>
      <trkpt lat="44.13634" lon="7.23014">
        <ele>2106</ele>
        <time>2017-09-16T11:50:21Z</time>
      </trkpt>
      <trkpt lat="44.13632" lon="7.23013">
        <ele>2106</ele>
        <time>2017-09-16T11:50:21Z</time>
      </trkpt>
      <trkpt lat="44.13631" lon="7.23013">
        <ele>2106</ele>
        <time>2017-09-16T11:50:21Z</time>
      </trkpt>
      <trkpt lat="44.1363" lon="7.23012">
        <ele>2106</ele>
        <time>2017-09-16T11:50:21Z</time>
      </trkpt>
      <trkpt lat="44.13628" lon="7.23011">
        <ele>2106</ele>
        <time>2017-09-16T11:50:21Z</time>
      </trkpt>
      <trkpt lat="44.13626" lon="7.2301">
        <ele>2106</ele>
        <time>2017-09-16T11:50:41Z</time>
      </trkpt>
      <trkpt lat="44.13624" lon="7.23009">
        <ele>2132</ele>
        <time>2017-09-16T11:50:41Z</time>
      </trkpt>
      <trkpt lat="44.13621" lon="7.23008">
        <ele>2132</ele>
        <time>2017-09-16T11:50:41Z</time>
      </trkpt>
      <trkpt lat="44.1362" lon="7.23007">
        <ele>2132</ele>
        <time>2017-09-16T11:50:41Z</time>
      </trkpt>
      <trkpt lat="44.13618" lon="7.23006">
        <ele>2132</ele>
        <time>2017-09-16T11:50:41Z</time>
      </trkpt>
      <trkpt lat="44.13614" lon="7.23001">
        <ele>2132</ele>
        <time>2017-09-16T11:51:05Z</time>
      </trkpt>
      <trkpt lat="44.13613" lon="7.23001">
        <ele>2132</ele>
        <time>2017-09-16T11:51:05Z</time>
      </trkpt>
      <trkpt lat="44.13611" lon="7.23">
        <ele>2132</ele>
        <time>2017-09-16T11:51:05Z</time>
      </trkpt>
      <trkpt lat="44.13609" lon="7.22999">
        <ele>2132</ele>
        <time>2017-09-16T11:51:05Z</time>
      </trkpt>
      <trkpt lat="44.13607" lon="7.22999">
        <ele>2132</ele>
        <time>2017-09-16T11:51:05Z</time>
      </trkpt>
      <trkpt lat="44.13602" lon="7.22999">
        <ele>2132</ele>
        <time>2017-09-16T11:51:33Z</time>
      </trkpt>
      <trkpt lat="44.136" lon="7.22999">
        <ele>2132</ele>
        <time>2017-09-16T11:51:33Z</time>
      </trkpt>
      <trkpt lat="44.13599" lon="7.22999">
        <ele>2132</ele>
        <time>2017-09-16T11:51:33Z</time>
      </trkpt>
      <trkpt lat="44.13598" lon="7.23">
        <ele>2132</ele>
        <time>2017-09-16T11:51:33Z</time>
      </trkpt>
      <trkpt lat="44.13597" lon="7.22999">
        <ele>2132</ele>
        <time>2017-09-16T11:51:33Z</time>
      </trkpt>
      <trkpt lat="44.13592" lon="7.22999">
        <ele>2132</ele>
        <time>2017-09-16T11:52:01Z</time>
      </trkpt>
      <trkpt lat="44.13591" lon="7.22999">
        <ele>2132</ele>
        <time>2017-09-16T11:52:01Z</time>
      </trkpt>
      <trkpt lat="44.13589" lon="7.23">
        <ele>2132</ele>
        <time>2017-09-16T11:52:01Z</time>
      </trkpt>
      <trkpt lat="44.13588" lon="7.23">
        <ele>2132</ele>
        <time>2017-09-16T11:52:01Z</time>
      </trkpt>
      <trkpt lat="44.13585" lon="7.22998">
        <ele>2132</ele>
        <time>2017-09-16T11:52:01Z</time>
      </trkpt>
      <trkpt lat="44.13582" lon="7.22997">
        <ele>2132</ele>
        <time>2017-09-16T11:52:25Z</time>
      </trkpt>
      <trkpt lat="44.1358" lon="7.22996">
        <ele>2132</ele>
        <time>2017-09-16T11:52:25Z</time>
      </trkpt>
      <trkpt lat="44.13579" lon="7.22994">
        <ele>2132</ele>
        <time>2017-09-16T11:52:25Z</time>
      </trkpt>
      <trkpt lat="44.13577" lon="7.22993">
        <ele>2132</ele>
        <time>2017-09-16T11:52:25Z</time>
      </trkpt>
      <trkpt lat="44.13575" lon="7.22992">
        <ele>2132</ele>
        <time>2017-09-16T11:52:25Z</time>
      </trkpt>
      <trkpt lat="44.1357" lon="7.22988">
        <ele>2132</ele>
        <time>2017-09-16T11:52:57Z</time>
      </trkpt>
      <trkpt lat="44.13569" lon="7.22988">
        <ele>2132</ele>
        <time>2017-09-16T11:52:57Z</time>
      </trkpt>
      <trkpt lat="44.13568" lon="7.22988">
        <ele>2132</ele>
        <time>2017-09-16T11:52:57Z</time>
      </trkpt>
      <trkpt lat="44.13566" lon="7.22988">
        <ele>2132</ele>
        <time>2017-09-16T11:52:57Z</time>
      </trkpt>
      <trkpt lat="44.13564" lon="7.22988">
        <ele>2132</ele>
        <time>2017-09-16T11:52:57Z</time>
      </trkpt>
      <trkpt lat="44.1356" lon="7.22991">
        <ele>2132</ele>
        <time>2017-09-16T11:53:29Z</time>
      </trkpt>
      <trkpt lat="44.13558" lon="7.22991">
        <ele>2132</ele>
        <time>2017-09-16T11:53:29Z</time>
      </trkpt>
      <trkpt lat="44.13555" lon="7.22991">
        <ele>2132</ele>
        <time>2017-09-16T11:53:29Z</time>
      </trkpt>
      <trkpt lat="44.13554" lon="7.22992">
        <ele>2132</ele>
        <time>2017-09-16T11:53:29Z</time>
      </trkpt>
      <trkpt lat="44.13553" lon="7.22992">
        <ele>2132</ele>
        <time>2017-09-16T11:53:29Z</time>
      </trkpt>
      <trkpt lat="44.1355" lon="7.22994">
        <ele>2132</ele>
        <time>2017-09-16T11:53:49Z</time>
      </trkpt>
      <trkpt lat="44.13548" lon="7.22995">
        <ele>2132</ele>
        <time>2017-09-16T11:53:49Z</time>
      </trkpt>
      <trkpt lat="44.13546" lon="7.22995">
        <ele>2132</ele>
        <time>2017-09-16T11:53:49Z</time>
      </trkpt>
      <trkpt lat="44.13543" lon="7.22997">
        <ele>2132</ele>
        <time>2017-09-16T11:53:49Z</time>
      </trkpt>
      <trkpt lat="44.13542" lon="7.22998">
        <ele>2149</ele>
        <time>2017-09-16T11:53:49Z</time>
      </trkpt>
      <trkpt lat="44.13536" lon="7.23001">
        <ele>2149</ele>
        <time>2017-09-16T11:54:17Z</time>
      </trkpt>
      <trkpt lat="44.13535" lon="7.23001">
        <ele>2149</ele>
        <time>2017-09-16T11:54:17Z</time>
      </trkpt>
      <trkpt lat="44.13532" lon="7.23001">
        <ele>2149</ele>
        <time>2017-09-16T11:54:17Z</time>
      </trkpt>
      <trkpt lat="44.13531" lon="7.23003">
        <ele>2149</ele>
        <time>2017-09-16T11:54:17Z</time>
      </trkpt>
      <trkpt lat="44.1353" lon="7.23005">
        <ele>2149</ele>
        <time>2017-09-16T11:54:17Z</time>
      </trkpt>
      <trkpt lat="44.13529" lon="7.23008">
        <ele>2149</ele>
        <time>2017-09-16T11:54:37Z</time>
      </trkpt>
      <trkpt lat="44.13527" lon="7.2301">
        <ele>2149</ele>
        <time>2017-09-16T11:54:37Z</time>
      </trkpt>
      <trkpt lat="44.13525" lon="7.23013">
        <ele>2149</ele>
        <time>2017-09-16T11:54:37Z</time>
      </trkpt>
      <trkpt lat="44.13522" lon="7.23014">
        <ele>2149</ele>
        <time>2017-09-16T11:54:37Z</time>
      </trkpt>
      <trkpt lat="44.1352" lon="7.23015">
        <ele>2149</ele>
        <time>2017-09-16T11:54:37Z</time>
      </trkpt>
      <trkpt lat="44.13515" lon="7.23018">
        <ele>2149</ele>
        <time>2017-09-16T11:55:09Z</time>
      </trkpt>
      <trkpt lat="44.13514" lon="7.23019">
        <ele>2149</ele>
        <time>2017-09-16T11:55:09Z</time>
      </trkpt>
      <trkpt lat="44.13512" lon="7.23021">
        <ele>2149</ele>
        <time>2017-09-16T11:55:09Z</time>
      </trkpt>
      <trkpt lat="44.13512" lon="7.23022">
        <ele>2149</ele>
        <time>2017-09-16T11:55:09Z</time>
      </trkpt>
      <trkpt lat="44.1351" lon="7.23022">
        <ele>2149</ele>
        <time>2017-09-16T11:55:09Z</time>
      </trkpt>
      <trkpt lat="44.13508" lon="7.23021">
        <ele>2149</ele>
        <time>2017-09-16T11:55:49Z</time>
      </trkpt>
      <trkpt lat="44.13505" lon="7.23024">
        <ele>2149</ele>
        <time>2017-09-16T11:55:49Z</time>
      </trkpt>
      <trkpt lat="44.135" lon="7.23027">
        <ele>2149</ele>
        <time>2017-09-16T11:55:49Z</time>
      </trkpt>
      <trkpt lat="44.13498" lon="7.23028">
        <ele>2149</ele>
        <time>2017-09-16T11:55:49Z</time>
      </trkpt>
      <trkpt lat="44.13497" lon="7.23028">
        <ele>2149</ele>
        <time>2017-09-16T11:55:49Z</time>
      </trkpt>
      <trkpt lat="44.13492" lon="7.23034">
        <ele>2149</ele>
        <time>2017-09-16T11:56:17Z</time>
      </trkpt>
      <trkpt lat="44.13491" lon="7.23035">
        <ele>2149</ele>
        <time>2017-09-16T11:56:17Z</time>
      </trkpt>
      <trkpt lat="44.1349" lon="7.23037">
        <ele>2149</ele>
        <time>2017-09-16T11:56:17Z</time>
      </trkpt>
      <trkpt lat="44.13489" lon="7.23037">
        <ele>2149</ele>
        <time>2017-09-16T11:56:17Z</time>
      </trkpt>
      <trkpt lat="44.13487" lon="7.23037">
        <ele>2149</ele>
        <time>2017-09-16T11:56:17Z</time>
      </trkpt>
      <trkpt lat="44.13486" lon="7.2304">
        <ele>2149</ele>
        <time>2017-09-16T11:56:41Z</time>
      </trkpt>
      <trkpt lat="44.13485" lon="7.23041">
        <ele>2149</ele>
        <time>2017-09-16T11:56:41Z</time>
      </trkpt>
      <trkpt lat="44.13483" lon="7.23041">
        <ele>2149</ele>
        <time>2017-09-16T11:56:41Z</time>
      </trkpt>
      <trkpt lat="44.13479" lon="7.23043">
        <ele>2139</ele>
        <time>2017-09-16T11:56:41Z</time>
      </trkpt>
      <trkpt lat="44.13474" lon="7.23045">
        <ele>2139</ele>
        <time>2017-09-16T11:56:41Z</time>
      </trkpt>
      <trkpt lat="44.1347" lon="7.23047">
        <ele>2139</ele>
        <time>2017-09-16T11:57:01Z</time>
      </trkpt>
      <trkpt lat="44.13467" lon="7.23049">
        <ele>2139</ele>
        <time>2017-09-16T11:57:01Z</time>
      </trkpt>
      <trkpt lat="44.13465" lon="7.2305">
        <ele>2139</ele>
        <time>2017-09-16T11:57:01Z</time>
      </trkpt>
      <trkpt lat="44.13463" lon="7.23051">
        <ele>2139</ele>
        <time>2017-09-16T11:57:01Z</time>
      </trkpt>
      <trkpt lat="44.13459" lon="7.23051">
        <ele>2139</ele>
        <time>2017-09-16T11:57:01Z</time>
      </trkpt>
      <trkpt lat="44.13456" lon="7.23051">
        <ele>2159</ele>
        <time>2017-09-16T11:57:25Z</time>
      </trkpt>
      <trkpt lat="44.13454" lon="7.23052">
        <ele>2159</ele>
        <time>2017-09-16T11:57:25Z</time>
      </trkpt>
      <trkpt lat="44.13452" lon="7.23052">
        <ele>2159</ele>
        <time>2017-09-16T11:57:25Z</time>
      </trkpt>
      <trkpt lat="44.1345" lon="7.23053">
        <ele>2159</ele>
        <time>2017-09-16T11:57:25Z</time>
      </trkpt>
      <trkpt lat="44.13448" lon="7.23054">
        <ele>2159</ele>
        <time>2017-09-16T11:57:25Z</time>
      </trkpt>
      <trkpt lat="44.13447" lon="7.23054">
        <ele>2159</ele>
        <time>2017-09-16T11:57:45Z</time>
      </trkpt>
      <trkpt lat="44.13444" lon="7.23055">
        <ele>2159</ele>
        <time>2017-09-16T11:57:45Z</time>
      </trkpt>
      <trkpt lat="44.13442" lon="7.23057">
        <ele>2159</ele>
        <time>2017-09-16T11:57:45Z</time>
      </trkpt>
      <trkpt lat="44.13441" lon="7.23058">
        <ele>2159</ele>
        <time>2017-09-16T11:57:45Z</time>
      </trkpt>
      <trkpt lat="44.13439" lon="7.2306">
        <ele>2159</ele>
        <time>2017-09-16T11:57:45Z</time>
      </trkpt>
      <trkpt lat="44.13436" lon="7.23062">
        <ele>2159</ele>
        <time>2017-09-16T11:58:09Z</time>
      </trkpt>
      <trkpt lat="44.13434" lon="7.23063">
        <ele>2159</ele>
        <time>2017-09-16T11:58:09Z</time>
      </trkpt>
      <trkpt lat="44.13432" lon="7.23064">
        <ele>2159</ele>
        <time>2017-09-16T11:58:09Z</time>
      </trkpt>
      <trkpt lat="44.1343" lon="7.23066">
        <ele>2159</ele>
        <time>2017-09-16T11:58:09Z</time>
      </trkpt>
      <trkpt lat="44.13428" lon="7.23066">
        <ele>2159</ele>
        <time>2017-09-16T11:58:09Z</time>
      </trkpt>
      <trkpt lat="44.13425" lon="7.23069">
        <ele>2159</ele>
        <time>2017-09-16T11:58:29Z</time>
      </trkpt>
      <trkpt lat="44.13422" lon="7.23072">
        <ele>2159</ele>
        <time>2017-09-16T11:58:29Z</time>
      </trkpt>
      <trkpt lat="44.13419" lon="7.23075">
        <ele>2159</ele>
        <time>2017-09-16T11:58:29Z</time>
      </trkpt>
      <trkpt lat="44.13418" lon="7.23074">
        <ele>2159</ele>
        <time>2017-09-16T11:58:29Z</time>
      </trkpt>
      <trkpt lat="44.13416" lon="7.23076">
        <ele>2159</ele>
        <time>2017-09-16T11:58:29Z</time>
      </trkpt>
      <trkpt lat="44.13414" lon="7.23077">
        <ele>2159</ele>
        <time>2017-09-16T11:58:49Z</time>
      </trkpt>
      <trkpt lat="44.13412" lon="7.23077">
        <ele>2159</ele>
        <time>2017-09-16T11:58:49Z</time>
      </trkpt>
      <trkpt lat="44.13409" lon="7.23078">
        <ele>2159</ele>
        <time>2017-09-16T11:58:49Z</time>
      </trkpt>
      <trkpt lat="44.13407" lon="7.23079">
        <ele>2159</ele>
        <time>2017-09-16T11:58:49Z</time>
      </trkpt>
      <trkpt lat="44.13406" lon="7.2308">
        <ele>2159</ele>
        <time>2017-09-16T11:58:49Z</time>
      </trkpt>
      <trkpt lat="44.13403" lon="7.23082">
        <ele>2159</ele>
        <time>2017-09-16T11:59:09Z</time>
      </trkpt>
      <trkpt lat="44.134" lon="7.23085">
        <ele>2159</ele>
        <time>2017-09-16T11:59:09Z</time>
      </trkpt>
      <trkpt lat="44.13398" lon="7.23086">
        <ele>2159</ele>
        <time>2017-09-16T11:59:09Z</time>
      </trkpt>
      <trkpt lat="44.13397" lon="7.23089">
        <ele>2159</ele>
        <time>2017-09-16T11:59:09Z</time>
      </trkpt>
      <trkpt lat="44.13395" lon="7.2309">
        <ele>2159</ele>
        <time>2017-09-16T11:59:09Z</time>
      </trkpt>
      <trkpt lat="44.13394" lon="7.23091">
        <ele>2159</ele>
        <time>2017-09-16T11:59:29Z</time>
      </trkpt>
      <trkpt lat="44.13393" lon="7.23093">
        <ele>2159</ele>
        <time>2017-09-16T11:59:29Z</time>
      </trkpt>
      <trkpt lat="44.13392" lon="7.23093">
        <ele>2159</ele>
        <time>2017-09-16T11:59:29Z</time>
      </trkpt>
      <trkpt lat="44.13389" lon="7.23094">
        <ele>2159</ele>
        <time>2017-09-16T11:59:29Z</time>
      </trkpt>
      <trkpt lat="44.13385" lon="7.23096">
        <ele>2159</ele>
        <time>2017-09-16T11:59:29Z</time>
      </trkpt>
      <trkpt lat="44.1338" lon="7.231">
        <ele>2159</ele>
        <time>2017-09-16T11:59:57Z</time>
      </trkpt>
      <trkpt lat="44.13379" lon="7.23102">
        <ele>2159</ele>
        <time>2017-09-16T11:59:57Z</time>
      </trkpt>
      <trkpt lat="44.13379" lon="7.23102">
        <ele>2159</ele>
        <time>2017-09-16T11:59:57Z</time>
      </trkpt>
      <trkpt lat="44.13378" lon="7.23104">
        <ele>2159</ele>
        <time>2017-09-16T11:59:57Z</time>
      </trkpt>
      <trkpt lat="44.13376" lon="7.23106">
        <ele>2159</ele>
        <time>2017-09-16T11:59:57Z</time>
      </trkpt>
      <trkpt lat="44.13373" lon="7.2311">
        <ele>2191</ele>
        <time>2017-09-16T12:00:25Z</time>
      </trkpt>
      <trkpt lat="44.13371" lon="7.23112">
        <ele>2191</ele>
        <time>2017-09-16T12:00:25Z</time>
      </trkpt>
      <trkpt lat="44.13369" lon="7.23116">
        <ele>2191</ele>
        <time>2017-09-16T12:00:25Z</time>
      </trkpt>
      <trkpt lat="44.13369" lon="7.23116">
        <ele>2191</ele>
        <time>2017-09-16T12:00:25Z</time>
      </trkpt>
      <trkpt lat="44.13369" lon="7.23117">
        <ele>2191</ele>
        <time>2017-09-16T12:00:25Z</time>
      </trkpt>
      <trkpt lat="44.13362" lon="7.2312">
        <ele>2191</ele>
        <time>2017-09-16T12:00:57Z</time>
      </trkpt>
      <trkpt lat="44.13362" lon="7.23121">
        <ele>2191</ele>
        <time>2017-09-16T12:00:57Z</time>
      </trkpt>
      <trkpt lat="44.1336" lon="7.23122">
        <ele>2191</ele>
        <time>2017-09-16T12:00:57Z</time>
      </trkpt>
      <trkpt lat="44.13359" lon="7.23123">
        <ele>2191</ele>
        <time>2017-09-16T12:00:57Z</time>
      </trkpt>
      <trkpt lat="44.13357" lon="7.23125">
        <ele>2170</ele>
        <time>2017-09-16T12:00:57Z</time>
      </trkpt>
      <trkpt lat="44.13351" lon="7.23134">
        <ele>2170</ele>
        <time>2017-09-16T12:01:33Z</time>
      </trkpt>
      <trkpt lat="44.13349" lon="7.23135">
        <ele>2170</ele>
        <time>2017-09-16T12:01:33Z</time>
      </trkpt>
      <trkpt lat="44.13347" lon="7.23136">
        <ele>2170</ele>
        <time>2017-09-16T12:01:33Z</time>
      </trkpt>
      <trkpt lat="44.13344" lon="7.23137">
        <ele>2170</ele>
        <time>2017-09-16T12:01:33Z</time>
      </trkpt>
      <trkpt lat="44.13342" lon="7.23138">
        <ele>2170</ele>
        <time>2017-09-16T12:01:33Z</time>
      </trkpt>
      <trkpt lat="44.13336" lon="7.23135">
        <ele>2170</ele>
        <time>2017-09-16T12:02:05Z</time>
      </trkpt>
      <trkpt lat="44.13335" lon="7.23134">
        <ele>2170</ele>
        <time>2017-09-16T12:02:05Z</time>
      </trkpt>
      <trkpt lat="44.13334" lon="7.23133">
        <ele>2170</ele>
        <time>2017-09-16T12:02:05Z</time>
      </trkpt>
      <trkpt lat="44.13333" lon="7.23133">
        <ele>2170</ele>
        <time>2017-09-16T12:02:05Z</time>
      </trkpt>
      <trkpt lat="44.1333" lon="7.23134">
        <ele>2170</ele>
        <time>2017-09-16T12:02:05Z</time>
      </trkpt>
      <trkpt lat="44.13328" lon="7.23135">
        <ele>2170</ele>
        <time>2017-09-16T12:02:21Z</time>
      </trkpt>
      <trkpt lat="44.13325" lon="7.23137">
        <ele>2170</ele>
        <time>2017-09-16T12:02:21Z</time>
      </trkpt>
      <trkpt lat="44.13322" lon="7.23139">
        <ele>2170</ele>
        <time>2017-09-16T12:02:21Z</time>
      </trkpt>
      <trkpt lat="44.13318" lon="7.23142">
        <ele>2170</ele>
        <time>2017-09-16T12:02:21Z</time>
      </trkpt>
      <trkpt lat="44.13315" lon="7.23141">
        <ele>2170</ele>
        <time>2017-09-16T12:02:37Z</time>
      </trkpt>
      <trkpt lat="44.13312" lon="7.23141">
        <ele>2170</ele>
        <time>2017-09-16T12:02:37Z</time>
      </trkpt>
      <trkpt lat="44.13309" lon="7.23141">
        <ele>2170</ele>
        <time>2017-09-16T12:02:37Z</time>
      </trkpt>
      <trkpt lat="44.13305" lon="7.2314">
        <ele>2170</ele>
        <time>2017-09-16T12:02:37Z</time>
      </trkpt>
      <trkpt lat="44.133" lon="7.23141">
        <ele>2170</ele>
        <time>2017-09-16T12:02:53Z</time>
      </trkpt>
      <trkpt lat="44.13295" lon="7.23141">
        <ele>2170</ele>
        <time>2017-09-16T12:02:53Z</time>
      </trkpt>
      <trkpt lat="44.13291" lon="7.23142">
        <ele>2179</ele>
        <time>2017-09-16T12:02:53Z</time>
      </trkpt>
      <trkpt lat="44.13286" lon="7.23142">
        <ele>2179</ele>
        <time>2017-09-16T12:02:53Z</time>
      </trkpt>
      <trkpt lat="44.13284" lon="7.23141">
        <ele>2179</ele>
        <time>2017-09-16T12:03:13Z</time>
      </trkpt>
      <trkpt lat="44.1328" lon="7.23141">
        <ele>2179</ele>
        <time>2017-09-16T12:03:13Z</time>
      </trkpt>
      <trkpt lat="44.13277" lon="7.2314">
        <ele>2179</ele>
        <time>2017-09-16T12:03:13Z</time>
      </trkpt>
      <trkpt lat="44.13276" lon="7.23139">
        <ele>2179</ele>
        <time>2017-09-16T12:03:13Z</time>
      </trkpt>
      <trkpt lat="44.13273" lon="7.23139">
        <ele>2179</ele>
        <time>2017-09-16T12:03:13Z</time>
      </trkpt>
      <trkpt lat="44.1327" lon="7.2314">
        <ele>2179</ele>
        <time>2017-09-16T12:03:29Z</time>
      </trkpt>
      <trkpt lat="44.13266" lon="7.23141">
        <ele>2179</ele>
        <time>2017-09-16T12:03:29Z</time>
      </trkpt>
      <trkpt lat="44.13263" lon="7.23141">
        <ele>2179</ele>
        <time>2017-09-16T12:03:29Z</time>
      </trkpt>
      <trkpt lat="44.13259" lon="7.23143">
        <ele>2179</ele>
        <time>2017-09-16T12:03:29Z</time>
      </trkpt>
      <trkpt lat="44.13254" lon="7.23145">
        <ele>2179</ele>
        <time>2017-09-16T12:03:49Z</time>
      </trkpt>
      <trkpt lat="44.13252" lon="7.23147">
        <ele>2179</ele>
        <time>2017-09-16T12:03:49Z</time>
      </trkpt>
      <trkpt lat="44.13251" lon="7.23147">
        <ele>2179</ele>
        <time>2017-09-16T12:03:49Z</time>
      </trkpt>
      <trkpt lat="44.13249" lon="7.23148">
        <ele>2179</ele>
        <time>2017-09-16T12:03:49Z</time>
      </trkpt>
      <trkpt lat="44.13245" lon="7.23147">
        <ele>2179</ele>
        <time>2017-09-16T12:03:49Z</time>
      </trkpt>
      <trkpt lat="44.13242" lon="7.23147">
        <ele>2179</ele>
        <time>2017-09-16T12:04:05Z</time>
      </trkpt>
      <trkpt lat="44.13237" lon="7.23148">
        <ele>2179</ele>
        <time>2017-09-16T12:04:05Z</time>
      </trkpt>
      <trkpt lat="44.13232" lon="7.23148">
        <ele>2179</ele>
        <time>2017-09-16T12:04:05Z</time>
      </trkpt>
      <trkpt lat="44.13229" lon="7.23146">
        <ele>2179</ele>
        <time>2017-09-16T12:04:05Z</time>
      </trkpt>
      <trkpt lat="44.13225" lon="7.23143">
        <ele>2179</ele>
        <time>2017-09-16T12:04:21Z</time>
      </trkpt>
      <trkpt lat="44.13223" lon="7.23142">
        <ele>2179</ele>
        <time>2017-09-16T12:04:21Z</time>
      </trkpt>
      <trkpt lat="44.13221" lon="7.23141">
        <ele>2179</ele>
        <time>2017-09-16T12:04:21Z</time>
      </trkpt>
      <trkpt lat="44.13216" lon="7.2314">
        <ele>2179</ele>
        <time>2017-09-16T12:04:21Z</time>
      </trkpt>
      <trkpt lat="44.13212" lon="7.23139">
        <ele>2179</ele>
        <time>2017-09-16T12:04:41Z</time>
      </trkpt>
      <trkpt lat="44.1321" lon="7.23138">
        <ele>2179</ele>
        <time>2017-09-16T12:04:41Z</time>
      </trkpt>
      <trkpt lat="44.13207" lon="7.23137">
        <ele>2189</ele>
        <time>2017-09-16T12:04:41Z</time>
      </trkpt>
      <trkpt lat="44.13204" lon="7.23135">
        <ele>2189</ele>
        <time>2017-09-16T12:04:41Z</time>
      </trkpt>
      <trkpt lat="44.13201" lon="7.23134">
        <ele>2189</ele>
        <time>2017-09-16T12:04:41Z</time>
      </trkpt>
      <trkpt lat="44.13197" lon="7.23135">
        <ele>2189</ele>
        <time>2017-09-16T12:04:57Z</time>
      </trkpt>
      <trkpt lat="44.13194" lon="7.23134">
        <ele>2189</ele>
        <time>2017-09-16T12:04:57Z</time>
      </trkpt>
      <trkpt lat="44.13192" lon="7.23132">
        <ele>2189</ele>
        <time>2017-09-16T12:04:57Z</time>
      </trkpt>
      <trkpt lat="44.13189" lon="7.2313">
        <ele>2189</ele>
        <time>2017-09-16T12:04:57Z</time>
      </trkpt>
      <trkpt lat="44.13186" lon="7.23129">
        <ele>2189</ele>
        <time>2017-09-16T12:05:13Z</time>
      </trkpt>
      <trkpt lat="44.13181" lon="7.23126">
        <ele>2189</ele>
        <time>2017-09-16T12:05:13Z</time>
      </trkpt>
      <trkpt lat="44.13178" lon="7.23124">
        <ele>2201</ele>
        <time>2017-09-16T12:05:13Z</time>
      </trkpt>
      <trkpt lat="44.13174" lon="7.23123">
        <ele>2201</ele>
        <time>2017-09-16T12:05:13Z</time>
      </trkpt>
      <trkpt lat="44.13171" lon="7.23123">
        <ele>2201</ele>
        <time>2017-09-16T12:05:33Z</time>
      </trkpt>
      <trkpt lat="44.13169" lon="7.23123">
        <ele>2201</ele>
        <time>2017-09-16T12:05:33Z</time>
      </trkpt>
      <trkpt lat="44.13167" lon="7.23125">
        <ele>2201</ele>
        <time>2017-09-16T12:05:33Z</time>
      </trkpt>
      <trkpt lat="44.13165" lon="7.23127">
        <ele>2189</ele>
        <time>2017-09-16T12:05:33Z</time>
      </trkpt>
      <trkpt lat="44.13163" lon="7.23128">
        <ele>2189</ele>
        <time>2017-09-16T12:05:33Z</time>
      </trkpt>
      <trkpt lat="44.13157" lon="7.23133">
        <ele>2189</ele>
        <time>2017-09-16T12:06:01Z</time>
      </trkpt>
      <trkpt lat="44.13157" lon="7.23136">
        <ele>2189</ele>
        <time>2017-09-16T12:06:01Z</time>
      </trkpt>
      <trkpt lat="44.13156" lon="7.23137">
        <ele>2189</ele>
        <time>2017-09-16T12:06:01Z</time>
      </trkpt>
      <trkpt lat="44.13153" lon="7.23137">
        <ele>2189</ele>
        <time>2017-09-16T12:06:01Z</time>
      </trkpt>
      <trkpt lat="44.13152" lon="7.23139">
        <ele>2189</ele>
        <time>2017-09-16T12:06:01Z</time>
      </trkpt>
      <trkpt lat="44.13149" lon="7.23142">
        <ele>2189</ele>
        <time>2017-09-16T12:06:17Z</time>
      </trkpt>
      <trkpt lat="44.13147" lon="7.23142">
        <ele>2189</ele>
        <time>2017-09-16T12:06:17Z</time>
      </trkpt>
      <trkpt lat="44.13142" lon="7.23145">
        <ele>2189</ele>
        <time>2017-09-16T12:06:17Z</time>
      </trkpt>
      <trkpt lat="44.1314" lon="7.23145">
        <ele>2189</ele>
        <time>2017-09-16T12:06:17Z</time>
      </trkpt>
      <trkpt lat="44.13138" lon="7.2315">
        <ele>2189</ele>
        <time>2017-09-16T12:06:45Z</time>
      </trkpt>
      <trkpt lat="44.13136" lon="7.23153">
        <ele>2189</ele>
        <time>2017-09-16T12:06:45Z</time>
      </trkpt>
      <trkpt lat="44.13136" lon="7.23154">
        <ele>2189</ele>
        <time>2017-09-16T12:06:45Z</time>
      </trkpt>
      <trkpt lat="44.13135" lon="7.23156">
        <ele>2189</ele>
        <time>2017-09-16T12:06:45Z</time>
      </trkpt>
      <trkpt lat="44.13135" lon="7.23159">
        <ele>2189</ele>
        <time>2017-09-16T12:06:45Z</time>
      </trkpt>
      <trkpt lat="44.13134" lon="7.23164">
        <ele>2189</ele>
        <time>2017-09-16T12:07:09Z</time>
      </trkpt>
      <trkpt lat="44.13135" lon="7.23167">
        <ele>2189</ele>
        <time>2017-09-16T12:07:09Z</time>
      </trkpt>
      <trkpt lat="44.13133" lon="7.23171">
        <ele>2189</ele>
        <time>2017-09-16T12:07:09Z</time>
      </trkpt>
      <trkpt lat="44.13132" lon="7.23172">
        <ele>2189</ele>
        <time>2017-09-16T12:07:09Z</time>
      </trkpt>
      <trkpt lat="44.1313" lon="7.23176">
        <ele>2189</ele>
        <time>2017-09-16T12:07:09Z</time>
      </trkpt>
      <trkpt lat="44.13128" lon="7.23181">
        <ele>2189</ele>
        <time>2017-09-16T12:07:41Z</time>
      </trkpt>
      <trkpt lat="44.13126" lon="7.23184">
        <ele>2189</ele>
        <time>2017-09-16T12:07:41Z</time>
      </trkpt>
      <trkpt lat="44.13125" lon="7.23185">
        <ele>2215</ele>
        <time>2017-09-16T12:07:41Z</time>
      </trkpt>
      <trkpt lat="44.13124" lon="7.23185">
        <ele>2215</ele>
        <time>2017-09-16T12:07:41Z</time>
      </trkpt>
      <trkpt lat="44.13124" lon="7.23186">
        <ele>2215</ele>
        <time>2017-09-16T12:07:41Z</time>
      </trkpt>
      <trkpt lat="44.13119" lon="7.23192">
        <ele>2215</ele>
        <time>2017-09-16T12:08:17Z</time>
      </trkpt>
      <trkpt lat="44.13118" lon="7.23192">
        <ele>2215</ele>
        <time>2017-09-16T12:08:17Z</time>
      </trkpt>
      <trkpt lat="44.13116" lon="7.23191">
        <ele>2215</ele>
        <time>2017-09-16T12:08:17Z</time>
      </trkpt>
      <trkpt lat="44.13114" lon="7.23191">
        <ele>2215</ele>
        <time>2017-09-16T12:08:17Z</time>
      </trkpt>
      <trkpt lat="44.13113" lon="7.2319">
        <ele>2215</ele>
        <time>2017-09-16T12:08:17Z</time>
      </trkpt>
      <trkpt lat="44.13112" lon="7.2319">
        <ele>2215</ele>
        <time>2017-09-16T12:08:53Z</time>
      </trkpt>
      <trkpt lat="44.13112" lon="7.2319">
        <ele>2215</ele>
        <time>2017-09-16T12:08:53Z</time>
      </trkpt>
      <trkpt lat="44.13108" lon="7.23192">
        <ele>2215</ele>
        <time>2017-09-16T12:08:53Z</time>
      </trkpt>
      <trkpt lat="44.13106" lon="7.23192">
        <ele>2215</ele>
        <time>2017-09-16T12:08:53Z</time>
      </trkpt>
      <trkpt lat="44.13103" lon="7.23192">
        <ele>2215</ele>
        <time>2017-09-16T12:08:53Z</time>
      </trkpt>
      <trkpt lat="44.13098" lon="7.23188">
        <ele>2215</ele>
        <time>2017-09-16T12:09:33Z</time>
      </trkpt>
      <trkpt lat="44.13096" lon="7.23187">
        <ele>2215</ele>
        <time>2017-09-16T12:09:33Z</time>
      </trkpt>
      <trkpt lat="44.13095" lon="7.23186">
        <ele>2215</ele>
        <time>2017-09-16T12:09:33Z</time>
      </trkpt>
      <trkpt lat="44.13094" lon="7.23185">
        <ele>2215</ele>
        <time>2017-09-16T12:09:33Z</time>
      </trkpt>
      <trkpt lat="44.13091" lon="7.23184">
        <ele>2215</ele>
        <time>2017-09-16T12:09:33Z</time>
      </trkpt>
      <trkpt lat="44.1309" lon="7.23183">
        <ele>2215</ele>
        <time>2017-09-16T12:10:05Z</time>
      </trkpt>
      <trkpt lat="44.13088" lon="7.23185">
        <ele>2215</ele>
        <time>2017-09-16T12:10:05Z</time>
      </trkpt>
      <trkpt lat="44.13088" lon="7.2319">
        <ele>2215</ele>
        <time>2017-09-16T12:10:05Z</time>
      </trkpt>
      <trkpt lat="44.13089" lon="7.23196">
        <ele>2215</ele>
        <time>2017-09-16T12:10:05Z</time>
      </trkpt>
      <trkpt lat="44.1309" lon="7.23199">
        <ele>2215</ele>
        <time>2017-09-16T12:10:05Z</time>
      </trkpt>
      <trkpt lat="44.13087" lon="7.23206">
        <ele>2215</ele>
        <time>2017-09-16T12:11:01Z</time>
      </trkpt>
      <trkpt lat="44.13085" lon="7.23209">
        <ele>2223</ele>
        <time>2017-09-16T12:11:01Z</time>
      </trkpt>
      <trkpt lat="44.13083" lon="7.23211">
        <ele>2223</ele>
        <time>2017-09-16T12:11:01Z</time>
      </trkpt>
      <trkpt lat="44.13082" lon="7.23213">
        <ele>2223</ele>
        <time>2017-09-16T12:11:01Z</time>
      </trkpt>
      <trkpt lat="44.13079" lon="7.23216">
        <ele>2223</ele>
        <time>2017-09-16T12:11:01Z</time>
      </trkpt>
      <trkpt lat="44.13073" lon="7.23208">
        <ele>2215</ele>
        <time>2017-09-16T12:13:09Z</time>
      </trkpt>
      <trkpt lat="44.13072" lon="7.23209">
        <ele>2223</ele>
        <time>2017-09-16T12:13:09Z</time>
      </trkpt>
      <trkpt lat="44.13071" lon="7.23208">
        <ele>2215</ele>
        <time>2017-09-16T12:13:09Z</time>
      </trkpt>
      <trkpt lat="44.13071" lon="7.23208">
        <ele>2215</ele>
        <time>2017-09-16T12:13:09Z</time>
      </trkpt>
      <trkpt lat="44.13071" lon="7.23207">
        <ele>2215</ele>
        <time>2017-09-16T12:13:09Z</time>
      </trkpt>
      <trkpt lat="44.13072" lon="7.23206">
        <ele>2215</ele>
        <time>2017-09-16T12:14:33Z</time>
      </trkpt>
      <trkpt lat="44.1307" lon="7.23209">
        <ele>2223</ele>
        <time>2017-09-16T12:14:33Z</time>
      </trkpt>
      <trkpt lat="44.13066" lon="7.23212">
        <ele>2223</ele>
        <time>2017-09-16T12:14:33Z</time>
      </trkpt>
      <trkpt lat="44.13062" lon="7.23213">
        <ele>2223</ele>
        <time>2017-09-16T12:14:33Z</time>
      </trkpt>
      <trkpt lat="44.13058" lon="7.23214">
        <ele>2223</ele>
        <time>2017-09-16T12:14:33Z</time>
      </trkpt>
      <trkpt lat="44.13053" lon="7.23213">
        <ele>2223</ele>
        <time>2017-09-16T12:17:01Z</time>
      </trkpt>
      <trkpt lat="44.1305" lon="7.23214">
        <ele>2223</ele>
        <time>2017-09-16T12:17:01Z</time>
      </trkpt>
      <trkpt lat="44.13048" lon="7.23213">
        <ele>2223</ele>
        <time>2017-09-16T12:17:01Z</time>
      </trkpt>
      <trkpt lat="44.13044" lon="7.23213">
        <ele>2223</ele>
        <time>2017-09-16T12:17:01Z</time>
      </trkpt>
      <trkpt lat="44.1304" lon="7.23211">
        <ele>2235</ele>
        <time>2017-09-16T12:17:01Z</time>
      </trkpt>
      <trkpt lat="44.13037" lon="7.23207">
        <ele>2229</ele>
        <time>2017-09-16T12:17:17Z</time>
      </trkpt>
      <trkpt lat="44.13035" lon="7.23205">
        <ele>2229</ele>
        <time>2017-09-16T12:17:17Z</time>
      </trkpt>
      <trkpt lat="44.13032" lon="7.23202">
        <ele>2229</ele>
        <time>2017-09-16T12:17:17Z</time>
      </trkpt>
      <trkpt lat="44.1303" lon="7.23198">
        <ele>2229</ele>
        <time>2017-09-16T12:17:17Z</time>
      </trkpt>
      <trkpt lat="44.13028" lon="7.23196">
        <ele>2229</ele>
        <time>2017-09-16T12:17:33Z</time>
      </trkpt>
      <trkpt lat="44.13025" lon="7.23193">
        <ele>2229</ele>
        <time>2017-09-16T12:17:33Z</time>
      </trkpt>
      <trkpt lat="44.13023" lon="7.23191">
        <ele>2229</ele>
        <time>2017-09-16T12:17:33Z</time>
      </trkpt>
      <trkpt lat="44.1302" lon="7.2319">
        <ele>2229</ele>
        <time>2017-09-16T12:17:33Z</time>
      </trkpt>
      <trkpt lat="44.13018" lon="7.23189">
        <ele>2229</ele>
        <time>2017-09-16T12:17:49Z</time>
      </trkpt>
      <trkpt lat="44.13016" lon="7.23186">
        <ele>2229</ele>
        <time>2017-09-16T12:17:49Z</time>
      </trkpt>
      <trkpt lat="44.13014" lon="7.23183">
        <ele>2229</ele>
        <time>2017-09-16T12:17:49Z</time>
      </trkpt>
      <trkpt lat="44.13011" lon="7.2318">
        <ele>2229</ele>
        <time>2017-09-16T12:17:49Z</time>
      </trkpt>
      <trkpt lat="44.13008" lon="7.23174">
        <ele>2229</ele>
        <time>2017-09-16T12:18:13Z</time>
      </trkpt>
      <trkpt lat="44.13006" lon="7.23173">
        <ele>2229</ele>
        <time>2017-09-16T12:18:13Z</time>
      </trkpt>
      <trkpt lat="44.13004" lon="7.23174">
        <ele>2229</ele>
        <time>2017-09-16T12:18:13Z</time>
      </trkpt>
      <trkpt lat="44.13001" lon="7.23172">
        <ele>2229</ele>
        <time>2017-09-16T12:18:13Z</time>
      </trkpt>
      <trkpt lat="44.12998" lon="7.23169">
        <ele>2229</ele>
        <time>2017-09-16T12:18:13Z</time>
      </trkpt>
      <trkpt lat="44.12997" lon="7.23156">
        <ele>2229</ele>
        <time>2017-09-16T12:19:01Z</time>
      </trkpt>
      <trkpt lat="44.12998" lon="7.23155">
        <ele>2229</ele>
        <time>2017-09-16T12:19:01Z</time>
      </trkpt>
      <trkpt lat="44.12998" lon="7.23154">
        <ele>2229</ele>
        <time>2017-09-16T12:19:01Z</time>
      </trkpt>
      <trkpt lat="44.12998" lon="7.23154">
        <ele>2229</ele>
        <time>2017-09-16T12:19:01Z</time>
      </trkpt>
      <trkpt lat="44.12997" lon="7.23153">
        <ele>2229</ele>
        <time>2017-09-16T12:19:01Z</time>
      </trkpt>
      <trkpt lat="44.12995" lon="7.23145">
        <ele>2229</ele>
        <time>2017-09-16T12:19:41Z</time>
      </trkpt>
      <trkpt lat="44.12994" lon="7.23145">
        <ele>2229</ele>
        <time>2017-09-16T12:19:41Z</time>
      </trkpt>
      <trkpt lat="44.12993" lon="7.23145">
        <ele>2229</ele>
        <time>2017-09-16T12:19:41Z</time>
      </trkpt>
      <trkpt lat="44.12991" lon="7.23145">
        <ele>2229</ele>
        <time>2017-09-16T12:19:41Z</time>
      </trkpt>
      <trkpt lat="44.1299" lon="7.23144">
        <ele>2229</ele>
        <time>2017-09-16T12:19:41Z</time>
      </trkpt>
      <trkpt lat="44.1298" lon="7.23139">
        <ele>2229</ele>
        <time>2017-09-16T12:20:25Z</time>
      </trkpt>
      <trkpt lat="44.12978" lon="7.2314">
        <ele>2229</ele>
        <time>2017-09-16T12:20:25Z</time>
      </trkpt>
      <trkpt lat="44.12977" lon="7.2314">
        <ele>2229</ele>
        <time>2017-09-16T12:20:25Z</time>
      </trkpt>
      <trkpt lat="44.12974" lon="7.2314">
        <ele>2229</ele>
        <time>2017-09-16T12:20:25Z</time>
      </trkpt>
      <trkpt lat="44.12971" lon="7.2314">
        <ele>2229</ele>
        <time>2017-09-16T12:20:25Z</time>
      </trkpt>
      <trkpt lat="44.12964" lon="7.23136">
        <ele>2229</ele>
        <time>2017-09-16T12:20:57Z</time>
      </trkpt>
      <trkpt lat="44.12962" lon="7.23138">
        <ele>2229</ele>
        <time>2017-09-16T12:20:57Z</time>
      </trkpt>
      <trkpt lat="44.12961" lon="7.23138">
        <ele>2229</ele>
        <time>2017-09-16T12:20:57Z</time>
      </trkpt>
      <trkpt lat="44.12959" lon="7.23138">
        <ele>2229</ele>
        <time>2017-09-16T12:20:57Z</time>
      </trkpt>
      <trkpt lat="44.12959" lon="7.23135">
        <ele>2229</ele>
        <time>2017-09-16T12:20:57Z</time>
      </trkpt>
      <trkpt lat="44.12952" lon="7.23137">
        <ele>2250</ele>
        <time>2017-09-16T12:21:25Z</time>
      </trkpt>
      <trkpt lat="44.12952" lon="7.23136">
        <ele>2250</ele>
        <time>2017-09-16T12:21:25Z</time>
      </trkpt>
      <trkpt lat="44.12952" lon="7.2313">
        <ele>2250</ele>
        <time>2017-09-16T12:21:25Z</time>
      </trkpt>
      <trkpt lat="44.12952" lon="7.23128">
        <ele>2250</ele>
        <time>2017-09-16T12:21:25Z</time>
      </trkpt>
      <trkpt lat="44.12949" lon="7.23121">
        <ele>2259</ele>
        <time>2017-09-16T12:21:25Z</time>
      </trkpt>
      <trkpt lat="44.12948" lon="7.23117">
        <ele>2259</ele>
        <time>2017-09-16T12:21:49Z</time>
      </trkpt>
      <trkpt lat="44.12946" lon="7.23117">
        <ele>2259</ele>
        <time>2017-09-16T12:21:49Z</time>
      </trkpt>
      <trkpt lat="44.12942" lon="7.23122">
        <ele>2259</ele>
        <time>2017-09-16T12:21:49Z</time>
      </trkpt>
      <trkpt lat="44.1294" lon="7.2312">
        <ele>2259</ele>
        <time>2017-09-16T12:21:49Z</time>
      </trkpt>
      <trkpt lat="44.12938" lon="7.23123">
        <ele>2259</ele>
        <time>2017-09-16T12:21:49Z</time>
      </trkpt>
      <trkpt lat="44.1294" lon="7.23126">
        <ele>2250</ele>
        <time>2017-09-16T12:22:05Z</time>
      </trkpt>
      <trkpt lat="44.12937" lon="7.2313">
        <ele>2250</ele>
        <time>2017-09-16T12:22:05Z</time>
      </trkpt>
      <trkpt lat="44.12933" lon="7.23131">
        <ele>2250</ele>
        <time>2017-09-16T12:22:05Z</time>
      </trkpt>
      <trkpt lat="44.12931" lon="7.23132">
        <ele>2250</ele>
        <time>2017-09-16T12:22:05Z</time>
      </trkpt>
      <trkpt lat="44.1293" lon="7.23122">
        <ele>2259</ele>
        <time>2017-09-16T12:22:37Z</time>
      </trkpt>
      <trkpt lat="44.12926" lon="7.23126">
        <ele>2250</ele>
        <time>2017-09-16T12:22:37Z</time>
      </trkpt>
      <trkpt lat="44.12925" lon="7.23126">
        <ele>2250</ele>
        <time>2017-09-16T12:22:37Z</time>
      </trkpt>
      <trkpt lat="44.12923" lon="7.23124">
        <ele>2259</ele>
        <time>2017-09-16T12:22:37Z</time>
      </trkpt>
      <trkpt lat="44.12922" lon="7.23122">
        <ele>2259</ele>
        <time>2017-09-16T12:22:37Z</time>
      </trkpt>
      <trkpt lat="44.1292" lon="7.2312">
        <ele>2259</ele>
        <time>2017-09-16T12:23:05Z</time>
      </trkpt>
      <trkpt lat="44.12918" lon="7.23119">
        <ele>2259</ele>
        <time>2017-09-16T12:23:05Z</time>
      </trkpt>
      <trkpt lat="44.12916" lon="7.23119">
        <ele>2259</ele>
        <time>2017-09-16T12:23:05Z</time>
      </trkpt>
      <trkpt lat="44.12913" lon="7.23123">
        <ele>2259</ele>
        <time>2017-09-16T12:23:05Z</time>
      </trkpt>
      <trkpt lat="44.12909" lon="7.23128">
        <ele>2250</ele>
        <time>2017-09-16T12:23:05Z</time>
      </trkpt>
      <trkpt lat="44.1291" lon="7.23127">
        <ele>2250</ele>
        <time>2017-09-16T12:23:29Z</time>
      </trkpt>
      <trkpt lat="44.12911" lon="7.23121">
        <ele>2259</ele>
        <time>2017-09-16T12:23:29Z</time>
      </trkpt>
      <trkpt lat="44.12912" lon="7.23119">
        <ele>2259</ele>
        <time>2017-09-16T12:23:29Z</time>
      </trkpt>
      <trkpt lat="44.12912" lon="7.23118">
        <ele>2259</ele>
        <time>2017-09-16T12:23:29Z</time>
      </trkpt>
      <trkpt lat="44.12911" lon="7.23113">
        <ele>2259</ele>
        <time>2017-09-16T12:23:29Z</time>
      </trkpt>
      <trkpt lat="44.12907" lon="7.23103">
        <ele>2259</ele>
        <time>2017-09-16T12:24:13Z</time>
      </trkpt>
      <trkpt lat="44.12904" lon="7.23108">
        <ele>2259</ele>
        <time>2017-09-16T12:24:13Z</time>
      </trkpt>
      <trkpt lat="44.12901" lon="7.23108">
        <ele>2259</ele>
        <time>2017-09-16T12:24:13Z</time>
      </trkpt>
      <trkpt lat="44.129" lon="7.23109">
        <ele>2259</ele>
        <time>2017-09-16T12:24:13Z</time>
      </trkpt>
      <trkpt lat="44.129" lon="7.23109">
        <ele>2259</ele>
        <time>2017-09-16T12:24:13Z</time>
      </trkpt>
      <trkpt lat="44.12895" lon="7.23115">
        <ele>2259</ele>
        <time>2017-09-16T12:24:41Z</time>
      </trkpt>
      <trkpt lat="44.12894" lon="7.23115">
        <ele>2259</ele>
        <time>2017-09-16T12:24:41Z</time>
      </trkpt>
      <trkpt lat="44.1289" lon="7.23116">
        <ele>2259</ele>
        <time>2017-09-16T12:24:41Z</time>
      </trkpt>
      <trkpt lat="44.1289" lon="7.23118">
        <ele>2259</ele>
        <time>2017-09-16T12:24:41Z</time>
      </trkpt>
      <trkpt lat="44.12889" lon="7.23118">
        <ele>2259</ele>
        <time>2017-09-16T12:24:41Z</time>
      </trkpt>
      <trkpt lat="44.12884" lon="7.23114">
        <ele>2259</ele>
        <time>2017-09-16T12:25:13Z</time>
      </trkpt>
      <trkpt lat="44.12882" lon="7.23113">
        <ele>2259</ele>
        <time>2017-09-16T12:25:13Z</time>
      </trkpt>
      <trkpt lat="44.12883" lon="7.23109">
        <ele>2259</ele>
        <time>2017-09-16T12:25:13Z</time>
      </trkpt>
      <trkpt lat="44.12882" lon="7.23109">
        <ele>2259</ele>
        <time>2017-09-16T12:25:13Z</time>
      </trkpt>
      <trkpt lat="44.12877" lon="7.23109">
        <ele>2259</ele>
        <time>2017-09-16T12:25:13Z</time>
      </trkpt>
      <trkpt lat="44.12877" lon="7.23106">
        <ele>2259</ele>
        <time>2017-09-16T12:25:41Z</time>
      </trkpt>
      <trkpt lat="44.12876" lon="7.23105">
        <ele>2259</ele>
        <time>2017-09-16T12:25:41Z</time>
      </trkpt>
      <trkpt lat="44.12876" lon="7.23102">
        <ele>2259</ele>
        <time>2017-09-16T12:25:41Z</time>
      </trkpt>
      <trkpt lat="44.12874" lon="7.23098">
        <ele>2282</ele>
        <time>2017-09-16T12:25:41Z</time>
      </trkpt>
      <trkpt lat="44.12875" lon="7.23097">
        <ele>2282</ele>
        <time>2017-09-16T12:25:41Z</time>
      </trkpt>
      <trkpt lat="44.12875" lon="7.23092">
        <ele>2259</ele>
        <time>2017-09-16T12:26:01Z</time>
      </trkpt>
      <trkpt lat="44.12877" lon="7.23088">
        <ele>2259</ele>
        <time>2017-09-16T12:26:01Z</time>
      </trkpt>
      <trkpt lat="44.12876" lon="7.23087">
        <ele>2259</ele>
        <time>2017-09-16T12:26:01Z</time>
      </trkpt>
      <trkpt lat="44.12874" lon="7.23082">
        <ele>2282</ele>
        <time>2017-09-16T12:26:01Z</time>
      </trkpt>
      <trkpt lat="44.12872" lon="7.23079">
        <ele>2282</ele>
        <time>2017-09-16T12:26:01Z</time>
      </trkpt>
      <trkpt lat="44.12873" lon="7.23053">
        <ele>2282</ele>
        <time>2017-09-16T12:28:01Z</time>
      </trkpt>
      <trkpt lat="44.12873" lon="7.23053">
        <ele>2282</ele>
        <time>2017-09-16T12:28:01Z</time>
      </trkpt>
      <trkpt lat="44.12874" lon="7.23052">
        <ele>2282</ele>
        <time>2017-09-16T12:28:01Z</time>
      </trkpt>
      <trkpt lat="44.12874" lon="7.23052">
        <ele>2282</ele>
        <time>2017-09-16T12:28:01Z</time>
      </trkpt>
      <trkpt lat="44.12872" lon="7.2305">
        <ele>2282</ele>
        <time>2017-09-16T12:28:01Z</time>
      </trkpt>
      <trkpt lat="44.12868" lon="7.23051">
        <ele>2282</ele>
        <time>2017-09-16T12:29:53Z</time>
      </trkpt>
      <trkpt lat="44.12866" lon="7.23045">
        <ele>2282</ele>
        <time>2017-09-16T12:29:53Z</time>
      </trkpt>
      <trkpt lat="44.12865" lon="7.23043">
        <ele>2282</ele>
        <time>2017-09-16T12:29:53Z</time>
      </trkpt>
      <trkpt lat="44.12865" lon="7.23043">
        <ele>2282</ele>
        <time>2017-09-16T12:29:53Z</time>
      </trkpt>
      <trkpt lat="44.12864" lon="7.2304">
        <ele>2294</ele>
        <time>2017-09-16T12:29:53Z</time>
      </trkpt>
      <trkpt lat="44.12858" lon="7.23032">
        <ele>2294</ele>
        <time>2017-09-16T12:30:25Z</time>
      </trkpt>
      <trkpt lat="44.12857" lon="7.23032">
        <ele>2294</ele>
        <time>2017-09-16T12:30:25Z</time>
      </trkpt>
      <trkpt lat="44.12856" lon="7.23032">
        <ele>2294</ele>
        <time>2017-09-16T12:30:25Z</time>
      </trkpt>
      <trkpt lat="44.12854" lon="7.23031">
        <ele>2294</ele>
        <time>2017-09-16T12:30:25Z</time>
      </trkpt>
      <trkpt lat="44.12852" lon="7.2303">
        <ele>2294</ele>
        <time>2017-09-16T12:30:25Z</time>
      </trkpt>
      <trkpt lat="44.12847" lon="7.23027">
        <ele>2294</ele>
        <time>2017-09-16T12:31:01Z</time>
      </trkpt>
      <trkpt lat="44.12846" lon="7.23025">
        <ele>2294</ele>
        <time>2017-09-16T12:31:01Z</time>
      </trkpt>
      <trkpt lat="44.12846" lon="7.23024">
        <ele>2294</ele>
        <time>2017-09-16T12:31:01Z</time>
      </trkpt>
      <trkpt lat="44.12845" lon="7.23024">
        <ele>2294</ele>
        <time>2017-09-16T12:31:01Z</time>
      </trkpt>
      <trkpt lat="44.12843" lon="7.23021">
        <ele>2294</ele>
        <time>2017-09-16T12:31:01Z</time>
      </trkpt>
      <trkpt lat="44.12834" lon="7.23019">
        <ele>2294</ele>
        <time>2017-09-16T12:32:13Z</time>
      </trkpt>
      <trkpt lat="44.12834" lon="7.23019">
        <ele>2294</ele>
        <time>2017-09-16T12:32:13Z</time>
      </trkpt>
      <trkpt lat="44.12832" lon="7.23018">
        <ele>2294</ele>
        <time>2017-09-16T12:32:13Z</time>
      </trkpt>
      <trkpt lat="44.12831" lon="7.23017">
        <ele>2294</ele>
        <time>2017-09-16T12:32:13Z</time>
      </trkpt>
      <trkpt lat="44.12829" lon="7.23017">
        <ele>2294</ele>
        <time>2017-09-16T12:32:13Z</time>
      </trkpt>
      <trkpt lat="44.12825" lon="7.23021">
        <ele>2294</ele>
        <time>2017-09-16T12:32:57Z</time>
      </trkpt>
      <trkpt lat="44.12825" lon="7.23022">
        <ele>2294</ele>
        <time>2017-09-16T12:32:57Z</time>
      </trkpt>
      <trkpt lat="44.12822" lon="7.23022">
        <ele>2294</ele>
        <time>2017-09-16T12:32:57Z</time>
      </trkpt>
      <trkpt lat="44.12819" lon="7.23022">
        <ele>2294</ele>
        <time>2017-09-16T12:32:57Z</time>
      </trkpt>
      <trkpt lat="44.12818" lon="7.23019">
        <ele>2294</ele>
        <time>2017-09-16T12:32:57Z</time>
      </trkpt>
      <trkpt lat="44.12818" lon="7.23013">
        <ele>2294</ele>
        <time>2017-09-16T12:33:21Z</time>
      </trkpt>
      <trkpt lat="44.12819" lon="7.23011">
        <ele>2294</ele>
        <time>2017-09-16T12:33:21Z</time>
      </trkpt>
      <trkpt lat="44.12821" lon="7.2301">
        <ele>2294</ele>
        <time>2017-09-16T12:33:21Z</time>
      </trkpt>
      <trkpt lat="44.12823" lon="7.23007">
        <ele>2294</ele>
        <time>2017-09-16T12:33:21Z</time>
      </trkpt>
      <trkpt lat="44.12825" lon="7.23004">
        <ele>2294</ele>
        <time>2017-09-16T12:33:21Z</time>
      </trkpt>
      <trkpt lat="44.12829" lon="7.22998">
        <ele>2294</ele>
        <time>2017-09-16T12:35:45Z</time>
      </trkpt>
      <trkpt lat="44.1283" lon="7.22996">
        <ele>2294</ele>
        <time>2017-09-16T12:35:45Z</time>
      </trkpt>
      <trkpt lat="44.12829" lon="7.22995">
        <ele>2294</ele>
        <time>2017-09-16T12:35:45Z</time>
      </trkpt>
      <trkpt lat="44.12832" lon="7.22993">
        <ele>2294</ele>
        <time>2017-09-16T12:35:45Z</time>
      </trkpt>
      <trkpt lat="44.12835" lon="7.22991">
        <ele>2294</ele>
        <time>2017-09-16T12:35:45Z</time>
      </trkpt>
      <trkpt lat="44.12837" lon="7.22988">
        <ele>2294</ele>
        <time>2017-09-16T12:36:05Z</time>
      </trkpt>
      <trkpt lat="44.12838" lon="7.22985">
        <ele>2294</ele>
        <time>2017-09-16T12:36:05Z</time>
      </trkpt>
      <trkpt lat="44.12839" lon="7.22981">
        <ele>2294</ele>
        <time>2017-09-16T12:36:05Z</time>
      </trkpt>
      <trkpt lat="44.12839" lon="7.22978">
        <ele>2294</ele>
        <time>2017-09-16T12:36:05Z</time>
      </trkpt>
      <trkpt lat="44.12838" lon="7.22973">
        <ele>2294</ele>
        <time>2017-09-16T12:36:05Z</time>
      </trkpt>
      <trkpt lat="44.12838" lon="7.22972">
        <ele>2294</ele>
        <time>2017-09-16T12:36:25Z</time>
      </trkpt>
      <trkpt lat="44.12838" lon="7.2297">
        <ele>2294</ele>
        <time>2017-09-16T12:36:25Z</time>
      </trkpt>
      <trkpt lat="44.12838" lon="7.22966">
        <ele>2294</ele>
        <time>2017-09-16T12:36:25Z</time>
      </trkpt>
      <trkpt lat="44.12837" lon="7.22962">
        <ele>2294</ele>
        <time>2017-09-16T12:36:25Z</time>
      </trkpt>
      <trkpt lat="44.12836" lon="7.2296">
        <ele>2294</ele>
        <time>2017-09-16T12:36:25Z</time>
      </trkpt>
      <trkpt lat="44.12833" lon="7.22957">
        <ele>2318</ele>
        <time>2017-09-16T12:36:53Z</time>
      </trkpt>
      <trkpt lat="44.12831" lon="7.22955">
        <ele>2318</ele>
        <time>2017-09-16T12:36:53Z</time>
      </trkpt>
      <trkpt lat="44.12828" lon="7.22955">
        <ele>2318</ele>
        <time>2017-09-16T12:36:53Z</time>
      </trkpt>
      <trkpt lat="44.12826" lon="7.22954">
        <ele>2318</ele>
        <time>2017-09-16T12:36:53Z</time>
      </trkpt>
      <trkpt lat="44.12826" lon="7.22953">
        <ele>2318</ele>
        <time>2017-09-16T12:36:53Z</time>
      </trkpt>
      <trkpt lat="44.12814" lon="7.22938">
        <ele>2318</ele>
        <time>2017-09-16T12:37:41Z</time>
      </trkpt>
      <trkpt lat="44.12815" lon="7.22936">
        <ele>2318</ele>
        <time>2017-09-16T12:37:41Z</time>
      </trkpt>
      <trkpt lat="44.12815" lon="7.22934">
        <ele>2318</ele>
        <time>2017-09-16T12:37:41Z</time>
      </trkpt>
      <trkpt lat="44.12815" lon="7.22933">
        <ele>2318</ele>
        <time>2017-09-16T12:37:41Z</time>
      </trkpt>
      <trkpt lat="44.12813" lon="7.22933">
        <ele>2318</ele>
        <time>2017-09-16T12:37:41Z</time>
      </trkpt>
      <trkpt lat="44.12811" lon="7.2293">
        <ele>2318</ele>
        <time>2017-09-16T12:38:05Z</time>
      </trkpt>
      <trkpt lat="44.1281" lon="7.22928">
        <ele>2318</ele>
        <time>2017-09-16T12:38:05Z</time>
      </trkpt>
      <trkpt lat="44.12809" lon="7.22927">
        <ele>2318</ele>
        <time>2017-09-16T12:38:05Z</time>
      </trkpt>
      <trkpt lat="44.12809" lon="7.22925">
        <ele>2318</ele>
        <time>2017-09-16T12:38:05Z</time>
      </trkpt>
      <trkpt lat="44.12807" lon="7.22918">
        <ele>2318</ele>
        <time>2017-09-16T12:38:05Z</time>
      </trkpt>
      <trkpt lat="44.12808" lon="7.22915">
        <ele>2318</ele>
        <time>2017-09-16T12:38:45Z</time>
      </trkpt>
      <trkpt lat="44.12805" lon="7.22915">
        <ele>2318</ele>
        <time>2017-09-16T12:38:45Z</time>
      </trkpt>
      <trkpt lat="44.12802" lon="7.22917">
        <ele>2318</ele>
        <time>2017-09-16T12:38:45Z</time>
      </trkpt>
      <trkpt lat="44.128" lon="7.22914">
        <ele>2318</ele>
        <time>2017-09-16T12:38:45Z</time>
      </trkpt>
      <trkpt lat="44.12798" lon="7.22911">
        <ele>2318</ele>
        <time>2017-09-16T12:38:45Z</time>
      </trkpt>
      <trkpt lat="44.12796" lon="7.22905">
        <ele>2318</ele>
        <time>2017-09-16T12:39:09Z</time>
      </trkpt>
      <trkpt lat="44.12796" lon="7.22905">
        <ele>2318</ele>
        <time>2017-09-16T12:39:09Z</time>
      </trkpt>
      <trkpt lat="44.12794" lon="7.22903">
        <ele>2318</ele>
        <time>2017-09-16T12:39:09Z</time>
      </trkpt>
      <trkpt lat="44.12793" lon="7.22899">
        <ele>2318</ele>
        <time>2017-09-16T12:39:09Z</time>
      </trkpt>
      <trkpt lat="44.12791" lon="7.22895">
        <ele>2311</ele>
        <time>2017-09-16T12:39:09Z</time>
      </trkpt>
      <trkpt lat="44.1279" lon="7.22894">
        <ele>2311</ele>
        <time>2017-09-16T12:39:37Z</time>
      </trkpt>
      <trkpt lat="44.12789" lon="7.22891">
        <ele>2311</ele>
        <time>2017-09-16T12:39:37Z</time>
      </trkpt>
      <trkpt lat="44.12788" lon="7.22889">
        <ele>2311</ele>
        <time>2017-09-16T12:39:37Z</time>
      </trkpt>
      <trkpt lat="44.12786" lon="7.22886">
        <ele>2311</ele>
        <time>2017-09-16T12:39:37Z</time>
      </trkpt>
      <trkpt lat="44.12785" lon="7.22882">
        <ele>2311</ele>
        <time>2017-09-16T12:39:37Z</time>
      </trkpt>
      <trkpt lat="44.12782" lon="7.22875">
        <ele>2346</ele>
        <time>2017-09-16T12:41:05Z</time>
      </trkpt>
      <trkpt lat="44.1278" lon="7.22873">
        <ele>2346</ele>
        <time>2017-09-16T12:41:05Z</time>
      </trkpt>
      <trkpt lat="44.12777" lon="7.22871">
        <ele>2346</ele>
        <time>2017-09-16T12:41:05Z</time>
      </trkpt>
      <trkpt lat="44.12774" lon="7.22869">
        <ele>2346</ele>
        <time>2017-09-16T12:41:05Z</time>
      </trkpt>
      <trkpt lat="44.12772" lon="7.22867">
        <ele>2346</ele>
        <time>2017-09-16T12:41:05Z</time>
      </trkpt>
      <trkpt lat="44.12771" lon="7.22866">
        <ele>2346</ele>
        <time>2017-09-16T12:41:21Z</time>
      </trkpt>
      <trkpt lat="44.12767" lon="7.22863">
        <ele>2346</ele>
        <time>2017-09-16T12:41:21Z</time>
      </trkpt>
      <trkpt lat="44.12763" lon="7.22861">
        <ele>2346</ele>
        <time>2017-09-16T12:41:21Z</time>
      </trkpt>
      <trkpt lat="44.1276" lon="7.2286">
        <ele>2346</ele>
        <time>2017-09-16T12:41:21Z</time>
      </trkpt>
      <trkpt lat="44.12757" lon="7.22859">
        <ele>2346</ele>
        <time>2017-09-16T12:41:41Z</time>
      </trkpt>
      <trkpt lat="44.12755" lon="7.22859">
        <ele>2346</ele>
        <time>2017-09-16T12:41:41Z</time>
      </trkpt>
      <trkpt lat="44.12753" lon="7.22857">
        <ele>2346</ele>
        <time>2017-09-16T12:41:41Z</time>
      </trkpt>
      <trkpt lat="44.12749" lon="7.22857">
        <ele>2346</ele>
        <time>2017-09-16T12:41:41Z</time>
      </trkpt>
      <trkpt lat="44.12746" lon="7.22858">
        <ele>2346</ele>
        <time>2017-09-16T12:41:41Z</time>
      </trkpt>
      <trkpt lat="44.12745" lon="7.2286">
        <ele>2346</ele>
        <time>2017-09-16T12:42:05Z</time>
      </trkpt>
      <trkpt lat="44.12743" lon="7.2286">
        <ele>2346</ele>
        <time>2017-09-16T12:42:05Z</time>
      </trkpt>
      <trkpt lat="44.12742" lon="7.22859">
        <ele>2346</ele>
        <time>2017-09-16T12:42:05Z</time>
      </trkpt>
      <trkpt lat="44.12739" lon="7.2286">
        <ele>2346</ele>
        <time>2017-09-16T12:42:05Z</time>
      </trkpt>
      <trkpt lat="44.12735" lon="7.22862">
        <ele>2346</ele>
        <time>2017-09-16T12:42:05Z</time>
      </trkpt>
      <trkpt lat="44.12728" lon="7.22861">
        <ele>2346</ele>
        <time>2017-09-16T12:42:33Z</time>
      </trkpt>
      <trkpt lat="44.12726" lon="7.22858">
        <ele>2346</ele>
        <time>2017-09-16T12:42:33Z</time>
      </trkpt>
      <trkpt lat="44.12725" lon="7.22858">
        <ele>2346</ele>
        <time>2017-09-16T12:42:33Z</time>
      </trkpt>
      <trkpt lat="44.12725" lon="7.22858">
        <ele>2346</ele>
        <time>2017-09-16T12:42:33Z</time>
      </trkpt>
      <trkpt lat="44.12723" lon="7.22855">
        <ele>2346</ele>
        <time>2017-09-16T12:42:33Z</time>
      </trkpt>
      <trkpt lat="44.12716" lon="7.2285">
        <ele>2346</ele>
        <time>2017-09-16T12:43:05Z</time>
      </trkpt>
      <trkpt lat="44.12714" lon="7.2285">
        <ele>2346</ele>
        <time>2017-09-16T12:43:05Z</time>
      </trkpt>
      <trkpt lat="44.12714" lon="7.22849">
        <ele>2346</ele>
        <time>2017-09-16T12:43:05Z</time>
      </trkpt>
      <trkpt lat="44.12714" lon="7.22848">
        <ele>2346</ele>
        <time>2017-09-16T12:43:05Z</time>
      </trkpt>
      <trkpt lat="44.12713" lon="7.22847">
        <ele>2346</ele>
        <time>2017-09-16T12:43:05Z</time>
      </trkpt>
      <trkpt lat="44.12705" lon="7.22843">
        <ele>2339</ele>
        <time>2017-09-16T12:43:37Z</time>
      </trkpt>
      <trkpt lat="44.12704" lon="7.22842">
        <ele>2339</ele>
        <time>2017-09-16T12:43:37Z</time>
      </trkpt>
      <trkpt lat="44.12703" lon="7.22841">
        <ele>2339</ele>
        <time>2017-09-16T12:43:37Z</time>
      </trkpt>
      <trkpt lat="44.12701" lon="7.2284">
        <ele>2339</ele>
        <time>2017-09-16T12:43:37Z</time>
      </trkpt>
      <trkpt lat="44.12699" lon="7.2284">
        <ele>2339</ele>
        <time>2017-09-16T12:43:37Z</time>
      </trkpt>
      <trkpt lat="44.12694" lon="7.22838">
        <ele>2339</ele>
        <time>2017-09-16T12:44:01Z</time>
      </trkpt>
      <trkpt lat="44.12692" lon="7.22836">
        <ele>2339</ele>
        <time>2017-09-16T12:44:01Z</time>
      </trkpt>
      <trkpt lat="44.1269" lon="7.22835">
        <ele>2339</ele>
        <time>2017-09-16T12:44:01Z</time>
      </trkpt>
      <trkpt lat="44.12689" lon="7.22833">
        <ele>2339</ele>
        <time>2017-09-16T12:44:01Z</time>
      </trkpt>
      <trkpt lat="44.12688" lon="7.22832">
        <ele>2339</ele>
        <time>2017-09-16T12:44:01Z</time>
      </trkpt>
      <trkpt lat="44.1268" lon="7.2283">
        <ele>2339</ele>
        <time>2017-09-16T12:44:33Z</time>
      </trkpt>
      <trkpt lat="44.12679" lon="7.2283">
        <ele>2339</ele>
        <time>2017-09-16T12:44:33Z</time>
      </trkpt>
      <trkpt lat="44.12679" lon="7.2283">
        <ele>2339</ele>
        <time>2017-09-16T12:44:33Z</time>
      </trkpt>
      <trkpt lat="44.12678" lon="7.22829">
        <ele>2339</ele>
        <time>2017-09-16T12:44:33Z</time>
      </trkpt>
      <trkpt lat="44.12675" lon="7.22827">
        <ele>2339</ele>
        <time>2017-09-16T12:44:33Z</time>
      </trkpt>
      <trkpt lat="44.12669" lon="7.22821">
        <ele>2339</ele>
        <time>2017-09-16T12:45:09Z</time>
      </trkpt>
      <trkpt lat="44.12667" lon="7.22821">
        <ele>2339</ele>
        <time>2017-09-16T12:45:09Z</time>
      </trkpt>
      <trkpt lat="44.12665" lon="7.22822">
        <ele>2339</ele>
        <time>2017-09-16T12:45:09Z</time>
      </trkpt>
      <trkpt lat="44.12664" lon="7.22821">
        <ele>2339</ele>
        <time>2017-09-16T12:45:09Z</time>
      </trkpt>
      <trkpt lat="44.12663" lon="7.22822">
        <ele>2339</ele>
        <time>2017-09-16T12:45:09Z</time>
      </trkpt>
      <trkpt lat="44.12656" lon="7.22823">
        <ele>2339</ele>
        <time>2017-09-16T12:45:45Z</time>
      </trkpt>
      <trkpt lat="44.12656" lon="7.22825">
        <ele>2339</ele>
        <time>2017-09-16T12:45:45Z</time>
      </trkpt>
      <trkpt lat="44.12653" lon="7.22827">
        <ele>2339</ele>
        <time>2017-09-16T12:45:45Z</time>
      </trkpt>
      <trkpt lat="44.12652" lon="7.22828">
        <ele>2339</ele>
        <time>2017-09-16T12:45:45Z</time>
      </trkpt>
      <trkpt lat="44.12651" lon="7.22828">
        <ele>2339</ele>
        <time>2017-09-16T12:45:45Z</time>
      </trkpt>
      <trkpt lat="44.12647" lon="7.22832">
        <ele>2339</ele>
        <time>2017-09-16T12:46:05Z</time>
      </trkpt>
      <trkpt lat="44.12645" lon="7.22832">
        <ele>2339</ele>
        <time>2017-09-16T12:46:05Z</time>
      </trkpt>
      <trkpt lat="44.12643" lon="7.22835">
        <ele>2339</ele>
        <time>2017-09-16T12:46:05Z</time>
      </trkpt>
      <trkpt lat="44.12641" lon="7.22834">
        <ele>2339</ele>
        <time>2017-09-16T12:46:05Z</time>
      </trkpt>
      <trkpt lat="44.12638" lon="7.22836">
        <ele>2339</ele>
        <time>2017-09-16T12:46:05Z</time>
      </trkpt>
      <trkpt lat="44.12634" lon="7.22834">
        <ele>2339</ele>
        <time>2017-09-16T12:46:33Z</time>
      </trkpt>
      <trkpt lat="44.12634" lon="7.22832">
        <ele>2339</ele>
        <time>2017-09-16T12:46:33Z</time>
      </trkpt>
      <trkpt lat="44.12632" lon="7.22831">
        <ele>2339</ele>
        <time>2017-09-16T12:46:33Z</time>
      </trkpt>
      <trkpt lat="44.1263" lon="7.22832">
        <ele>2339</ele>
        <time>2017-09-16T12:46:33Z</time>
      </trkpt>
      <trkpt lat="44.12628" lon="7.22834">
        <ele>2339</ele>
        <time>2017-09-16T12:46:33Z</time>
      </trkpt>
      <trkpt lat="44.12626" lon="7.22833">
        <ele>2339</ele>
        <time>2017-09-16T12:46:53Z</time>
      </trkpt>
      <trkpt lat="44.12625" lon="7.2283">
        <ele>2339</ele>
        <time>2017-09-16T12:46:53Z</time>
      </trkpt>
      <trkpt lat="44.12623" lon="7.22828">
        <ele>2346</ele>
        <time>2017-09-16T12:46:53Z</time>
      </trkpt>
      <trkpt lat="44.1262" lon="7.22827">
        <ele>2346</ele>
        <time>2017-09-16T12:46:53Z</time>
      </trkpt>
      <trkpt lat="44.12616" lon="7.22827">
        <ele>2346</ele>
        <time>2017-09-16T12:46:53Z</time>
      </trkpt>
      <trkpt lat="44.12615" lon="7.22825">
        <ele>2346</ele>
        <time>2017-09-16T12:47:13Z</time>
      </trkpt>
      <trkpt lat="44.12613" lon="7.22827">
        <ele>2346</ele>
        <time>2017-09-16T12:47:13Z</time>
      </trkpt>
      <trkpt lat="44.1261" lon="7.22827">
        <ele>2346</ele>
        <time>2017-09-16T12:47:13Z</time>
      </trkpt>
      <trkpt lat="44.12608" lon="7.22827">
        <ele>2346</ele>
        <time>2017-09-16T12:47:13Z</time>
      </trkpt>
      <trkpt lat="44.12605" lon="7.22827">
        <ele>2346</ele>
        <time>2017-09-16T12:47:13Z</time>
      </trkpt>
      <trkpt lat="44.12603" lon="7.22827">
        <ele>2346</ele>
        <time>2017-09-16T12:47:33Z</time>
      </trkpt>
      <trkpt lat="44.126" lon="7.22826">
        <ele>2346</ele>
        <time>2017-09-16T12:47:33Z</time>
      </trkpt>
      <trkpt lat="44.12598" lon="7.22825">
        <ele>2346</ele>
        <time>2017-09-16T12:47:33Z</time>
      </trkpt>
      <trkpt lat="44.12596" lon="7.22825">
        <ele>2346</ele>
        <time>2017-09-16T12:47:33Z</time>
      </trkpt>
      <trkpt lat="44.12594" lon="7.22825">
        <ele>2346</ele>
        <time>2017-09-16T12:47:33Z</time>
      </trkpt>
      <trkpt lat="44.12591" lon="7.22824">
        <ele>2346</ele>
        <time>2017-09-16T12:48:01Z</time>
      </trkpt>
      <trkpt lat="44.12588" lon="7.22825">
        <ele>2346</ele>
        <time>2017-09-16T12:48:01Z</time>
      </trkpt>
      <trkpt lat="44.12584" lon="7.22827">
        <ele>2346</ele>
        <time>2017-09-16T12:48:01Z</time>
      </trkpt>
      <trkpt lat="44.12583" lon="7.22828">
        <ele>2346</ele>
        <time>2017-09-16T12:48:01Z</time>
      </trkpt>
      <trkpt lat="44.1258" lon="7.22829">
        <ele>2346</ele>
        <time>2017-09-16T12:48:01Z</time>
      </trkpt>
      <trkpt lat="44.12576" lon="7.22828">
        <ele>2346</ele>
        <time>2017-09-16T12:48:25Z</time>
      </trkpt>
      <trkpt lat="44.12574" lon="7.22828">
        <ele>2346</ele>
        <time>2017-09-16T12:48:25Z</time>
      </trkpt>
      <trkpt lat="44.12571" lon="7.22827">
        <ele>2346</ele>
        <time>2017-09-16T12:48:25Z</time>
      </trkpt>
      <trkpt lat="44.1257" lon="7.22827">
        <ele>2346</ele>
        <time>2017-09-16T12:48:25Z</time>
      </trkpt>
      <trkpt lat="44.12568" lon="7.22826">
        <ele>2346</ele>
        <time>2017-09-16T12:48:25Z</time>
      </trkpt>
      <trkpt lat="44.12562" lon="7.22824">
        <ele>2346</ele>
        <time>2017-09-16T12:48:53Z</time>
      </trkpt>
      <trkpt lat="44.1256" lon="7.22822">
        <ele>2346</ele>
        <time>2017-09-16T12:48:53Z</time>
      </trkpt>
      <trkpt lat="44.12559" lon="7.22822">
        <ele>2346</ele>
        <time>2017-09-16T12:48:53Z</time>
      </trkpt>
      <trkpt lat="44.12557" lon="7.22822">
        <ele>2346</ele>
        <time>2017-09-16T12:48:53Z</time>
      </trkpt>
      <trkpt lat="44.12556" lon="7.22822">
        <ele>2346</ele>
        <time>2017-09-16T12:48:53Z</time>
      </trkpt>
      <trkpt lat="44.12552" lon="7.22822">
        <ele>2346</ele>
        <time>2017-09-16T12:49:17Z</time>
      </trkpt>
      <trkpt lat="44.12549" lon="7.22823">
        <ele>2346</ele>
        <time>2017-09-16T12:49:17Z</time>
      </trkpt>
      <trkpt lat="44.12548" lon="7.22824">
        <ele>2346</ele>
        <time>2017-09-16T12:49:17Z</time>
      </trkpt>
      <trkpt lat="44.12547" lon="7.22823">
        <ele>2346</ele>
        <time>2017-09-16T12:49:17Z</time>
      </trkpt>
      <trkpt lat="44.12544" lon="7.22823">
        <ele>2346</ele>
        <time>2017-09-16T12:49:17Z</time>
      </trkpt>
      <trkpt lat="44.12538" lon="7.22825">
        <ele>2360</ele>
        <time>2017-09-16T12:49:33Z</time>
      </trkpt>
      <trkpt lat="44.12534" lon="7.22825">
        <ele>2360</ele>
        <time>2017-09-16T12:49:33Z</time>
      </trkpt>
      <trkpt lat="44.12531" lon="7.22825">
        <ele>2360</ele>
        <time>2017-09-16T12:49:33Z</time>
      </trkpt>
      <trkpt lat="44.12528" lon="7.22826">
        <ele>2360</ele>
        <time>2017-09-16T12:49:33Z</time>
      </trkpt>
      <trkpt lat="44.12525" lon="7.22826">
        <ele>2360</ele>
        <time>2017-09-16T12:49:53Z</time>
      </trkpt>
      <trkpt lat="44.12522" lon="7.22826">
        <ele>2360</ele>
        <time>2017-09-16T12:49:53Z</time>
      </trkpt>
      <trkpt lat="44.12519" lon="7.22826">
        <ele>2360</ele>
        <time>2017-09-16T12:49:53Z</time>
      </trkpt>
      <trkpt lat="44.12517" lon="7.22825">
        <ele>2360</ele>
        <time>2017-09-16T12:49:53Z</time>
      </trkpt>
      <trkpt lat="44.12515" lon="7.22824">
        <ele>2360</ele>
        <time>2017-09-16T12:49:53Z</time>
      </trkpt>
      <trkpt lat="44.12511" lon="7.22825">
        <ele>2360</ele>
        <time>2017-09-16T12:50:09Z</time>
      </trkpt>
      <trkpt lat="44.12508" lon="7.22825">
        <ele>2360</ele>
        <time>2017-09-16T12:50:09Z</time>
      </trkpt>
      <trkpt lat="44.12505" lon="7.22824">
        <ele>2360</ele>
        <time>2017-09-16T12:50:09Z</time>
      </trkpt>
      <trkpt lat="44.12502" lon="7.22824">
        <ele>2360</ele>
        <time>2017-09-16T12:50:09Z</time>
      </trkpt>
      <trkpt lat="44.12496" lon="7.22823">
        <ele>2360</ele>
        <time>2017-09-16T12:50:37Z</time>
      </trkpt>
      <trkpt lat="44.12496" lon="7.22824">
        <ele>2360</ele>
        <time>2017-09-16T12:50:37Z</time>
      </trkpt>
      <trkpt lat="44.12494" lon="7.22824">
        <ele>2360</ele>
        <time>2017-09-16T12:50:37Z</time>
      </trkpt>
      <trkpt lat="44.12492" lon="7.22825">
        <ele>2360</ele>
        <time>2017-09-16T12:50:37Z</time>
      </trkpt>
      <trkpt lat="44.12487" lon="7.22828">
        <ele>2360</ele>
        <time>2017-09-16T12:50:37Z</time>
      </trkpt>
      <trkpt lat="44.12477" lon="7.22834">
        <ele>2360</ele>
        <time>2017-09-16T12:51:41Z</time>
      </trkpt>
      <trkpt lat="44.12477" lon="7.22834">
        <ele>2360</ele>
        <time>2017-09-16T12:51:41Z</time>
      </trkpt>
      <trkpt lat="44.12477" lon="7.22834">
        <ele>2360</ele>
        <time>2017-09-16T12:51:41Z</time>
      </trkpt>
      <trkpt lat="44.12476" lon="7.22834">
        <ele>2360</ele>
        <time>2017-09-16T12:51:41Z</time>
      </trkpt>
      <trkpt lat="44.12475" lon="7.22835">
        <ele>2360</ele>
        <time>2017-09-16T12:51:41Z</time>
      </trkpt>
      <trkpt lat="44.12471" lon="7.22836">
        <ele>2360</ele>
        <time>2017-09-16T12:51:57Z</time>
      </trkpt>
      <trkpt lat="44.12467" lon="7.22836">
        <ele>2360</ele>
        <time>2017-09-16T12:51:57Z</time>
      </trkpt>
      <trkpt lat="44.12463" lon="7.22836">
        <ele>2360</ele>
        <time>2017-09-16T12:51:57Z</time>
      </trkpt>
      <trkpt lat="44.1246" lon="7.22837">
        <ele>2360</ele>
        <time>2017-09-16T12:51:57Z</time>
      </trkpt>
      <trkpt lat="44.12456" lon="7.22839">
        <ele>2388</ele>
        <time>2017-09-16T12:52:13Z</time>
      </trkpt>
      <trkpt lat="44.12453" lon="7.22839">
        <ele>2388</ele>
        <time>2017-09-16T12:52:13Z</time>
      </trkpt>
      <trkpt lat="44.1245" lon="7.22839">
        <ele>2388</ele>
        <time>2017-09-16T12:52:13Z</time>
      </trkpt>
      <trkpt lat="44.12447" lon="7.2284">
        <ele>2388</ele>
        <time>2017-09-16T12:52:13Z</time>
      </trkpt>
      <trkpt lat="44.12443" lon="7.22842">
        <ele>2388</ele>
        <time>2017-09-16T12:52:33Z</time>
      </trkpt>
      <trkpt lat="44.1244" lon="7.22844">
        <ele>2388</ele>
        <time>2017-09-16T12:52:33Z</time>
      </trkpt>
      <trkpt lat="44.12438" lon="7.22845">
        <ele>2388</ele>
        <time>2017-09-16T12:52:33Z</time>
      </trkpt>
      <trkpt lat="44.12435" lon="7.22848">
        <ele>2388</ele>
        <time>2017-09-16T12:52:33Z</time>
      </trkpt>
      <trkpt lat="44.12432" lon="7.22852">
        <ele>2388</ele>
        <time>2017-09-16T12:52:33Z</time>
      </trkpt>
      <trkpt lat="44.12427" lon="7.22858">
        <ele>2388</ele>
        <time>2017-09-16T12:52:49Z</time>
      </trkpt>
      <trkpt lat="44.12422" lon="7.22863">
        <ele>2388</ele>
        <time>2017-09-16T12:52:49Z</time>
      </trkpt>
      <trkpt lat="44.12418" lon="7.22865">
        <ele>2388</ele>
        <time>2017-09-16T12:52:49Z</time>
      </trkpt>
      <trkpt lat="44.12411" lon="7.22867">
        <ele>2388</ele>
        <time>2017-09-16T12:52:49Z</time>
      </trkpt>
      <trkpt lat="44.12408" lon="7.22867">
        <ele>2388</ele>
        <time>2017-09-16T12:53:05Z</time>
      </trkpt>
      <trkpt lat="44.12402" lon="7.22867">
        <ele>2388</ele>
        <time>2017-09-16T12:53:05Z</time>
      </trkpt>
      <trkpt lat="44.12398" lon="7.22864">
        <ele>2388</ele>
        <time>2017-09-16T12:53:05Z</time>
      </trkpt>
      <trkpt lat="44.12394" lon="7.22862">
        <ele>2388</ele>
        <time>2017-09-16T12:53:05Z</time>
      </trkpt>
      <trkpt lat="44.12388" lon="7.22864">
        <ele>2388</ele>
        <time>2017-09-16T12:53:21Z</time>
      </trkpt>
      <trkpt lat="44.12384" lon="7.22861">
        <ele>2388</ele>
        <time>2017-09-16T12:53:21Z</time>
      </trkpt>
      <trkpt lat="44.12381" lon="7.22857">
        <ele>2388</ele>
        <time>2017-09-16T12:53:21Z</time>
      </trkpt>
      <trkpt lat="44.12378" lon="7.22855">
        <ele>2388</ele>
        <time>2017-09-16T12:53:21Z</time>
      </trkpt>
      <trkpt lat="44.12374" lon="7.22852">
        <ele>2410</ele>
        <time>2017-09-16T12:53:37Z</time>
      </trkpt>
      <trkpt lat="44.1237" lon="7.22851">
        <ele>2410</ele>
        <time>2017-09-16T12:53:37Z</time>
      </trkpt>
      <trkpt lat="44.12366" lon="7.22852">
        <ele>2410</ele>
        <time>2017-09-16T12:53:37Z</time>
      </trkpt>
      <trkpt lat="44.12363" lon="7.22855">
        <ele>2410</ele>
        <time>2017-09-16T12:53:37Z</time>
      </trkpt>
      <trkpt lat="44.12357" lon="7.22859">
        <ele>2410</ele>
        <time>2017-09-16T12:55:53Z</time>
      </trkpt>
      <trkpt lat="44.12357" lon="7.22859">
        <ele>2410</ele>
        <time>2017-09-16T12:55:53Z</time>
      </trkpt>
      <trkpt lat="44.12355" lon="7.2286">
        <ele>2410</ele>
        <time>2017-09-16T12:55:53Z</time>
      </trkpt>
      <trkpt lat="44.12352" lon="7.22864">
        <ele>2410</ele>
        <time>2017-09-16T12:55:53Z</time>
      </trkpt>
      <trkpt lat="44.1235" lon="7.22865">
        <ele>2410</ele>
        <time>2017-09-16T12:55:53Z</time>
      </trkpt>
      <trkpt lat="44.12348" lon="7.22867">
        <ele>2410</ele>
        <time>2017-09-16T12:56:09Z</time>
      </trkpt>
      <trkpt lat="44.12345" lon="7.22872">
        <ele>2410</ele>
        <time>2017-09-16T12:56:09Z</time>
      </trkpt>
      <trkpt lat="44.12342" lon="7.22874">
        <ele>2410</ele>
        <time>2017-09-16T12:56:09Z</time>
      </trkpt>
      <trkpt lat="44.12341" lon="7.22876">
        <ele>2359</ele>
        <time>2017-09-16T12:56:09Z</time>
      </trkpt>
      <trkpt lat="44.12338" lon="7.22879">
        <ele>2359</ele>
        <time>2017-09-16T12:56:25Z</time>
      </trkpt>
      <trkpt lat="44.12336" lon="7.22883">
        <ele>2359</ele>
        <time>2017-09-16T12:56:25Z</time>
      </trkpt>
      <trkpt lat="44.12334" lon="7.22885">
        <ele>2359</ele>
        <time>2017-09-16T12:56:25Z</time>
      </trkpt>
      <trkpt lat="44.1233" lon="7.22888">
        <ele>2359</ele>
        <time>2017-09-16T12:56:25Z</time>
      </trkpt>
      <trkpt lat="44.12327" lon="7.2289">
        <ele>2359</ele>
        <time>2017-09-16T12:56:41Z</time>
      </trkpt>
      <trkpt lat="44.12323" lon="7.22891">
        <ele>2359</ele>
        <time>2017-09-16T12:56:41Z</time>
      </trkpt>
      <trkpt lat="44.1232" lon="7.22891">
        <ele>2359</ele>
        <time>2017-09-16T12:56:41Z</time>
      </trkpt>
      <trkpt lat="44.12316" lon="7.22891">
        <ele>2359</ele>
        <time>2017-09-16T12:56:41Z</time>
      </trkpt>
      <trkpt lat="44.12312" lon="7.2289">
        <ele>2359</ele>
        <time>2017-09-16T12:57:01Z</time>
      </trkpt>
      <trkpt lat="44.12308" lon="7.2289">
        <ele>2359</ele>
        <time>2017-09-16T12:57:01Z</time>
      </trkpt>
      <trkpt lat="44.12306" lon="7.22889">
        <ele>2359</ele>
        <time>2017-09-16T12:57:01Z</time>
      </trkpt>
      <trkpt lat="44.12304" lon="7.22888">
        <ele>2359</ele>
        <time>2017-09-16T12:57:01Z</time>
      </trkpt>
      <trkpt lat="44.12301" lon="7.22888">
        <ele>2359</ele>
        <time>2017-09-16T12:57:01Z</time>
      </trkpt>
      <trkpt lat="44.12298" lon="7.22889">
        <ele>2359</ele>
        <time>2017-09-16T12:57:21Z</time>
      </trkpt>
      <trkpt lat="44.12296" lon="7.22891">
        <ele>2359</ele>
        <time>2017-09-16T12:57:21Z</time>
      </trkpt>
      <trkpt lat="44.12294" lon="7.22892">
        <ele>2359</ele>
        <time>2017-09-16T12:57:21Z</time>
      </trkpt>
      <trkpt lat="44.12291" lon="7.22894">
        <ele>2377</ele>
        <time>2017-09-16T12:57:21Z</time>
      </trkpt>
      <trkpt lat="44.12288" lon="7.22896">
        <ele>2377</ele>
        <time>2017-09-16T12:57:21Z</time>
      </trkpt>
      <trkpt lat="44.12285" lon="7.22898">
        <ele>2377</ele>
        <time>2017-09-16T12:57:37Z</time>
      </trkpt>
      <trkpt lat="44.12282" lon="7.22902">
        <ele>2377</ele>
        <time>2017-09-16T12:57:37Z</time>
      </trkpt>
      <trkpt lat="44.1228" lon="7.22903">
        <ele>2377</ele>
        <time>2017-09-16T12:57:37Z</time>
      </trkpt>
      <trkpt lat="44.12274" lon="7.22911">
        <ele>2377</ele>
        <time>2017-09-16T12:57:37Z</time>
      </trkpt>
      <trkpt lat="44.12272" lon="7.22914">
        <ele>2377</ele>
        <time>2017-09-16T12:57:53Z</time>
      </trkpt>
      <trkpt lat="44.12269" lon="7.22915">
        <ele>2377</ele>
        <time>2017-09-16T12:57:53Z</time>
      </trkpt>
      <trkpt lat="44.12265" lon="7.22916">
        <ele>2377</ele>
        <time>2017-09-16T12:57:53Z</time>
      </trkpt>
      <trkpt lat="44.12261" lon="7.22916">
        <ele>2377</ele>
        <time>2017-09-16T12:57:53Z</time>
      </trkpt>
      <trkpt lat="44.12258" lon="7.22917">
        <ele>2377</ele>
        <time>2017-09-16T12:58:09Z</time>
      </trkpt>
      <trkpt lat="44.12254" lon="7.22915">
        <ele>2377</ele>
        <time>2017-09-16T12:58:09Z</time>
      </trkpt>
      <trkpt lat="44.1225" lon="7.22916">
        <ele>2377</ele>
        <time>2017-09-16T12:58:09Z</time>
      </trkpt>
      <trkpt lat="44.12246" lon="7.22916">
        <ele>2377</ele>
        <time>2017-09-16T12:58:09Z</time>
      </trkpt>
      <trkpt lat="44.12242" lon="7.22916">
        <ele>2377</ele>
        <time>2017-09-16T12:58:25Z</time>
      </trkpt>
      <trkpt lat="44.12238" lon="7.22918">
        <ele>2377</ele>
        <time>2017-09-16T12:58:25Z</time>
      </trkpt>
      <trkpt lat="44.12234" lon="7.22918">
        <ele>2377</ele>
        <time>2017-09-16T12:58:25Z</time>
      </trkpt>
      <trkpt lat="44.1223" lon="7.22919">
        <ele>2377</ele>
        <time>2017-09-16T12:58:25Z</time>
      </trkpt>
      <trkpt lat="44.12226" lon="7.22919">
        <ele>2377</ele>
        <time>2017-09-16T12:58:41Z</time>
      </trkpt>
      <trkpt lat="44.12222" lon="7.22917">
        <ele>2377</ele>
        <time>2017-09-16T12:58:41Z</time>
      </trkpt>
      <trkpt lat="44.12217" lon="7.22919">
        <ele>2377</ele>
        <time>2017-09-16T12:58:41Z</time>
      </trkpt>
      <trkpt lat="44.12213" lon="7.22926">
        <ele>2377</ele>
        <time>2017-09-16T12:58:41Z</time>
      </trkpt>
      <trkpt lat="44.12211" lon="7.2293">
        <ele>2377</ele>
        <time>2017-09-16T12:58:57Z</time>
      </trkpt>
      <trkpt lat="44.12208" lon="7.22933">
        <ele>2398</ele>
        <time>2017-09-16T12:58:57Z</time>
      </trkpt>
      <trkpt lat="44.12206" lon="7.22935">
        <ele>2398</ele>
        <time>2017-09-16T12:58:57Z</time>
      </trkpt>
      <trkpt lat="44.12203" lon="7.22937">
        <ele>2398</ele>
        <time>2017-09-16T12:58:57Z</time>
      </trkpt>
      <trkpt lat="44.12201" lon="7.22939">
        <ele>2398</ele>
        <time>2017-09-16T12:59:17Z</time>
      </trkpt>
      <trkpt lat="44.12199" lon="7.2294">
        <ele>2398</ele>
        <time>2017-09-16T12:59:17Z</time>
      </trkpt>
      <trkpt lat="44.12198" lon="7.22941">
        <ele>2398</ele>
        <time>2017-09-16T12:59:17Z</time>
      </trkpt>
      <trkpt lat="44.12194" lon="7.22944">
        <ele>2398</ele>
        <time>2017-09-16T12:59:17Z</time>
      </trkpt>
      <trkpt lat="44.1219" lon="7.22949">
        <ele>2398</ele>
        <time>2017-09-16T12:59:17Z</time>
      </trkpt>
      <trkpt lat="44.12189" lon="7.22953">
        <ele>2398</ele>
        <time>2017-09-16T12:59:33Z</time>
      </trkpt>
      <trkpt lat="44.12186" lon="7.22958">
        <ele>2398</ele>
        <time>2017-09-16T12:59:33Z</time>
      </trkpt>
      <trkpt lat="44.12183" lon="7.22963">
        <ele>2357</ele>
        <time>2017-09-16T12:59:33Z</time>
      </trkpt>
      <trkpt lat="44.1218" lon="7.22967">
        <ele>2357</ele>
        <time>2017-09-16T12:59:33Z</time>
      </trkpt>
      <trkpt lat="44.12178" lon="7.2297">
        <ele>2357</ele>
        <time>2017-09-16T12:59:49Z</time>
      </trkpt>
      <trkpt lat="44.12176" lon="7.22974">
        <ele>2357</ele>
        <time>2017-09-16T12:59:49Z</time>
      </trkpt>
      <trkpt lat="44.12173" lon="7.22977">
        <ele>2357</ele>
        <time>2017-09-16T12:59:49Z</time>
      </trkpt>
      <trkpt lat="44.12171" lon="7.22979">
        <ele>2357</ele>
        <time>2017-09-16T12:59:49Z</time>
      </trkpt>
      <trkpt lat="44.12164" lon="7.22993">
        <ele>2357</ele>
        <time>2017-09-16T13:01:41Z</time>
      </trkpt>
      <trkpt lat="44.12164" lon="7.22993">
        <ele>2357</ele>
        <time>2017-09-16T13:01:41Z</time>
      </trkpt>
      <trkpt lat="44.12164" lon="7.22994">
        <ele>2357</ele>
        <time>2017-09-16T13:01:41Z</time>
      </trkpt>
      <trkpt lat="44.12164" lon="7.22994">
        <ele>2357</ele>
        <time>2017-09-16T13:01:41Z</time>
      </trkpt>
      <trkpt lat="44.12164" lon="7.22996">
        <ele>2357</ele>
        <time>2017-09-16T13:01:41Z</time>
      </trkpt>
      <trkpt lat="44.12165" lon="7.23005">
        <ele>2357</ele>
        <time>2017-09-16T13:03:25Z</time>
      </trkpt>
      <trkpt lat="44.12165" lon="7.23006">
        <ele>2357</ele>
        <time>2017-09-16T13:03:25Z</time>
      </trkpt>
      <trkpt lat="44.12165" lon="7.23008">
        <ele>2357</ele>
        <time>2017-09-16T13:03:25Z</time>
      </trkpt>
      <trkpt lat="44.12165" lon="7.23012">
        <ele>2357</ele>
        <time>2017-09-16T13:03:25Z</time>
      </trkpt>
      <trkpt lat="44.12164" lon="7.23017">
        <ele>2357</ele>
        <time>2017-09-16T13:03:25Z</time>
      </trkpt>
      <trkpt lat="44.12164" lon="7.23021">
        <ele>2357</ele>
        <time>2017-09-16T13:04:09Z</time>
      </trkpt>
      <trkpt lat="44.12164" lon="7.23021">
        <ele>2357</ele>
        <time>2017-09-16T13:04:09Z</time>
      </trkpt>
      <trkpt lat="44.12164" lon="7.23025">
        <ele>2357</ele>
        <time>2017-09-16T13:04:09Z</time>
      </trkpt>
      <trkpt lat="44.12164" lon="7.23029">
        <ele>2357</ele>
        <time>2017-09-16T13:04:09Z</time>
      </trkpt>
      <trkpt lat="44.12165" lon="7.23032">
        <ele>2357</ele>
        <time>2017-09-16T13:04:09Z</time>
      </trkpt>
      <trkpt lat="44.12166" lon="7.23035">
        <ele>2357</ele>
        <time>2017-09-16T13:04:29Z</time>
      </trkpt>
      <trkpt lat="44.12166" lon="7.23038">
        <ele>2357</ele>
        <time>2017-09-16T13:04:29Z</time>
      </trkpt>
      <trkpt lat="44.12166" lon="7.23042">
        <ele>2357</ele>
        <time>2017-09-16T13:04:29Z</time>
      </trkpt>
      <trkpt lat="44.12167" lon="7.23046">
        <ele>2355</ele>
        <time>2017-09-16T13:04:29Z</time>
      </trkpt>
      <trkpt lat="44.12167" lon="7.2305">
        <ele>2355</ele>
        <time>2017-09-16T13:04:29Z</time>
      </trkpt>
      <trkpt lat="44.12165" lon="7.23054">
        <ele>2355</ele>
        <time>2017-09-16T13:04:45Z</time>
      </trkpt>
      <trkpt lat="44.12165" lon="7.23059">
        <ele>2355</ele>
        <time>2017-09-16T13:04:45Z</time>
      </trkpt>
      <trkpt lat="44.12163" lon="7.23061">
        <ele>2355</ele>
        <time>2017-09-16T13:04:45Z</time>
      </trkpt>
      <trkpt lat="44.12163" lon="7.23067">
        <ele>2355</ele>
        <time>2017-09-16T13:04:45Z</time>
      </trkpt>
      <trkpt lat="44.12163" lon="7.23071">
        <ele>2355</ele>
        <time>2017-09-16T13:05:01Z</time>
      </trkpt>
      <trkpt lat="44.12161" lon="7.23075">
        <ele>2355</ele>
        <time>2017-09-16T13:05:01Z</time>
      </trkpt>
      <trkpt lat="44.1216" lon="7.23077">
        <ele>2355</ele>
        <time>2017-09-16T13:05:01Z</time>
      </trkpt>
      <trkpt lat="44.12158" lon="7.23084">
        <ele>2355</ele>
        <time>2017-09-16T13:05:01Z</time>
      </trkpt>
      <trkpt lat="44.12156" lon="7.23089">
        <ele>2355</ele>
        <time>2017-09-16T13:05:17Z</time>
      </trkpt>
      <trkpt lat="44.12156" lon="7.23094">
        <ele>2355</ele>
        <time>2017-09-16T13:05:17Z</time>
      </trkpt>
      <trkpt lat="44.12156" lon="7.23101">
        <ele>2355</ele>
        <time>2017-09-16T13:05:17Z</time>
      </trkpt>
      <trkpt lat="44.12153" lon="7.23106">
        <ele>2355</ele>
        <time>2017-09-16T13:05:17Z</time>
      </trkpt>
      <trkpt lat="44.12153" lon="7.2311">
        <ele>2355</ele>
        <time>2017-09-16T13:05:37Z</time>
      </trkpt>
      <trkpt lat="44.12153" lon="7.23113">
        <ele>2355</ele>
        <time>2017-09-16T13:05:37Z</time>
      </trkpt>
      <trkpt lat="44.12152" lon="7.23116">
        <ele>2355</ele>
        <time>2017-09-16T13:05:37Z</time>
      </trkpt>
      <trkpt lat="44.12152" lon="7.23118">
        <ele>2355</ele>
        <time>2017-09-16T13:05:37Z</time>
      </trkpt>
      <trkpt lat="44.12151" lon="7.23122">
        <ele>2355</ele>
        <time>2017-09-16T13:05:37Z</time>
      </trkpt>
      <trkpt lat="44.1215" lon="7.23127">
        <ele>2368</ele>
        <time>2017-09-16T13:05:57Z</time>
      </trkpt>
      <trkpt lat="44.12149" lon="7.23132">
        <ele>2368</ele>
        <time>2017-09-16T13:05:57Z</time>
      </trkpt>
      <trkpt lat="44.12149" lon="7.23136">
        <ele>2368</ele>
        <time>2017-09-16T13:05:57Z</time>
      </trkpt>
      <trkpt lat="44.12147" lon="7.23138">
        <ele>2368</ele>
        <time>2017-09-16T13:05:57Z</time>
      </trkpt>
      <trkpt lat="44.12148" lon="7.23143">
        <ele>2368</ele>
        <time>2017-09-16T13:05:57Z</time>
      </trkpt>
      <trkpt lat="44.12147" lon="7.23147">
        <ele>2368</ele>
        <time>2017-09-16T13:06:13Z</time>
      </trkpt>
      <trkpt lat="44.12145" lon="7.23151">
        <ele>2368</ele>
        <time>2017-09-16T13:06:13Z</time>
      </trkpt>
      <trkpt lat="44.12142" lon="7.23155">
        <ele>2368</ele>
        <time>2017-09-16T13:06:13Z</time>
      </trkpt>
      <trkpt lat="44.12142" lon="7.23159">
        <ele>2368</ele>
        <time>2017-09-16T13:06:13Z</time>
      </trkpt>
      <trkpt lat="44.1214" lon="7.23162">
        <ele>2368</ele>
        <time>2017-09-16T13:06:33Z</time>
      </trkpt>
      <trkpt lat="44.12138" lon="7.23166">
        <ele>2368</ele>
        <time>2017-09-16T13:06:33Z</time>
      </trkpt>
      <trkpt lat="44.12136" lon="7.23168">
        <ele>2368</ele>
        <time>2017-09-16T13:06:33Z</time>
      </trkpt>
      <trkpt lat="44.12134" lon="7.23171">
        <ele>2368</ele>
        <time>2017-09-16T13:06:33Z</time>
      </trkpt>
      <trkpt lat="44.12132" lon="7.23174">
        <ele>2368</ele>
        <time>2017-09-16T13:06:33Z</time>
      </trkpt>
      <trkpt lat="44.12131" lon="7.23178">
        <ele>2368</ele>
        <time>2017-09-16T13:06:49Z</time>
      </trkpt>
      <trkpt lat="44.12127" lon="7.23186">
        <ele>2368</ele>
        <time>2017-09-16T13:06:49Z</time>
      </trkpt>
      <trkpt lat="44.12124" lon="7.23188">
        <ele>2337</ele>
        <time>2017-09-16T13:06:49Z</time>
      </trkpt>
      <trkpt lat="44.12123" lon="7.2319">
        <ele>2337</ele>
        <time>2017-09-16T13:06:49Z</time>
      </trkpt>
      <trkpt lat="44.1212" lon="7.23196">
        <ele>2337</ele>
        <time>2017-09-16T13:07:13Z</time>
      </trkpt>
      <trkpt lat="44.12118" lon="7.23199">
        <ele>2337</ele>
        <time>2017-09-16T13:07:13Z</time>
      </trkpt>
      <trkpt lat="44.12118" lon="7.23202">
        <ele>2337</ele>
        <time>2017-09-16T13:07:13Z</time>
      </trkpt>
      <trkpt lat="44.12118" lon="7.23205">
        <ele>2337</ele>
        <time>2017-09-16T13:07:13Z</time>
      </trkpt>
      <trkpt lat="44.12118" lon="7.23212">
        <ele>2358</ele>
        <time>2017-09-16T13:07:13Z</time>
      </trkpt>
      <trkpt lat="44.12117" lon="7.23215">
        <ele>2358</ele>
        <time>2017-09-16T13:07:33Z</time>
      </trkpt>
      <trkpt lat="44.12116" lon="7.23217">
        <ele>2358</ele>
        <time>2017-09-16T13:07:33Z</time>
      </trkpt>
      <trkpt lat="44.12115" lon="7.2322">
        <ele>2358</ele>
        <time>2017-09-16T13:07:33Z</time>
      </trkpt>
      <trkpt lat="44.12114" lon="7.23225">
        <ele>2358</ele>
        <time>2017-09-16T13:07:33Z</time>
      </trkpt>
      <trkpt lat="44.12114" lon="7.23227">
        <ele>2358</ele>
        <time>2017-09-16T13:07:33Z</time>
      </trkpt>
      <trkpt lat="44.12112" lon="7.23231">
        <ele>2358</ele>
        <time>2017-09-16T13:07:53Z</time>
      </trkpt>
      <trkpt lat="44.1211" lon="7.23234">
        <ele>2358</ele>
        <time>2017-09-16T13:07:53Z</time>
      </trkpt>
      <trkpt lat="44.12109" lon="7.23236">
        <ele>2358</ele>
        <time>2017-09-16T13:07:53Z</time>
      </trkpt>
      <trkpt lat="44.12108" lon="7.2324">
        <ele>2358</ele>
        <time>2017-09-16T13:07:53Z</time>
      </trkpt>
      <trkpt lat="44.12106" lon="7.23243">
        <ele>2358</ele>
        <time>2017-09-16T13:07:53Z</time>
      </trkpt>
      <trkpt lat="44.12105" lon="7.23247">
        <ele>2358</ele>
        <time>2017-09-16T13:08:13Z</time>
      </trkpt>
      <trkpt lat="44.12104" lon="7.23248">
        <ele>2358</ele>
        <time>2017-09-16T13:08:13Z</time>
      </trkpt>
      <trkpt lat="44.12102" lon="7.23253">
        <ele>2358</ele>
        <time>2017-09-16T13:08:13Z</time>
      </trkpt>
      <trkpt lat="44.121" lon="7.23255">
        <ele>2358</ele>
        <time>2017-09-16T13:08:13Z</time>
      </trkpt>
      <trkpt lat="44.12099" lon="7.2326">
        <ele>2358</ele>
        <time>2017-09-16T13:08:13Z</time>
      </trkpt>
      <trkpt lat="44.12097" lon="7.23265">
        <ele>2358</ele>
        <time>2017-09-16T13:08:29Z</time>
      </trkpt>
      <trkpt lat="44.12097" lon="7.23271">
        <ele>2358</ele>
        <time>2017-09-16T13:08:29Z</time>
      </trkpt>
      <trkpt lat="44.12096" lon="7.23275">
        <ele>2358</ele>
        <time>2017-09-16T13:08:29Z</time>
      </trkpt>
      <trkpt lat="44.12094" lon="7.23278">
        <ele>2358</ele>
        <time>2017-09-16T13:08:29Z</time>
      </trkpt>
      <trkpt lat="44.1209" lon="7.23288">
        <ele>2358</ele>
        <time>2017-09-16T13:08:57Z</time>
      </trkpt>
      <trkpt lat="44.12089" lon="7.2329">
        <ele>2358</ele>
        <time>2017-09-16T13:08:57Z</time>
      </trkpt>
      <trkpt lat="44.12088" lon="7.23293">
        <ele>2387</ele>
        <time>2017-09-16T13:08:57Z</time>
      </trkpt>
      <trkpt lat="44.12087" lon="7.23295">
        <ele>2387</ele>
        <time>2017-09-16T13:08:57Z</time>
      </trkpt>
      <trkpt lat="44.12084" lon="7.23298">
        <ele>2387</ele>
        <time>2017-09-16T13:08:57Z</time>
      </trkpt>
      <trkpt lat="44.12083" lon="7.23301">
        <ele>2387</ele>
        <time>2017-09-16T13:09:17Z</time>
      </trkpt>
      <trkpt lat="44.12081" lon="7.23302">
        <ele>2387</ele>
        <time>2017-09-16T13:09:17Z</time>
      </trkpt>
      <trkpt lat="44.12079" lon="7.23304">
        <ele>2387</ele>
        <time>2017-09-16T13:09:17Z</time>
      </trkpt>
      <trkpt lat="44.12077" lon="7.23308">
        <ele>2387</ele>
        <time>2017-09-16T13:09:17Z</time>
      </trkpt>
      <trkpt lat="44.12075" lon="7.2331">
        <ele>2387</ele>
        <time>2017-09-16T13:09:17Z</time>
      </trkpt>
      <trkpt lat="44.12073" lon="7.23313">
        <ele>2387</ele>
        <time>2017-09-16T13:09:33Z</time>
      </trkpt>
      <trkpt lat="44.12071" lon="7.23316">
        <ele>2387</ele>
        <time>2017-09-16T13:09:33Z</time>
      </trkpt>
      <trkpt lat="44.12068" lon="7.23319">
        <ele>2387</ele>
        <time>2017-09-16T13:09:33Z</time>
      </trkpt>
      <trkpt lat="44.12066" lon="7.23322">
        <ele>2387</ele>
        <time>2017-09-16T13:09:33Z</time>
      </trkpt>
      <trkpt lat="44.12063" lon="7.23324">
        <ele>2387</ele>
        <time>2017-09-16T13:09:53Z</time>
      </trkpt>
      <trkpt lat="44.1206" lon="7.23329">
        <ele>2387</ele>
        <time>2017-09-16T13:09:53Z</time>
      </trkpt>
      <trkpt lat="44.12058" lon="7.23331">
        <ele>2387</ele>
        <time>2017-09-16T13:09:53Z</time>
      </trkpt>
      <trkpt lat="44.12058" lon="7.23333">
        <ele>2387</ele>
        <time>2017-09-16T13:09:53Z</time>
      </trkpt>
      <trkpt lat="44.12057" lon="7.23337">
        <ele>2387</ele>
        <time>2017-09-16T13:09:53Z</time>
      </trkpt>
      <trkpt lat="44.12055" lon="7.23341">
        <ele>2387</ele>
        <time>2017-09-16T13:10:09Z</time>
      </trkpt>
      <trkpt lat="44.12053" lon="7.23345">
        <ele>2387</ele>
        <time>2017-09-16T13:10:09Z</time>
      </trkpt>
      <trkpt lat="44.1205" lon="7.23348">
        <ele>2387</ele>
        <time>2017-09-16T13:10:09Z</time>
      </trkpt>
      <trkpt lat="44.12048" lon="7.23352">
        <ele>2387</ele>
        <time>2017-09-16T13:10:09Z</time>
      </trkpt>
      <trkpt lat="44.12045" lon="7.23355">
        <ele>2387</ele>
        <time>2017-09-16T13:10:25Z</time>
      </trkpt>
      <trkpt lat="44.12043" lon="7.23358">
        <ele>2387</ele>
        <time>2017-09-16T13:10:25Z</time>
      </trkpt>
      <trkpt lat="44.12041" lon="7.23362">
        <ele>2340</ele>
        <time>2017-09-16T13:10:25Z</time>
      </trkpt>
      <trkpt lat="44.12039" lon="7.23366">
        <ele>2340</ele>
        <time>2017-09-16T13:10:25Z</time>
      </trkpt>
      <trkpt lat="44.12036" lon="7.2337">
        <ele>2340</ele>
        <time>2017-09-16T13:10:45Z</time>
      </trkpt>
      <trkpt lat="44.12034" lon="7.23373">
        <ele>2340</ele>
        <time>2017-09-16T13:10:45Z</time>
      </trkpt>
      <trkpt lat="44.12031" lon="7.23376">
        <ele>2382</ele>
        <time>2017-09-16T13:10:45Z</time>
      </trkpt>
      <trkpt lat="44.1203" lon="7.23378">
        <ele>2382</ele>
        <time>2017-09-16T13:10:45Z</time>
      </trkpt>
      <trkpt lat="44.12028" lon="7.2338">
        <ele>2382</ele>
        <time>2017-09-16T13:10:45Z</time>
      </trkpt>
      <trkpt lat="44.12026" lon="7.23383">
        <ele>2382</ele>
        <time>2017-09-16T13:11:01Z</time>
      </trkpt>
      <trkpt lat="44.12024" lon="7.23385">
        <ele>2382</ele>
        <time>2017-09-16T13:11:01Z</time>
      </trkpt>
      <trkpt lat="44.12022" lon="7.23388">
        <ele>2382</ele>
        <time>2017-09-16T13:11:01Z</time>
      </trkpt>
      <trkpt lat="44.1202" lon="7.23392">
        <ele>2382</ele>
        <time>2017-09-16T13:11:01Z</time>
      </trkpt>
      <trkpt lat="44.12018" lon="7.23394">
        <ele>2382</ele>
        <time>2017-09-16T13:11:17Z</time>
      </trkpt>
      <trkpt lat="44.12014" lon="7.23396">
        <ele>2382</ele>
        <time>2017-09-16T13:11:17Z</time>
      </trkpt>
      <trkpt lat="44.12011" lon="7.23399">
        <ele>2382</ele>
        <time>2017-09-16T13:11:17Z</time>
      </trkpt>
      <trkpt lat="44.12007" lon="7.23403">
        <ele>2382</ele>
        <time>2017-09-16T13:11:17Z</time>
      </trkpt>
      <trkpt lat="44.12004" lon="7.23407">
        <ele>2382</ele>
        <time>2017-09-16T13:11:41Z</time>
      </trkpt>
      <trkpt lat="44.12002" lon="7.23409">
        <ele>2382</ele>
        <time>2017-09-16T13:11:41Z</time>
      </trkpt>
      <trkpt lat="44.12" lon="7.2341">
        <ele>2382</ele>
        <time>2017-09-16T13:11:41Z</time>
      </trkpt>
      <trkpt lat="44.11998" lon="7.23411">
        <ele>2382</ele>
        <time>2017-09-16T13:11:41Z</time>
      </trkpt>
      <trkpt lat="44.11994" lon="7.23413">
        <ele>2382</ele>
        <time>2017-09-16T13:11:41Z</time>
      </trkpt>
      <trkpt lat="44.11992" lon="7.23416">
        <ele>2382</ele>
        <time>2017-09-16T13:12:01Z</time>
      </trkpt>
      <trkpt lat="44.11991" lon="7.23418">
        <ele>2382</ele>
        <time>2017-09-16T13:12:01Z</time>
      </trkpt>
      <trkpt lat="44.11989" lon="7.23422">
        <ele>2382</ele>
        <time>2017-09-16T13:12:01Z</time>
      </trkpt>
      <trkpt lat="44.11987" lon="7.23425">
        <ele>2382</ele>
        <time>2017-09-16T13:12:01Z</time>
      </trkpt>
      <trkpt lat="44.11984" lon="7.23428">
        <ele>2382</ele>
        <time>2017-09-16T13:12:01Z</time>
      </trkpt>
      <trkpt lat="44.11982" lon="7.23431">
        <ele>2382</ele>
        <time>2017-09-16T13:12:17Z</time>
      </trkpt>
      <trkpt lat="44.1198" lon="7.23435">
        <ele>2382</ele>
        <time>2017-09-16T13:12:17Z</time>
      </trkpt>
      <trkpt lat="44.11978" lon="7.23439">
        <ele>2382</ele>
        <time>2017-09-16T13:12:17Z</time>
      </trkpt>
      <trkpt lat="44.11974" lon="7.23443">
        <ele>2382</ele>
        <time>2017-09-16T13:12:17Z</time>
      </trkpt>
      <trkpt lat="44.11972" lon="7.23446">
        <ele>2382</ele>
        <time>2017-09-16T13:12:37Z</time>
      </trkpt>
      <trkpt lat="44.1197" lon="7.23447">
        <ele>2382</ele>
        <time>2017-09-16T13:12:37Z</time>
      </trkpt>
      <trkpt lat="44.11968" lon="7.23449">
        <ele>2382</ele>
        <time>2017-09-16T13:12:37Z</time>
      </trkpt>
      <trkpt lat="44.11965" lon="7.23453">
        <ele>2382</ele>
        <time>2017-09-16T13:12:37Z</time>
      </trkpt>
      <trkpt lat="44.11963" lon="7.23457">
        <ele>2382</ele>
        <time>2017-09-16T13:12:37Z</time>
      </trkpt>
      <trkpt lat="44.11961" lon="7.23459">
        <ele>2406</ele>
        <time>2017-09-16T13:12:57Z</time>
      </trkpt>
      <trkpt lat="44.1196" lon="7.23462">
        <ele>2406</ele>
        <time>2017-09-16T13:12:57Z</time>
      </trkpt>
      <trkpt lat="44.11959" lon="7.23467">
        <ele>2406</ele>
        <time>2017-09-16T13:12:57Z</time>
      </trkpt>
      <trkpt lat="44.1196" lon="7.23471">
        <ele>2406</ele>
        <time>2017-09-16T13:12:57Z</time>
      </trkpt>
      <trkpt lat="44.11958" lon="7.23475">
        <ele>2406</ele>
        <time>2017-09-16T13:12:57Z</time>
      </trkpt>
      <trkpt lat="44.11956" lon="7.23478">
        <ele>2379</ele>
        <time>2017-09-16T13:13:13Z</time>
      </trkpt>
      <trkpt lat="44.11954" lon="7.23482">
        <ele>2379</ele>
        <time>2017-09-16T13:13:13Z</time>
      </trkpt>
      <trkpt lat="44.11953" lon="7.23486">
        <ele>2379</ele>
        <time>2017-09-16T13:13:13Z</time>
      </trkpt>
      <trkpt lat="44.11951" lon="7.23491">
        <ele>2379</ele>
        <time>2017-09-16T13:13:13Z</time>
      </trkpt>
      <trkpt lat="44.11951" lon="7.23496">
        <ele>2379</ele>
        <time>2017-09-16T13:13:29Z</time>
      </trkpt>
      <trkpt lat="44.1195" lon="7.23501">
        <ele>2379</ele>
        <time>2017-09-16T13:13:29Z</time>
      </trkpt>
      <trkpt lat="44.1195" lon="7.23504">
        <ele>2379</ele>
        <time>2017-09-16T13:13:29Z</time>
      </trkpt>
      <trkpt lat="44.1195" lon="7.23508">
        <ele>2379</ele>
        <time>2017-09-16T13:13:29Z</time>
      </trkpt>
      <trkpt lat="44.1195" lon="7.23513">
        <ele>2379</ele>
        <time>2017-09-16T13:13:45Z</time>
      </trkpt>
      <trkpt lat="44.1195" lon="7.23515">
        <ele>2379</ele>
        <time>2017-09-16T13:13:45Z</time>
      </trkpt>
      <trkpt lat="44.1195" lon="7.23522">
        <ele>2379</ele>
        <time>2017-09-16T13:13:45Z</time>
      </trkpt>
      <trkpt lat="44.1195" lon="7.23528">
        <ele>2379</ele>
        <time>2017-09-16T13:13:45Z</time>
      </trkpt>
      <trkpt lat="44.11948" lon="7.23536">
        <ele>2379</ele>
        <time>2017-09-16T13:14:57Z</time>
      </trkpt>
      <trkpt lat="44.11947" lon="7.23538">
        <ele>2379</ele>
        <time>2017-09-16T13:14:57Z</time>
      </trkpt>
      <trkpt lat="44.11947" lon="7.23539">
        <ele>2379</ele>
        <time>2017-09-16T13:14:57Z</time>
      </trkpt>
      <trkpt lat="44.11945" lon="7.23543">
        <ele>2378</ele>
        <time>2017-09-16T13:14:57Z</time>
      </trkpt>
      <trkpt lat="44.11943" lon="7.23548">
        <ele>2378</ele>
        <time>2017-09-16T13:14:57Z</time>
      </trkpt>
      <trkpt lat="44.11943" lon="7.23551">
        <ele>2378</ele>
        <time>2017-09-16T13:15:17Z</time>
      </trkpt>
      <trkpt lat="44.11943" lon="7.23553">
        <ele>2378</ele>
        <time>2017-09-16T13:15:17Z</time>
      </trkpt>
      <trkpt lat="44.11943" lon="7.23559">
        <ele>2378</ele>
        <time>2017-09-16T13:15:17Z</time>
      </trkpt>
      <trkpt lat="44.11944" lon="7.23561">
        <ele>2378</ele>
        <time>2017-09-16T13:15:17Z</time>
      </trkpt>
      <trkpt lat="44.11943" lon="7.23565">
        <ele>2378</ele>
        <time>2017-09-16T13:15:17Z</time>
      </trkpt>
      <trkpt lat="44.11942" lon="7.2357">
        <ele>2378</ele>
        <time>2017-09-16T13:15:33Z</time>
      </trkpt>
      <trkpt lat="44.11943" lon="7.23575">
        <ele>2378</ele>
        <time>2017-09-16T13:15:33Z</time>
      </trkpt>
      <trkpt lat="44.11943" lon="7.2358">
        <ele>2378</ele>
        <time>2017-09-16T13:15:33Z</time>
      </trkpt>
      <trkpt lat="44.11942" lon="7.23584">
        <ele>2378</ele>
        <time>2017-09-16T13:15:33Z</time>
      </trkpt>
      <trkpt lat="44.11942" lon="7.2359">
        <ele>2378</ele>
        <time>2017-09-16T13:15:49Z</time>
      </trkpt>
      <trkpt lat="44.11942" lon="7.23594">
        <ele>2378</ele>
        <time>2017-09-16T13:15:49Z</time>
      </trkpt>
      <trkpt lat="44.11941" lon="7.23599">
        <ele>2378</ele>
        <time>2017-09-16T13:15:49Z</time>
      </trkpt>
      <trkpt lat="44.11941" lon="7.23605">
        <ele>2378</ele>
        <time>2017-09-16T13:15:49Z</time>
      </trkpt>
      <trkpt lat="44.11941" lon="7.2361">
        <ele>2378</ele>
        <time>2017-09-16T13:16:05Z</time>
      </trkpt>
      <trkpt lat="44.11942" lon="7.23616">
        <ele>2378</ele>
        <time>2017-09-16T13:16:05Z</time>
      </trkpt>
      <trkpt lat="44.11943" lon="7.23622">
        <ele>2378</ele>
        <time>2017-09-16T13:16:05Z</time>
      </trkpt>
      <trkpt lat="44.11943" lon="7.23627">
        <ele>2373</ele>
        <time>2017-09-16T13:16:05Z</time>
      </trkpt>
      <trkpt lat="44.11943" lon="7.23633">
        <ele>2373</ele>
        <time>2017-09-16T13:16:21Z</time>
      </trkpt>
      <trkpt lat="44.11942" lon="7.2364">
        <ele>2373</ele>
        <time>2017-09-16T13:16:21Z</time>
      </trkpt>
      <trkpt lat="44.11941" lon="7.23645">
        <ele>2373</ele>
        <time>2017-09-16T13:16:21Z</time>
      </trkpt>
      <trkpt lat="44.1194" lon="7.23653">
        <ele>2373</ele>
        <time>2017-09-16T13:16:21Z</time>
      </trkpt>
      <trkpt lat="44.11938" lon="7.23659">
        <ele>2373</ele>
        <time>2017-09-16T13:16:37Z</time>
      </trkpt>
      <trkpt lat="44.11938" lon="7.23662">
        <ele>2373</ele>
        <time>2017-09-16T13:16:37Z</time>
      </trkpt>
      <trkpt lat="44.11937" lon="7.23668">
        <ele>2373</ele>
        <time>2017-09-16T13:16:37Z</time>
      </trkpt>
      <trkpt lat="44.11936" lon="7.23674">
        <ele>2373</ele>
        <time>2017-09-16T13:16:37Z</time>
      </trkpt>
      <trkpt lat="44.11936" lon="7.2368">
        <ele>2373</ele>
        <time>2017-09-16T13:16:53Z</time>
      </trkpt>
      <trkpt lat="44.11935" lon="7.23687">
        <ele>2373</ele>
        <time>2017-09-16T13:16:53Z</time>
      </trkpt>
      <trkpt lat="44.11933" lon="7.23693">
        <ele>2373</ele>
        <time>2017-09-16T13:16:53Z</time>
      </trkpt>
      <trkpt lat="44.11934" lon="7.23699">
        <ele>2373</ele>
        <time>2017-09-16T13:16:53Z</time>
      </trkpt>
      <trkpt lat="44.11932" lon="7.23702">
        <ele>2373</ele>
        <time>2017-09-16T13:17:09Z</time>
      </trkpt>
      <trkpt lat="44.11929" lon="7.23704">
        <ele>2373</ele>
        <time>2017-09-16T13:17:09Z</time>
      </trkpt>
      <trkpt lat="44.11927" lon="7.23709">
        <ele>2376</ele>
        <time>2017-09-16T13:17:09Z</time>
      </trkpt>
      <trkpt lat="44.11926" lon="7.23716">
        <ele>2376</ele>
        <time>2017-09-16T13:17:09Z</time>
      </trkpt>
      <trkpt lat="44.11925" lon="7.23722">
        <ele>2376</ele>
        <time>2017-09-16T13:17:25Z</time>
      </trkpt>
      <trkpt lat="44.11921" lon="7.23728">
        <ele>2376</ele>
        <time>2017-09-16T13:17:25Z</time>
      </trkpt>
      <trkpt lat="44.11918" lon="7.23732">
        <ele>2376</ele>
        <time>2017-09-16T13:17:25Z</time>
      </trkpt>
      <trkpt lat="44.11911" lon="7.23741">
        <ele>2376</ele>
        <time>2017-09-16T13:17:25Z</time>
      </trkpt>
      <trkpt lat="44.11907" lon="7.23743">
        <ele>2376</ele>
        <time>2017-09-16T13:17:49Z</time>
      </trkpt>
      <trkpt lat="44.11907" lon="7.23744">
        <ele>2376</ele>
        <time>2017-09-16T13:17:49Z</time>
      </trkpt>
      <trkpt lat="44.11903" lon="7.23747">
        <ele>2376</ele>
        <time>2017-09-16T13:17:49Z</time>
      </trkpt>
      <trkpt lat="44.119" lon="7.23749">
        <ele>2376</ele>
        <time>2017-09-16T13:17:49Z</time>
      </trkpt>
      <trkpt lat="44.11896" lon="7.23752">
        <ele>2376</ele>
        <time>2017-09-16T13:17:49Z</time>
      </trkpt>
      <trkpt lat="44.11893" lon="7.23753">
        <ele>2376</ele>
        <time>2017-09-16T13:18:05Z</time>
      </trkpt>
      <trkpt lat="44.11891" lon="7.23755">
        <ele>2376</ele>
        <time>2017-09-16T13:18:05Z</time>
      </trkpt>
      <trkpt lat="44.11888" lon="7.23757">
        <ele>2376</ele>
        <time>2017-09-16T13:18:05Z</time>
      </trkpt>
      <trkpt lat="44.11885" lon="7.23758">
        <ele>2376</ele>
        <time>2017-09-16T13:18:05Z</time>
      </trkpt>
      <trkpt lat="44.11881" lon="7.2376">
        <ele>2376</ele>
        <time>2017-09-16T13:18:33Z</time>
      </trkpt>
      <trkpt lat="44.11879" lon="7.23762">
        <ele>2376</ele>
        <time>2017-09-16T13:18:33Z</time>
      </trkpt>
      <trkpt lat="44.11878" lon="7.23763">
        <ele>2376</ele>
        <time>2017-09-16T13:18:33Z</time>
      </trkpt>
      <trkpt lat="44.11876" lon="7.23763">
        <ele>2376</ele>
        <time>2017-09-16T13:18:33Z</time>
      </trkpt>
      <trkpt lat="44.11874" lon="7.23764">
        <ele>2374</ele>
        <time>2017-09-16T13:18:33Z</time>
      </trkpt>
      <trkpt lat="44.11872" lon="7.23766">
        <ele>2374</ele>
        <time>2017-09-16T13:18:57Z</time>
      </trkpt>
      <trkpt lat="44.1187" lon="7.23766">
        <ele>2374</ele>
        <time>2017-09-16T13:18:57Z</time>
      </trkpt>
      <trkpt lat="44.11868" lon="7.23767">
        <ele>2374</ele>
        <time>2017-09-16T13:18:57Z</time>
      </trkpt>
      <trkpt lat="44.11866" lon="7.23769">
        <ele>2374</ele>
        <time>2017-09-16T13:18:57Z</time>
      </trkpt>
      <trkpt lat="44.11864" lon="7.2377">
        <ele>2374</ele>
        <time>2017-09-16T13:18:57Z</time>
      </trkpt>
      <trkpt lat="44.11858" lon="7.23772">
        <ele>2374</ele>
        <time>2017-09-16T13:19:29Z</time>
      </trkpt>
      <trkpt lat="44.11856" lon="7.23773">
        <ele>2374</ele>
        <time>2017-09-16T13:19:29Z</time>
      </trkpt>
      <trkpt lat="44.11856" lon="7.23774">
        <ele>2374</ele>
        <time>2017-09-16T13:19:29Z</time>
      </trkpt>
      <trkpt lat="44.11855" lon="7.23774">
        <ele>2374</ele>
        <time>2017-09-16T13:19:29Z</time>
      </trkpt>
      <trkpt lat="44.11853" lon="7.23774">
        <ele>2374</ele>
        <time>2017-09-16T13:19:29Z</time>
      </trkpt>
      <trkpt lat="44.11852" lon="7.23773">
        <ele>2374</ele>
        <time>2017-09-16T13:19:53Z</time>
      </trkpt>
      <trkpt lat="44.11852" lon="7.23773">
        <ele>2374</ele>
        <time>2017-09-16T13:19:53Z</time>
      </trkpt>
      <trkpt lat="44.11849" lon="7.23775">
        <ele>2374</ele>
        <time>2017-09-16T13:19:53Z</time>
      </trkpt>
      <trkpt lat="44.11846" lon="7.23777">
        <ele>2374</ele>
        <time>2017-09-16T13:19:53Z</time>
      </trkpt>
      <trkpt lat="44.11845" lon="7.2378">
        <ele>2374</ele>
        <time>2017-09-16T13:19:53Z</time>
      </trkpt>
      <trkpt lat="44.11841" lon="7.23788">
        <ele>2374</ele>
        <time>2017-09-16T13:22:13Z</time>
      </trkpt>
      <trkpt lat="44.11841" lon="7.23789">
        <ele>2374</ele>
        <time>2017-09-16T13:22:13Z</time>
      </trkpt>
      <trkpt lat="44.11841" lon="7.23791">
        <ele>2374</ele>
        <time>2017-09-16T13:22:13Z</time>
      </trkpt>
      <trkpt lat="44.1184" lon="7.23793">
        <ele>2412</ele>
        <time>2017-09-16T13:22:13Z</time>
      </trkpt>
      <trkpt lat="44.1184" lon="7.23796">
        <ele>2412</ele>
        <time>2017-09-16T13:22:13Z</time>
      </trkpt>
      <trkpt lat="44.11844" lon="7.23802">
        <ele>2412</ele>
        <time>2017-09-16T13:22:49Z</time>
      </trkpt>
      <trkpt lat="44.11845" lon="7.23803">
        <ele>2412</ele>
        <time>2017-09-16T13:22:49Z</time>
      </trkpt>
      <trkpt lat="44.11846" lon="7.23804">
        <ele>2412</ele>
        <time>2017-09-16T13:22:49Z</time>
      </trkpt>
      <trkpt lat="44.11847" lon="7.23805">
        <ele>2412</ele>
        <time>2017-09-16T13:22:49Z</time>
      </trkpt>
      <trkpt lat="44.11849" lon="7.23808">
        <ele>2412</ele>
        <time>2017-09-16T13:22:49Z</time>
      </trkpt>
      <trkpt lat="44.1185" lon="7.23812">
        <ele>2412</ele>
        <time>2017-09-16T13:23:13Z</time>
      </trkpt>
      <trkpt lat="44.11851" lon="7.23814">
        <ele>2412</ele>
        <time>2017-09-16T13:23:13Z</time>
      </trkpt>
      <trkpt lat="44.11851" lon="7.23816">
        <ele>2412</ele>
        <time>2017-09-16T13:23:13Z</time>
      </trkpt>
      <trkpt lat="44.11852" lon="7.23818">
        <ele>2412</ele>
        <time>2017-09-16T13:23:13Z</time>
      </trkpt>
      <trkpt lat="44.11855" lon="7.2382">
        <ele>2412</ele>
        <time>2017-09-16T13:23:13Z</time>
      </trkpt>
      <trkpt lat="44.11857" lon="7.23831">
        <ele>2412</ele>
        <time>2017-09-16T13:24:01Z</time>
      </trkpt>
      <trkpt lat="44.11857" lon="7.23833">
        <ele>2412</ele>
        <time>2017-09-16T13:24:01Z</time>
      </trkpt>
      <trkpt lat="44.11857" lon="7.23836">
        <ele>2412</ele>
        <time>2017-09-16T13:24:01Z</time>
      </trkpt>
      <trkpt lat="44.11858" lon="7.23837">
        <ele>2412</ele>
        <time>2017-09-16T13:24:01Z</time>
      </trkpt>
      <trkpt lat="44.11857" lon="7.23838">
        <ele>2412</ele>
        <time>2017-09-16T13:24:01Z</time>
      </trkpt>
      <trkpt lat="44.11854" lon="7.23844">
        <ele>2412</ele>
        <time>2017-09-16T13:24:41Z</time>
      </trkpt>
      <trkpt lat="44.11853" lon="7.23845">
        <ele>2412</ele>
        <time>2017-09-16T13:24:41Z</time>
      </trkpt>
      <trkpt lat="44.11852" lon="7.23844">
        <ele>2412</ele>
        <time>2017-09-16T13:24:41Z</time>
      </trkpt>
      <trkpt lat="44.11851" lon="7.23844">
        <ele>2412</ele>
        <time>2017-09-16T13:24:41Z</time>
      </trkpt>
      <trkpt lat="44.11849" lon="7.23847">
        <ele>2412</ele>
        <time>2017-09-16T13:24:41Z</time>
      </trkpt>
      <trkpt lat="44.1185" lon="7.23858">
        <ele>2412</ele>
        <time>2017-09-16T13:25:29Z</time>
      </trkpt>
      <trkpt lat="44.1185" lon="7.23859">
        <ele>2412</ele>
        <time>2017-09-16T13:25:29Z</time>
      </trkpt>
      <trkpt lat="44.1185" lon="7.23859">
        <ele>2412</ele>
        <time>2017-09-16T13:25:29Z</time>
      </trkpt>
      <trkpt lat="44.1185" lon="7.23859">
        <ele>2412</ele>
        <time>2017-09-16T13:25:29Z</time>
      </trkpt>
      <trkpt lat="44.11849" lon="7.23862">
        <ele>2412</ele>
        <time>2017-09-16T13:25:29Z</time>
      </trkpt>
      <trkpt lat="44.11847" lon="7.23871">
        <ele>2412</ele>
        <time>2017-09-16T13:26:05Z</time>
      </trkpt>
      <trkpt lat="44.11847" lon="7.23871">
        <ele>2412</ele>
        <time>2017-09-16T13:26:05Z</time>
      </trkpt>
      <trkpt lat="44.11847" lon="7.23873">
        <ele>2412</ele>
        <time>2017-09-16T13:26:05Z</time>
      </trkpt>
      <trkpt lat="44.11847" lon="7.23875">
        <ele>2412</ele>
        <time>2017-09-16T13:26:05Z</time>
      </trkpt>
      <trkpt lat="44.11847" lon="7.23879">
        <ele>2437</ele>
        <time>2017-09-16T13:26:05Z</time>
      </trkpt>
      <trkpt lat="44.11846" lon="7.23884">
        <ele>2437</ele>
        <time>2017-09-16T13:26:29Z</time>
      </trkpt>
      <trkpt lat="44.11845" lon="7.23884">
        <ele>2437</ele>
        <time>2017-09-16T13:26:29Z</time>
      </trkpt>
      <trkpt lat="44.11844" lon="7.23886">
        <ele>2437</ele>
        <time>2017-09-16T13:26:29Z</time>
      </trkpt>
      <trkpt lat="44.11843" lon="7.23886">
        <ele>2437</ele>
        <time>2017-09-16T13:26:29Z</time>
      </trkpt>
      <trkpt lat="44.11842" lon="7.23892">
        <ele>2437</ele>
        <time>2017-09-16T13:26:29Z</time>
      </trkpt>
      <trkpt lat="44.11838" lon="7.23899">
        <ele>2437</ele>
        <time>2017-09-16T13:27:09Z</time>
      </trkpt>
      <trkpt lat="44.11837" lon="7.239">
        <ele>2437</ele>
        <time>2017-09-16T13:27:09Z</time>
      </trkpt>
      <trkpt lat="44.11836" lon="7.23901">
        <ele>2437</ele>
        <time>2017-09-16T13:27:09Z</time>
      </trkpt>
      <trkpt lat="44.11836" lon="7.23901">
        <ele>2437</ele>
        <time>2017-09-16T13:27:09Z</time>
      </trkpt>
      <trkpt lat="44.11835" lon="7.23904">
        <ele>2437</ele>
        <time>2017-09-16T13:27:09Z</time>
      </trkpt>
      <trkpt lat="44.1183" lon="7.23908">
        <ele>2437</ele>
        <time>2017-09-16T13:27:53Z</time>
      </trkpt>
      <trkpt lat="44.11829" lon="7.23909">
        <ele>2437</ele>
        <time>2017-09-16T13:27:53Z</time>
      </trkpt>
      <trkpt lat="44.11829" lon="7.2391">
        <ele>2437</ele>
        <time>2017-09-16T13:27:53Z</time>
      </trkpt>
      <trkpt lat="44.11828" lon="7.23913">
        <ele>2437</ele>
        <time>2017-09-16T13:27:53Z</time>
      </trkpt>
      <trkpt lat="44.11828" lon="7.23916">
        <ele>2437</ele>
        <time>2017-09-16T13:27:53Z</time>
      </trkpt>
      <trkpt lat="44.11827" lon="7.23929">
        <ele>2437</ele>
        <time>2017-09-16T13:28:41Z</time>
      </trkpt>
      <trkpt lat="44.11828" lon="7.2393">
        <ele>2437</ele>
        <time>2017-09-16T13:28:41Z</time>
      </trkpt>
      <trkpt lat="44.11829" lon="7.23931">
        <ele>2437</ele>
        <time>2017-09-16T13:28:41Z</time>
      </trkpt>
      <trkpt lat="44.11827" lon="7.23933">
        <ele>2437</ele>
        <time>2017-09-16T13:28:41Z</time>
      </trkpt>
      <trkpt lat="44.11826" lon="7.23934">
        <ele>2437</ele>
        <time>2017-09-16T13:28:41Z</time>
      </trkpt>
      <trkpt lat="44.11825" lon="7.23942">
        <ele>2437</ele>
        <time>2017-09-16T13:29:33Z</time>
      </trkpt>
      <trkpt lat="44.11826" lon="7.23945">
        <ele>2437</ele>
        <time>2017-09-16T13:29:33Z</time>
      </trkpt>
      <trkpt lat="44.11828" lon="7.23948">
        <ele>2437</ele>
        <time>2017-09-16T13:29:33Z</time>
      </trkpt>
      <trkpt lat="44.11829" lon="7.2395">
        <ele>2437</ele>
        <time>2017-09-16T13:29:33Z</time>
      </trkpt>
      <trkpt lat="44.11831" lon="7.23951">
        <ele>2437</ele>
        <time>2017-09-16T13:29:33Z</time>
      </trkpt>
      <trkpt lat="44.11834" lon="7.23961">
        <ele>2465</ele>
        <time>2017-09-16T13:30:21Z</time>
      </trkpt>
      <trkpt lat="44.11834" lon="7.23962">
        <ele>2465</ele>
        <time>2017-09-16T13:30:21Z</time>
      </trkpt>
      <trkpt lat="44.11834" lon="7.23963">
        <ele>2465</ele>
        <time>2017-09-16T13:30:21Z</time>
      </trkpt>
      <trkpt lat="44.11834" lon="7.23965">
        <ele>2465</ele>
        <time>2017-09-16T13:30:21Z</time>
      </trkpt>
      <trkpt lat="44.11835" lon="7.23966">
        <ele>2465</ele>
        <time>2017-09-16T13:30:21Z</time>
      </trkpt>
      <trkpt lat="44.11838" lon="7.23972">
        <ele>2465</ele>
        <time>2017-09-16T13:30:57Z</time>
      </trkpt>
      <trkpt lat="44.11837" lon="7.23973">
        <ele>2465</ele>
        <time>2017-09-16T13:30:57Z</time>
      </trkpt>
      <trkpt lat="44.11837" lon="7.23975">
        <ele>2465</ele>
        <time>2017-09-16T13:30:57Z</time>
      </trkpt>
      <trkpt lat="44.11836" lon="7.23978">
        <ele>2465</ele>
        <time>2017-09-16T13:30:57Z</time>
      </trkpt>
      <trkpt lat="44.11836" lon="7.23979">
        <ele>2465</ele>
        <time>2017-09-16T13:30:57Z</time>
      </trkpt>
      <trkpt lat="44.11837" lon="7.23986">
        <ele>2465</ele>
        <time>2017-09-16T13:31:25Z</time>
      </trkpt>
      <trkpt lat="44.11838" lon="7.23987">
        <ele>2465</ele>
        <time>2017-09-16T13:31:25Z</time>
      </trkpt>
      <trkpt lat="44.1184" lon="7.23987">
        <ele>2465</ele>
        <time>2017-09-16T13:31:25Z</time>
      </trkpt>
      <trkpt lat="44.11839" lon="7.23989">
        <ele>2465</ele>
        <time>2017-09-16T13:31:25Z</time>
      </trkpt>
      <trkpt lat="44.11837" lon="7.23995">
        <ele>2465</ele>
        <time>2017-09-16T13:31:25Z</time>
      </trkpt>
      <trkpt lat="44.11834" lon="7.23997">
        <ele>2465</ele>
        <time>2017-09-16T13:32:01Z</time>
      </trkpt>
      <trkpt lat="44.11833" lon="7.23998">
        <ele>2465</ele>
        <time>2017-09-16T13:32:01Z</time>
      </trkpt>
      <trkpt lat="44.11832" lon="7.24">
        <ele>2465</ele>
        <time>2017-09-16T13:32:01Z</time>
      </trkpt>
      <trkpt lat="44.11831" lon="7.24">
        <ele>2465</ele>
        <time>2017-09-16T13:32:01Z</time>
      </trkpt>
      <trkpt lat="44.1183" lon="7.24002">
        <ele>2465</ele>
        <time>2017-09-16T13:32:01Z</time>
      </trkpt>
      <trkpt lat="44.11821" lon="7.24008">
        <ele>2465</ele>
        <time>2017-09-16T13:32:45Z</time>
      </trkpt>
      <trkpt lat="44.11821" lon="7.24009">
        <ele>2465</ele>
        <time>2017-09-16T13:32:45Z</time>
      </trkpt>
      <trkpt lat="44.11821" lon="7.2401">
        <ele>2465</ele>
        <time>2017-09-16T13:32:45Z</time>
      </trkpt>
      <trkpt lat="44.1182" lon="7.2401">
        <ele>2465</ele>
        <time>2017-09-16T13:32:45Z</time>
      </trkpt>
      <trkpt lat="44.11819" lon="7.24012">
        <ele>2465</ele>
        <time>2017-09-16T13:32:45Z</time>
      </trkpt>
      <trkpt lat="44.11815" lon="7.24018">
        <ele>2465</ele>
        <time>2017-09-16T13:33:21Z</time>
      </trkpt>
      <trkpt lat="44.11814" lon="7.24018">
        <ele>2465</ele>
        <time>2017-09-16T13:33:21Z</time>
      </trkpt>
      <trkpt lat="44.11814" lon="7.24018">
        <ele>2465</ele>
        <time>2017-09-16T13:33:21Z</time>
      </trkpt>
      <trkpt lat="44.11813" lon="7.24018">
        <ele>2465</ele>
        <time>2017-09-16T13:33:21Z</time>
      </trkpt>
      <trkpt lat="44.11809" lon="7.2402">
        <ele>2465</ele>
        <time>2017-09-16T13:33:21Z</time>
      </trkpt>
      <trkpt lat="44.11803" lon="7.24024">
        <ele>2465</ele>
        <time>2017-09-16T13:33:53Z</time>
      </trkpt>
      <trkpt lat="44.11802" lon="7.24023">
        <ele>2465</ele>
        <time>2017-09-16T13:33:53Z</time>
      </trkpt>
      <trkpt lat="44.11801" lon="7.24023">
        <ele>2465</ele>
        <time>2017-09-16T13:33:53Z</time>
      </trkpt>
      <trkpt lat="44.11799" lon="7.24022">
        <ele>2465</ele>
        <time>2017-09-16T13:33:53Z</time>
      </trkpt>
      <trkpt lat="44.11797" lon="7.24022">
        <ele>2465</ele>
        <time>2017-09-16T13:33:53Z</time>
      </trkpt>
      <trkpt lat="44.11794" lon="7.24025">
        <ele>2465</ele>
        <time>2017-09-16T13:34:17Z</time>
      </trkpt>
      <trkpt lat="44.11792" lon="7.24026">
        <ele>2465</ele>
        <time>2017-09-16T13:34:17Z</time>
      </trkpt>
      <trkpt lat="44.1179" lon="7.24027">
        <ele>2481</ele>
        <time>2017-09-16T13:34:17Z</time>
      </trkpt>
      <trkpt lat="44.11788" lon="7.24028">
        <ele>2481</ele>
        <time>2017-09-16T13:34:17Z</time>
      </trkpt>
      <trkpt lat="44.11787" lon="7.24029">
        <ele>2481</ele>
        <time>2017-09-16T13:34:17Z</time>
      </trkpt>
      <trkpt lat="44.11779" lon="7.24031">
        <ele>2481</ele>
        <time>2017-09-16T13:36:13Z</time>
      </trkpt>
      <trkpt lat="44.11779" lon="7.24031">
        <ele>2481</ele>
        <time>2017-09-16T13:36:13Z</time>
      </trkpt>
      <trkpt lat="44.11779" lon="7.24031">
        <ele>2481</ele>
        <time>2017-09-16T13:36:13Z</time>
      </trkpt>
      <trkpt lat="44.11778" lon="7.24032">
        <ele>2481</ele>
        <time>2017-09-16T13:36:13Z</time>
      </trkpt>
      <trkpt lat="44.11775" lon="7.24032">
        <ele>2481</ele>
        <time>2017-09-16T13:36:13Z</time>
      </trkpt>
      <trkpt lat="44.11773" lon="7.24031">
        <ele>2481</ele>
        <time>2017-09-16T13:36:33Z</time>
      </trkpt>
      <trkpt lat="44.1177" lon="7.24031">
        <ele>2481</ele>
        <time>2017-09-16T13:36:33Z</time>
      </trkpt>
      <trkpt lat="44.11767" lon="7.24031">
        <ele>2481</ele>
        <time>2017-09-16T13:36:33Z</time>
      </trkpt>
      <trkpt lat="44.11765" lon="7.2403">
        <ele>2481</ele>
        <time>2017-09-16T13:36:33Z</time>
      </trkpt>
      <trkpt lat="44.11762" lon="7.24031">
        <ele>2481</ele>
        <time>2017-09-16T13:36:33Z</time>
      </trkpt>
      <trkpt lat="44.1176" lon="7.2403">
        <ele>2481</ele>
        <time>2017-09-16T13:36:53Z</time>
      </trkpt>
      <trkpt lat="44.11757" lon="7.2403">
        <ele>2481</ele>
        <time>2017-09-16T13:36:53Z</time>
      </trkpt>
      <trkpt lat="44.11755" lon="7.24029">
        <ele>2481</ele>
        <time>2017-09-16T13:36:53Z</time>
      </trkpt>
      <trkpt lat="44.11753" lon="7.2403">
        <ele>2481</ele>
        <time>2017-09-16T13:36:53Z</time>
      </trkpt>
      <trkpt lat="44.1175" lon="7.2403">
        <ele>2481</ele>
        <time>2017-09-16T13:36:53Z</time>
      </trkpt>
      <trkpt lat="44.11742" lon="7.24032">
        <ele>2481</ele>
        <time>2017-09-16T13:38:13Z</time>
      </trkpt>
      <trkpt lat="44.11741" lon="7.24033">
        <ele>2481</ele>
        <time>2017-09-16T13:38:13Z</time>
      </trkpt>
      <trkpt lat="44.11738" lon="7.24035">
        <ele>2481</ele>
        <time>2017-09-16T13:38:13Z</time>
      </trkpt>
      <trkpt lat="44.11735" lon="7.24038">
        <ele>2481</ele>
        <time>2017-09-16T13:38:13Z</time>
      </trkpt>
      <trkpt lat="44.11733" lon="7.24038">
        <ele>2481</ele>
        <time>2017-09-16T13:38:13Z</time>
      </trkpt>
      <trkpt lat="44.11731" lon="7.24038">
        <ele>2481</ele>
        <time>2017-09-16T13:38:33Z</time>
      </trkpt>
      <trkpt lat="44.11728" lon="7.24039">
        <ele>2481</ele>
        <time>2017-09-16T13:38:33Z</time>
      </trkpt>
      <trkpt lat="44.11727" lon="7.24039">
        <ele>2481</ele>
        <time>2017-09-16T13:38:33Z</time>
      </trkpt>
      <trkpt lat="44.11723" lon="7.2404">
        <ele>2481</ele>
        <time>2017-09-16T13:38:33Z</time>
      </trkpt>
      <trkpt lat="44.11722" lon="7.2404">
        <ele>2481</ele>
        <time>2017-09-16T13:38:33Z</time>
      </trkpt>
      <trkpt lat="44.1172" lon="7.24041">
        <ele>2481</ele>
        <time>2017-09-16T13:38:53Z</time>
      </trkpt>
      <trkpt lat="44.11717" lon="7.24041">
        <ele>2481</ele>
        <time>2017-09-16T13:38:53Z</time>
      </trkpt>
      <trkpt lat="44.11714" lon="7.24041">
        <ele>2481</ele>
        <time>2017-09-16T13:38:53Z</time>
      </trkpt>
      <trkpt lat="44.11712" lon="7.24041">
        <ele>2481</ele>
        <time>2017-09-16T13:38:53Z</time>
      </trkpt>
      <trkpt lat="44.11711" lon="7.24041">
        <ele>2481</ele>
        <time>2017-09-16T13:38:53Z</time>
      </trkpt>
      <trkpt lat="44.11707" lon="7.24042">
        <ele>2514</ele>
        <time>2017-09-16T13:39:17Z</time>
      </trkpt>
      <trkpt lat="44.11704" lon="7.24042">
        <ele>2514</ele>
        <time>2017-09-16T13:39:17Z</time>
      </trkpt>
      <trkpt lat="44.11703" lon="7.24041">
        <ele>2494</ele>
        <time>2017-09-16T13:39:17Z</time>
      </trkpt>
      <trkpt lat="44.117" lon="7.24042">
        <ele>2494</ele>
        <time>2017-09-16T13:39:17Z</time>
      </trkpt>
      <trkpt lat="44.11698" lon="7.24042">
        <ele>2514</ele>
        <time>2017-09-16T13:39:17Z</time>
      </trkpt>
      <trkpt lat="44.11694" lon="7.24043">
        <ele>2514</ele>
        <time>2017-09-16T13:39:45Z</time>
      </trkpt>
      <trkpt lat="44.11693" lon="7.24044">
        <ele>2514</ele>
        <time>2017-09-16T13:39:45Z</time>
      </trkpt>
      <trkpt lat="44.11692" lon="7.24045">
        <ele>2514</ele>
        <time>2017-09-16T13:39:45Z</time>
      </trkpt>
      <trkpt lat="44.1169" lon="7.24045">
        <ele>2514</ele>
        <time>2017-09-16T13:39:45Z</time>
      </trkpt>
      <trkpt lat="44.11688" lon="7.24046">
        <ele>2514</ele>
        <time>2017-09-16T13:39:45Z</time>
      </trkpt>
      <trkpt lat="44.11684" lon="7.24047">
        <ele>2514</ele>
        <time>2017-09-16T13:40:09Z</time>
      </trkpt>
      <trkpt lat="44.11683" lon="7.24047">
        <ele>2514</ele>
        <time>2017-09-16T13:40:09Z</time>
      </trkpt>
      <trkpt lat="44.1168" lon="7.24047">
        <ele>2514</ele>
        <time>2017-09-16T13:40:09Z</time>
      </trkpt>
      <trkpt lat="44.11678" lon="7.24048">
        <ele>2514</ele>
        <time>2017-09-16T13:40:09Z</time>
      </trkpt>
      <trkpt lat="44.11676" lon="7.24048">
        <ele>2514</ele>
        <time>2017-09-16T13:40:09Z</time>
      </trkpt>
      <trkpt lat="44.11674" lon="7.24049">
        <ele>2514</ele>
        <time>2017-09-16T13:40:33Z</time>
      </trkpt>
      <trkpt lat="44.11671" lon="7.2405">
        <ele>2514</ele>
        <time>2017-09-16T13:40:33Z</time>
      </trkpt>
      <trkpt lat="44.11668" lon="7.2405">
        <ele>2514</ele>
        <time>2017-09-16T13:40:33Z</time>
      </trkpt>
      <trkpt lat="44.11667" lon="7.2405">
        <ele>2514</ele>
        <time>2017-09-16T13:40:33Z</time>
      </trkpt>
      <trkpt lat="44.11665" lon="7.24049">
        <ele>2514</ele>
        <time>2017-09-16T13:40:33Z</time>
      </trkpt>
      <trkpt lat="44.11659" lon="7.24046">
        <ele>2514</ele>
        <time>2017-09-16T13:41:09Z</time>
      </trkpt>
      <trkpt lat="44.11658" lon="7.24046">
        <ele>2514</ele>
        <time>2017-09-16T13:41:09Z</time>
      </trkpt>
      <trkpt lat="44.11656" lon="7.24046">
        <ele>2514</ele>
        <time>2017-09-16T13:41:09Z</time>
      </trkpt>
      <trkpt lat="44.11655" lon="7.24047">
        <ele>2514</ele>
        <time>2017-09-16T13:41:09Z</time>
      </trkpt>
      <trkpt lat="44.11652" lon="7.24047">
        <ele>2514</ele>
        <time>2017-09-16T13:41:09Z</time>
      </trkpt>
      <trkpt lat="44.11647" lon="7.24054">
        <ele>2514</ele>
        <time>2017-09-16T13:53:05Z</time>
      </trkpt>
      <trkpt lat="44.11649" lon="7.24059">
        <ele>2514</ele>
        <time>2017-09-16T13:53:05Z</time>
      </trkpt>
      <trkpt lat="44.1165" lon="7.24061">
        <ele>2514</ele>
        <time>2017-09-16T13:53:05Z</time>
      </trkpt>
      <trkpt lat="44.11652" lon="7.24064">
        <ele>2514</ele>
        <time>2017-09-16T13:53:05Z</time>
      </trkpt>
      <trkpt lat="44.11652" lon="7.24065">
        <ele>2514</ele>
        <time>2017-09-16T13:53:05Z</time>
      </trkpt>
      <trkpt lat="44.11654" lon="7.24069">
        <ele>2514</ele>
        <time>2017-09-16T13:53:29Z</time>
      </trkpt>
      <trkpt lat="44.11655" lon="7.2407">
        <ele>2514</ele>
        <time>2017-09-16T13:53:29Z</time>
      </trkpt>
      <trkpt lat="44.11655" lon="7.24075">
        <ele>2514</ele>
        <time>2017-09-16T13:53:29Z</time>
      </trkpt>
      <trkpt lat="44.11655" lon="7.24077">
        <ele>2514</ele>
        <time>2017-09-16T13:53:29Z</time>
      </trkpt>
      <trkpt lat="44.11654" lon="7.24082">
        <ele>2514</ele>
        <time>2017-09-16T13:53:29Z</time>
      </trkpt>
      <trkpt lat="44.1166" lon="7.2408">
        <ele>2514</ele>
        <time>2017-09-16T13:53:57Z</time>
      </trkpt>
      <trkpt lat="44.11661" lon="7.24077">
        <ele>2514</ele>
        <time>2017-09-16T13:53:57Z</time>
      </trkpt>
      <trkpt lat="44.11662" lon="7.24076">
        <ele>2514</ele>
        <time>2017-09-16T13:53:57Z</time>
      </trkpt>
      <trkpt lat="44.11662" lon="7.24075">
        <ele>2514</ele>
        <time>2017-09-16T13:53:57Z</time>
      </trkpt>
      <trkpt lat="44.11664" lon="7.24071">
        <ele>2514</ele>
        <time>2017-09-16T13:53:57Z</time>
      </trkpt>
      <trkpt lat="44.11672" lon="7.24061">
        <ele>2514</ele>
        <time>2017-09-16T13:54:45Z</time>
      </trkpt>
      <trkpt lat="44.11672" lon="7.24061">
        <ele>2514</ele>
        <time>2017-09-16T13:54:45Z</time>
      </trkpt>
      <trkpt lat="44.11672" lon="7.24061">
        <ele>2514</ele>
        <time>2017-09-16T13:54:45Z</time>
      </trkpt>
      <trkpt lat="44.11675" lon="7.24063">
        <ele>2514</ele>
        <time>2017-09-16T13:54:45Z</time>
      </trkpt>
      <trkpt lat="44.11678" lon="7.24068">
        <ele>2514</ele>
        <time>2017-09-16T13:54:45Z</time>
      </trkpt>
      <trkpt lat="44.11677" lon="7.24066">
        <ele>2514</ele>
        <time>2017-09-16T13:55:17Z</time>
      </trkpt>
      <trkpt lat="44.11682" lon="7.24064">
        <ele>2514</ele>
        <time>2017-09-16T13:55:17Z</time>
      </trkpt>
      <trkpt lat="44.11684" lon="7.24062">
        <ele>2514</ele>
        <time>2017-09-16T13:55:17Z</time>
      </trkpt>
      <trkpt lat="44.11689" lon="7.24061">
        <ele>2514</ele>
        <time>2017-09-16T13:55:17Z</time>
      </trkpt>
      <trkpt lat="44.11691" lon="7.24063">
        <ele>2514</ele>
        <time>2017-09-16T13:55:17Z</time>
      </trkpt>
      <trkpt lat="44.11698" lon="7.24062">
        <ele>2514</ele>
        <time>2017-09-16T14:33:17Z</time>
      </trkpt>
      <trkpt lat="44.11697" lon="7.24058">
        <ele>2514</ele>
        <time>2017-09-16T14:33:17Z</time>
      </trkpt>
      <trkpt lat="44.11696" lon="7.24056">
        <ele>2514</ele>
        <time>2017-09-16T14:33:17Z</time>
      </trkpt>
      <trkpt lat="44.11695" lon="7.24054">
        <ele>2514</ele>
        <time>2017-09-16T14:33:17Z</time>
      </trkpt>
      <trkpt lat="44.11695" lon="7.24052">
        <ele>2514</ele>
        <time>2017-09-16T14:33:17Z</time>
      </trkpt>
      <trkpt lat="44.11696" lon="7.24052">
        <ele>2514</ele>
        <time>2017-09-16T14:35:01Z</time>
      </trkpt>
      <trkpt lat="44.11696" lon="7.24055">
        <ele>2514</ele>
        <time>2017-09-16T14:35:01Z</time>
      </trkpt>
      <trkpt lat="44.11695" lon="7.2406">
        <ele>2514</ele>
        <time>2017-09-16T14:35:01Z</time>
      </trkpt>
      <trkpt lat="44.11693" lon="7.24064">
        <ele>2514</ele>
        <time>2017-09-16T14:35:01Z</time>
      </trkpt>
      <trkpt lat="44.11694" lon="7.24066">
        <ele>2514</ele>
        <time>2017-09-16T14:35:01Z</time>
      </trkpt>
      <trkpt lat="44.11697" lon="7.24074">
        <ele>2514</ele>
        <time>2017-09-16T14:39:45Z</time>
      </trkpt>
      <trkpt lat="44.11695" lon="7.24075">
        <ele>2514</ele>
        <time>2017-09-16T14:39:45Z</time>
      </trkpt>
      <trkpt lat="44.11695" lon="7.24076">
        <ele>2514</ele>
        <time>2017-09-16T14:39:45Z</time>
      </trkpt>
      <trkpt lat="44.11693" lon="7.24078">
        <ele>2514</ele>
        <time>2017-09-16T14:39:45Z</time>
      </trkpt>
      <trkpt lat="44.1169" lon="7.2408">
        <ele>2514</ele>
        <time>2017-09-16T14:39:45Z</time>
      </trkpt>
      <trkpt lat="44.11687" lon="7.24081">
        <ele>2514</ele>
        <time>2017-09-16T14:40:05Z</time>
      </trkpt>
      <trkpt lat="44.11685" lon="7.24083">
        <ele>2514</ele>
        <time>2017-09-16T14:40:05Z</time>
      </trkpt>
      <trkpt lat="44.11684" lon="7.24085">
        <ele>2514</ele>
        <time>2017-09-16T14:40:05Z</time>
      </trkpt>
      <trkpt lat="44.11682" lon="7.24088">
        <ele>2514</ele>
        <time>2017-09-16T14:40:05Z</time>
      </trkpt>
      <trkpt lat="44.1168" lon="7.2409">
        <ele>2514</ele>
        <time>2017-09-16T14:40:05Z</time>
      </trkpt>
      <trkpt lat="44.11677" lon="7.24094">
        <ele>2514</ele>
        <time>2017-09-16T14:40:29Z</time>
      </trkpt>
      <trkpt lat="44.11675" lon="7.24095">
        <ele>2514</ele>
        <time>2017-09-16T14:40:29Z</time>
      </trkpt>
      <trkpt lat="44.11674" lon="7.24098">
        <ele>2514</ele>
        <time>2017-09-16T14:40:29Z</time>
      </trkpt>
      <trkpt lat="44.11672" lon="7.24102">
        <ele>2514</ele>
        <time>2017-09-16T14:40:29Z</time>
      </trkpt>
      <trkpt lat="44.1167" lon="7.24106">
        <ele>2514</ele>
        <time>2017-09-16T14:40:29Z</time>
      </trkpt>
      <trkpt lat="44.11664" lon="7.24111">
        <ele>2514</ele>
        <time>2017-09-16T14:40:57Z</time>
      </trkpt>
      <trkpt lat="44.11662" lon="7.24112">
        <ele>2514</ele>
        <time>2017-09-16T14:40:57Z</time>
      </trkpt>
      <trkpt lat="44.11661" lon="7.24112">
        <ele>2514</ele>
        <time>2017-09-16T14:40:57Z</time>
      </trkpt>
      <trkpt lat="44.11661" lon="7.24112">
        <ele>2514</ele>
        <time>2017-09-16T14:40:57Z</time>
      </trkpt>
      <trkpt lat="44.11659" lon="7.24113">
        <ele>2514</ele>
        <time>2017-09-16T14:40:57Z</time>
      </trkpt>
      <trkpt lat="44.11656" lon="7.24119">
        <ele>2514</ele>
        <time>2017-09-16T14:41:49Z</time>
      </trkpt>
      <trkpt lat="44.11656" lon="7.2412">
        <ele>2514</ele>
        <time>2017-09-16T14:41:49Z</time>
      </trkpt>
      <trkpt lat="44.11656" lon="7.24121">
        <ele>2514</ele>
        <time>2017-09-16T14:41:49Z</time>
      </trkpt>
      <trkpt lat="44.11655" lon="7.24124">
        <ele>2514</ele>
        <time>2017-09-16T14:41:49Z</time>
      </trkpt>
      <trkpt lat="44.11657" lon="7.24126">
        <ele>2494</ele>
        <time>2017-09-16T14:41:49Z</time>
      </trkpt>
      <trkpt lat="44.11659" lon="7.24132">
        <ele>2494</ele>
        <time>2017-09-16T14:42:57Z</time>
      </trkpt>
      <trkpt lat="44.11658" lon="7.24134">
        <ele>2494</ele>
        <time>2017-09-16T14:42:57Z</time>
      </trkpt>
      <trkpt lat="44.11656" lon="7.24137">
        <ele>2494</ele>
        <time>2017-09-16T14:42:57Z</time>
      </trkpt>
      <trkpt lat="44.11656" lon="7.24137">
        <ele>2494</ele>
        <time>2017-09-16T14:42:57Z</time>
      </trkpt>
      <trkpt lat="44.11655" lon="7.24139">
        <ele>2494</ele>
        <time>2017-09-16T14:42:57Z</time>
      </trkpt>
      <trkpt lat="44.11652" lon="7.24148">
        <ele>2494</ele>
        <time>2017-09-16T14:43:25Z</time>
      </trkpt>
      <trkpt lat="44.1165" lon="7.2415">
        <ele>2494</ele>
        <time>2017-09-16T14:43:25Z</time>
      </trkpt>
      <trkpt lat="44.11648" lon="7.24152">
        <ele>2494</ele>
        <time>2017-09-16T14:43:25Z</time>
      </trkpt>
      <trkpt lat="44.11648" lon="7.24152">
        <ele>2494</ele>
        <time>2017-09-16T14:43:25Z</time>
      </trkpt>
      <trkpt lat="44.11648" lon="7.24154">
        <ele>2494</ele>
        <time>2017-09-16T14:43:25Z</time>
      </trkpt>
      <trkpt lat="44.11654" lon="7.24165">
        <ele>2494</ele>
        <time>2017-09-16T14:44:05Z</time>
      </trkpt>
      <trkpt lat="44.11655" lon="7.2417">
        <ele>2494</ele>
        <time>2017-09-16T14:44:05Z</time>
      </trkpt>
      <trkpt lat="44.11655" lon="7.24173">
        <ele>2494</ele>
        <time>2017-09-16T14:44:05Z</time>
      </trkpt>
      <trkpt lat="44.11654" lon="7.24176">
        <ele>2494</ele>
        <time>2017-09-16T14:44:05Z</time>
      </trkpt>
      <trkpt lat="44.11652" lon="7.24179">
        <ele>2494</ele>
        <time>2017-09-16T14:44:05Z</time>
      </trkpt>
      <trkpt lat="44.11649" lon="7.24178">
        <ele>2494</ele>
        <time>2017-09-16T14:44:25Z</time>
      </trkpt>
      <trkpt lat="44.11649" lon="7.2418">
        <ele>2494</ele>
        <time>2017-09-16T14:44:25Z</time>
      </trkpt>
      <trkpt lat="44.1165" lon="7.24184">
        <ele>2494</ele>
        <time>2017-09-16T14:44:25Z</time>
      </trkpt>
      <trkpt lat="44.11648" lon="7.24187">
        <ele>2494</ele>
        <time>2017-09-16T14:44:25Z</time>
      </trkpt>
      <trkpt lat="44.11647" lon="7.24191">
        <ele>2494</ele>
        <time>2017-09-16T14:44:25Z</time>
      </trkpt>
      <trkpt lat="44.11647" lon="7.24197">
        <ele>2494</ele>
        <time>2017-09-16T14:44:53Z</time>
      </trkpt>
      <trkpt lat="44.11646" lon="7.242">
        <ele>2494</ele>
        <time>2017-09-16T14:44:53Z</time>
      </trkpt>
      <trkpt lat="44.11647" lon="7.24201">
        <ele>2494</ele>
        <time>2017-09-16T14:44:53Z</time>
      </trkpt>
      <trkpt lat="44.11647" lon="7.24203">
        <ele>2494</ele>
        <time>2017-09-16T14:44:53Z</time>
      </trkpt>
      <trkpt lat="44.11647" lon="7.24204">
        <ele>2494</ele>
        <time>2017-09-16T14:44:53Z</time>
      </trkpt>
      <trkpt lat="44.11647" lon="7.24208">
        <ele>2494</ele>
        <time>2017-09-16T14:45:25Z</time>
      </trkpt>
      <trkpt lat="44.11647" lon="7.24209">
        <ele>2457</ele>
        <time>2017-09-16T14:45:25Z</time>
      </trkpt>
      <trkpt lat="44.11647" lon="7.24212">
        <ele>2457</ele>
        <time>2017-09-16T14:45:25Z</time>
      </trkpt>
      <trkpt lat="44.11646" lon="7.24214">
        <ele>2457</ele>
        <time>2017-09-16T14:45:25Z</time>
      </trkpt>
      <trkpt lat="44.11644" lon="7.24218">
        <ele>2457</ele>
        <time>2017-09-16T14:45:25Z</time>
      </trkpt>
      <trkpt lat="44.11646" lon="7.24223">
        <ele>2457</ele>
        <time>2017-09-16T14:45:41Z</time>
      </trkpt>
      <trkpt lat="44.11648" lon="7.24228">
        <ele>2457</ele>
        <time>2017-09-16T14:45:41Z</time>
      </trkpt>
      <trkpt lat="44.11648" lon="7.24233">
        <ele>2457</ele>
        <time>2017-09-16T14:45:41Z</time>
      </trkpt>
      <trkpt lat="44.11647" lon="7.24239">
        <ele>2457</ele>
        <time>2017-09-16T14:45:41Z</time>
      </trkpt>
      <trkpt lat="44.11645" lon="7.24252">
        <ele>2457</ele>
        <time>2017-09-16T14:46:25Z</time>
      </trkpt>
      <trkpt lat="44.11645" lon="7.24256">
        <ele>2457</ele>
        <time>2017-09-16T14:46:25Z</time>
      </trkpt>
      <trkpt lat="44.11645" lon="7.24258">
        <ele>2457</ele>
        <time>2017-09-16T14:46:25Z</time>
      </trkpt>
      <trkpt lat="44.11646" lon="7.24261">
        <ele>2457</ele>
        <time>2017-09-16T14:46:25Z</time>
      </trkpt>
      <trkpt lat="44.11646" lon="7.24266">
        <ele>2457</ele>
        <time>2017-09-16T14:46:25Z</time>
      </trkpt>
      <trkpt lat="44.11645" lon="7.24273">
        <ele>2457</ele>
        <time>2017-09-16T14:46:53Z</time>
      </trkpt>
      <trkpt lat="44.11645" lon="7.24274">
        <ele>2457</ele>
        <time>2017-09-16T14:46:53Z</time>
      </trkpt>
      <trkpt lat="44.11644" lon="7.24276">
        <ele>2457</ele>
        <time>2017-09-16T14:46:53Z</time>
      </trkpt>
      <trkpt lat="44.11645" lon="7.2428">
        <ele>2457</ele>
        <time>2017-09-16T14:46:53Z</time>
      </trkpt>
      <trkpt lat="44.11644" lon="7.24282">
        <ele>2457</ele>
        <time>2017-09-16T14:46:53Z</time>
      </trkpt>
      <trkpt lat="44.11642" lon="7.24288">
        <ele>2457</ele>
        <time>2017-09-16T14:47:21Z</time>
      </trkpt>
      <trkpt lat="44.11641" lon="7.2429">
        <ele>2457</ele>
        <time>2017-09-16T14:47:21Z</time>
      </trkpt>
      <trkpt lat="44.11642" lon="7.24293">
        <ele>2423</ele>
        <time>2017-09-16T14:47:21Z</time>
      </trkpt>
      <trkpt lat="44.11642" lon="7.24295">
        <ele>2423</ele>
        <time>2017-09-16T14:47:21Z</time>
      </trkpt>
      <trkpt lat="44.11642" lon="7.24299">
        <ele>2423</ele>
        <time>2017-09-16T14:47:21Z</time>
      </trkpt>
      <trkpt lat="44.11638" lon="7.24305">
        <ele>2423</ele>
        <time>2017-09-16T14:48:01Z</time>
      </trkpt>
      <trkpt lat="44.11637" lon="7.24301">
        <ele>2423</ele>
        <time>2017-09-16T14:48:01Z</time>
      </trkpt>
      <trkpt lat="44.11636" lon="7.24298">
        <ele>2423</ele>
        <time>2017-09-16T14:48:01Z</time>
      </trkpt>
      <trkpt lat="44.11634" lon="7.24297">
        <ele>2423</ele>
        <time>2017-09-16T14:48:01Z</time>
      </trkpt>
      <trkpt lat="44.11633" lon="7.24294">
        <ele>2423</ele>
        <time>2017-09-16T14:48:01Z</time>
      </trkpt>
      <trkpt lat="44.1163" lon="7.24293">
        <ele>2423</ele>
        <time>2017-09-16T14:48:25Z</time>
      </trkpt>
      <trkpt lat="44.11628" lon="7.24292">
        <ele>2423</ele>
        <time>2017-09-16T14:48:25Z</time>
      </trkpt>
      <trkpt lat="44.11627" lon="7.2429">
        <ele>2457</ele>
        <time>2017-09-16T14:48:25Z</time>
      </trkpt>
      <trkpt lat="44.11626" lon="7.24288">
        <ele>2457</ele>
        <time>2017-09-16T14:48:25Z</time>
      </trkpt>
      <trkpt lat="44.11623" lon="7.24288">
        <ele>2436</ele>
        <time>2017-09-16T14:48:25Z</time>
      </trkpt>
      <trkpt lat="44.11617" lon="7.2429">
        <ele>2436</ele>
        <time>2017-09-16T14:49:05Z</time>
      </trkpt>
      <trkpt lat="44.11617" lon="7.24292">
        <ele>2411</ele>
        <time>2017-09-16T14:49:05Z</time>
      </trkpt>
      <trkpt lat="44.11618" lon="7.24295">
        <ele>2411</ele>
        <time>2017-09-16T14:49:05Z</time>
      </trkpt>
      <trkpt lat="44.11619" lon="7.24297">
        <ele>2411</ele>
        <time>2017-09-16T14:49:05Z</time>
      </trkpt>
      <trkpt lat="44.11618" lon="7.243">
        <ele>2411</ele>
        <time>2017-09-16T14:49:05Z</time>
      </trkpt>
      <trkpt lat="44.11618" lon="7.2431">
        <ele>2411</ele>
        <time>2017-09-16T14:49:29Z</time>
      </trkpt>
      <trkpt lat="44.11618" lon="7.24313">
        <ele>2411</ele>
        <time>2017-09-16T14:49:29Z</time>
      </trkpt>
      <trkpt lat="44.11619" lon="7.24315">
        <ele>2411</ele>
        <time>2017-09-16T14:49:29Z</time>
      </trkpt>
      <trkpt lat="44.11618" lon="7.24317">
        <ele>2411</ele>
        <time>2017-09-16T14:49:29Z</time>
      </trkpt>
      <trkpt lat="44.11618" lon="7.2432">
        <ele>2411</ele>
        <time>2017-09-16T14:49:29Z</time>
      </trkpt>
      <trkpt lat="44.11617" lon="7.24323">
        <ele>2411</ele>
        <time>2017-09-16T14:49:45Z</time>
      </trkpt>
      <trkpt lat="44.11617" lon="7.24325">
        <ele>2411</ele>
        <time>2017-09-16T14:49:45Z</time>
      </trkpt>
      <trkpt lat="44.11617" lon="7.2433">
        <ele>2411</ele>
        <time>2017-09-16T14:49:45Z</time>
      </trkpt>
      <trkpt lat="44.11618" lon="7.24335">
        <ele>2411</ele>
        <time>2017-09-16T14:49:45Z</time>
      </trkpt>
      <trkpt lat="44.11621" lon="7.24347">
        <ele>2411</ele>
        <time>2017-09-16T14:50:37Z</time>
      </trkpt>
      <trkpt lat="44.11621" lon="7.24347">
        <ele>2411</ele>
        <time>2017-09-16T14:50:37Z</time>
      </trkpt>
      <trkpt lat="44.1162" lon="7.2435">
        <ele>2411</ele>
        <time>2017-09-16T14:50:37Z</time>
      </trkpt>
      <trkpt lat="44.1162" lon="7.24352">
        <ele>2411</ele>
        <time>2017-09-16T14:50:37Z</time>
      </trkpt>
      <trkpt lat="44.11618" lon="7.24356">
        <ele>2411</ele>
        <time>2017-09-16T14:50:37Z</time>
      </trkpt>
      <trkpt lat="44.11619" lon="7.24358">
        <ele>2411</ele>
        <time>2017-09-16T14:50:57Z</time>
      </trkpt>
      <trkpt lat="44.11619" lon="7.24362">
        <ele>2411</ele>
        <time>2017-09-16T14:50:57Z</time>
      </trkpt>
      <trkpt lat="44.11619" lon="7.24366">
        <ele>2411</ele>
        <time>2017-09-16T14:50:57Z</time>
      </trkpt>
      <trkpt lat="44.11619" lon="7.24368">
        <ele>2411</ele>
        <time>2017-09-16T14:50:57Z</time>
      </trkpt>
      <trkpt lat="44.11618" lon="7.24372">
        <ele>2411</ele>
        <time>2017-09-16T14:50:57Z</time>
      </trkpt>
      <trkpt lat="44.11619" lon="7.24376">
        <ele>2389</ele>
        <time>2017-09-16T14:51:37Z</time>
      </trkpt>
      <trkpt lat="44.11619" lon="7.2438">
        <ele>2389</ele>
        <time>2017-09-16T14:51:37Z</time>
      </trkpt>
      <trkpt lat="44.11618" lon="7.24383">
        <ele>2389</ele>
        <time>2017-09-16T14:51:37Z</time>
      </trkpt>
      <trkpt lat="44.11618" lon="7.24385">
        <ele>2389</ele>
        <time>2017-09-16T14:51:37Z</time>
      </trkpt>
      <trkpt lat="44.11617" lon="7.24387">
        <ele>2389</ele>
        <time>2017-09-16T14:51:37Z</time>
      </trkpt>
      <trkpt lat="44.11617" lon="7.24391">
        <ele>2389</ele>
        <time>2017-09-16T14:51:53Z</time>
      </trkpt>
      <trkpt lat="44.11616" lon="7.24396">
        <ele>2389</ele>
        <time>2017-09-16T14:51:53Z</time>
      </trkpt>
      <trkpt lat="44.11616" lon="7.244">
        <ele>2389</ele>
        <time>2017-09-16T14:51:53Z</time>
      </trkpt>
      <trkpt lat="44.11616" lon="7.24405">
        <ele>2389</ele>
        <time>2017-09-16T14:51:53Z</time>
      </trkpt>
      <trkpt lat="44.11615" lon="7.24411">
        <ele>2389</ele>
        <time>2017-09-16T14:52:25Z</time>
      </trkpt>
      <trkpt lat="44.11615" lon="7.24411">
        <ele>2389</ele>
        <time>2017-09-16T14:52:25Z</time>
      </trkpt>
      <trkpt lat="44.11615" lon="7.24414">
        <ele>2389</ele>
        <time>2017-09-16T14:52:25Z</time>
      </trkpt>
      <trkpt lat="44.11614" lon="7.24418">
        <ele>2389</ele>
        <time>2017-09-16T14:52:25Z</time>
      </trkpt>
      <trkpt lat="44.11614" lon="7.2442">
        <ele>2389</ele>
        <time>2017-09-16T14:52:25Z</time>
      </trkpt>
      <trkpt lat="44.11614" lon="7.24435">
        <ele>2389</ele>
        <time>2017-09-16T14:53:09Z</time>
      </trkpt>
      <trkpt lat="44.11614" lon="7.24436">
        <ele>2389</ele>
        <time>2017-09-16T14:53:09Z</time>
      </trkpt>
      <trkpt lat="44.11614" lon="7.24436">
        <ele>2389</ele>
        <time>2017-09-16T14:53:09Z</time>
      </trkpt>
      <trkpt lat="44.11614" lon="7.24436">
        <ele>2389</ele>
        <time>2017-09-16T14:53:09Z</time>
      </trkpt>
      <trkpt lat="44.11613" lon="7.24439">
        <ele>2389</ele>
        <time>2017-09-16T14:53:09Z</time>
      </trkpt>
      <trkpt lat="44.11612" lon="7.2444">
        <ele>2389</ele>
        <time>2017-09-16T14:53:29Z</time>
      </trkpt>
      <trkpt lat="44.11612" lon="7.24444">
        <ele>2389</ele>
        <time>2017-09-16T14:53:29Z</time>
      </trkpt>
      <trkpt lat="44.11613" lon="7.24446">
        <ele>2389</ele>
        <time>2017-09-16T14:53:29Z</time>
      </trkpt>
      <trkpt lat="44.11614" lon="7.24448">
        <ele>2389</ele>
        <time>2017-09-16T14:53:29Z</time>
      </trkpt>
      <trkpt lat="44.11614" lon="7.24454">
        <ele>2389</ele>
        <time>2017-09-16T14:53:29Z</time>
      </trkpt>
      <trkpt lat="44.11614" lon="7.24457">
        <ele>2389</ele>
        <time>2017-09-16T14:53:45Z</time>
      </trkpt>
      <trkpt lat="44.11614" lon="7.24461">
        <ele>2366</ele>
        <time>2017-09-16T14:53:45Z</time>
      </trkpt>
      <trkpt lat="44.11616" lon="7.24465">
        <ele>2366</ele>
        <time>2017-09-16T14:53:45Z</time>
      </trkpt>
      <trkpt lat="44.11617" lon="7.2447">
        <ele>2366</ele>
        <time>2017-09-16T14:53:45Z</time>
      </trkpt>
      <trkpt lat="44.11618" lon="7.24473">
        <ele>2366</ele>
        <time>2017-09-16T14:54:05Z</time>
      </trkpt>
      <trkpt lat="44.11617" lon="7.24475">
        <ele>2366</ele>
        <time>2017-09-16T14:54:05Z</time>
      </trkpt>
      <trkpt lat="44.11617" lon="7.24477">
        <ele>2366</ele>
        <time>2017-09-16T14:54:05Z</time>
      </trkpt>
      <trkpt lat="44.11617" lon="7.24483">
        <ele>2366</ele>
        <time>2017-09-16T14:54:05Z</time>
      </trkpt>
      <trkpt lat="44.11616" lon="7.24486">
        <ele>2366</ele>
        <time>2017-09-16T14:54:05Z</time>
      </trkpt>
      <trkpt lat="44.11616" lon="7.2449">
        <ele>2366</ele>
        <time>2017-09-16T14:54:21Z</time>
      </trkpt>
      <trkpt lat="44.11615" lon="7.24496">
        <ele>2366</ele>
        <time>2017-09-16T14:54:21Z</time>
      </trkpt>
      <trkpt lat="44.11614" lon="7.24501">
        <ele>2366</ele>
        <time>2017-09-16T14:54:21Z</time>
      </trkpt>
      <trkpt lat="44.11614" lon="7.24506">
        <ele>2366</ele>
        <time>2017-09-16T14:54:21Z</time>
      </trkpt>
      <trkpt lat="44.11614" lon="7.24517">
        <ele>2366</ele>
        <time>2017-09-16T14:54:53Z</time>
      </trkpt>
      <trkpt lat="44.11612" lon="7.2452">
        <ele>2366</ele>
        <time>2017-09-16T14:54:53Z</time>
      </trkpt>
      <trkpt lat="44.11613" lon="7.24521">
        <ele>2366</ele>
        <time>2017-09-16T14:54:53Z</time>
      </trkpt>
      <trkpt lat="44.11613" lon="7.24523">
        <ele>2366</ele>
        <time>2017-09-16T14:54:53Z</time>
      </trkpt>
      <trkpt lat="44.11613" lon="7.24524">
        <ele>2366</ele>
        <time>2017-09-16T14:54:53Z</time>
      </trkpt>
      <trkpt lat="44.11609" lon="7.24532">
        <ele>2366</ele>
        <time>2017-09-16T14:55:25Z</time>
      </trkpt>
      <trkpt lat="44.11608" lon="7.24532">
        <ele>2366</ele>
        <time>2017-09-16T14:55:25Z</time>
      </trkpt>
      <trkpt lat="44.11608" lon="7.24532">
        <ele>2366</ele>
        <time>2017-09-16T14:55:25Z</time>
      </trkpt>
      <trkpt lat="44.11607" lon="7.24533">
        <ele>2366</ele>
        <time>2017-09-16T14:55:25Z</time>
      </trkpt>
      <trkpt lat="44.11606" lon="7.24533">
        <ele>2366</ele>
        <time>2017-09-16T14:55:25Z</time>
      </trkpt>
      <trkpt lat="44.11604" lon="7.24537">
        <ele>2366</ele>
        <time>2017-09-16T14:55:49Z</time>
      </trkpt>
      <trkpt lat="44.11603" lon="7.24538">
        <ele>2366</ele>
        <time>2017-09-16T14:55:49Z</time>
      </trkpt>
      <trkpt lat="44.11602" lon="7.24542">
        <ele>2348</ele>
        <time>2017-09-16T14:55:49Z</time>
      </trkpt>
      <trkpt lat="44.11602" lon="7.24544">
        <ele>2348</ele>
        <time>2017-09-16T14:55:49Z</time>
      </trkpt>
      <trkpt lat="44.116" lon="7.24546">
        <ele>2348</ele>
        <time>2017-09-16T14:55:49Z</time>
      </trkpt>
      <trkpt lat="44.11602" lon="7.24548">
        <ele>2348</ele>
        <time>2017-09-16T14:56:17Z</time>
      </trkpt>
      <trkpt lat="44.11604" lon="7.24551">
        <ele>2348</ele>
        <time>2017-09-16T14:56:17Z</time>
      </trkpt>
      <trkpt lat="44.11605" lon="7.24554">
        <ele>2348</ele>
        <time>2017-09-16T14:56:17Z</time>
      </trkpt>
      <trkpt lat="44.11604" lon="7.24555">
        <ele>2348</ele>
        <time>2017-09-16T14:56:17Z</time>
      </trkpt>
      <trkpt lat="44.11604" lon="7.24558">
        <ele>2348</ele>
        <time>2017-09-16T14:56:17Z</time>
      </trkpt>
      <trkpt lat="44.11604" lon="7.24559">
        <ele>2348</ele>
        <time>2017-09-16T14:56:37Z</time>
      </trkpt>
      <trkpt lat="44.11603" lon="7.24558">
        <ele>2348</ele>
        <time>2017-09-16T14:56:37Z</time>
      </trkpt>
      <trkpt lat="44.11601" lon="7.24564">
        <ele>2348</ele>
        <time>2017-09-16T14:56:37Z</time>
      </trkpt>
      <trkpt lat="44.11599" lon="7.24567">
        <ele>2348</ele>
        <time>2017-09-16T14:56:37Z</time>
      </trkpt>
      <trkpt lat="44.11598" lon="7.24569">
        <ele>2348</ele>
        <time>2017-09-16T14:56:37Z</time>
      </trkpt>
      <trkpt lat="44.11598" lon="7.24573">
        <ele>2348</ele>
        <time>2017-09-16T14:56:53Z</time>
      </trkpt>
      <trkpt lat="44.11597" lon="7.24577">
        <ele>2348</ele>
        <time>2017-09-16T14:56:53Z</time>
      </trkpt>
      <trkpt lat="44.11598" lon="7.24583">
        <ele>2348</ele>
        <time>2017-09-16T14:56:53Z</time>
      </trkpt>
      <trkpt lat="44.11597" lon="7.24586">
        <ele>2348</ele>
        <time>2017-09-16T14:56:53Z</time>
      </trkpt>
      <trkpt lat="44.11596" lon="7.24592">
        <ele>2348</ele>
        <time>2017-09-16T14:57:13Z</time>
      </trkpt>
      <trkpt lat="44.11597" lon="7.24595">
        <ele>2348</ele>
        <time>2017-09-16T14:57:13Z</time>
      </trkpt>
      <trkpt lat="44.11596" lon="7.246">
        <ele>2348</ele>
        <time>2017-09-16T14:57:13Z</time>
      </trkpt>
      <trkpt lat="44.11595" lon="7.24604">
        <ele>2348</ele>
        <time>2017-09-16T14:57:13Z</time>
      </trkpt>
      <trkpt lat="44.11595" lon="7.24607">
        <ele>2348</ele>
        <time>2017-09-16T14:57:13Z</time>
      </trkpt>
      <trkpt lat="44.11594" lon="7.24612">
        <ele>2348</ele>
        <time>2017-09-16T14:57:29Z</time>
      </trkpt>
      <trkpt lat="44.11593" lon="7.24617">
        <ele>2348</ele>
        <time>2017-09-16T14:57:29Z</time>
      </trkpt>
      <trkpt lat="44.11591" lon="7.24619">
        <ele>2348</ele>
        <time>2017-09-16T14:57:29Z</time>
      </trkpt>
      <trkpt lat="44.1159" lon="7.24624">
        <ele>2348</ele>
        <time>2017-09-16T14:57:29Z</time>
      </trkpt>
      <trkpt lat="44.11593" lon="7.24633">
        <ele>2332</ele>
        <time>2017-09-16T14:58:05Z</time>
      </trkpt>
      <trkpt lat="44.11592" lon="7.24636">
        <ele>2332</ele>
        <time>2017-09-16T14:58:05Z</time>
      </trkpt>
      <trkpt lat="44.11591" lon="7.24637">
        <ele>2332</ele>
        <time>2017-09-16T14:58:05Z</time>
      </trkpt>
      <trkpt lat="44.11591" lon="7.24638">
        <ele>2332</ele>
        <time>2017-09-16T14:58:05Z</time>
      </trkpt>
      <trkpt lat="44.11592" lon="7.24642">
        <ele>2332</ele>
        <time>2017-09-16T14:58:05Z</time>
      </trkpt>
      <trkpt lat="44.11591" lon="7.24645">
        <ele>2332</ele>
        <time>2017-09-16T14:58:25Z</time>
      </trkpt>
      <trkpt lat="44.11591" lon="7.24647">
        <ele>2332</ele>
        <time>2017-09-16T14:58:25Z</time>
      </trkpt>
      <trkpt lat="44.11591" lon="7.24651">
        <ele>2332</ele>
        <time>2017-09-16T14:58:25Z</time>
      </trkpt>
      <trkpt lat="44.1159" lon="7.24654">
        <ele>2332</ele>
        <time>2017-09-16T14:58:25Z</time>
      </trkpt>
      <trkpt lat="44.11589" lon="7.24658">
        <ele>2332</ele>
        <time>2017-09-16T14:58:25Z</time>
      </trkpt>
      <trkpt lat="44.11587" lon="7.24665">
        <ele>2332</ele>
        <time>2017-09-16T14:58:49Z</time>
      </trkpt>
      <trkpt lat="44.11588" lon="7.24667">
        <ele>2332</ele>
        <time>2017-09-16T14:58:49Z</time>
      </trkpt>
      <trkpt lat="44.11588" lon="7.24667">
        <ele>2332</ele>
        <time>2017-09-16T14:58:49Z</time>
      </trkpt>
      <trkpt lat="44.11589" lon="7.24669">
        <ele>2332</ele>
        <time>2017-09-16T14:58:49Z</time>
      </trkpt>
      <trkpt lat="44.11588" lon="7.24674">
        <ele>2332</ele>
        <time>2017-09-16T14:58:49Z</time>
      </trkpt>
      <trkpt lat="44.11588" lon="7.24678">
        <ele>2332</ele>
        <time>2017-09-16T14:59:13Z</time>
      </trkpt>
      <trkpt lat="44.11588" lon="7.24681">
        <ele>2332</ele>
        <time>2017-09-16T14:59:13Z</time>
      </trkpt>
      <trkpt lat="44.11589" lon="7.24684">
        <ele>2332</ele>
        <time>2017-09-16T14:59:13Z</time>
      </trkpt>
      <trkpt lat="44.11589" lon="7.24686">
        <ele>2332</ele>
        <time>2017-09-16T14:59:13Z</time>
      </trkpt>
      <trkpt lat="44.11589" lon="7.24689">
        <ele>2332</ele>
        <time>2017-09-16T14:59:13Z</time>
      </trkpt>
      <trkpt lat="44.11589" lon="7.24691">
        <ele>2332</ele>
        <time>2017-09-16T14:59:33Z</time>
      </trkpt>
      <trkpt lat="44.11589" lon="7.24695">
        <ele>2332</ele>
        <time>2017-09-16T14:59:33Z</time>
      </trkpt>
      <trkpt lat="44.11589" lon="7.24698">
        <ele>2332</ele>
        <time>2017-09-16T14:59:33Z</time>
      </trkpt>
      <trkpt lat="44.11589" lon="7.24701">
        <ele>2332</ele>
        <time>2017-09-16T14:59:33Z</time>
      </trkpt>
      <trkpt lat="44.11588" lon="7.24705">
        <ele>2332</ele>
        <time>2017-09-16T14:59:33Z</time>
      </trkpt>
      <trkpt lat="44.11585" lon="7.24713">
        <ele>2309</ele>
        <time>2017-09-16T15:00:01Z</time>
      </trkpt>
      <trkpt lat="44.11588" lon="7.24714">
        <ele>2309</ele>
        <time>2017-09-16T15:00:01Z</time>
      </trkpt>
      <trkpt lat="44.1159" lon="7.24715">
        <ele>2309</ele>
        <time>2017-09-16T15:00:01Z</time>
      </trkpt>
      <trkpt lat="44.11592" lon="7.24716">
        <ele>2309</ele>
        <time>2017-09-16T15:00:01Z</time>
      </trkpt>
      <trkpt lat="44.11591" lon="7.2472">
        <ele>2309</ele>
        <time>2017-09-16T15:00:01Z</time>
      </trkpt>
      <trkpt lat="44.11591" lon="7.24726">
        <ele>2309</ele>
        <time>2017-09-16T15:00:25Z</time>
      </trkpt>
      <trkpt lat="44.11591" lon="7.24729">
        <ele>2309</ele>
        <time>2017-09-16T15:00:25Z</time>
      </trkpt>
      <trkpt lat="44.1159" lon="7.24732">
        <ele>2309</ele>
        <time>2017-09-16T15:00:25Z</time>
      </trkpt>
      <trkpt lat="44.1159" lon="7.24733">
        <ele>2309</ele>
        <time>2017-09-16T15:00:25Z</time>
      </trkpt>
      <trkpt lat="44.11589" lon="7.24735">
        <ele>2309</ele>
        <time>2017-09-16T15:00:25Z</time>
      </trkpt>
      <trkpt lat="44.1159" lon="7.2474">
        <ele>2309</ele>
        <time>2017-09-16T15:00:49Z</time>
      </trkpt>
      <trkpt lat="44.11591" lon="7.24742">
        <ele>2309</ele>
        <time>2017-09-16T15:00:49Z</time>
      </trkpt>
      <trkpt lat="44.11592" lon="7.24745">
        <ele>2309</ele>
        <time>2017-09-16T15:00:49Z</time>
      </trkpt>
      <trkpt lat="44.11594" lon="7.24747">
        <ele>2309</ele>
        <time>2017-09-16T15:00:49Z</time>
      </trkpt>
      <trkpt lat="44.11595" lon="7.2475">
        <ele>2309</ele>
        <time>2017-09-16T15:00:49Z</time>
      </trkpt>
      <trkpt lat="44.11597" lon="7.24756">
        <ele>2309</ele>
        <time>2017-09-16T15:01:13Z</time>
      </trkpt>
      <trkpt lat="44.11597" lon="7.24758">
        <ele>2309</ele>
        <time>2017-09-16T15:01:13Z</time>
      </trkpt>
      <trkpt lat="44.11595" lon="7.2476">
        <ele>2309</ele>
        <time>2017-09-16T15:01:13Z</time>
      </trkpt>
      <trkpt lat="44.11593" lon="7.24763">
        <ele>2309</ele>
        <time>2017-09-16T15:01:13Z</time>
      </trkpt>
      <trkpt lat="44.11592" lon="7.24766">
        <ele>2309</ele>
        <time>2017-09-16T15:01:13Z</time>
      </trkpt>
      <trkpt lat="44.1159" lon="7.24769">
        <ele>2309</ele>
        <time>2017-09-16T15:01:33Z</time>
      </trkpt>
      <trkpt lat="44.11589" lon="7.24774">
        <ele>2309</ele>
        <time>2017-09-16T15:01:33Z</time>
      </trkpt>
      <trkpt lat="44.11588" lon="7.24776">
        <ele>2309</ele>
        <time>2017-09-16T15:01:33Z</time>
      </trkpt>
      <trkpt lat="44.11587" lon="7.2478">
        <ele>2309</ele>
        <time>2017-09-16T15:01:33Z</time>
      </trkpt>
      <trkpt lat="44.11588" lon="7.24784">
        <ele>2309</ele>
        <time>2017-09-16T15:01:33Z</time>
      </trkpt>
      <trkpt lat="44.11588" lon="7.24787">
        <ele>2309</ele>
        <time>2017-09-16T15:01:53Z</time>
      </trkpt>
      <trkpt lat="44.11588" lon="7.24791">
        <ele>2309</ele>
        <time>2017-09-16T15:01:53Z</time>
      </trkpt>
      <trkpt lat="44.11586" lon="7.24794">
        <ele>2289</ele>
        <time>2017-09-16T15:01:53Z</time>
      </trkpt>
      <trkpt lat="44.11586" lon="7.24796">
        <ele>2289</ele>
        <time>2017-09-16T15:01:53Z</time>
      </trkpt>
      <trkpt lat="44.11585" lon="7.248">
        <ele>2289</ele>
        <time>2017-09-16T15:01:53Z</time>
      </trkpt>
      <trkpt lat="44.11583" lon="7.24806">
        <ele>2289</ele>
        <time>2017-09-16T15:02:17Z</time>
      </trkpt>
      <trkpt lat="44.11582" lon="7.24807">
        <ele>2289</ele>
        <time>2017-09-16T15:02:17Z</time>
      </trkpt>
      <trkpt lat="44.11582" lon="7.24809">
        <ele>2289</ele>
        <time>2017-09-16T15:02:17Z</time>
      </trkpt>
      <trkpt lat="44.11581" lon="7.24813">
        <ele>2289</ele>
        <time>2017-09-16T15:02:17Z</time>
      </trkpt>
      <trkpt lat="44.1158" lon="7.24818">
        <ele>2289</ele>
        <time>2017-09-16T15:02:17Z</time>
      </trkpt>
      <trkpt lat="44.1158" lon="7.2482">
        <ele>2289</ele>
        <time>2017-09-16T15:02:37Z</time>
      </trkpt>
      <trkpt lat="44.1158" lon="7.24824">
        <ele>2289</ele>
        <time>2017-09-16T15:02:37Z</time>
      </trkpt>
      <trkpt lat="44.11579" lon="7.24827">
        <ele>2289</ele>
        <time>2017-09-16T15:02:37Z</time>
      </trkpt>
      <trkpt lat="44.11578" lon="7.24831">
        <ele>2289</ele>
        <time>2017-09-16T15:02:37Z</time>
      </trkpt>
      <trkpt lat="44.11577" lon="7.24836">
        <ele>2289</ele>
        <time>2017-09-16T15:02:37Z</time>
      </trkpt>
      <trkpt lat="44.11576" lon="7.24841">
        <ele>2289</ele>
        <time>2017-09-16T15:02:57Z</time>
      </trkpt>
      <trkpt lat="44.11575" lon="7.24844">
        <ele>2289</ele>
        <time>2017-09-16T15:02:57Z</time>
      </trkpt>
      <trkpt lat="44.11572" lon="7.24847">
        <ele>2289</ele>
        <time>2017-09-16T15:02:57Z</time>
      </trkpt>
      <trkpt lat="44.1157" lon="7.2485">
        <ele>2289</ele>
        <time>2017-09-16T15:02:57Z</time>
      </trkpt>
      <trkpt lat="44.11568" lon="7.24853">
        <ele>2289</ele>
        <time>2017-09-16T15:02:57Z</time>
      </trkpt>
      <trkpt lat="44.11567" lon="7.24864">
        <ele>2289</ele>
        <time>2017-09-16T15:04:29Z</time>
      </trkpt>
      <trkpt lat="44.11568" lon="7.24864">
        <ele>2289</ele>
        <time>2017-09-16T15:04:29Z</time>
      </trkpt>
      <trkpt lat="44.11568" lon="7.24868">
        <ele>2289</ele>
        <time>2017-09-16T15:04:29Z</time>
      </trkpt>
      <trkpt lat="44.11567" lon="7.24872">
        <ele>2289</ele>
        <time>2017-09-16T15:04:29Z</time>
      </trkpt>
      <trkpt lat="44.11566" lon="7.24877">
        <ele>2274</ele>
        <time>2017-09-16T15:04:29Z</time>
      </trkpt>
      <trkpt lat="44.11564" lon="7.24882">
        <ele>2274</ele>
        <time>2017-09-16T15:04:49Z</time>
      </trkpt>
      <trkpt lat="44.11564" lon="7.24886">
        <ele>2274</ele>
        <time>2017-09-16T15:04:49Z</time>
      </trkpt>
      <trkpt lat="44.11563" lon="7.24889">
        <ele>2274</ele>
        <time>2017-09-16T15:04:49Z</time>
      </trkpt>
      <trkpt lat="44.11564" lon="7.24894">
        <ele>2274</ele>
        <time>2017-09-16T15:04:49Z</time>
      </trkpt>
      <trkpt lat="44.11563" lon="7.24899">
        <ele>2274</ele>
        <time>2017-09-16T15:04:49Z</time>
      </trkpt>
      <trkpt lat="44.11564" lon="7.24902">
        <ele>2274</ele>
        <time>2017-09-16T15:05:05Z</time>
      </trkpt>
      <trkpt lat="44.11564" lon="7.24906">
        <ele>2274</ele>
        <time>2017-09-16T15:05:05Z</time>
      </trkpt>
      <trkpt lat="44.11565" lon="7.2491">
        <ele>2274</ele>
        <time>2017-09-16T15:05:05Z</time>
      </trkpt>
      <trkpt lat="44.11566" lon="7.24915">
        <ele>2274</ele>
        <time>2017-09-16T15:05:05Z</time>
      </trkpt>
      <trkpt lat="44.11567" lon="7.24922">
        <ele>2274</ele>
        <time>2017-09-16T15:05:21Z</time>
      </trkpt>
      <trkpt lat="44.11568" lon="7.24927">
        <ele>2274</ele>
        <time>2017-09-16T15:05:21Z</time>
      </trkpt>
      <trkpt lat="44.11569" lon="7.24931">
        <ele>2274</ele>
        <time>2017-09-16T15:05:21Z</time>
      </trkpt>
      <trkpt lat="44.1157" lon="7.24938">
        <ele>2274</ele>
        <time>2017-09-16T15:05:21Z</time>
      </trkpt>
      <trkpt lat="44.11571" lon="7.24945">
        <ele>2274</ele>
        <time>2017-09-16T15:05:37Z</time>
      </trkpt>
      <trkpt lat="44.1157" lon="7.24951">
        <ele>2274</ele>
        <time>2017-09-16T15:05:37Z</time>
      </trkpt>
      <trkpt lat="44.1157" lon="7.24958">
        <ele>2274</ele>
        <time>2017-09-16T15:05:37Z</time>
      </trkpt>
      <trkpt lat="44.11571" lon="7.24963">
        <ele>2265</ele>
        <time>2017-09-16T15:05:37Z</time>
      </trkpt>
      <trkpt lat="44.1157" lon="7.24967">
        <ele>2265</ele>
        <time>2017-09-16T15:05:53Z</time>
      </trkpt>
      <trkpt lat="44.1157" lon="7.24972">
        <ele>2265</ele>
        <time>2017-09-16T15:05:53Z</time>
      </trkpt>
      <trkpt lat="44.1157" lon="7.24978">
        <ele>2265</ele>
        <time>2017-09-16T15:05:53Z</time>
      </trkpt>
      <trkpt lat="44.1157" lon="7.2498">
        <ele>2265</ele>
        <time>2017-09-16T15:05:53Z</time>
      </trkpt>
      <trkpt lat="44.11568" lon="7.24983">
        <ele>2265</ele>
        <time>2017-09-16T15:06:17Z</time>
      </trkpt>
      <trkpt lat="44.11567" lon="7.24986">
        <ele>2265</ele>
        <time>2017-09-16T15:06:17Z</time>
      </trkpt>
      <trkpt lat="44.11566" lon="7.24988">
        <ele>2265</ele>
        <time>2017-09-16T15:06:17Z</time>
      </trkpt>
      <trkpt lat="44.11566" lon="7.24988">
        <ele>2265</ele>
        <time>2017-09-16T15:06:17Z</time>
      </trkpt>
      <trkpt lat="44.11566" lon="7.24994">
        <ele>2265</ele>
        <time>2017-09-16T15:06:17Z</time>
      </trkpt>
      <trkpt lat="44.11566" lon="7.24998">
        <ele>2265</ele>
        <time>2017-09-16T15:06:33Z</time>
      </trkpt>
      <trkpt lat="44.11566" lon="7.25002">
        <ele>2265</ele>
        <time>2017-09-16T15:06:33Z</time>
      </trkpt>
      <trkpt lat="44.11567" lon="7.25006">
        <ele>2265</ele>
        <time>2017-09-16T15:06:33Z</time>
      </trkpt>
      <trkpt lat="44.11568" lon="7.2501">
        <ele>2265</ele>
        <time>2017-09-16T15:06:33Z</time>
      </trkpt>
      <trkpt lat="44.11569" lon="7.25015">
        <ele>2265</ele>
        <time>2017-09-16T15:06:49Z</time>
      </trkpt>
      <trkpt lat="44.1157" lon="7.2502">
        <ele>2265</ele>
        <time>2017-09-16T15:06:49Z</time>
      </trkpt>
      <trkpt lat="44.11572" lon="7.25026">
        <ele>2265</ele>
        <time>2017-09-16T15:06:49Z</time>
      </trkpt>
      <trkpt lat="44.11573" lon="7.25029">
        <ele>2265</ele>
        <time>2017-09-16T15:06:49Z</time>
      </trkpt>
      <trkpt lat="44.11573" lon="7.25032">
        <ele>2265</ele>
        <time>2017-09-16T15:07:09Z</time>
      </trkpt>
      <trkpt lat="44.11575" lon="7.25034">
        <ele>2265</ele>
        <time>2017-09-16T15:07:09Z</time>
      </trkpt>
      <trkpt lat="44.11576" lon="7.25038">
        <ele>2265</ele>
        <time>2017-09-16T15:07:09Z</time>
      </trkpt>
      <trkpt lat="44.11577" lon="7.25043">
        <ele>2257</ele>
        <time>2017-09-16T15:07:09Z</time>
      </trkpt>
      <trkpt lat="44.11577" lon="7.25048">
        <ele>2257</ele>
        <time>2017-09-16T15:07:09Z</time>
      </trkpt>
      <trkpt lat="44.11576" lon="7.25051">
        <ele>2257</ele>
        <time>2017-09-16T15:07:29Z</time>
      </trkpt>
      <trkpt lat="44.11577" lon="7.25056">
        <ele>2257</ele>
        <time>2017-09-16T15:07:29Z</time>
      </trkpt>
      <trkpt lat="44.11576" lon="7.25061">
        <ele>2257</ele>
        <time>2017-09-16T15:07:29Z</time>
      </trkpt>
      <trkpt lat="44.11576" lon="7.25063">
        <ele>2257</ele>
        <time>2017-09-16T15:07:29Z</time>
      </trkpt>
      <trkpt lat="44.11575" lon="7.25066">
        <ele>2257</ele>
        <time>2017-09-16T15:07:29Z</time>
      </trkpt>
      <trkpt lat="44.11576" lon="7.25073">
        <ele>2257</ele>
        <time>2017-09-16T15:08:33Z</time>
      </trkpt>
      <trkpt lat="44.11576" lon="7.25073">
        <ele>2257</ele>
        <time>2017-09-16T15:08:33Z</time>
      </trkpt>
      <trkpt lat="44.11576" lon="7.25074">
        <ele>2257</ele>
        <time>2017-09-16T15:08:33Z</time>
      </trkpt>
      <trkpt lat="44.11576" lon="7.25079">
        <ele>2257</ele>
        <time>2017-09-16T15:08:33Z</time>
      </trkpt>
      <trkpt lat="44.11575" lon="7.25085">
        <ele>2257</ele>
        <time>2017-09-16T15:08:33Z</time>
      </trkpt>
      <trkpt lat="44.11575" lon="7.25091">
        <ele>2257</ele>
        <time>2017-09-16T15:08:49Z</time>
      </trkpt>
      <trkpt lat="44.11576" lon="7.25097">
        <ele>2257</ele>
        <time>2017-09-16T15:08:49Z</time>
      </trkpt>
      <trkpt lat="44.11576" lon="7.25102">
        <ele>2257</ele>
        <time>2017-09-16T15:08:49Z</time>
      </trkpt>
      <trkpt lat="44.11576" lon="7.25106">
        <ele>2257</ele>
        <time>2017-09-16T15:08:49Z</time>
      </trkpt>
      <trkpt lat="44.11577" lon="7.2511">
        <ele>2257</ele>
        <time>2017-09-16T15:09:05Z</time>
      </trkpt>
      <trkpt lat="44.11576" lon="7.25116">
        <ele>2257</ele>
        <time>2017-09-16T15:09:05Z</time>
      </trkpt>
      <trkpt lat="44.11576" lon="7.25122">
        <ele>2257</ele>
        <time>2017-09-16T15:09:05Z</time>
      </trkpt>
      <trkpt lat="44.11576" lon="7.25127">
        <ele>2247</ele>
        <time>2017-09-16T15:09:05Z</time>
      </trkpt>
      <trkpt lat="44.11576" lon="7.25131">
        <ele>2247</ele>
        <time>2017-09-16T15:09:21Z</time>
      </trkpt>
      <trkpt lat="44.11575" lon="7.25137">
        <ele>2247</ele>
        <time>2017-09-16T15:09:21Z</time>
      </trkpt>
      <trkpt lat="44.11576" lon="7.25142">
        <ele>2247</ele>
        <time>2017-09-16T15:09:21Z</time>
      </trkpt>
      <trkpt lat="44.11576" lon="7.25145">
        <ele>2247</ele>
        <time>2017-09-16T15:09:21Z</time>
      </trkpt>
      <trkpt lat="44.1158" lon="7.25148">
        <ele>2247</ele>
        <time>2017-09-16T15:10:57Z</time>
      </trkpt>
      <trkpt lat="44.11583" lon="7.2515">
        <ele>2247</ele>
        <time>2017-09-16T15:10:57Z</time>
      </trkpt>
      <trkpt lat="44.11585" lon="7.25154">
        <ele>2247</ele>
        <time>2017-09-16T15:10:57Z</time>
      </trkpt>
      <trkpt lat="44.11586" lon="7.25155">
        <ele>2247</ele>
        <time>2017-09-16T15:10:57Z</time>
      </trkpt>
      <trkpt lat="44.11586" lon="7.25155">
        <ele>2247</ele>
        <time>2017-09-16T15:10:57Z</time>
      </trkpt>
      <trkpt lat="44.11587" lon="7.25154">
        <ele>2247</ele>
        <time>2017-09-16T15:11:53Z</time>
      </trkpt>
      <trkpt lat="44.11585" lon="7.25153">
        <ele>2247</ele>
        <time>2017-09-16T15:11:53Z</time>
      </trkpt>
      <trkpt lat="44.11582" lon="7.25154">
        <ele>2247</ele>
        <time>2017-09-16T15:11:53Z</time>
      </trkpt>
      <trkpt lat="44.11578" lon="7.25156">
        <ele>2247</ele>
        <time>2017-09-16T15:11:53Z</time>
      </trkpt>
      <trkpt lat="44.11576" lon="7.25156">
        <ele>2247</ele>
        <time>2017-09-16T15:11:53Z</time>
      </trkpt>
      <trkpt lat="44.11573" lon="7.25159">
        <ele>2247</ele>
        <time>2017-09-16T15:12:13Z</time>
      </trkpt>
      <trkpt lat="44.11571" lon="7.25163">
        <ele>2247</ele>
        <time>2017-09-16T15:12:13Z</time>
      </trkpt>
      <trkpt lat="44.1157" lon="7.25166">
        <ele>2247</ele>
        <time>2017-09-16T15:12:13Z</time>
      </trkpt>
      <trkpt lat="44.1157" lon="7.25167">
        <ele>2247</ele>
        <time>2017-09-16T15:12:13Z</time>
      </trkpt>
      <trkpt lat="44.11567" lon="7.25171">
        <ele>2247</ele>
        <time>2017-09-16T15:12:13Z</time>
      </trkpt>
      <trkpt lat="44.11565" lon="7.25175">
        <ele>2247</ele>
        <time>2017-09-16T15:17:57Z</time>
      </trkpt>
      <trkpt lat="44.11563" lon="7.2518">
        <ele>2247</ele>
        <time>2017-09-16T15:17:57Z</time>
      </trkpt>
      <trkpt lat="44.11563" lon="7.25183">
        <ele>2247</ele>
        <time>2017-09-16T15:17:57Z</time>
      </trkpt>
      <trkpt lat="44.11563" lon="7.25184">
        <ele>2247</ele>
        <time>2017-09-16T15:17:57Z</time>
      </trkpt>
      <trkpt lat="44.11561" lon="7.25188">
        <ele>2247</ele>
        <time>2017-09-16T15:17:57Z</time>
      </trkpt>
      <trkpt lat="44.1156" lon="7.25193">
        <ele>2247</ele>
        <time>2017-09-16T15:18:17Z</time>
      </trkpt>
      <trkpt lat="44.11559" lon="7.25197">
        <ele>2247</ele>
        <time>2017-09-16T15:18:17Z</time>
      </trkpt>
      <trkpt lat="44.11557" lon="7.252">
        <ele>2247</ele>
        <time>2017-09-16T15:18:17Z</time>
      </trkpt>
      <trkpt lat="44.11556" lon="7.25202">
        <ele>2247</ele>
        <time>2017-09-16T15:18:17Z</time>
      </trkpt>
      <trkpt lat="44.11554" lon="7.25205">
        <ele>2247</ele>
        <time>2017-09-16T15:18:17Z</time>
      </trkpt>
      <trkpt lat="44.11553" lon="7.25209">
        <ele>2233</ele>
        <time>2017-09-16T15:18:33Z</time>
      </trkpt>
      <trkpt lat="44.11549" lon="7.25214">
        <ele>2233</ele>
        <time>2017-09-16T15:18:33Z</time>
      </trkpt>
      <trkpt lat="44.11545" lon="7.25219">
        <ele>2233</ele>
        <time>2017-09-16T15:18:33Z</time>
      </trkpt>
      <trkpt lat="44.11542" lon="7.25223">
        <ele>2233</ele>
        <time>2017-09-16T15:18:33Z</time>
      </trkpt>
      <trkpt lat="44.1154" lon="7.25226">
        <ele>2207</ele>
        <time>2017-09-16T15:18:53Z</time>
      </trkpt>
      <trkpt lat="44.11539" lon="7.25228">
        <ele>2207</ele>
        <time>2017-09-16T15:18:53Z</time>
      </trkpt>
      <trkpt lat="44.11537" lon="7.25231">
        <ele>2207</ele>
        <time>2017-09-16T15:18:53Z</time>
      </trkpt>
      <trkpt lat="44.11536" lon="7.25235">
        <ele>2207</ele>
        <time>2017-09-16T15:18:53Z</time>
      </trkpt>
      <trkpt lat="44.11535" lon="7.2524">
        <ele>2207</ele>
        <time>2017-09-16T15:18:53Z</time>
      </trkpt>
      <trkpt lat="44.11534" lon="7.25243">
        <ele>2207</ele>
        <time>2017-09-16T15:19:29Z</time>
      </trkpt>
      <trkpt lat="44.11534" lon="7.25245">
        <ele>2207</ele>
        <time>2017-09-16T15:19:29Z</time>
      </trkpt>
      <trkpt lat="44.11533" lon="7.25251">
        <ele>2207</ele>
        <time>2017-09-16T15:19:29Z</time>
      </trkpt>
      <trkpt lat="44.11534" lon="7.25257">
        <ele>2207</ele>
        <time>2017-09-16T15:19:29Z</time>
      </trkpt>
      <trkpt lat="44.11534" lon="7.25262">
        <ele>2207</ele>
        <time>2017-09-16T15:19:29Z</time>
      </trkpt>
      <trkpt lat="44.11535" lon="7.25267">
        <ele>2207</ele>
        <time>2017-09-16T15:19:45Z</time>
      </trkpt>
      <trkpt lat="44.11535" lon="7.25271">
        <ele>2207</ele>
        <time>2017-09-16T15:19:45Z</time>
      </trkpt>
      <trkpt lat="44.11537" lon="7.25276">
        <ele>2207</ele>
        <time>2017-09-16T15:19:45Z</time>
      </trkpt>
      <trkpt lat="44.11538" lon="7.25281">
        <ele>2207</ele>
        <time>2017-09-16T15:19:45Z</time>
      </trkpt>
      <trkpt lat="44.11538" lon="7.25284">
        <ele>2207</ele>
        <time>2017-09-16T15:20:01Z</time>
      </trkpt>
      <trkpt lat="44.11539" lon="7.25288">
        <ele>2207</ele>
        <time>2017-09-16T15:20:01Z</time>
      </trkpt>
      <trkpt lat="44.11539" lon="7.25293">
        <ele>2210</ele>
        <time>2017-09-16T15:20:01Z</time>
      </trkpt>
      <trkpt lat="44.11539" lon="7.25298">
        <ele>2210</ele>
        <time>2017-09-16T15:20:01Z</time>
      </trkpt>
      <trkpt lat="44.11538" lon="7.25302">
        <ele>2210</ele>
        <time>2017-09-16T15:20:21Z</time>
      </trkpt>
      <trkpt lat="44.11538" lon="7.25305">
        <ele>2210</ele>
        <time>2017-09-16T15:20:21Z</time>
      </trkpt>
      <trkpt lat="44.11538" lon="7.25308">
        <ele>2210</ele>
        <time>2017-09-16T15:20:21Z</time>
      </trkpt>
      <trkpt lat="44.11537" lon="7.25312">
        <ele>2210</ele>
        <time>2017-09-16T15:20:21Z</time>
      </trkpt>
      <trkpt lat="44.11535" lon="7.25317">
        <ele>2210</ele>
        <time>2017-09-16T15:20:21Z</time>
      </trkpt>
      <trkpt lat="44.11534" lon="7.2532">
        <ele>2210</ele>
        <time>2017-09-16T15:20:41Z</time>
      </trkpt>
      <trkpt lat="44.11534" lon="7.25324">
        <ele>2210</ele>
        <time>2017-09-16T15:20:41Z</time>
      </trkpt>
      <trkpt lat="44.11534" lon="7.25327">
        <ele>2210</ele>
        <time>2017-09-16T15:20:41Z</time>
      </trkpt>
      <trkpt lat="44.11533" lon="7.2533">
        <ele>2210</ele>
        <time>2017-09-16T15:20:41Z</time>
      </trkpt>
      <trkpt lat="44.11532" lon="7.25334">
        <ele>2210</ele>
        <time>2017-09-16T15:20:41Z</time>
      </trkpt>
      <trkpt lat="44.11532" lon="7.25339">
        <ele>2210</ele>
        <time>2017-09-16T15:21:05Z</time>
      </trkpt>
      <trkpt lat="44.11532" lon="7.2534">
        <ele>2210</ele>
        <time>2017-09-16T15:21:05Z</time>
      </trkpt>
      <trkpt lat="44.11533" lon="7.25344">
        <ele>2210</ele>
        <time>2017-09-16T15:21:05Z</time>
      </trkpt>
      <trkpt lat="44.11532" lon="7.25346">
        <ele>2210</ele>
        <time>2017-09-16T15:21:05Z</time>
      </trkpt>
      <trkpt lat="44.11532" lon="7.2535">
        <ele>2210</ele>
        <time>2017-09-16T15:21:05Z</time>
      </trkpt>
      <trkpt lat="44.11537" lon="7.25355">
        <ele>2210</ele>
        <time>2017-09-16T15:21:29Z</time>
      </trkpt>
      <trkpt lat="44.11539" lon="7.25357">
        <ele>2210</ele>
        <time>2017-09-16T15:21:29Z</time>
      </trkpt>
      <trkpt lat="44.1154" lon="7.2536">
        <ele>2210</ele>
        <time>2017-09-16T15:21:29Z</time>
      </trkpt>
      <trkpt lat="44.1154" lon="7.25361">
        <ele>2210</ele>
        <time>2017-09-16T15:21:29Z</time>
      </trkpt>
      <trkpt lat="44.11541" lon="7.25362">
        <ele>2210</ele>
        <time>2017-09-16T15:21:29Z</time>
      </trkpt>
      <trkpt lat="44.11543" lon="7.25366">
        <ele>2223</ele>
        <time>2017-09-16T15:21:45Z</time>
      </trkpt>
      <trkpt lat="44.11544" lon="7.25369">
        <ele>2223</ele>
        <time>2017-09-16T15:21:45Z</time>
      </trkpt>
      <trkpt lat="44.11546" lon="7.25374">
        <ele>2223</ele>
        <time>2017-09-16T15:21:45Z</time>
      </trkpt>
      <trkpt lat="44.11549" lon="7.25378">
        <ele>2217</ele>
        <time>2017-09-16T15:21:45Z</time>
      </trkpt>
      <trkpt lat="44.11552" lon="7.25381">
        <ele>2217</ele>
        <time>2017-09-16T15:22:05Z</time>
      </trkpt>
      <trkpt lat="44.11553" lon="7.25384">
        <ele>2217</ele>
        <time>2017-09-16T15:22:05Z</time>
      </trkpt>
      <trkpt lat="44.11553" lon="7.25388">
        <ele>2217</ele>
        <time>2017-09-16T15:22:05Z</time>
      </trkpt>
      <trkpt lat="44.11555" lon="7.25391">
        <ele>2217</ele>
        <time>2017-09-16T15:22:05Z</time>
      </trkpt>
      <trkpt lat="44.11556" lon="7.25395">
        <ele>2217</ele>
        <time>2017-09-16T15:22:05Z</time>
      </trkpt>
      <trkpt lat="44.11563" lon="7.25391">
        <ele>2217</ele>
        <time>2017-09-16T15:35:41Z</time>
      </trkpt>
      <trkpt lat="44.11565" lon="7.25393">
        <ele>2217</ele>
        <time>2017-09-16T15:35:41Z</time>
      </trkpt>
      <trkpt lat="44.11567" lon="7.25389">
        <ele>2217</ele>
        <time>2017-09-16T15:35:41Z</time>
      </trkpt>
      <trkpt lat="44.11569" lon="7.25386">
        <ele>2217</ele>
        <time>2017-09-16T15:35:41Z</time>
      </trkpt>
      <trkpt lat="44.1157" lon="7.25384">
        <ele>2217</ele>
        <time>2017-09-16T15:35:41Z</time>
      </trkpt>
      <trkpt lat="44.11571" lon="7.25379">
        <ele>2217</ele>
        <time>2017-09-16T15:36:05Z</time>
      </trkpt>
      <trkpt lat="44.11573" lon="7.25375">
        <ele>2223</ele>
        <time>2017-09-16T15:36:05Z</time>
      </trkpt>
      <trkpt lat="44.11574" lon="7.25373">
        <ele>2223</ele>
        <time>2017-09-16T15:36:05Z</time>
      </trkpt>
      <trkpt lat="44.11574" lon="7.25371">
        <ele>2223</ele>
        <time>2017-09-16T15:36:05Z</time>
      </trkpt>
      <trkpt lat="44.11575" lon="7.25369">
        <ele>2223</ele>
        <time>2017-09-16T15:36:05Z</time>
      </trkpt>
      <trkpt lat="44.11576" lon="7.25363">
        <ele>2223</ele>
        <time>2017-09-16T15:36:25Z</time>
      </trkpt>
      <trkpt lat="44.11578" lon="7.2536">
        <ele>2223</ele>
        <time>2017-09-16T15:36:25Z</time>
      </trkpt>
      <trkpt lat="44.1158" lon="7.25356">
        <ele>2223</ele>
        <time>2017-09-16T15:36:25Z</time>
      </trkpt>
      <trkpt lat="44.11582" lon="7.25355">
        <ele>2223</ele>
        <time>2017-09-16T15:36:25Z</time>
      </trkpt>
      <trkpt lat="44.11583" lon="7.25351">
        <ele>2223</ele>
        <time>2017-09-16T15:36:25Z</time>
      </trkpt>
      <trkpt lat="44.11584" lon="7.25347">
        <ele>2223</ele>
        <time>2017-09-16T15:36:45Z</time>
      </trkpt>
      <trkpt lat="44.11585" lon="7.25343">
        <ele>2223</ele>
        <time>2017-09-16T15:36:45Z</time>
      </trkpt>
      <trkpt lat="44.11587" lon="7.2534">
        <ele>2223</ele>
        <time>2017-09-16T15:36:45Z</time>
      </trkpt>
      <trkpt lat="44.11588" lon="7.25339">
        <ele>2223</ele>
        <time>2017-09-16T15:36:45Z</time>
      </trkpt>
      <trkpt lat="44.1159" lon="7.25336">
        <ele>2223</ele>
        <time>2017-09-16T15:36:45Z</time>
      </trkpt>
      <trkpt lat="44.11593" lon="7.25333">
        <ele>2223</ele>
        <time>2017-09-16T15:37:09Z</time>
      </trkpt>
      <trkpt lat="44.11594" lon="7.25332">
        <ele>2223</ele>
        <time>2017-09-16T15:37:09Z</time>
      </trkpt>
      <trkpt lat="44.11597" lon="7.25333">
        <ele>2223</ele>
        <time>2017-09-16T15:37:09Z</time>
      </trkpt>
      <trkpt lat="44.116" lon="7.25331">
        <ele>2223</ele>
        <time>2017-09-16T15:37:09Z</time>
      </trkpt>
      <trkpt lat="44.11601" lon="7.25328">
        <ele>2223</ele>
        <time>2017-09-16T15:37:09Z</time>
      </trkpt>
      <trkpt lat="44.11603" lon="7.25326">
        <ele>2223</ele>
        <time>2017-09-16T15:37:29Z</time>
      </trkpt>
      <trkpt lat="44.11604" lon="7.25323">
        <ele>2223</ele>
        <time>2017-09-16T15:37:29Z</time>
      </trkpt>
      <trkpt lat="44.11605" lon="7.25321">
        <ele>2223</ele>
        <time>2017-09-16T15:37:29Z</time>
      </trkpt>
      <trkpt lat="44.11607" lon="7.2532">
        <ele>2223</ele>
        <time>2017-09-16T15:37:29Z</time>
      </trkpt>
      <trkpt lat="44.11609" lon="7.25315">
        <ele>2223</ele>
        <time>2017-09-16T15:37:29Z</time>
      </trkpt>
      <trkpt lat="44.11611" lon="7.25311">
        <ele>2223</ele>
        <time>2017-09-16T15:37:49Z</time>
      </trkpt>
      <trkpt lat="44.11613" lon="7.25307">
        <ele>2223</ele>
        <time>2017-09-16T15:37:49Z</time>
      </trkpt>
      <trkpt lat="44.11615" lon="7.25302">
        <ele>2223</ele>
        <time>2017-09-16T15:37:49Z</time>
      </trkpt>
      <trkpt lat="44.11617" lon="7.25302">
        <ele>2223</ele>
        <time>2017-09-16T15:37:49Z</time>
      </trkpt>
      <trkpt lat="44.11619" lon="7.25303">
        <ele>2223</ele>
        <time>2017-09-16T15:37:49Z</time>
      </trkpt>
      <trkpt lat="44.11628" lon="7.25304">
        <ele>2171</ele>
        <time>2017-09-16T15:38:41Z</time>
      </trkpt>
      <trkpt lat="44.1163" lon="7.25299">
        <ele>2171</ele>
        <time>2017-09-16T15:38:41Z</time>
      </trkpt>
      <trkpt lat="44.11632" lon="7.25296">
        <ele>2171</ele>
        <time>2017-09-16T15:38:41Z</time>
      </trkpt>
      <trkpt lat="44.11633" lon="7.25294">
        <ele>2171</ele>
        <time>2017-09-16T15:38:41Z</time>
      </trkpt>
      <trkpt lat="44.11635" lon="7.25292">
        <ele>2171</ele>
        <time>2017-09-16T15:38:41Z</time>
      </trkpt>
      <trkpt lat="44.11642" lon="7.2529">
        <ele>2185</ele>
        <time>2017-09-16T15:39:09Z</time>
      </trkpt>
      <trkpt lat="44.11643" lon="7.2529">
        <ele>2185</ele>
        <time>2017-09-16T15:39:09Z</time>
      </trkpt>
      <trkpt lat="44.11645" lon="7.25289">
        <ele>2185</ele>
        <time>2017-09-16T15:39:09Z</time>
      </trkpt>
      <trkpt lat="44.11645" lon="7.25285">
        <ele>2185</ele>
        <time>2017-09-16T15:39:09Z</time>
      </trkpt>
      <trkpt lat="44.11646" lon="7.25283">
        <ele>2185</ele>
        <time>2017-09-16T15:39:09Z</time>
      </trkpt>
      <trkpt lat="44.11648" lon="7.25278">
        <ele>2185</ele>
        <time>2017-09-16T15:39:33Z</time>
      </trkpt>
      <trkpt lat="44.11649" lon="7.25276">
        <ele>2185</ele>
        <time>2017-09-16T15:39:33Z</time>
      </trkpt>
      <trkpt lat="44.11651" lon="7.25275">
        <ele>2185</ele>
        <time>2017-09-16T15:39:33Z</time>
      </trkpt>
      <trkpt lat="44.11651" lon="7.25272">
        <ele>2185</ele>
        <time>2017-09-16T15:39:33Z</time>
      </trkpt>
      <trkpt lat="44.11653" lon="7.25269">
        <ele>2185</ele>
        <time>2017-09-16T15:39:33Z</time>
      </trkpt>
      <trkpt lat="44.11659" lon="7.25272">
        <ele>2185</ele>
        <time>2017-09-16T15:40:13Z</time>
      </trkpt>
      <trkpt lat="44.1166" lon="7.25269">
        <ele>2185</ele>
        <time>2017-09-16T15:40:13Z</time>
      </trkpt>
      <trkpt lat="44.11661" lon="7.25267">
        <ele>2185</ele>
        <time>2017-09-16T15:40:13Z</time>
      </trkpt>
      <trkpt lat="44.11663" lon="7.25262">
        <ele>2185</ele>
        <time>2017-09-16T15:40:13Z</time>
      </trkpt>
      <trkpt lat="44.11664" lon="7.25256">
        <ele>2185</ele>
        <time>2017-09-16T15:40:13Z</time>
      </trkpt>
      <trkpt lat="44.11667" lon="7.25252">
        <ele>2185</ele>
        <time>2017-09-16T15:41:01Z</time>
      </trkpt>
      <trkpt lat="44.11668" lon="7.25254">
        <ele>2185</ele>
        <time>2017-09-16T15:41:01Z</time>
      </trkpt>
      <trkpt lat="44.11668" lon="7.25256">
        <ele>2185</ele>
        <time>2017-09-16T15:41:01Z</time>
      </trkpt>
      <trkpt lat="44.11668" lon="7.25263">
        <ele>2185</ele>
        <time>2017-09-16T15:41:01Z</time>
      </trkpt>
      <trkpt lat="44.11668" lon="7.25266">
        <ele>2185</ele>
        <time>2017-09-16T15:41:01Z</time>
      </trkpt>
      <trkpt lat="44.1167" lon="7.25264">
        <ele>2185</ele>
        <time>2017-09-16T15:41:25Z</time>
      </trkpt>
      <trkpt lat="44.11672" lon="7.25263">
        <ele>2185</ele>
        <time>2017-09-16T15:41:25Z</time>
      </trkpt>
      <trkpt lat="44.11673" lon="7.25261">
        <ele>2185</ele>
        <time>2017-09-16T15:41:25Z</time>
      </trkpt>
      <trkpt lat="44.11675" lon="7.25261">
        <ele>2185</ele>
        <time>2017-09-16T15:41:25Z</time>
      </trkpt>
      <trkpt lat="44.11678" lon="7.25257">
        <ele>2185</ele>
        <time>2017-09-16T15:41:25Z</time>
      </trkpt>
      <trkpt lat="44.11677" lon="7.25253">
        <ele>2185</ele>
        <time>2017-09-16T15:41:45Z</time>
      </trkpt>
      <trkpt lat="44.11678" lon="7.25251">
        <ele>2185</ele>
        <time>2017-09-16T15:41:45Z</time>
      </trkpt>
      <trkpt lat="44.11681" lon="7.2525">
        <ele>2185</ele>
        <time>2017-09-16T15:41:45Z</time>
      </trkpt>
      <trkpt lat="44.11684" lon="7.25247">
        <ele>2185</ele>
        <time>2017-09-16T15:41:45Z</time>
      </trkpt>
      <trkpt lat="44.11686" lon="7.25246">
        <ele>2185</ele>
        <time>2017-09-16T15:41:45Z</time>
      </trkpt>
      <trkpt lat="44.1169" lon="7.25245">
        <ele>2185</ele>
        <time>2017-09-16T15:42:09Z</time>
      </trkpt>
      <trkpt lat="44.11692" lon="7.25243">
        <ele>2185</ele>
        <time>2017-09-16T15:42:09Z</time>
      </trkpt>
      <trkpt lat="44.11693" lon="7.25239">
        <ele>2185</ele>
        <time>2017-09-16T15:42:09Z</time>
      </trkpt>
      <trkpt lat="44.11694" lon="7.25238">
        <ele>2185</ele>
        <time>2017-09-16T15:42:09Z</time>
      </trkpt>
      <trkpt lat="44.11696" lon="7.25238">
        <ele>2185</ele>
        <time>2017-09-16T15:42:09Z</time>
      </trkpt>
      <trkpt lat="44.11701" lon="7.25235">
        <ele>2185</ele>
        <time>2017-09-16T15:42:37Z</time>
      </trkpt>
      <trkpt lat="44.11701" lon="7.25235">
        <ele>2185</ele>
        <time>2017-09-16T15:42:37Z</time>
      </trkpt>
      <trkpt lat="44.11702" lon="7.25233">
        <ele>2185</ele>
        <time>2017-09-16T15:42:37Z</time>
      </trkpt>
      <trkpt lat="44.11706" lon="7.2523">
        <ele>2185</ele>
        <time>2017-09-16T15:42:37Z</time>
      </trkpt>
      <trkpt lat="44.11708" lon="7.2523">
        <ele>2185</ele>
        <time>2017-09-16T15:42:37Z</time>
      </trkpt>
      <trkpt lat="44.11708" lon="7.25229">
        <ele>2185</ele>
        <time>2017-09-16T15:43:05Z</time>
      </trkpt>
      <trkpt lat="44.11711" lon="7.25227">
        <ele>2135</ele>
        <time>2017-09-16T15:43:05Z</time>
      </trkpt>
      <trkpt lat="44.11712" lon="7.25225">
        <ele>2135</ele>
        <time>2017-09-16T15:43:05Z</time>
      </trkpt>
      <trkpt lat="44.11714" lon="7.25222">
        <ele>2135</ele>
        <time>2017-09-16T15:43:05Z</time>
      </trkpt>
      <trkpt lat="44.11716" lon="7.2522">
        <ele>2135</ele>
        <time>2017-09-16T15:43:05Z</time>
      </trkpt>
      <trkpt lat="44.11721" lon="7.25216">
        <ele>2135</ele>
        <time>2017-09-16T15:43:33Z</time>
      </trkpt>
      <trkpt lat="44.11722" lon="7.25215">
        <ele>2135</ele>
        <time>2017-09-16T15:43:33Z</time>
      </trkpt>
      <trkpt lat="44.11723" lon="7.25215">
        <ele>2135</ele>
        <time>2017-09-16T15:43:33Z</time>
      </trkpt>
      <trkpt lat="44.11724" lon="7.25213">
        <ele>2135</ele>
        <time>2017-09-16T15:43:33Z</time>
      </trkpt>
      <trkpt lat="44.11727" lon="7.2521">
        <ele>2135</ele>
        <time>2017-09-16T15:43:33Z</time>
      </trkpt>
      <trkpt lat="44.11729" lon="7.25204">
        <ele>2144</ele>
        <time>2017-09-16T15:43:53Z</time>
      </trkpt>
      <trkpt lat="44.1173" lon="7.25202">
        <ele>2144</ele>
        <time>2017-09-16T15:43:53Z</time>
      </trkpt>
      <trkpt lat="44.11733" lon="7.252">
        <ele>2144</ele>
        <time>2017-09-16T15:43:53Z</time>
      </trkpt>
      <trkpt lat="44.11736" lon="7.252">
        <ele>2144</ele>
        <time>2017-09-16T15:43:53Z</time>
      </trkpt>
      <trkpt lat="44.11738" lon="7.25197">
        <ele>2144</ele>
        <time>2017-09-16T15:43:53Z</time>
      </trkpt>
      <trkpt lat="44.11741" lon="7.252">
        <ele>2144</ele>
        <time>2017-09-16T15:44:17Z</time>
      </trkpt>
      <trkpt lat="44.11743" lon="7.25197">
        <ele>2144</ele>
        <time>2017-09-16T15:44:17Z</time>
      </trkpt>
      <trkpt lat="44.11745" lon="7.25196">
        <ele>2144</ele>
        <time>2017-09-16T15:44:17Z</time>
      </trkpt>
      <trkpt lat="44.11748" lon="7.25195">
        <ele>2144</ele>
        <time>2017-09-16T15:44:17Z</time>
      </trkpt>
      <trkpt lat="44.11751" lon="7.25194">
        <ele>2144</ele>
        <time>2017-09-16T15:44:17Z</time>
      </trkpt>
      <trkpt lat="44.11752" lon="7.25192">
        <ele>2144</ele>
        <time>2017-09-16T15:44:37Z</time>
      </trkpt>
      <trkpt lat="44.11755" lon="7.25191">
        <ele>2144</ele>
        <time>2017-09-16T15:44:37Z</time>
      </trkpt>
      <trkpt lat="44.11758" lon="7.2519">
        <ele>2144</ele>
        <time>2017-09-16T15:44:37Z</time>
      </trkpt>
      <trkpt lat="44.11759" lon="7.25191">
        <ele>2144</ele>
        <time>2017-09-16T15:44:37Z</time>
      </trkpt>
      <trkpt lat="44.11763" lon="7.25189">
        <ele>2144</ele>
        <time>2017-09-16T15:44:37Z</time>
      </trkpt>
      <trkpt lat="44.11761" lon="7.2519">
        <ele>2144</ele>
        <time>2017-09-16T15:44:53Z</time>
      </trkpt>
      <trkpt lat="44.11765" lon="7.25189">
        <ele>2144</ele>
        <time>2017-09-16T15:44:53Z</time>
      </trkpt>
      <trkpt lat="44.11767" lon="7.25185">
        <ele>2144</ele>
        <time>2017-09-16T15:44:53Z</time>
      </trkpt>
      <trkpt lat="44.11769" lon="7.25178">
        <ele>2144</ele>
        <time>2017-09-16T15:44:53Z</time>
      </trkpt>
      <trkpt lat="44.11771" lon="7.25181">
        <ele>2144</ele>
        <time>2017-09-16T15:45:09Z</time>
      </trkpt>
      <trkpt lat="44.11777" lon="7.25179">
        <ele>2144</ele>
        <time>2017-09-16T15:45:09Z</time>
      </trkpt>
      <trkpt lat="44.11782" lon="7.25178">
        <ele>2144</ele>
        <time>2017-09-16T15:45:09Z</time>
      </trkpt>
      <trkpt lat="44.11786" lon="7.25174">
        <ele>2144</ele>
        <time>2017-09-16T15:45:09Z</time>
      </trkpt>
      <trkpt lat="44.11788" lon="7.25169">
        <ele>2144</ele>
        <time>2017-09-16T15:45:29Z</time>
      </trkpt>
      <trkpt lat="44.1179" lon="7.25167">
        <ele>2144</ele>
        <time>2017-09-16T15:45:29Z</time>
      </trkpt>
      <trkpt lat="44.11791" lon="7.25163">
        <ele>2144</ele>
        <time>2017-09-16T15:45:29Z</time>
      </trkpt>
      <trkpt lat="44.11792" lon="7.25161">
        <ele>2123</ele>
        <time>2017-09-16T15:45:29Z</time>
      </trkpt>
      <trkpt lat="44.11793" lon="7.25158">
        <ele>2123</ele>
        <time>2017-09-16T15:45:29Z</time>
      </trkpt>
      <trkpt lat="44.11794" lon="7.25152">
        <ele>2123</ele>
        <time>2017-09-16T15:45:49Z</time>
      </trkpt>
      <trkpt lat="44.11796" lon="7.25147">
        <ele>2123</ele>
        <time>2017-09-16T15:45:49Z</time>
      </trkpt>
      <trkpt lat="44.11797" lon="7.25144">
        <ele>2123</ele>
        <time>2017-09-16T15:45:49Z</time>
      </trkpt>
      <trkpt lat="44.118" lon="7.25144">
        <ele>2123</ele>
        <time>2017-09-16T15:45:49Z</time>
      </trkpt>
      <trkpt lat="44.11803" lon="7.25148">
        <ele>2123</ele>
        <time>2017-09-16T15:45:49Z</time>
      </trkpt>
      <trkpt lat="44.11801" lon="7.25151">
        <ele>2123</ele>
        <time>2017-09-16T15:46:21Z</time>
      </trkpt>
      <trkpt lat="44.11801" lon="7.25155">
        <ele>2123</ele>
        <time>2017-09-16T15:46:21Z</time>
      </trkpt>
      <trkpt lat="44.118" lon="7.25155">
        <ele>2123</ele>
        <time>2017-09-16T15:46:21Z</time>
      </trkpt>
      <trkpt lat="44.11801" lon="7.25158">
        <ele>2123</ele>
        <time>2017-09-16T15:46:21Z</time>
      </trkpt>
      <trkpt lat="44.11802" lon="7.25162">
        <ele>2123</ele>
        <time>2017-09-16T15:46:21Z</time>
      </trkpt>
      <trkpt lat="44.11803" lon="7.25163">
        <ele>2123</ele>
        <time>2017-09-16T15:46:37Z</time>
      </trkpt>
      <trkpt lat="44.11806" lon="7.25164">
        <ele>2123</ele>
        <time>2017-09-16T15:46:37Z</time>
      </trkpt>
      <trkpt lat="44.1181" lon="7.25165">
        <ele>2123</ele>
        <time>2017-09-16T15:46:37Z</time>
      </trkpt>
      <trkpt lat="44.11813" lon="7.25163">
        <ele>2123</ele>
        <time>2017-09-16T15:46:37Z</time>
      </trkpt>
      <trkpt lat="44.11816" lon="7.25159">
        <ele>2123</ele>
        <time>2017-09-16T15:47:01Z</time>
      </trkpt>
      <trkpt lat="44.11818" lon="7.25157">
        <ele>2123</ele>
        <time>2017-09-16T15:47:01Z</time>
      </trkpt>
      <trkpt lat="44.1182" lon="7.25154">
        <ele>2123</ele>
        <time>2017-09-16T15:47:01Z</time>
      </trkpt>
      <trkpt lat="44.11821" lon="7.25152">
        <ele>2123</ele>
        <time>2017-09-16T15:47:01Z</time>
      </trkpt>
      <trkpt lat="44.11822" lon="7.25148">
        <ele>2123</ele>
        <time>2017-09-16T15:47:01Z</time>
      </trkpt>
      <trkpt lat="44.11825" lon="7.25145">
        <ele>2123</ele>
        <time>2017-09-16T15:47:17Z</time>
      </trkpt>
      <trkpt lat="44.11829" lon="7.25145">
        <ele>2123</ele>
        <time>2017-09-16T15:47:17Z</time>
      </trkpt>
      <trkpt lat="44.11833" lon="7.25142">
        <ele>2123</ele>
        <time>2017-09-16T15:47:17Z</time>
      </trkpt>
      <trkpt lat="44.11836" lon="7.2514">
        <ele>2123</ele>
        <time>2017-09-16T15:47:17Z</time>
      </trkpt>
      <trkpt lat="44.1184" lon="7.25138">
        <ele>2123</ele>
        <time>2017-09-16T15:47:33Z</time>
      </trkpt>
      <trkpt lat="44.11842" lon="7.25134">
        <ele>2123</ele>
        <time>2017-09-16T15:47:33Z</time>
      </trkpt>
      <trkpt lat="44.11843" lon="7.25132">
        <ele>2123</ele>
        <time>2017-09-16T15:47:33Z</time>
      </trkpt>
      <trkpt lat="44.11845" lon="7.25126">
        <ele>2123</ele>
        <time>2017-09-16T15:47:33Z</time>
      </trkpt>
      <trkpt lat="44.11847" lon="7.25123">
        <ele>2126</ele>
        <time>2017-09-16T15:47:49Z</time>
      </trkpt>
      <trkpt lat="44.1185" lon="7.25122">
        <ele>2126</ele>
        <time>2017-09-16T15:47:49Z</time>
      </trkpt>
      <trkpt lat="44.11855" lon="7.25122">
        <ele>2126</ele>
        <time>2017-09-16T15:47:49Z</time>
      </trkpt>
      <trkpt lat="44.11857" lon="7.25123">
        <ele>2126</ele>
        <time>2017-09-16T15:47:49Z</time>
      </trkpt>
      <trkpt lat="44.11861" lon="7.25122">
        <ele>2126</ele>
        <time>2017-09-16T15:48:05Z</time>
      </trkpt>
      <trkpt lat="44.11866" lon="7.25118">
        <ele>2126</ele>
        <time>2017-09-16T15:48:05Z</time>
      </trkpt>
      <trkpt lat="44.11868" lon="7.2511">
        <ele>2126</ele>
        <time>2017-09-16T15:48:05Z</time>
      </trkpt>
      <trkpt lat="44.11868" lon="7.25106">
        <ele>2126</ele>
        <time>2017-09-16T15:48:05Z</time>
      </trkpt>
      <trkpt lat="44.11869" lon="7.251">
        <ele>2126</ele>
        <time>2017-09-16T15:48:21Z</time>
      </trkpt>
      <trkpt lat="44.1187" lon="7.25098">
        <ele>2126</ele>
        <time>2017-09-16T15:48:21Z</time>
      </trkpt>
      <trkpt lat="44.11871" lon="7.25094">
        <ele>2126</ele>
        <time>2017-09-16T15:48:21Z</time>
      </trkpt>
      <trkpt lat="44.11871" lon="7.25086">
        <ele>2126</ele>
        <time>2017-09-16T15:48:21Z</time>
      </trkpt>
      <trkpt lat="44.1187" lon="7.2508">
        <ele>2126</ele>
        <time>2017-09-16T15:48:37Z</time>
      </trkpt>
      <trkpt lat="44.11873" lon="7.25075">
        <ele>2126</ele>
        <time>2017-09-16T15:48:37Z</time>
      </trkpt>
      <trkpt lat="44.11875" lon="7.2507">
        <ele>2126</ele>
        <time>2017-09-16T15:48:37Z</time>
      </trkpt>
      <trkpt lat="44.11877" lon="7.25065">
        <ele>2120</ele>
        <time>2017-09-16T15:48:37Z</time>
      </trkpt>
      <trkpt lat="44.1188" lon="7.25063">
        <ele>2120</ele>
        <time>2017-09-16T15:48:53Z</time>
      </trkpt>
      <trkpt lat="44.11882" lon="7.2506">
        <ele>2120</ele>
        <time>2017-09-16T15:48:53Z</time>
      </trkpt>
      <trkpt lat="44.11884" lon="7.25058">
        <ele>2120</ele>
        <time>2017-09-16T15:48:53Z</time>
      </trkpt>
      <trkpt lat="44.11887" lon="7.25054">
        <ele>2120</ele>
        <time>2017-09-16T15:48:53Z</time>
      </trkpt>
      <trkpt lat="44.1189" lon="7.25051">
        <ele>2120</ele>
        <time>2017-09-16T15:49:09Z</time>
      </trkpt>
      <trkpt lat="44.11893" lon="7.25049">
        <ele>2120</ele>
        <time>2017-09-16T15:49:09Z</time>
      </trkpt>
      <trkpt lat="44.11896" lon="7.25045">
        <ele>2120</ele>
        <time>2017-09-16T15:49:09Z</time>
      </trkpt>
      <trkpt lat="44.11902" lon="7.2504">
        <ele>2126</ele>
        <time>2017-09-16T15:49:09Z</time>
      </trkpt>
      <trkpt lat="44.11905" lon="7.25037">
        <ele>2126</ele>
        <time>2017-09-16T15:49:25Z</time>
      </trkpt>
      <trkpt lat="44.11909" lon="7.25034">
        <ele>2126</ele>
        <time>2017-09-16T15:49:25Z</time>
      </trkpt>
      <trkpt lat="44.11912" lon="7.25031">
        <ele>2126</ele>
        <time>2017-09-16T15:49:25Z</time>
      </trkpt>
      <trkpt lat="44.11912" lon="7.25026">
        <ele>2126</ele>
        <time>2017-09-16T15:49:25Z</time>
      </trkpt>
      <trkpt lat="44.11915" lon="7.25022">
        <ele>2126</ele>
        <time>2017-09-16T15:49:41Z</time>
      </trkpt>
      <trkpt lat="44.11918" lon="7.25021">
        <ele>2126</ele>
        <time>2017-09-16T15:49:41Z</time>
      </trkpt>
      <trkpt lat="44.11922" lon="7.25019">
        <ele>2126</ele>
        <time>2017-09-16T15:49:41Z</time>
      </trkpt>
      <trkpt lat="44.11924" lon="7.25016">
        <ele>2126</ele>
        <time>2017-09-16T15:49:41Z</time>
      </trkpt>
      <trkpt lat="44.11928" lon="7.25012">
        <ele>2126</ele>
        <time>2017-09-16T15:49:57Z</time>
      </trkpt>
      <trkpt lat="44.1193" lon="7.25009">
        <ele>2126</ele>
        <time>2017-09-16T15:49:57Z</time>
      </trkpt>
      <trkpt lat="44.11933" lon="7.25008">
        <ele>2126</ele>
        <time>2017-09-16T15:49:57Z</time>
      </trkpt>
      <trkpt lat="44.11937" lon="7.25009">
        <ele>2126</ele>
        <time>2017-09-16T15:49:57Z</time>
      </trkpt>
      <trkpt lat="44.11938" lon="7.25004">
        <ele>2126</ele>
        <time>2017-09-16T15:50:13Z</time>
      </trkpt>
      <trkpt lat="44.1194" lon="7.25">
        <ele>2126</ele>
        <time>2017-09-16T15:50:13Z</time>
      </trkpt>
      <trkpt lat="44.11942" lon="7.24996">
        <ele>2126</ele>
        <time>2017-09-16T15:50:13Z</time>
      </trkpt>
      <trkpt lat="44.11945" lon="7.2499">
        <ele>2126</ele>
        <time>2017-09-16T15:50:13Z</time>
      </trkpt>
      <trkpt lat="44.11949" lon="7.24987">
        <ele>2126</ele>
        <time>2017-09-16T15:50:29Z</time>
      </trkpt>
      <trkpt lat="44.11954" lon="7.24985">
        <ele>2126</ele>
        <time>2017-09-16T15:50:29Z</time>
      </trkpt>
      <trkpt lat="44.11957" lon="7.24983">
        <ele>2126</ele>
        <time>2017-09-16T15:50:29Z</time>
      </trkpt>
      <trkpt lat="44.11961" lon="7.24977">
        <ele>2120</ele>
        <time>2017-09-16T15:50:29Z</time>
      </trkpt>
      <trkpt lat="44.11964" lon="7.24974">
        <ele>2120</ele>
        <time>2017-09-16T15:50:45Z</time>
      </trkpt>
      <trkpt lat="44.11966" lon="7.24971">
        <ele>2120</ele>
        <time>2017-09-16T15:50:45Z</time>
      </trkpt>
      <trkpt lat="44.1197" lon="7.24967">
        <ele>2120</ele>
        <time>2017-09-16T15:50:45Z</time>
      </trkpt>
      <trkpt lat="44.11975" lon="7.24964">
        <ele>2120</ele>
        <time>2017-09-16T15:50:45Z</time>
      </trkpt>
      <trkpt lat="44.11979" lon="7.24961">
        <ele>2120</ele>
        <time>2017-09-16T15:51:01Z</time>
      </trkpt>
      <trkpt lat="44.11984" lon="7.24959">
        <ele>2120</ele>
        <time>2017-09-16T15:51:01Z</time>
      </trkpt>
      <trkpt lat="44.11988" lon="7.24957">
        <ele>2133</ele>
        <time>2017-09-16T15:51:01Z</time>
      </trkpt>
      <trkpt lat="44.11991" lon="7.24954">
        <ele>2133</ele>
        <time>2017-09-16T15:51:01Z</time>
      </trkpt>
      <trkpt lat="44.11995" lon="7.24953">
        <ele>2133</ele>
        <time>2017-09-16T15:51:17Z</time>
      </trkpt>
      <trkpt lat="44.11999" lon="7.24952">
        <ele>2133</ele>
        <time>2017-09-16T15:51:17Z</time>
      </trkpt>
      <trkpt lat="44.12003" lon="7.24952">
        <ele>2133</ele>
        <time>2017-09-16T15:51:17Z</time>
      </trkpt>
      <trkpt lat="44.12008" lon="7.2495">
        <ele>2133</ele>
        <time>2017-09-16T15:51:17Z</time>
      </trkpt>
      <trkpt lat="44.12013" lon="7.24949">
        <ele>2133</ele>
        <time>2017-09-16T15:51:33Z</time>
      </trkpt>
      <trkpt lat="44.12018" lon="7.24949">
        <ele>2133</ele>
        <time>2017-09-16T15:51:33Z</time>
      </trkpt>
      <trkpt lat="44.12022" lon="7.24947">
        <ele>2133</ele>
        <time>2017-09-16T15:51:33Z</time>
      </trkpt>
      <trkpt lat="44.12025" lon="7.24944">
        <ele>2133</ele>
        <time>2017-09-16T15:51:33Z</time>
      </trkpt>
      <trkpt lat="44.12028" lon="7.24941">
        <ele>2133</ele>
        <time>2017-09-16T15:51:49Z</time>
      </trkpt>
      <trkpt lat="44.12031" lon="7.24938">
        <ele>2133</ele>
        <time>2017-09-16T15:51:49Z</time>
      </trkpt>
      <trkpt lat="44.12034" lon="7.24937">
        <ele>2133</ele>
        <time>2017-09-16T15:51:49Z</time>
      </trkpt>
      <trkpt lat="44.12037" lon="7.24936">
        <ele>2133</ele>
        <time>2017-09-16T15:51:49Z</time>
      </trkpt>
      <trkpt lat="44.12039" lon="7.24935">
        <ele>2133</ele>
        <time>2017-09-16T15:52:05Z</time>
      </trkpt>
      <trkpt lat="44.12042" lon="7.24934">
        <ele>2133</ele>
        <time>2017-09-16T15:52:05Z</time>
      </trkpt>
      <trkpt lat="44.12046" lon="7.24933">
        <ele>2125</ele>
        <time>2017-09-16T15:52:05Z</time>
      </trkpt>
      <trkpt lat="44.1205" lon="7.24931">
        <ele>2125</ele>
        <time>2017-09-16T15:52:05Z</time>
      </trkpt>
      <trkpt lat="44.12054" lon="7.2493">
        <ele>2125</ele>
        <time>2017-09-16T15:52:21Z</time>
      </trkpt>
      <trkpt lat="44.12061" lon="7.24926">
        <ele>2125</ele>
        <time>2017-09-16T15:52:21Z</time>
      </trkpt>
      <trkpt lat="44.12067" lon="7.24922">
        <ele>2125</ele>
        <time>2017-09-16T15:52:21Z</time>
      </trkpt>
      <trkpt lat="44.1207" lon="7.2492">
        <ele>2125</ele>
        <time>2017-09-16T15:52:21Z</time>
      </trkpt>
      <trkpt lat="44.12072" lon="7.24919">
        <ele>2125</ele>
        <time>2017-09-16T15:52:37Z</time>
      </trkpt>
      <trkpt lat="44.12076" lon="7.24921">
        <ele>2125</ele>
        <time>2017-09-16T15:52:37Z</time>
      </trkpt>
      <trkpt lat="44.12081" lon="7.24924">
        <ele>2125</ele>
        <time>2017-09-16T15:52:37Z</time>
      </trkpt>
      <trkpt lat="44.12086" lon="7.24924">
        <ele>2125</ele>
        <time>2017-09-16T15:52:37Z</time>
      </trkpt>
      <trkpt lat="44.12091" lon="7.24922">
        <ele>2125</ele>
        <time>2017-09-16T15:52:57Z</time>
      </trkpt>
      <trkpt lat="44.12095" lon="7.24921">
        <ele>2125</ele>
        <time>2017-09-16T15:52:57Z</time>
      </trkpt>
      <trkpt lat="44.12095" lon="7.2492">
        <ele>2125</ele>
        <time>2017-09-16T15:52:57Z</time>
      </trkpt>
      <trkpt lat="44.12098" lon="7.24919">
        <ele>2125</ele>
        <time>2017-09-16T15:52:57Z</time>
      </trkpt>
      <trkpt lat="44.12101" lon="7.24919">
        <ele>2125</ele>
        <time>2017-09-16T15:52:57Z</time>
      </trkpt>
      <trkpt lat="44.12103" lon="7.24917">
        <ele>2125</ele>
        <time>2017-09-16T15:53:13Z</time>
      </trkpt>
      <trkpt lat="44.12104" lon="7.24912">
        <ele>2125</ele>
        <time>2017-09-16T15:53:13Z</time>
      </trkpt>
      <trkpt lat="44.12105" lon="7.24908">
        <ele>2125</ele>
        <time>2017-09-16T15:53:13Z</time>
      </trkpt>
      <trkpt lat="44.12106" lon="7.24902">
        <ele>2125</ele>
        <time>2017-09-16T15:53:13Z</time>
      </trkpt>
      <trkpt lat="44.12106" lon="7.24897">
        <ele>2125</ele>
        <time>2017-09-16T15:53:29Z</time>
      </trkpt>
      <trkpt lat="44.12108" lon="7.24891">
        <ele>2125</ele>
        <time>2017-09-16T15:53:29Z</time>
      </trkpt>
      <trkpt lat="44.12112" lon="7.24888">
        <ele>2125</ele>
        <time>2017-09-16T15:53:29Z</time>
      </trkpt>
      <trkpt lat="44.12113" lon="7.24884">
        <ele>2125</ele>
        <time>2017-09-16T15:53:29Z</time>
      </trkpt>
      <trkpt lat="44.12112" lon="7.24879">
        <ele>2125</ele>
        <time>2017-09-16T15:53:49Z</time>
      </trkpt>
      <trkpt lat="44.12113" lon="7.24878">
        <ele>2125</ele>
        <time>2017-09-16T15:53:49Z</time>
      </trkpt>
      <trkpt lat="44.12116" lon="7.24874">
        <ele>2142</ele>
        <time>2017-09-16T15:53:49Z</time>
      </trkpt>
      <trkpt lat="44.12118" lon="7.24873">
        <ele>2142</ele>
        <time>2017-09-16T15:53:49Z</time>
      </trkpt>
      <trkpt lat="44.1212" lon="7.24872">
        <ele>2142</ele>
        <time>2017-09-16T15:53:49Z</time>
      </trkpt>
      <trkpt lat="44.12127" lon="7.24873">
        <ele>2150</ele>
        <time>2017-09-16T15:54:05Z</time>
      </trkpt>
      <trkpt lat="44.12131" lon="7.24874">
        <ele>2150</ele>
        <time>2017-09-16T15:54:05Z</time>
      </trkpt>
      <trkpt lat="44.12135" lon="7.24875">
        <ele>2150</ele>
        <time>2017-09-16T15:54:05Z</time>
      </trkpt>
      <trkpt lat="44.1214" lon="7.24877">
        <ele>2119</ele>
        <time>2017-09-16T15:54:05Z</time>
      </trkpt>
      <trkpt lat="44.12144" lon="7.24877">
        <ele>2119</ele>
        <time>2017-09-16T15:54:21Z</time>
      </trkpt>
      <trkpt lat="44.12145" lon="7.24879">
        <ele>2119</ele>
        <time>2017-09-16T15:54:21Z</time>
      </trkpt>
      <trkpt lat="44.12148" lon="7.24885">
        <ele>2119</ele>
        <time>2017-09-16T15:54:21Z</time>
      </trkpt>
      <trkpt lat="44.1215" lon="7.24888">
        <ele>2119</ele>
        <time>2017-09-16T15:54:21Z</time>
      </trkpt>
      <trkpt lat="44.12153" lon="7.2489">
        <ele>2119</ele>
        <time>2017-09-16T15:54:41Z</time>
      </trkpt>
      <trkpt lat="44.12156" lon="7.24891">
        <ele>2119</ele>
        <time>2017-09-16T15:54:41Z</time>
      </trkpt>
      <trkpt lat="44.12158" lon="7.24892">
        <ele>2119</ele>
        <time>2017-09-16T15:54:41Z</time>
      </trkpt>
      <trkpt lat="44.12161" lon="7.24893">
        <ele>2119</ele>
        <time>2017-09-16T15:54:41Z</time>
      </trkpt>
      <trkpt lat="44.12163" lon="7.24894">
        <ele>2119</ele>
        <time>2017-09-16T15:54:41Z</time>
      </trkpt>
      <trkpt lat="44.12166" lon="7.24897">
        <ele>2119</ele>
        <time>2017-09-16T15:54:57Z</time>
      </trkpt>
      <trkpt lat="44.12168" lon="7.24899">
        <ele>2119</ele>
        <time>2017-09-16T15:54:57Z</time>
      </trkpt>
      <trkpt lat="44.1217" lon="7.24903">
        <ele>2119</ele>
        <time>2017-09-16T15:54:57Z</time>
      </trkpt>
      <trkpt lat="44.12174" lon="7.24905">
        <ele>2119</ele>
        <time>2017-09-16T15:54:57Z</time>
      </trkpt>
      <trkpt lat="44.12176" lon="7.24908">
        <ele>2119</ele>
        <time>2017-09-16T15:55:13Z</time>
      </trkpt>
      <trkpt lat="44.12179" lon="7.2491">
        <ele>2119</ele>
        <time>2017-09-16T15:55:13Z</time>
      </trkpt>
      <trkpt lat="44.12181" lon="7.24911">
        <ele>2119</ele>
        <time>2017-09-16T15:55:13Z</time>
      </trkpt>
      <trkpt lat="44.12184" lon="7.24913">
        <ele>2119</ele>
        <time>2017-09-16T15:55:13Z</time>
      </trkpt>
      <trkpt lat="44.12187" lon="7.24915">
        <ele>2119</ele>
        <time>2017-09-16T15:55:29Z</time>
      </trkpt>
      <trkpt lat="44.12191" lon="7.24916">
        <ele>2119</ele>
        <time>2017-09-16T15:55:29Z</time>
      </trkpt>
      <trkpt lat="44.12194" lon="7.24918">
        <ele>2119</ele>
        <time>2017-09-16T15:55:29Z</time>
      </trkpt>
      <trkpt lat="44.12197" lon="7.24919">
        <ele>2119</ele>
        <time>2017-09-16T15:55:29Z</time>
      </trkpt>
      <trkpt lat="44.12199" lon="7.2492">
        <ele>2119</ele>
        <time>2017-09-16T15:55:49Z</time>
      </trkpt>
      <trkpt lat="44.12202" lon="7.24921">
        <ele>2119</ele>
        <time>2017-09-16T15:55:49Z</time>
      </trkpt>
      <trkpt lat="44.12205" lon="7.24923">
        <ele>2119</ele>
        <time>2017-09-16T15:55:49Z</time>
      </trkpt>
      <trkpt lat="44.12207" lon="7.24924">
        <ele>2119</ele>
        <time>2017-09-16T15:55:49Z</time>
      </trkpt>
      <trkpt lat="44.12209" lon="7.24924">
        <ele>2122</ele>
        <time>2017-09-16T15:55:49Z</time>
      </trkpt>
      <trkpt lat="44.12212" lon="7.24925">
        <ele>2122</ele>
        <time>2017-09-16T15:56:09Z</time>
      </trkpt>
      <trkpt lat="44.12215" lon="7.24927">
        <ele>2122</ele>
        <time>2017-09-16T15:56:09Z</time>
      </trkpt>
      <trkpt lat="44.12218" lon="7.24927">
        <ele>2122</ele>
        <time>2017-09-16T15:56:09Z</time>
      </trkpt>
      <trkpt lat="44.12218" lon="7.24918">
        <ele>2122</ele>
        <time>2017-09-16T15:56:09Z</time>
      </trkpt>
      <trkpt lat="44.12223" lon="7.24913">
        <ele>2122</ele>
        <time>2017-09-16T15:56:09Z</time>
      </trkpt>
      <trkpt lat="44.1223" lon="7.24915">
        <ele>2122</ele>
        <time>2017-09-16T15:56:45Z</time>
      </trkpt>
      <trkpt lat="44.12231" lon="7.24915">
        <ele>2122</ele>
        <time>2017-09-16T15:56:45Z</time>
      </trkpt>
      <trkpt lat="44.12234" lon="7.24914">
        <ele>2122</ele>
        <time>2017-09-16T15:56:45Z</time>
      </trkpt>
      <trkpt lat="44.12239" lon="7.24914">
        <ele>2122</ele>
        <time>2017-09-16T15:56:45Z</time>
      </trkpt>
      <trkpt lat="44.12245" lon="7.24911">
        <ele>2122</ele>
        <time>2017-09-16T15:56:45Z</time>
      </trkpt>
      <trkpt lat="44.12251" lon="7.24909">
        <ele>2122</ele>
        <time>2017-09-16T15:57:01Z</time>
      </trkpt>
      <trkpt lat="44.12253" lon="7.24905">
        <ele>2122</ele>
        <time>2017-09-16T15:57:01Z</time>
      </trkpt>
      <trkpt lat="44.12257" lon="7.24901">
        <ele>2122</ele>
        <time>2017-09-16T15:57:01Z</time>
      </trkpt>
      <trkpt lat="44.12257" lon="7.24899">
        <ele>2122</ele>
        <time>2017-09-16T15:57:01Z</time>
      </trkpt>
      <trkpt lat="44.12264" lon="7.24896">
        <ele>2122</ele>
        <time>2017-09-16T15:57:33Z</time>
      </trkpt>
      <trkpt lat="44.12265" lon="7.24894">
        <ele>2122</ele>
        <time>2017-09-16T15:57:33Z</time>
      </trkpt>
      <trkpt lat="44.1227" lon="7.24889">
        <ele>2122</ele>
        <time>2017-09-16T15:57:33Z</time>
      </trkpt>
      <trkpt lat="44.12273" lon="7.2489">
        <ele>2122</ele>
        <time>2017-09-16T15:57:33Z</time>
      </trkpt>
      <trkpt lat="44.12275" lon="7.24888">
        <ele>2122</ele>
        <time>2017-09-16T15:57:33Z</time>
      </trkpt>
      <trkpt lat="44.12278" lon="7.24886">
        <ele>2122</ele>
        <time>2017-09-16T15:57:49Z</time>
      </trkpt>
      <trkpt lat="44.12281" lon="7.24886">
        <ele>2122</ele>
        <time>2017-09-16T15:57:49Z</time>
      </trkpt>
      <trkpt lat="44.12285" lon="7.24884">
        <ele>2122</ele>
        <time>2017-09-16T15:57:49Z</time>
      </trkpt>
      <trkpt lat="44.12289" lon="7.2488">
        <ele>2122</ele>
        <time>2017-09-16T15:57:49Z</time>
      </trkpt>
      <trkpt lat="44.12293" lon="7.24876">
        <ele>2098</ele>
        <time>2017-09-16T15:58:05Z</time>
      </trkpt>
      <trkpt lat="44.12296" lon="7.24875">
        <ele>2125</ele>
        <time>2017-09-16T15:58:05Z</time>
      </trkpt>
      <trkpt lat="44.12299" lon="7.24875">
        <ele>2125</ele>
        <time>2017-09-16T15:58:05Z</time>
      </trkpt>
      <trkpt lat="44.12304" lon="7.24874">
        <ele>2125</ele>
        <time>2017-09-16T15:58:05Z</time>
      </trkpt>
      <trkpt lat="44.12305" lon="7.2487">
        <ele>2125</ele>
        <time>2017-09-16T15:58:21Z</time>
      </trkpt>
      <trkpt lat="44.12309" lon="7.24869">
        <ele>2125</ele>
        <time>2017-09-16T15:58:21Z</time>
      </trkpt>
      <trkpt lat="44.12312" lon="7.24867">
        <ele>2125</ele>
        <time>2017-09-16T15:58:21Z</time>
      </trkpt>
      <trkpt lat="44.12315" lon="7.24865">
        <ele>2125</ele>
        <time>2017-09-16T15:58:21Z</time>
      </trkpt>
      <trkpt lat="44.12318" lon="7.24863">
        <ele>2125</ele>
        <time>2017-09-16T15:58:37Z</time>
      </trkpt>
      <trkpt lat="44.12322" lon="7.24859">
        <ele>2125</ele>
        <time>2017-09-16T15:58:37Z</time>
      </trkpt>
      <trkpt lat="44.12323" lon="7.24852">
        <ele>2125</ele>
        <time>2017-09-16T15:58:37Z</time>
      </trkpt>
      <trkpt lat="44.12325" lon="7.24847">
        <ele>2125</ele>
        <time>2017-09-16T15:58:37Z</time>
      </trkpt>
      <trkpt lat="44.12328" lon="7.24846">
        <ele>2125</ele>
        <time>2017-09-16T15:58:53Z</time>
      </trkpt>
      <trkpt lat="44.12332" lon="7.24844">
        <ele>2125</ele>
        <time>2017-09-16T15:58:53Z</time>
      </trkpt>
      <trkpt lat="44.12335" lon="7.24841">
        <ele>2125</ele>
        <time>2017-09-16T15:58:53Z</time>
      </trkpt>
      <trkpt lat="44.12337" lon="7.24839">
        <ele>2125</ele>
        <time>2017-09-16T15:58:53Z</time>
      </trkpt>
      <trkpt lat="44.12339" lon="7.24836">
        <ele>2125</ele>
        <time>2017-09-16T15:59:09Z</time>
      </trkpt>
      <trkpt lat="44.12341" lon="7.24833">
        <ele>2125</ele>
        <time>2017-09-16T15:59:09Z</time>
      </trkpt>
      <trkpt lat="44.12345" lon="7.24829">
        <ele>2125</ele>
        <time>2017-09-16T15:59:09Z</time>
      </trkpt>
      <trkpt lat="44.12348" lon="7.24827">
        <ele>2125</ele>
        <time>2017-09-16T15:59:09Z</time>
      </trkpt>
      <trkpt lat="44.12352" lon="7.24829">
        <ele>2125</ele>
        <time>2017-09-16T15:59:29Z</time>
      </trkpt>
      <trkpt lat="44.12354" lon="7.24827">
        <ele>2125</ele>
        <time>2017-09-16T15:59:29Z</time>
      </trkpt>
      <trkpt lat="44.12355" lon="7.24824">
        <ele>2125</ele>
        <time>2017-09-16T15:59:29Z</time>
      </trkpt>
      <trkpt lat="44.12358" lon="7.24824">
        <ele>2125</ele>
        <time>2017-09-16T15:59:29Z</time>
      </trkpt>
      <trkpt lat="44.12361" lon="7.24823">
        <ele>2125</ele>
        <time>2017-09-16T15:59:29Z</time>
      </trkpt>
      <trkpt lat="44.12364" lon="7.24819">
        <ele>2125</ele>
        <time>2017-09-16T16:00:33Z</time>
      </trkpt>
      <trkpt lat="44.12365" lon="7.24819">
        <ele>2125</ele>
        <time>2017-09-16T16:00:33Z</time>
      </trkpt>
      <trkpt lat="44.12368" lon="7.24814">
        <ele>2125</ele>
        <time>2017-09-16T16:00:33Z</time>
      </trkpt>
      <trkpt lat="44.12374" lon="7.24813">
        <ele>2125</ele>
        <time>2017-09-16T16:00:33Z</time>
      </trkpt>
      <trkpt lat="44.12377" lon="7.2481">
        <ele>2078</ele>
        <time>2017-09-16T16:00:33Z</time>
      </trkpt>
      <trkpt lat="44.1238" lon="7.24805">
        <ele>2078</ele>
        <time>2017-09-16T16:00:53Z</time>
      </trkpt>
      <trkpt lat="44.12383" lon="7.24804">
        <ele>2078</ele>
        <time>2017-09-16T16:00:53Z</time>
      </trkpt>
      <trkpt lat="44.12384" lon="7.24802">
        <ele>2078</ele>
        <time>2017-09-16T16:00:53Z</time>
      </trkpt>
      <trkpt lat="44.12386" lon="7.24799">
        <ele>2078</ele>
        <time>2017-09-16T16:00:53Z</time>
      </trkpt>
      <trkpt lat="44.12388" lon="7.24794">
        <ele>2078</ele>
        <time>2017-09-16T16:00:53Z</time>
      </trkpt>
      <trkpt lat="44.12388" lon="7.24789">
        <ele>2081</ele>
        <time>2017-09-16T16:01:09Z</time>
      </trkpt>
      <trkpt lat="44.12388" lon="7.24783">
        <ele>2081</ele>
        <time>2017-09-16T16:01:09Z</time>
      </trkpt>
      <trkpt lat="44.12389" lon="7.24781">
        <ele>2081</ele>
        <time>2017-09-16T16:01:09Z</time>
      </trkpt>
      <trkpt lat="44.1239" lon="7.24776">
        <ele>2081</ele>
        <time>2017-09-16T16:01:09Z</time>
      </trkpt>
      <trkpt lat="44.12391" lon="7.24772">
        <ele>2081</ele>
        <time>2017-09-16T16:01:25Z</time>
      </trkpt>
      <trkpt lat="44.12392" lon="7.24763">
        <ele>2081</ele>
        <time>2017-09-16T16:01:25Z</time>
      </trkpt>
      <trkpt lat="44.12394" lon="7.24754">
        <ele>2081</ele>
        <time>2017-09-16T16:01:25Z</time>
      </trkpt>
      <trkpt lat="44.12393" lon="7.24749">
        <ele>2081</ele>
        <time>2017-09-16T16:01:25Z</time>
      </trkpt>
      <trkpt lat="44.12394" lon="7.24742">
        <ele>2081</ele>
        <time>2017-09-16T16:01:41Z</time>
      </trkpt>
      <trkpt lat="44.12395" lon="7.24739">
        <ele>2081</ele>
        <time>2017-09-16T16:01:41Z</time>
      </trkpt>
      <trkpt lat="44.12396" lon="7.24734">
        <ele>2081</ele>
        <time>2017-09-16T16:01:41Z</time>
      </trkpt>
      <trkpt lat="44.12396" lon="7.24728">
        <ele>2081</ele>
        <time>2017-09-16T16:01:41Z</time>
      </trkpt>
      <trkpt lat="44.12397" lon="7.2473">
        <ele>2081</ele>
        <time>2017-09-16T16:02:05Z</time>
      </trkpt>
      <trkpt lat="44.12397" lon="7.24727">
        <ele>2081</ele>
        <time>2017-09-16T16:02:05Z</time>
      </trkpt>
      <trkpt lat="44.12396" lon="7.24726">
        <ele>2081</ele>
        <time>2017-09-16T16:02:05Z</time>
      </trkpt>
      <trkpt lat="44.12394" lon="7.24723">
        <ele>2081</ele>
        <time>2017-09-16T16:02:05Z</time>
      </trkpt>
      <trkpt lat="44.12392" lon="7.24715">
        <ele>2081</ele>
        <time>2017-09-16T16:02:05Z</time>
      </trkpt>
      <trkpt lat="44.12391" lon="7.24701">
        <ele>2082</ele>
        <time>2017-09-16T16:02:41Z</time>
      </trkpt>
      <trkpt lat="44.1239" lon="7.24698">
        <ele>2082</ele>
        <time>2017-09-16T16:02:41Z</time>
      </trkpt>
      <trkpt lat="44.1239" lon="7.24697">
        <ele>2082</ele>
        <time>2017-09-16T16:02:41Z</time>
      </trkpt>
      <trkpt lat="44.1239" lon="7.24695">
        <ele>2082</ele>
        <time>2017-09-16T16:02:41Z</time>
      </trkpt>
      <trkpt lat="44.1239" lon="7.24692">
        <ele>2082</ele>
        <time>2017-09-16T16:02:41Z</time>
      </trkpt>
      <trkpt lat="44.1239" lon="7.24685">
        <ele>2082</ele>
        <time>2017-09-16T16:03:09Z</time>
      </trkpt>
      <trkpt lat="44.12391" lon="7.24683">
        <ele>2082</ele>
        <time>2017-09-16T16:03:09Z</time>
      </trkpt>
      <trkpt lat="44.12392" lon="7.24681">
        <ele>2082</ele>
        <time>2017-09-16T16:03:09Z</time>
      </trkpt>
      <trkpt lat="44.12392" lon="7.24679">
        <ele>2082</ele>
        <time>2017-09-16T16:03:09Z</time>
      </trkpt>
      <trkpt lat="44.12393" lon="7.24677">
        <ele>2082</ele>
        <time>2017-09-16T16:03:09Z</time>
      </trkpt>
      <trkpt lat="44.12394" lon="7.24678">
        <ele>2082</ele>
        <time>2017-09-16T16:06:41Z</time>
      </trkpt>
      <trkpt lat="44.12396" lon="7.2468">
        <ele>2082</ele>
        <time>2017-09-16T16:06:41Z</time>
      </trkpt>
      <trkpt lat="44.12401" lon="7.24686">
        <ele>2082</ele>
        <time>2017-09-16T16:06:41Z</time>
      </trkpt>
      <trkpt lat="44.12403" lon="7.24689">
        <ele>2082</ele>
        <time>2017-09-16T16:06:41Z</time>
      </trkpt>
      <trkpt lat="44.12404" lon="7.24693">
        <ele>2082</ele>
        <time>2017-09-16T16:06:41Z</time>
      </trkpt>
      <trkpt lat="44.12405" lon="7.24697">
        <ele>2082</ele>
        <time>2017-09-16T16:07:01Z</time>
      </trkpt>
      <trkpt lat="44.12405" lon="7.24701">
        <ele>2082</ele>
        <time>2017-09-16T16:07:01Z</time>
      </trkpt>
      <trkpt lat="44.12404" lon="7.24704">
        <ele>2082</ele>
        <time>2017-09-16T16:07:01Z</time>
      </trkpt>
      <trkpt lat="44.12405" lon="7.24708">
        <ele>2082</ele>
        <time>2017-09-16T16:07:01Z</time>
      </trkpt>
      <trkpt lat="44.12406" lon="7.24713">
        <ele>2081</ele>
        <time>2017-09-16T16:07:01Z</time>
      </trkpt>
      <trkpt lat="44.12404" lon="7.24719">
        <ele>2081</ele>
        <time>2017-09-16T16:07:29Z</time>
      </trkpt>
      <trkpt lat="44.12403" lon="7.2472">
        <ele>2081</ele>
        <time>2017-09-16T16:07:29Z</time>
      </trkpt>
      <trkpt lat="44.12403" lon="7.24722">
        <ele>2081</ele>
        <time>2017-09-16T16:07:29Z</time>
      </trkpt>
      <trkpt lat="44.12402" lon="7.24725">
        <ele>2081</ele>
        <time>2017-09-16T16:07:29Z</time>
      </trkpt>
      <trkpt lat="44.12403" lon="7.24733">
        <ele>2081</ele>
        <time>2017-09-16T16:07:29Z</time>
      </trkpt>
      <trkpt lat="44.12405" lon="7.24742">
        <ele>2081</ele>
        <time>2017-09-16T16:07:53Z</time>
      </trkpt>
      <trkpt lat="44.12405" lon="7.24745">
        <ele>2081</ele>
        <time>2017-09-16T16:07:53Z</time>
      </trkpt>
      <trkpt lat="44.12405" lon="7.24748">
        <ele>2081</ele>
        <time>2017-09-16T16:07:53Z</time>
      </trkpt>
      <trkpt lat="44.12405" lon="7.2475">
        <ele>2081</ele>
        <time>2017-09-16T16:07:53Z</time>
      </trkpt>
      <trkpt lat="44.12405" lon="7.24752">
        <ele>2081</ele>
        <time>2017-09-16T16:07:53Z</time>
      </trkpt>
      <trkpt lat="44.12405" lon="7.24753">
        <ele>2081</ele>
        <time>2017-09-16T16:08:09Z</time>
      </trkpt>
      <trkpt lat="44.12406" lon="7.24759">
        <ele>2081</ele>
        <time>2017-09-16T16:08:09Z</time>
      </trkpt>
      <trkpt lat="44.12407" lon="7.24764">
        <ele>2081</ele>
        <time>2017-09-16T16:08:09Z</time>
      </trkpt>
      <trkpt lat="44.12408" lon="7.24765">
        <ele>2081</ele>
        <time>2017-09-16T16:08:09Z</time>
      </trkpt>
      <trkpt lat="44.12409" lon="7.24768">
        <ele>2081</ele>
        <time>2017-09-16T16:08:29Z</time>
      </trkpt>
      <trkpt lat="44.12408" lon="7.24771">
        <ele>2081</ele>
        <time>2017-09-16T16:08:29Z</time>
      </trkpt>
      <trkpt lat="44.12409" lon="7.24773">
        <ele>2081</ele>
        <time>2017-09-16T16:08:29Z</time>
      </trkpt>
      <trkpt lat="44.1241" lon="7.24776">
        <ele>2081</ele>
        <time>2017-09-16T16:08:29Z</time>
      </trkpt>
      <trkpt lat="44.1241" lon="7.24781">
        <ele>2081</ele>
        <time>2017-09-16T16:08:29Z</time>
      </trkpt>
      <trkpt lat="44.12411" lon="7.24787">
        <ele>2081</ele>
        <time>2017-09-16T16:08:57Z</time>
      </trkpt>
      <trkpt lat="44.12412" lon="7.24791">
        <ele>2081</ele>
        <time>2017-09-16T16:08:57Z</time>
      </trkpt>
      <trkpt lat="44.12414" lon="7.24792">
        <ele>2078</ele>
        <time>2017-09-16T16:08:57Z</time>
      </trkpt>
      <trkpt lat="44.12415" lon="7.24791">
        <ele>2081</ele>
        <time>2017-09-16T16:08:57Z</time>
      </trkpt>
      <trkpt lat="44.12416" lon="7.24796">
        <ele>2078</ele>
        <time>2017-09-16T16:08:57Z</time>
      </trkpt>
      <trkpt lat="44.12417" lon="7.24797">
        <ele>2078</ele>
        <time>2017-09-16T16:09:13Z</time>
      </trkpt>
      <trkpt lat="44.12417" lon="7.24804">
        <ele>2078</ele>
        <time>2017-09-16T16:09:13Z</time>
      </trkpt>
      <trkpt lat="44.12418" lon="7.24807">
        <ele>2078</ele>
        <time>2017-09-16T16:09:13Z</time>
      </trkpt>
      <trkpt lat="44.12418" lon="7.2481">
        <ele>2078</ele>
        <time>2017-09-16T16:09:13Z</time>
      </trkpt>
      <trkpt lat="44.1242" lon="7.24818">
        <ele>2078</ele>
        <time>2017-09-16T16:09:41Z</time>
      </trkpt>
      <trkpt lat="44.1242" lon="7.2482">
        <ele>2078</ele>
        <time>2017-09-16T16:09:41Z</time>
      </trkpt>
      <trkpt lat="44.12419" lon="7.24823">
        <ele>2078</ele>
        <time>2017-09-16T16:09:41Z</time>
      </trkpt>
      <trkpt lat="44.1242" lon="7.24824">
        <ele>2078</ele>
        <time>2017-09-16T16:09:41Z</time>
      </trkpt>
      <trkpt lat="44.1242" lon="7.24826">
        <ele>2078</ele>
        <time>2017-09-16T16:09:41Z</time>
      </trkpt>
      <trkpt lat="44.12419" lon="7.24829">
        <ele>2078</ele>
        <time>2017-09-16T16:10:01Z</time>
      </trkpt>
      <trkpt lat="44.12417" lon="7.24832">
        <ele>2078</ele>
        <time>2017-09-16T16:10:01Z</time>
      </trkpt>
      <trkpt lat="44.12416" lon="7.24836">
        <ele>2078</ele>
        <time>2017-09-16T16:10:01Z</time>
      </trkpt>
      <trkpt lat="44.12415" lon="7.24841">
        <ele>2078</ele>
        <time>2017-09-16T16:10:01Z</time>
      </trkpt>
      <trkpt lat="44.12415" lon="7.24842">
        <ele>2078</ele>
        <time>2017-09-16T16:10:01Z</time>
      </trkpt>
      <trkpt lat="44.12414" lon="7.24845">
        <ele>2078</ele>
        <time>2017-09-16T16:10:21Z</time>
      </trkpt>
      <trkpt lat="44.12414" lon="7.24847">
        <ele>2078</ele>
        <time>2017-09-16T16:10:21Z</time>
      </trkpt>
      <trkpt lat="44.12413" lon="7.2485">
        <ele>2078</ele>
        <time>2017-09-16T16:10:21Z</time>
      </trkpt>
      <trkpt lat="44.12411" lon="7.24854">
        <ele>2078</ele>
        <time>2017-09-16T16:10:21Z</time>
      </trkpt>
      <trkpt lat="44.12409" lon="7.24858">
        <ele>2078</ele>
        <time>2017-09-16T16:10:21Z</time>
      </trkpt>
      <trkpt lat="44.12407" lon="7.24866">
        <ele>2078</ele>
        <time>2017-09-16T16:10:45Z</time>
      </trkpt>
      <trkpt lat="44.12406" lon="7.24869">
        <ele>2078</ele>
        <time>2017-09-16T16:10:45Z</time>
      </trkpt>
      <trkpt lat="44.12406" lon="7.2487">
        <ele>2078</ele>
        <time>2017-09-16T16:10:45Z</time>
      </trkpt>
      <trkpt lat="44.12405" lon="7.24872">
        <ele>2078</ele>
        <time>2017-09-16T16:10:45Z</time>
      </trkpt>
      <trkpt lat="44.12404" lon="7.24875">
        <ele>2057</ele>
        <time>2017-09-16T16:10:45Z</time>
      </trkpt>
      <trkpt lat="44.12403" lon="7.24878">
        <ele>2057</ele>
        <time>2017-09-16T16:11:05Z</time>
      </trkpt>
      <trkpt lat="44.12402" lon="7.2488">
        <ele>2057</ele>
        <time>2017-09-16T16:11:05Z</time>
      </trkpt>
      <trkpt lat="44.12401" lon="7.24883">
        <ele>2057</ele>
        <time>2017-09-16T16:11:05Z</time>
      </trkpt>
      <trkpt lat="44.124" lon="7.24888">
        <ele>2057</ele>
        <time>2017-09-16T16:11:05Z</time>
      </trkpt>
      <trkpt lat="44.12399" lon="7.24892">
        <ele>2057</ele>
        <time>2017-09-16T16:11:05Z</time>
      </trkpt>
      <trkpt lat="44.12396" lon="7.24901">
        <ele>2057</ele>
        <time>2017-09-16T16:11:41Z</time>
      </trkpt>
      <trkpt lat="44.12396" lon="7.24903">
        <ele>2057</ele>
        <time>2017-09-16T16:11:41Z</time>
      </trkpt>
      <trkpt lat="44.12396" lon="7.24905">
        <ele>2057</ele>
        <time>2017-09-16T16:11:41Z</time>
      </trkpt>
      <trkpt lat="44.12396" lon="7.24905">
        <ele>2057</ele>
        <time>2017-09-16T16:11:41Z</time>
      </trkpt>
      <trkpt lat="44.12395" lon="7.24909">
        <ele>2057</ele>
        <time>2017-09-16T16:11:41Z</time>
      </trkpt>
      <trkpt lat="44.12393" lon="7.24913">
        <ele>2057</ele>
        <time>2017-09-16T16:12:05Z</time>
      </trkpt>
      <trkpt lat="44.12392" lon="7.24917">
        <ele>2057</ele>
        <time>2017-09-16T16:12:05Z</time>
      </trkpt>
      <trkpt lat="44.12391" lon="7.2492">
        <ele>2057</ele>
        <time>2017-09-16T16:12:05Z</time>
      </trkpt>
      <trkpt lat="44.1239" lon="7.24921">
        <ele>2057</ele>
        <time>2017-09-16T16:12:05Z</time>
      </trkpt>
      <trkpt lat="44.1239" lon="7.24923">
        <ele>2057</ele>
        <time>2017-09-16T16:12:05Z</time>
      </trkpt>
      <trkpt lat="44.12391" lon="7.24925">
        <ele>2057</ele>
        <time>2017-09-16T16:12:25Z</time>
      </trkpt>
      <trkpt lat="44.12391" lon="7.24927">
        <ele>2057</ele>
        <time>2017-09-16T16:12:25Z</time>
      </trkpt>
      <trkpt lat="44.1239" lon="7.24929">
        <ele>2057</ele>
        <time>2017-09-16T16:12:25Z</time>
      </trkpt>
      <trkpt lat="44.12385" lon="7.24933">
        <ele>2057</ele>
        <time>2017-09-16T16:12:25Z</time>
      </trkpt>
      <trkpt lat="44.12382" lon="7.24936">
        <ele>2057</ele>
        <time>2017-09-16T16:12:25Z</time>
      </trkpt>
      <trkpt lat="44.12379" lon="7.2494">
        <ele>2057</ele>
        <time>2017-09-16T16:12:45Z</time>
      </trkpt>
      <trkpt lat="44.12378" lon="7.24944">
        <ele>2057</ele>
        <time>2017-09-16T16:12:45Z</time>
      </trkpt>
      <trkpt lat="44.12376" lon="7.24946">
        <ele>2057</ele>
        <time>2017-09-16T16:12:45Z</time>
      </trkpt>
      <trkpt lat="44.12375" lon="7.24949">
        <ele>2098</ele>
        <time>2017-09-16T16:12:45Z</time>
      </trkpt>
      <trkpt lat="44.12372" lon="7.24952">
        <ele>2098</ele>
        <time>2017-09-16T16:12:45Z</time>
      </trkpt>
      <trkpt lat="44.12369" lon="7.2496">
        <ele>2070</ele>
        <time>2017-09-16T16:13:17Z</time>
      </trkpt>
      <trkpt lat="44.12368" lon="7.24962">
        <ele>2070</ele>
        <time>2017-09-16T16:13:17Z</time>
      </trkpt>
      <trkpt lat="44.12368" lon="7.24962">
        <ele>2070</ele>
        <time>2017-09-16T16:13:17Z</time>
      </trkpt>
      <trkpt lat="44.12367" lon="7.24964">
        <ele>2070</ele>
        <time>2017-09-16T16:13:17Z</time>
      </trkpt>
      <trkpt lat="44.12365" lon="7.24966">
        <ele>2070</ele>
        <time>2017-09-16T16:13:17Z</time>
      </trkpt>
      <trkpt lat="44.12359" lon="7.24971">
        <ele>2070</ele>
        <time>2017-09-16T16:13:45Z</time>
      </trkpt>
      <trkpt lat="44.12358" lon="7.24972">
        <ele>2070</ele>
        <time>2017-09-16T16:13:45Z</time>
      </trkpt>
      <trkpt lat="44.12357" lon="7.24973">
        <ele>2070</ele>
        <time>2017-09-16T16:13:45Z</time>
      </trkpt>
      <trkpt lat="44.12356" lon="7.24975">
        <ele>2070</ele>
        <time>2017-09-16T16:13:45Z</time>
      </trkpt>
      <trkpt lat="44.12355" lon="7.24978">
        <ele>2070</ele>
        <time>2017-09-16T16:13:45Z</time>
      </trkpt>
      <trkpt lat="44.12356" lon="7.24979">
        <ele>2070</ele>
        <time>2017-09-16T16:14:09Z</time>
      </trkpt>
      <trkpt lat="44.12357" lon="7.24981">
        <ele>2070</ele>
        <time>2017-09-16T16:14:09Z</time>
      </trkpt>
      <trkpt lat="44.12357" lon="7.24983">
        <ele>2070</ele>
        <time>2017-09-16T16:14:09Z</time>
      </trkpt>
      <trkpt lat="44.12359" lon="7.24987">
        <ele>2070</ele>
        <time>2017-09-16T16:14:09Z</time>
      </trkpt>
      <trkpt lat="44.1236" lon="7.2499">
        <ele>2070</ele>
        <time>2017-09-16T16:14:09Z</time>
      </trkpt>
      <trkpt lat="44.12358" lon="7.24997">
        <ele>2070</ele>
        <time>2017-09-16T16:14:33Z</time>
      </trkpt>
      <trkpt lat="44.12358" lon="7.24999">
        <ele>2070</ele>
        <time>2017-09-16T16:14:33Z</time>
      </trkpt>
      <trkpt lat="44.12356" lon="7.24999">
        <ele>2070</ele>
        <time>2017-09-16T16:14:33Z</time>
      </trkpt>
      <trkpt lat="44.12355" lon="7.25001">
        <ele>2070</ele>
        <time>2017-09-16T16:14:33Z</time>
      </trkpt>
      <trkpt lat="44.12355" lon="7.25006">
        <ele>2070</ele>
        <time>2017-09-16T16:14:33Z</time>
      </trkpt>
      <trkpt lat="44.12352" lon="7.25012">
        <ele>2070</ele>
        <time>2017-09-16T16:14:57Z</time>
      </trkpt>
      <trkpt lat="44.1235" lon="7.25018">
        <ele>2070</ele>
        <time>2017-09-16T16:14:57Z</time>
      </trkpt>
      <trkpt lat="44.1235" lon="7.25018">
        <ele>2070</ele>
        <time>2017-09-16T16:14:57Z</time>
      </trkpt>
      <trkpt lat="44.12349" lon="7.25018">
        <ele>2070</ele>
        <time>2017-09-16T16:14:57Z</time>
      </trkpt>
      <trkpt lat="44.12348" lon="7.25018">
        <ele>2070</ele>
        <time>2017-09-16T16:14:57Z</time>
      </trkpt>
      <trkpt lat="44.12346" lon="7.25023">
        <ele>2070</ele>
        <time>2017-09-16T16:15:25Z</time>
      </trkpt>
      <trkpt lat="44.12343" lon="7.25026">
        <ele>2070</ele>
        <time>2017-09-16T16:15:25Z</time>
      </trkpt>
      <trkpt lat="44.12341" lon="7.25028">
        <ele>2070</ele>
        <time>2017-09-16T16:15:25Z</time>
      </trkpt>
      <trkpt lat="44.1234" lon="7.2503">
        <ele>2070</ele>
        <time>2017-09-16T16:15:25Z</time>
      </trkpt>
      <trkpt lat="44.12341" lon="7.25031">
        <ele>2070</ele>
        <time>2017-09-16T16:15:25Z</time>
      </trkpt>
      <trkpt lat="44.12335" lon="7.25025">
        <ele>2070</ele>
        <time>2017-09-16T16:16:25Z</time>
      </trkpt>
      <trkpt lat="44.12335" lon="7.25025">
        <ele>2070</ele>
        <time>2017-09-16T16:16:25Z</time>
      </trkpt>
      <trkpt lat="44.12335" lon="7.25025">
        <ele>2070</ele>
        <time>2017-09-16T16:16:25Z</time>
      </trkpt>
      <trkpt lat="44.12334" lon="7.25025">
        <ele>2070</ele>
        <time>2017-09-16T16:16:25Z</time>
      </trkpt>
      <trkpt lat="44.12333" lon="7.25024">
        <ele>2070</ele>
        <time>2017-09-16T16:16:25Z</time>
      </trkpt>
      <trkpt lat="44.12332" lon="7.25029">
        <ele>2070</ele>
        <time>2017-09-16T16:18:17Z</time>
      </trkpt>
      <trkpt lat="44.12334" lon="7.25031">
        <ele>2070</ele>
        <time>2017-09-16T16:18:17Z</time>
      </trkpt>
      <trkpt lat="44.12334" lon="7.25032">
        <ele>2070</ele>
        <time>2017-09-16T16:18:17Z</time>
      </trkpt>
      <trkpt lat="44.12335" lon="7.25035">
        <ele>2070</ele>
        <time>2017-09-16T16:18:17Z</time>
      </trkpt>
      <trkpt lat="44.12334" lon="7.25036">
        <ele>2070</ele>
        <time>2017-09-16T16:18:17Z</time>
      </trkpt>
      <trkpt lat="44.12334" lon="7.25042">
        <ele>2035</ele>
        <time>2017-09-16T16:18:37Z</time>
      </trkpt>
      <trkpt lat="44.12334" lon="7.25047">
        <ele>2035</ele>
        <time>2017-09-16T16:18:37Z</time>
      </trkpt>
      <trkpt lat="44.12334" lon="7.2505">
        <ele>2035</ele>
        <time>2017-09-16T16:18:37Z</time>
      </trkpt>
      <trkpt lat="44.12334" lon="7.25053">
        <ele>2035</ele>
        <time>2017-09-16T16:18:37Z</time>
      </trkpt>
      <trkpt lat="44.12334" lon="7.25055">
        <ele>2035</ele>
        <time>2017-09-16T16:18:37Z</time>
      </trkpt>
      <trkpt lat="44.12333" lon="7.2506">
        <ele>2035</ele>
        <time>2017-09-16T16:18:57Z</time>
      </trkpt>
      <trkpt lat="44.12332" lon="7.25064">
        <ele>2035</ele>
        <time>2017-09-16T16:18:57Z</time>
      </trkpt>
      <trkpt lat="44.12332" lon="7.25067">
        <ele>2035</ele>
        <time>2017-09-16T16:18:57Z</time>
      </trkpt>
      <trkpt lat="44.12331" lon="7.25071">
        <ele>2035</ele>
        <time>2017-09-16T16:18:57Z</time>
      </trkpt>
      <trkpt lat="44.1233" lon="7.25072">
        <ele>2035</ele>
        <time>2017-09-16T16:18:57Z</time>
      </trkpt>
      <trkpt lat="44.12331" lon="7.25062">
        <ele>2035</ele>
        <time>2017-09-16T16:19:49Z</time>
      </trkpt>
      <trkpt lat="44.12332" lon="7.25061">
        <ele>2035</ele>
        <time>2017-09-16T16:19:49Z</time>
      </trkpt>
      <trkpt lat="44.12333" lon="7.2506">
        <ele>2035</ele>
        <time>2017-09-16T16:19:49Z</time>
      </trkpt>
      <trkpt lat="44.12334" lon="7.25061">
        <ele>2035</ele>
        <time>2017-09-16T16:19:49Z</time>
      </trkpt>
      <trkpt lat="44.12338" lon="7.25061">
        <ele>2035</ele>
        <time>2017-09-16T16:19:49Z</time>
      </trkpt>
      <trkpt lat="44.12344" lon="7.25056">
        <ele>2035</ele>
        <time>2017-09-16T16:20:09Z</time>
      </trkpt>
      <trkpt lat="44.12346" lon="7.25054">
        <ele>2035</ele>
        <time>2017-09-16T16:20:09Z</time>
      </trkpt>
      <trkpt lat="44.1235" lon="7.25052">
        <ele>2035</ele>
        <time>2017-09-16T16:20:09Z</time>
      </trkpt>
      <trkpt lat="44.12351" lon="7.25051">
        <ele>2035</ele>
        <time>2017-09-16T16:20:09Z</time>
      </trkpt>
      <trkpt lat="44.12354" lon="7.25048">
        <ele>2035</ele>
        <time>2017-09-16T16:20:09Z</time>
      </trkpt>
      <trkpt lat="44.12358" lon="7.25048">
        <ele>2035</ele>
        <time>2017-09-16T16:20:25Z</time>
      </trkpt>
      <trkpt lat="44.12361" lon="7.25048">
        <ele>2035</ele>
        <time>2017-09-16T16:20:25Z</time>
      </trkpt>
      <trkpt lat="44.12363" lon="7.25046">
        <ele>2035</ele>
        <time>2017-09-16T16:20:25Z</time>
      </trkpt>
      <trkpt lat="44.12367" lon="7.25042">
        <ele>2035</ele>
        <time>2017-09-16T16:20:25Z</time>
      </trkpt>
      <trkpt lat="44.1237" lon="7.25039">
        <ele>2070</ele>
        <time>2017-09-16T16:20:41Z</time>
      </trkpt>
      <trkpt lat="44.12372" lon="7.25038">
        <ele>2070</ele>
        <time>2017-09-16T16:20:41Z</time>
      </trkpt>
      <trkpt lat="44.12378" lon="7.25033">
        <ele>2032</ele>
        <time>2017-09-16T16:20:41Z</time>
      </trkpt>
      <trkpt lat="44.12378" lon="7.25033">
        <ele>2032</ele>
        <time>2017-09-16T16:20:41Z</time>
      </trkpt>
      <trkpt lat="44.1238" lon="7.25031">
        <ele>2032</ele>
        <time>2017-09-16T16:20:57Z</time>
      </trkpt>
      <trkpt lat="44.12382" lon="7.25029">
        <ele>2032</ele>
        <time>2017-09-16T16:20:57Z</time>
      </trkpt>
      <trkpt lat="44.12384" lon="7.25025">
        <ele>2032</ele>
        <time>2017-09-16T16:20:57Z</time>
      </trkpt>
      <trkpt lat="44.12388" lon="7.25019">
        <ele>2032</ele>
        <time>2017-09-16T16:20:57Z</time>
      </trkpt>
      <trkpt lat="44.1239" lon="7.25017">
        <ele>2032</ele>
        <time>2017-09-16T16:21:13Z</time>
      </trkpt>
      <trkpt lat="44.12393" lon="7.25013">
        <ele>2032</ele>
        <time>2017-09-16T16:21:13Z</time>
      </trkpt>
      <trkpt lat="44.12396" lon="7.25011">
        <ele>2032</ele>
        <time>2017-09-16T16:21:13Z</time>
      </trkpt>
      <trkpt lat="44.124" lon="7.25009">
        <ele>2032</ele>
        <time>2017-09-16T16:21:13Z</time>
      </trkpt>
      <trkpt lat="44.12404" lon="7.25004">
        <ele>2032</ele>
        <time>2017-09-16T16:21:57Z</time>
      </trkpt>
      <trkpt lat="44.12406" lon="7.25004">
        <ele>2032</ele>
        <time>2017-09-16T16:21:57Z</time>
      </trkpt>
      <trkpt lat="44.1241" lon="7.25003">
        <ele>2032</ele>
        <time>2017-09-16T16:21:57Z</time>
      </trkpt>
      <trkpt lat="44.12414" lon="7.25002">
        <ele>2032</ele>
        <time>2017-09-16T16:21:57Z</time>
      </trkpt>
      <trkpt lat="44.12416" lon="7.25003">
        <ele>2032</ele>
        <time>2017-09-16T16:21:57Z</time>
      </trkpt>
      <trkpt lat="44.12423" lon="7.25003">
        <ele>2032</ele>
        <time>2017-09-16T16:22:21Z</time>
      </trkpt>
      <trkpt lat="44.12426" lon="7.25002">
        <ele>2032</ele>
        <time>2017-09-16T16:22:21Z</time>
      </trkpt>
      <trkpt lat="44.12427" lon="7.25003">
        <ele>2032</ele>
        <time>2017-09-16T16:22:21Z</time>
      </trkpt>
      <trkpt lat="44.12427" lon="7.25002">
        <ele>2032</ele>
        <time>2017-09-16T16:22:21Z</time>
      </trkpt>
      <trkpt lat="44.12429" lon="7.25001">
        <ele>2032</ele>
        <time>2017-09-16T16:22:21Z</time>
      </trkpt>
      <trkpt lat="44.12434" lon="7.24998">
        <ele>2032</ele>
        <time>2017-09-16T16:22:45Z</time>
      </trkpt>
      <trkpt lat="44.12434" lon="7.24996">
        <ele>2032</ele>
        <time>2017-09-16T16:22:45Z</time>
      </trkpt>
      <trkpt lat="44.12437" lon="7.24996">
        <ele>2032</ele>
        <time>2017-09-16T16:22:45Z</time>
      </trkpt>
      <trkpt lat="44.12439" lon="7.24997">
        <ele>2032</ele>
        <time>2017-09-16T16:22:45Z</time>
      </trkpt>
      <trkpt lat="44.12443" lon="7.24996">
        <ele>2032</ele>
        <time>2017-09-16T16:22:45Z</time>
      </trkpt>
      <trkpt lat="44.12445" lon="7.24995">
        <ele>2032</ele>
        <time>2017-09-16T16:23:01Z</time>
      </trkpt>
      <trkpt lat="44.12448" lon="7.24993">
        <ele>2032</ele>
        <time>2017-09-16T16:23:01Z</time>
      </trkpt>
      <trkpt lat="44.12451" lon="7.24992">
        <ele>2032</ele>
        <time>2017-09-16T16:23:01Z</time>
      </trkpt>
      <trkpt lat="44.12454" lon="7.2499">
        <ele>2032</ele>
        <time>2017-09-16T16:23:01Z</time>
      </trkpt>
      <trkpt lat="44.12455" lon="7.24991">
        <ele>2032</ele>
        <time>2017-09-16T16:23:17Z</time>
      </trkpt>
      <trkpt lat="44.12458" lon="7.24991">
        <ele>2032</ele>
        <time>2017-09-16T16:23:17Z</time>
      </trkpt>
      <trkpt lat="44.12461" lon="7.24991">
        <ele>2005</ele>
        <time>2017-09-16T16:23:17Z</time>
      </trkpt>
      <trkpt lat="44.12465" lon="7.2499">
        <ele>2005</ele>
        <time>2017-09-16T16:23:17Z</time>
      </trkpt>
      <trkpt lat="44.12466" lon="7.24989">
        <ele>2005</ele>
        <time>2017-09-16T16:23:33Z</time>
      </trkpt>
      <trkpt lat="44.12469" lon="7.24989">
        <ele>2005</ele>
        <time>2017-09-16T16:23:33Z</time>
      </trkpt>
      <trkpt lat="44.12473" lon="7.24988">
        <ele>2005</ele>
        <time>2017-09-16T16:23:33Z</time>
      </trkpt>
      <trkpt lat="44.12476" lon="7.24987">
        <ele>2005</ele>
        <time>2017-09-16T16:23:33Z</time>
      </trkpt>
      <trkpt lat="44.12481" lon="7.24986">
        <ele>2005</ele>
        <time>2017-09-16T16:23:57Z</time>
      </trkpt>
      <trkpt lat="44.12483" lon="7.24984">
        <ele>2005</ele>
        <time>2017-09-16T16:23:57Z</time>
      </trkpt>
      <trkpt lat="44.12485" lon="7.24983">
        <ele>2005</ele>
        <time>2017-09-16T16:23:57Z</time>
      </trkpt>
      <trkpt lat="44.12487" lon="7.24982">
        <ele>2005</ele>
        <time>2017-09-16T16:23:57Z</time>
      </trkpt>
      <trkpt lat="44.12492" lon="7.24981">
        <ele>2005</ele>
        <time>2017-09-16T16:23:57Z</time>
      </trkpt>
      <trkpt lat="44.12493" lon="7.24981">
        <ele>2005</ele>
        <time>2017-09-16T16:24:17Z</time>
      </trkpt>
      <trkpt lat="44.12496" lon="7.24983">
        <ele>2005</ele>
        <time>2017-09-16T16:24:17Z</time>
      </trkpt>
      <trkpt lat="44.12498" lon="7.24983">
        <ele>2005</ele>
        <time>2017-09-16T16:24:17Z</time>
      </trkpt>
      <trkpt lat="44.125" lon="7.24982">
        <ele>2005</ele>
        <time>2017-09-16T16:24:17Z</time>
      </trkpt>
      <trkpt lat="44.12502" lon="7.24981">
        <ele>2005</ele>
        <time>2017-09-16T16:24:17Z</time>
      </trkpt>
      <trkpt lat="44.12505" lon="7.2498">
        <ele>2005</ele>
        <time>2017-09-16T16:24:37Z</time>
      </trkpt>
      <trkpt lat="44.12508" lon="7.2498">
        <ele>2005</ele>
        <time>2017-09-16T16:24:37Z</time>
      </trkpt>
      <trkpt lat="44.12513" lon="7.24978">
        <ele>2005</ele>
        <time>2017-09-16T16:24:37Z</time>
      </trkpt>
      <trkpt lat="44.12513" lon="7.24975">
        <ele>2005</ele>
        <time>2017-09-16T16:24:37Z</time>
      </trkpt>
      <trkpt lat="44.12515" lon="7.24974">
        <ele>2005</ele>
        <time>2017-09-16T16:24:37Z</time>
      </trkpt>
      <trkpt lat="44.12521" lon="7.24983">
        <ele>2005</ele>
        <time>2017-09-16T16:25:25Z</time>
      </trkpt>
      <trkpt lat="44.12521" lon="7.24983">
        <ele>2005</ele>
        <time>2017-09-16T16:25:25Z</time>
      </trkpt>
      <trkpt lat="44.12521" lon="7.24983">
        <ele>2005</ele>
        <time>2017-09-16T16:25:25Z</time>
      </trkpt>
      <trkpt lat="44.12521" lon="7.24985">
        <ele>2005</ele>
        <time>2017-09-16T16:25:25Z</time>
      </trkpt>
      <trkpt lat="44.12522" lon="7.24987">
        <ele>2005</ele>
        <time>2017-09-16T16:25:25Z</time>
      </trkpt>
      <trkpt lat="44.12521" lon="7.24988">
        <ele>2005</ele>
        <time>2017-09-16T16:25:57Z</time>
      </trkpt>
      <trkpt lat="44.12522" lon="7.2499">
        <ele>2005</ele>
        <time>2017-09-16T16:25:57Z</time>
      </trkpt>
      <trkpt lat="44.12522" lon="7.24993">
        <ele>2005</ele>
        <time>2017-09-16T16:25:57Z</time>
      </trkpt>
      <trkpt lat="44.12521" lon="7.24997">
        <ele>2005</ele>
        <time>2017-09-16T16:25:57Z</time>
      </trkpt>
      <trkpt lat="44.12519" lon="7.25004">
        <ele>2005</ele>
        <time>2017-09-16T16:25:57Z</time>
      </trkpt>
      <trkpt lat="44.12517" lon="7.25007">
        <ele>2005</ele>
        <time>2017-09-16T16:26:37Z</time>
      </trkpt>
      <trkpt lat="44.12516" lon="7.25009">
        <ele>2005</ele>
        <time>2017-09-16T16:26:37Z</time>
      </trkpt>
      <trkpt lat="44.12514" lon="7.25013">
        <ele>2005</ele>
        <time>2017-09-16T16:26:37Z</time>
      </trkpt>
      <trkpt lat="44.12512" lon="7.25016">
        <ele>2005</ele>
        <time>2017-09-16T16:26:37Z</time>
      </trkpt>
      <trkpt lat="44.1251" lon="7.25017">
        <ele>2005</ele>
        <time>2017-09-16T16:26:37Z</time>
      </trkpt>
      <trkpt lat="44.12506" lon="7.25019">
        <ele>2005</ele>
        <time>2017-09-16T16:26:53Z</time>
      </trkpt>
      <trkpt lat="44.12502" lon="7.25019">
        <ele>2005</ele>
        <time>2017-09-16T16:26:53Z</time>
      </trkpt>
      <trkpt lat="44.12498" lon="7.25018">
        <ele>2005</ele>
        <time>2017-09-16T16:26:53Z</time>
      </trkpt>
      <trkpt lat="44.12495" lon="7.25017">
        <ele>2005</ele>
        <time>2017-09-16T16:26:53Z</time>
      </trkpt>
      <trkpt lat="44.12488" lon="7.25018">
        <ele>2005</ele>
        <time>2017-09-16T16:27:29Z</time>
      </trkpt>
      <trkpt lat="44.1249" lon="7.25023">
        <ele>2005</ele>
        <time>2017-09-16T16:27:29Z</time>
      </trkpt>
      <trkpt lat="44.12492" lon="7.25025">
        <ele>2005</ele>
        <time>2017-09-16T16:27:29Z</time>
      </trkpt>
      <trkpt lat="44.12496" lon="7.25028">
        <ele>2005</ele>
        <time>2017-09-16T16:27:29Z</time>
      </trkpt>
      <trkpt lat="44.12498" lon="7.25031">
        <ele>2005</ele>
        <time>2017-09-16T16:27:29Z</time>
      </trkpt>
      <trkpt lat="44.12507" lon="7.25031">
        <ele>2005</ele>
        <time>2017-09-16T16:28:01Z</time>
      </trkpt>
      <trkpt lat="44.12508" lon="7.25029">
        <ele>2005</ele>
        <time>2017-09-16T16:28:01Z</time>
      </trkpt>
      <trkpt lat="44.12508" lon="7.25029">
        <ele>2005</ele>
        <time>2017-09-16T16:28:01Z</time>
      </trkpt>
      <trkpt lat="44.12508" lon="7.25026">
        <ele>2005</ele>
        <time>2017-09-16T16:28:01Z</time>
      </trkpt>
      <trkpt lat="44.1251" lon="7.2502">
        <ele>2005</ele>
        <time>2017-09-16T16:28:01Z</time>
      </trkpt>
      <trkpt lat="44.12512" lon="7.25016">
        <ele>2005</ele>
        <time>2017-09-16T16:28:21Z</time>
      </trkpt>
      <trkpt lat="44.12514" lon="7.25014">
        <ele>2005</ele>
        <time>2017-09-16T16:28:21Z</time>
      </trkpt>
      <trkpt lat="44.12516" lon="7.25011">
        <ele>2005</ele>
        <time>2017-09-16T16:28:21Z</time>
      </trkpt>
      <trkpt lat="44.12517" lon="7.25009">
        <ele>2005</ele>
        <time>2017-09-16T16:28:21Z</time>
      </trkpt>
      <trkpt lat="44.12519" lon="7.25008">
        <ele>2005</ele>
        <time>2017-09-16T16:28:21Z</time>
      </trkpt>
      <trkpt lat="44.12524" lon="7.25005">
        <ele>2005</ele>
        <time>2017-09-16T16:28:37Z</time>
      </trkpt>
      <trkpt lat="44.12529" lon="7.25003">
        <ele>2005</ele>
        <time>2017-09-16T16:28:37Z</time>
      </trkpt>
      <trkpt lat="44.12532" lon="7.25001">
        <ele>2005</ele>
        <time>2017-09-16T16:28:37Z</time>
      </trkpt>
      <trkpt lat="44.12535" lon="7.25">
        <ele>2005</ele>
        <time>2017-09-16T16:28:37Z</time>
      </trkpt>
      <trkpt lat="44.12538" lon="7.24998">
        <ele>2005</ele>
        <time>2017-09-16T16:28:57Z</time>
      </trkpt>
      <trkpt lat="44.12541" lon="7.24997">
        <ele>2005</ele>
        <time>2017-09-16T16:28:57Z</time>
      </trkpt>
      <trkpt lat="44.12542" lon="7.24998">
        <ele>1954</ele>
        <time>2017-09-16T16:28:57Z</time>
      </trkpt>
      <trkpt lat="44.12544" lon="7.24996">
        <ele>1954</ele>
        <time>2017-09-16T16:28:57Z</time>
      </trkpt>
      <trkpt lat="44.12547" lon="7.24994">
        <ele>1954</ele>
        <time>2017-09-16T16:28:57Z</time>
      </trkpt>
      <trkpt lat="44.12552" lon="7.24992">
        <ele>1954</ele>
        <time>2017-09-16T16:29:25Z</time>
      </trkpt>
      <trkpt lat="44.12553" lon="7.24991">
        <ele>1954</ele>
        <time>2017-09-16T16:29:25Z</time>
      </trkpt>
      <trkpt lat="44.12556" lon="7.24991">
        <ele>1954</ele>
        <time>2017-09-16T16:29:25Z</time>
      </trkpt>
      <trkpt lat="44.12558" lon="7.24991">
        <ele>1954</ele>
        <time>2017-09-16T16:29:25Z</time>
      </trkpt>
      <trkpt lat="44.12561" lon="7.24988">
        <ele>1954</ele>
        <time>2017-09-16T16:29:25Z</time>
      </trkpt>
      <trkpt lat="44.12564" lon="7.24986">
        <ele>1954</ele>
        <time>2017-09-16T16:29:41Z</time>
      </trkpt>
      <trkpt lat="44.12565" lon="7.24987">
        <ele>1954</ele>
        <time>2017-09-16T16:29:41Z</time>
      </trkpt>
      <trkpt lat="44.12571" lon="7.24986">
        <ele>1954</ele>
        <time>2017-09-16T16:29:41Z</time>
      </trkpt>
      <trkpt lat="44.12575" lon="7.24987">
        <ele>1954</ele>
        <time>2017-09-16T16:29:41Z</time>
      </trkpt>
      <trkpt lat="44.1258" lon="7.24981">
        <ele>1954</ele>
        <time>2017-09-16T16:30:13Z</time>
      </trkpt>
      <trkpt lat="44.1258" lon="7.2498">
        <ele>1954</ele>
        <time>2017-09-16T16:30:13Z</time>
      </trkpt>
      <trkpt lat="44.1258" lon="7.24977">
        <ele>1954</ele>
        <time>2017-09-16T16:30:13Z</time>
      </trkpt>
      <trkpt lat="44.12582" lon="7.24976">
        <ele>1954</ele>
        <time>2017-09-16T16:30:13Z</time>
      </trkpt>
      <trkpt lat="44.12584" lon="7.24979">
        <ele>1954</ele>
        <time>2017-09-16T16:30:13Z</time>
      </trkpt>
      <trkpt lat="44.12587" lon="7.24994">
        <ele>1954</ele>
        <time>2017-09-16T16:31:33Z</time>
      </trkpt>
      <trkpt lat="44.12585" lon="7.24996">
        <ele>1954</ele>
        <time>2017-09-16T16:31:33Z</time>
      </trkpt>
      <trkpt lat="44.12582" lon="7.24996">
        <ele>1954</ele>
        <time>2017-09-16T16:31:33Z</time>
      </trkpt>
      <trkpt lat="44.12579" lon="7.24998">
        <ele>1954</ele>
        <time>2017-09-16T16:31:33Z</time>
      </trkpt>
      <trkpt lat="44.12575" lon="7.24999">
        <ele>1954</ele>
        <time>2017-09-16T16:31:33Z</time>
      </trkpt>
      <trkpt lat="44.12573" lon="7.25">
        <ele>1954</ele>
        <time>2017-09-16T16:31:49Z</time>
      </trkpt>
      <trkpt lat="44.1257" lon="7.25004">
        <ele>1954</ele>
        <time>2017-09-16T16:31:49Z</time>
      </trkpt>
      <trkpt lat="44.12568" lon="7.25008">
        <ele>1954</ele>
        <time>2017-09-16T16:31:49Z</time>
      </trkpt>
      <trkpt lat="44.12567" lon="7.25012">
        <ele>1954</ele>
        <time>2017-09-16T16:31:49Z</time>
      </trkpt>
      <trkpt lat="44.12562" lon="7.25019">
        <ele>1954</ele>
        <time>2017-09-16T16:32:05Z</time>
      </trkpt>
      <trkpt lat="44.12558" lon="7.25025">
        <ele>1954</ele>
        <time>2017-09-16T16:32:05Z</time>
      </trkpt>
      <trkpt lat="44.12556" lon="7.25028">
        <ele>1954</ele>
        <time>2017-09-16T16:32:05Z</time>
      </trkpt>
      <trkpt lat="44.12554" lon="7.2503">
        <ele>1954</ele>
        <time>2017-09-16T16:32:05Z</time>
      </trkpt>
      <trkpt lat="44.12553" lon="7.25031">
        <ele>1954</ele>
        <time>2017-09-16T16:32:25Z</time>
      </trkpt>
      <trkpt lat="44.12552" lon="7.25032">
        <ele>1954</ele>
        <time>2017-09-16T16:32:25Z</time>
      </trkpt>
      <trkpt lat="44.12549" lon="7.25034">
        <ele>1954</ele>
        <time>2017-09-16T16:32:25Z</time>
      </trkpt>
      <trkpt lat="44.12546" lon="7.25036">
        <ele>1954</ele>
        <time>2017-09-16T16:32:25Z</time>
      </trkpt>
      <trkpt lat="44.12542" lon="7.25036">
        <ele>1954</ele>
        <time>2017-09-16T16:32:25Z</time>
      </trkpt>
      <trkpt lat="44.12539" lon="7.25036">
        <ele>2005</ele>
        <time>2017-09-16T16:32:41Z</time>
      </trkpt>
      <trkpt lat="44.12537" lon="7.25036">
        <ele>2005</ele>
        <time>2017-09-16T16:32:41Z</time>
      </trkpt>
      <trkpt lat="44.12534" lon="7.2504">
        <ele>2005</ele>
        <time>2017-09-16T16:32:41Z</time>
      </trkpt>
      <trkpt lat="44.12531" lon="7.25043">
        <ele>1954</ele>
        <time>2017-09-16T16:32:41Z</time>
      </trkpt>
      <trkpt lat="44.12529" lon="7.25049">
        <ele>1954</ele>
        <time>2017-09-16T16:33:09Z</time>
      </trkpt>
      <trkpt lat="44.12531" lon="7.25048">
        <ele>1954</ele>
        <time>2017-09-16T16:33:09Z</time>
      </trkpt>
      <trkpt lat="44.12533" lon="7.25047">
        <ele>1954</ele>
        <time>2017-09-16T16:33:09Z</time>
      </trkpt>
      <trkpt lat="44.12536" lon="7.25047">
        <ele>1954</ele>
        <time>2017-09-16T16:33:09Z</time>
      </trkpt>
      <trkpt lat="44.12539" lon="7.25048">
        <ele>1954</ele>
        <time>2017-09-16T16:33:09Z</time>
      </trkpt>
      <trkpt lat="44.12541" lon="7.25049">
        <ele>1954</ele>
        <time>2017-09-16T16:33:25Z</time>
      </trkpt>
      <trkpt lat="44.12545" lon="7.2505">
        <ele>1912</ele>
        <time>2017-09-16T16:33:25Z</time>
      </trkpt>
      <trkpt lat="44.12547" lon="7.25049">
        <ele>1912</ele>
        <time>2017-09-16T16:33:25Z</time>
      </trkpt>
      <trkpt lat="44.1255" lon="7.25048">
        <ele>1912</ele>
        <time>2017-09-16T16:33:25Z</time>
      </trkpt>
      <trkpt lat="44.12555" lon="7.25046">
        <ele>1912</ele>
        <time>2017-09-16T16:33:41Z</time>
      </trkpt>
      <trkpt lat="44.12559" lon="7.25043">
        <ele>1912</ele>
        <time>2017-09-16T16:33:41Z</time>
      </trkpt>
      <trkpt lat="44.12563" lon="7.25039">
        <ele>1954</ele>
        <time>2017-09-16T16:33:41Z</time>
      </trkpt>
      <trkpt lat="44.12569" lon="7.25036">
        <ele>1954</ele>
        <time>2017-09-16T16:33:41Z</time>
      </trkpt>
      <trkpt lat="44.1257" lon="7.25035">
        <ele>1954</ele>
        <time>2017-09-16T16:33:57Z</time>
      </trkpt>
      <trkpt lat="44.12573" lon="7.25034">
        <ele>1954</ele>
        <time>2017-09-16T16:33:57Z</time>
      </trkpt>
      <trkpt lat="44.12576" lon="7.25033">
        <ele>1954</ele>
        <time>2017-09-16T16:33:57Z</time>
      </trkpt>
      <trkpt lat="44.12582" lon="7.25032">
        <ele>1954</ele>
        <time>2017-09-16T16:33:57Z</time>
      </trkpt>
      <trkpt lat="44.12583" lon="7.25029">
        <ele>1954</ele>
        <time>2017-09-16T16:34:13Z</time>
      </trkpt>
      <trkpt lat="44.12586" lon="7.2503">
        <ele>1954</ele>
        <time>2017-09-16T16:34:13Z</time>
      </trkpt>
      <trkpt lat="44.12589" lon="7.25028">
        <ele>1954</ele>
        <time>2017-09-16T16:34:13Z</time>
      </trkpt>
      <trkpt lat="44.12593" lon="7.25024">
        <ele>1954</ele>
        <time>2017-09-16T16:34:13Z</time>
      </trkpt>
      <trkpt lat="44.12597" lon="7.25017">
        <ele>1954</ele>
        <time>2017-09-16T16:34:33Z</time>
      </trkpt>
      <trkpt lat="44.12601" lon="7.25013">
        <ele>1954</ele>
        <time>2017-09-16T16:34:33Z</time>
      </trkpt>
      <trkpt lat="44.12601" lon="7.25012">
        <ele>1954</ele>
        <time>2017-09-16T16:34:33Z</time>
      </trkpt>
      <trkpt lat="44.12604" lon="7.25011">
        <ele>1954</ele>
        <time>2017-09-16T16:34:33Z</time>
      </trkpt>
      <trkpt lat="44.12607" lon="7.25009">
        <ele>1954</ele>
        <time>2017-09-16T16:34:33Z</time>
      </trkpt>
      <trkpt lat="44.1261" lon="7.2501">
        <ele>1954</ele>
        <time>2017-09-16T16:35:13Z</time>
      </trkpt>
      <trkpt lat="44.12611" lon="7.25012">
        <ele>1954</ele>
        <time>2017-09-16T16:35:13Z</time>
      </trkpt>
      <trkpt lat="44.12611" lon="7.25014">
        <ele>1954</ele>
        <time>2017-09-16T16:35:13Z</time>
      </trkpt>
      <trkpt lat="44.12611" lon="7.25017">
        <ele>1954</ele>
        <time>2017-09-16T16:35:13Z</time>
      </trkpt>
      <trkpt lat="44.12609" lon="7.25021">
        <ele>1954</ele>
        <time>2017-09-16T16:35:13Z</time>
      </trkpt>
      <trkpt lat="44.12606" lon="7.25025">
        <ele>1954</ele>
        <time>2017-09-16T16:35:29Z</time>
      </trkpt>
      <trkpt lat="44.12602" lon="7.25032">
        <ele>1954</ele>
        <time>2017-09-16T16:35:29Z</time>
      </trkpt>
      <trkpt lat="44.12597" lon="7.25036">
        <ele>1954</ele>
        <time>2017-09-16T16:35:29Z</time>
      </trkpt>
      <trkpt lat="44.12592" lon="7.2504">
        <ele>1954</ele>
        <time>2017-09-16T16:35:29Z</time>
      </trkpt>
      <trkpt lat="44.12589" lon="7.25042">
        <ele>1912</ele>
        <time>2017-09-16T16:35:45Z</time>
      </trkpt>
      <trkpt lat="44.12586" lon="7.25044">
        <ele>1912</ele>
        <time>2017-09-16T16:35:45Z</time>
      </trkpt>
      <trkpt lat="44.12582" lon="7.25047">
        <ele>1912</ele>
        <time>2017-09-16T16:35:45Z</time>
      </trkpt>
      <trkpt lat="44.12579" lon="7.2505">
        <ele>1912</ele>
        <time>2017-09-16T16:35:45Z</time>
      </trkpt>
      <trkpt lat="44.12577" lon="7.25052">
        <ele>1912</ele>
        <time>2017-09-16T16:36:05Z</time>
      </trkpt>
      <trkpt lat="44.12576" lon="7.25053">
        <ele>1912</ele>
        <time>2017-09-16T16:36:05Z</time>
      </trkpt>
      <trkpt lat="44.12573" lon="7.25056">
        <ele>1912</ele>
        <time>2017-09-16T16:36:05Z</time>
      </trkpt>
      <trkpt lat="44.12571" lon="7.25059">
        <ele>1912</ele>
        <time>2017-09-16T16:36:05Z</time>
      </trkpt>
      <trkpt lat="44.12568" lon="7.25062">
        <ele>1912</ele>
        <time>2017-09-16T16:36:05Z</time>
      </trkpt>
      <trkpt lat="44.12568" lon="7.25065">
        <ele>1912</ele>
        <time>2017-09-16T16:36:21Z</time>
      </trkpt>
      <trkpt lat="44.12566" lon="7.25067">
        <ele>1912</ele>
        <time>2017-09-16T16:36:21Z</time>
      </trkpt>
      <trkpt lat="44.12562" lon="7.25071">
        <ele>1912</ele>
        <time>2017-09-16T16:36:21Z</time>
      </trkpt>
      <trkpt lat="44.12558" lon="7.25074">
        <ele>1912</ele>
        <time>2017-09-16T16:36:21Z</time>
      </trkpt>
      <trkpt lat="44.12552" lon="7.25077">
        <ele>1912</ele>
        <time>2017-09-16T16:36:45Z</time>
      </trkpt>
      <trkpt lat="44.12548" lon="7.25077">
        <ele>1912</ele>
        <time>2017-09-16T16:36:45Z</time>
      </trkpt>
      <trkpt lat="44.12547" lon="7.25078">
        <ele>1912</ele>
        <time>2017-09-16T16:36:45Z</time>
      </trkpt>
      <trkpt lat="44.12545" lon="7.25079">
        <ele>1912</ele>
        <time>2017-09-16T16:36:45Z</time>
      </trkpt>
      <trkpt lat="44.12545" lon="7.2508">
        <ele>1912</ele>
        <time>2017-09-16T16:36:45Z</time>
      </trkpt>
      <trkpt lat="44.12543" lon="7.2508">
        <ele>1912</ele>
        <time>2017-09-16T16:37:01Z</time>
      </trkpt>
      <trkpt lat="44.12539" lon="7.25083">
        <ele>1954</ele>
        <time>2017-09-16T16:37:01Z</time>
      </trkpt>
      <trkpt lat="44.12537" lon="7.25086">
        <ele>1954</ele>
        <time>2017-09-16T16:37:01Z</time>
      </trkpt>
      <trkpt lat="44.12534" lon="7.25088">
        <ele>1954</ele>
        <time>2017-09-16T16:37:01Z</time>
      </trkpt>
      <trkpt lat="44.1253" lon="7.2509">
        <ele>1954</ele>
        <time>2017-09-16T16:37:17Z</time>
      </trkpt>
      <trkpt lat="44.12526" lon="7.25093">
        <ele>1954</ele>
        <time>2017-09-16T16:37:17Z</time>
      </trkpt>
      <trkpt lat="44.12522" lon="7.25093">
        <ele>1954</ele>
        <time>2017-09-16T16:37:17Z</time>
      </trkpt>
      <trkpt lat="44.12518" lon="7.25093">
        <ele>1954</ele>
        <time>2017-09-16T16:37:17Z</time>
      </trkpt>
      <trkpt lat="44.12517" lon="7.251">
        <ele>1954</ele>
        <time>2017-09-16T16:37:33Z</time>
      </trkpt>
      <trkpt lat="44.12514" lon="7.25102">
        <ele>1954</ele>
        <time>2017-09-16T16:37:33Z</time>
      </trkpt>
      <trkpt lat="44.12511" lon="7.25105">
        <ele>1954</ele>
        <time>2017-09-16T16:37:33Z</time>
      </trkpt>
      <trkpt lat="44.12506" lon="7.25116">
        <ele>1954</ele>
        <time>2017-09-16T16:37:33Z</time>
      </trkpt>
      <trkpt lat="44.12501" lon="7.25116">
        <ele>1954</ele>
        <time>2017-09-16T16:37:49Z</time>
      </trkpt>
      <trkpt lat="44.12495" lon="7.25128">
        <ele>1894</ele>
        <time>2017-09-16T16:37:49Z</time>
      </trkpt>
      <trkpt lat="44.1249" lon="7.25126">
        <ele>1894</ele>
        <time>2017-09-16T16:37:49Z</time>
      </trkpt>
      <trkpt lat="44.12487" lon="7.25134">
        <ele>1894</ele>
        <time>2017-09-16T16:37:49Z</time>
      </trkpt>
      <trkpt lat="44.12491" lon="7.25138">
        <ele>1894</ele>
        <time>2017-09-16T16:39:01Z</time>
      </trkpt>
      <trkpt lat="44.12491" lon="7.25139">
        <ele>1894</ele>
        <time>2017-09-16T16:39:01Z</time>
      </trkpt>
      <trkpt lat="44.12492" lon="7.2514">
        <ele>1894</ele>
        <time>2017-09-16T16:39:01Z</time>
      </trkpt>
      <trkpt lat="44.12494" lon="7.2514">
        <ele>1894</ele>
        <time>2017-09-16T16:39:01Z</time>
      </trkpt>
      <trkpt lat="44.12496" lon="7.25138">
        <ele>1894</ele>
        <time>2017-09-16T16:39:01Z</time>
      </trkpt>
      <trkpt lat="44.12498" lon="7.25141">
        <ele>1894</ele>
        <time>2017-09-16T16:39:17Z</time>
      </trkpt>
      <trkpt lat="44.125" lon="7.25144">
        <ele>1894</ele>
        <time>2017-09-16T16:39:17Z</time>
      </trkpt>
      <trkpt lat="44.12503" lon="7.25145">
        <ele>1894</ele>
        <time>2017-09-16T16:39:17Z</time>
      </trkpt>
      <trkpt lat="44.12506" lon="7.25145">
        <ele>1894</ele>
        <time>2017-09-16T16:39:17Z</time>
      </trkpt>
      <trkpt lat="44.12507" lon="7.25144">
        <ele>1894</ele>
        <time>2017-09-16T16:39:33Z</time>
      </trkpt>
      <trkpt lat="44.12513" lon="7.25145">
        <ele>1894</ele>
        <time>2017-09-16T16:39:33Z</time>
      </trkpt>
      <trkpt lat="44.12516" lon="7.25145">
        <ele>1894</ele>
        <time>2017-09-16T16:39:33Z</time>
      </trkpt>
      <trkpt lat="44.12516" lon="7.25145">
        <ele>1894</ele>
        <time>2017-09-16T16:39:33Z</time>
      </trkpt>
      <trkpt lat="44.12518" lon="7.25144">
        <ele>1894</ele>
        <time>2017-09-16T16:40:05Z</time>
      </trkpt>
      <trkpt lat="44.1252" lon="7.25145">
        <ele>1894</ele>
        <time>2017-09-16T16:40:05Z</time>
      </trkpt>
      <trkpt lat="44.12523" lon="7.25145">
        <ele>1894</ele>
        <time>2017-09-16T16:40:05Z</time>
      </trkpt>
      <trkpt lat="44.12525" lon="7.25143">
        <ele>1894</ele>
        <time>2017-09-16T16:40:05Z</time>
      </trkpt>
      <trkpt lat="44.1253" lon="7.25136">
        <ele>1894</ele>
        <time>2017-09-16T16:40:05Z</time>
      </trkpt>
      <trkpt lat="44.12531" lon="7.25133">
        <ele>1894</ele>
        <time>2017-09-16T16:40:21Z</time>
      </trkpt>
      <trkpt lat="44.12534" lon="7.25132">
        <ele>1894</ele>
        <time>2017-09-16T16:40:21Z</time>
      </trkpt>
      <trkpt lat="44.12537" lon="7.25129">
        <ele>1894</ele>
        <time>2017-09-16T16:40:21Z</time>
      </trkpt>
      <trkpt lat="44.12542" lon="7.25126">
        <ele>1866</ele>
        <time>2017-09-16T16:40:21Z</time>
      </trkpt>
      <trkpt lat="44.12554" lon="7.25126">
        <ele>1866</ele>
        <time>2017-09-16T16:40:57Z</time>
      </trkpt>
      <trkpt lat="44.12556" lon="7.25125">
        <ele>1866</ele>
        <time>2017-09-16T16:40:57Z</time>
      </trkpt>
      <trkpt lat="44.12559" lon="7.25125">
        <ele>1912</ele>
        <time>2017-09-16T16:40:57Z</time>
      </trkpt>
      <trkpt lat="44.12562" lon="7.25125">
        <ele>1866</ele>
        <time>2017-09-16T16:40:57Z</time>
      </trkpt>
      <trkpt lat="44.12567" lon="7.25127">
        <ele>1866</ele>
        <time>2017-09-16T16:40:57Z</time>
      </trkpt>
      <trkpt lat="44.12571" lon="7.25128">
        <ele>1866</ele>
        <time>2017-09-16T16:41:25Z</time>
      </trkpt>
      <trkpt lat="44.12573" lon="7.25128">
        <ele>1866</ele>
        <time>2017-09-16T16:41:25Z</time>
      </trkpt>
      <trkpt lat="44.12574" lon="7.25128">
        <ele>1866</ele>
        <time>2017-09-16T16:41:25Z</time>
      </trkpt>
      <trkpt lat="44.12576" lon="7.25128">
        <ele>1866</ele>
        <time>2017-09-16T16:41:25Z</time>
      </trkpt>
      <trkpt lat="44.1258" lon="7.25127">
        <ele>1866</ele>
        <time>2017-09-16T16:41:25Z</time>
      </trkpt>
      <trkpt lat="44.12587" lon="7.25125">
        <ele>1866</ele>
        <time>2017-09-16T16:41:41Z</time>
      </trkpt>
      <trkpt lat="44.12592" lon="7.25125">
        <ele>1866</ele>
        <time>2017-09-16T16:41:41Z</time>
      </trkpt>
      <trkpt lat="44.12593" lon="7.25124">
        <ele>1912</ele>
        <time>2017-09-16T16:41:41Z</time>
      </trkpt>
      <trkpt lat="44.12596" lon="7.25122">
        <ele>1912</ele>
        <time>2017-09-16T16:41:41Z</time>
      </trkpt>
      <trkpt lat="44.12598" lon="7.2512">
        <ele>1912</ele>
        <time>2017-09-16T16:41:57Z</time>
      </trkpt>
      <trkpt lat="44.12603" lon="7.25119">
        <ele>1912</ele>
        <time>2017-09-16T16:41:57Z</time>
      </trkpt>
      <trkpt lat="44.12606" lon="7.25117">
        <ele>1912</ele>
        <time>2017-09-16T16:41:57Z</time>
      </trkpt>
      <trkpt lat="44.12608" lon="7.25115">
        <ele>1912</ele>
        <time>2017-09-16T16:41:57Z</time>
      </trkpt>
      <trkpt lat="44.1261" lon="7.25113">
        <ele>1912</ele>
        <time>2017-09-16T16:42:13Z</time>
      </trkpt>
      <trkpt lat="44.12614" lon="7.25111">
        <ele>1912</ele>
        <time>2017-09-16T16:42:13Z</time>
      </trkpt>
      <trkpt lat="44.12618" lon="7.25108">
        <ele>1912</ele>
        <time>2017-09-16T16:42:13Z</time>
      </trkpt>
      <trkpt lat="44.12621" lon="7.25107">
        <ele>1912</ele>
        <time>2017-09-16T16:42:13Z</time>
      </trkpt>
      <trkpt lat="44.12625" lon="7.25104">
        <ele>1862</ele>
        <time>2017-09-16T16:42:29Z</time>
      </trkpt>
      <trkpt lat="44.12627" lon="7.25103">
        <ele>1862</ele>
        <time>2017-09-16T16:42:29Z</time>
      </trkpt>
      <trkpt lat="44.12631" lon="7.25099">
        <ele>1862</ele>
        <time>2017-09-16T16:42:29Z</time>
      </trkpt>
      <trkpt lat="44.12633" lon="7.25098">
        <ele>1862</ele>
        <time>2017-09-16T16:42:29Z</time>
      </trkpt>
      <trkpt lat="44.12634" lon="7.25101">
        <ele>1862</ele>
        <time>2017-09-16T16:42:53Z</time>
      </trkpt>
      <trkpt lat="44.12633" lon="7.25105">
        <ele>1862</ele>
        <time>2017-09-16T16:42:53Z</time>
      </trkpt>
      <trkpt lat="44.12631" lon="7.25107">
        <ele>1862</ele>
        <time>2017-09-16T16:42:53Z</time>
      </trkpt>
      <trkpt lat="44.12631" lon="7.2511">
        <ele>1862</ele>
        <time>2017-09-16T16:42:53Z</time>
      </trkpt>
      <trkpt lat="44.12631" lon="7.25111">
        <ele>1862</ele>
        <time>2017-09-16T16:42:53Z</time>
      </trkpt>
      <trkpt lat="44.12627" lon="7.25116">
        <ele>1862</ele>
        <time>2017-09-16T16:43:29Z</time>
      </trkpt>
      <trkpt lat="44.12627" lon="7.25117">
        <ele>1862</ele>
        <time>2017-09-16T16:43:29Z</time>
      </trkpt>
      <trkpt lat="44.12625" lon="7.25118">
        <ele>1912</ele>
        <time>2017-09-16T16:43:29Z</time>
      </trkpt>
      <trkpt lat="44.12625" lon="7.25118">
        <ele>1912</ele>
        <time>2017-09-16T16:43:29Z</time>
      </trkpt>
      <trkpt lat="44.12625" lon="7.25118">
        <ele>1912</ele>
        <time>2017-09-16T16:43:29Z</time>
      </trkpt>
      <trkpt lat="44.12625" lon="7.25118">
        <ele>1912</ele>
        <time>2017-09-16T16:43:57Z</time>
      </trkpt>
      <trkpt lat="44.12627" lon="7.25119">
        <ele>1862</ele>
        <time>2017-09-16T16:43:57Z</time>
      </trkpt>
      <trkpt lat="44.12631" lon="7.2512">
        <ele>1862</ele>
        <time>2017-09-16T16:43:57Z</time>
      </trkpt>
      <trkpt lat="44.12634" lon="7.25121">
        <ele>1862</ele>
        <time>2017-09-16T16:43:57Z</time>
      </trkpt>
      <trkpt lat="44.12637" lon="7.25122">
        <ele>1862</ele>
        <time>2017-09-16T16:43:57Z</time>
      </trkpt>
      <trkpt lat="44.12638" lon="7.25121">
        <ele>1862</ele>
        <time>2017-09-16T16:44:17Z</time>
      </trkpt>
      <trkpt lat="44.1264" lon="7.2512">
        <ele>1862</ele>
        <time>2017-09-16T16:44:17Z</time>
      </trkpt>
      <trkpt lat="44.12642" lon="7.25119">
        <ele>1862</ele>
        <time>2017-09-16T16:44:17Z</time>
      </trkpt>
      <trkpt lat="44.12643" lon="7.25118">
        <ele>1862</ele>
        <time>2017-09-16T16:44:17Z</time>
      </trkpt>
      <trkpt lat="44.12647" lon="7.25116">
        <ele>1862</ele>
        <time>2017-09-16T16:44:17Z</time>
      </trkpt>
      <trkpt lat="44.12649" lon="7.25113">
        <ele>1862</ele>
        <time>2017-09-16T16:44:33Z</time>
      </trkpt>
      <trkpt lat="44.12651" lon="7.25111">
        <ele>1862</ele>
        <time>2017-09-16T16:44:33Z</time>
      </trkpt>
      <trkpt lat="44.12656" lon="7.2511">
        <ele>1862</ele>
        <time>2017-09-16T16:44:33Z</time>
      </trkpt>
      <trkpt lat="44.12659" lon="7.25109">
        <ele>1862</ele>
        <time>2017-09-16T16:44:33Z</time>
      </trkpt>
      <trkpt lat="44.12662" lon="7.25106">
        <ele>1862</ele>
        <time>2017-09-16T16:44:49Z</time>
      </trkpt>
      <trkpt lat="44.12665" lon="7.25103">
        <ele>1862</ele>
        <time>2017-09-16T16:44:49Z</time>
      </trkpt>
      <trkpt lat="44.12667" lon="7.25101">
        <ele>1862</ele>
        <time>2017-09-16T16:44:49Z</time>
      </trkpt>
      <trkpt lat="44.12669" lon="7.25097">
        <ele>1862</ele>
        <time>2017-09-16T16:44:49Z</time>
      </trkpt>
      <trkpt lat="44.12673" lon="7.25091">
        <ele>1862</ele>
        <time>2017-09-16T16:45:13Z</time>
      </trkpt>
      <trkpt lat="44.12674" lon="7.25089">
        <ele>1862</ele>
        <time>2017-09-16T16:45:13Z</time>
      </trkpt>
      <trkpt lat="44.12676" lon="7.25088">
        <ele>1862</ele>
        <time>2017-09-16T16:45:13Z</time>
      </trkpt>
      <trkpt lat="44.12678" lon="7.25086">
        <ele>1862</ele>
        <time>2017-09-16T16:45:13Z</time>
      </trkpt>
      <trkpt lat="44.12681" lon="7.25083">
        <ele>1862</ele>
        <time>2017-09-16T16:45:13Z</time>
      </trkpt>
      <trkpt lat="44.12681" lon="7.25079">
        <ele>1862</ele>
        <time>2017-09-16T16:45:45Z</time>
      </trkpt>
      <trkpt lat="44.12679" lon="7.25082">
        <ele>1862</ele>
        <time>2017-09-16T16:45:45Z</time>
      </trkpt>
      <trkpt lat="44.12677" lon="7.25086">
        <ele>1862</ele>
        <time>2017-09-16T16:45:45Z</time>
      </trkpt>
      <trkpt lat="44.12677" lon="7.25092">
        <ele>1862</ele>
        <time>2017-09-16T16:45:45Z</time>
      </trkpt>
      <trkpt lat="44.12675" lon="7.25097">
        <ele>1862</ele>
        <time>2017-09-16T16:45:45Z</time>
      </trkpt>
      <trkpt lat="44.12672" lon="7.2511">
        <ele>1862</ele>
        <time>2017-09-16T16:46:09Z</time>
      </trkpt>
      <trkpt lat="44.12671" lon="7.25112">
        <ele>1862</ele>
        <time>2017-09-16T16:46:09Z</time>
      </trkpt>
      <trkpt lat="44.12672" lon="7.25113">
        <ele>1862</ele>
        <time>2017-09-16T16:46:09Z</time>
      </trkpt>
      <trkpt lat="44.12673" lon="7.25116">
        <ele>1862</ele>
        <time>2017-09-16T16:46:09Z</time>
      </trkpt>
      <trkpt lat="44.12671" lon="7.25121">
        <ele>1862</ele>
        <time>2017-09-16T16:46:09Z</time>
      </trkpt>
      <trkpt lat="44.1267" lon="7.25124">
        <ele>1862</ele>
        <time>2017-09-16T16:46:33Z</time>
      </trkpt>
      <trkpt lat="44.12668" lon="7.25126">
        <ele>1830</ele>
        <time>2017-09-16T16:46:33Z</time>
      </trkpt>
      <trkpt lat="44.12667" lon="7.25128">
        <ele>1830</ele>
        <time>2017-09-16T16:46:33Z</time>
      </trkpt>
      <trkpt lat="44.12666" lon="7.2513">
        <ele>1830</ele>
        <time>2017-09-16T16:46:33Z</time>
      </trkpt>
      <trkpt lat="44.12664" lon="7.25133">
        <ele>1830</ele>
        <time>2017-09-16T16:46:33Z</time>
      </trkpt>
      <trkpt lat="44.12664" lon="7.25134">
        <ele>1830</ele>
        <time>2017-09-16T16:46:53Z</time>
      </trkpt>
      <trkpt lat="44.12662" lon="7.25136">
        <ele>1830</ele>
        <time>2017-09-16T16:46:53Z</time>
      </trkpt>
      <trkpt lat="44.1266" lon="7.25139">
        <ele>1830</ele>
        <time>2017-09-16T16:46:53Z</time>
      </trkpt>
      <trkpt lat="44.12659" lon="7.25142">
        <ele>1830</ele>
        <time>2017-09-16T16:46:53Z</time>
      </trkpt>
      <trkpt lat="44.12658" lon="7.25143">
        <ele>1830</ele>
        <time>2017-09-16T16:46:53Z</time>
      </trkpt>
      <trkpt lat="44.12659" lon="7.25144">
        <ele>1830</ele>
        <time>2017-09-16T16:47:17Z</time>
      </trkpt>
      <trkpt lat="44.1266" lon="7.25144">
        <ele>1830</ele>
        <time>2017-09-16T16:47:17Z</time>
      </trkpt>
      <trkpt lat="44.1266" lon="7.25143">
        <ele>1830</ele>
        <time>2017-09-16T16:47:17Z</time>
      </trkpt>
      <trkpt lat="44.12664" lon="7.25139">
        <ele>1830</ele>
        <time>2017-09-16T16:47:17Z</time>
      </trkpt>
      <trkpt lat="44.12666" lon="7.25136">
        <ele>1830</ele>
        <time>2017-09-16T16:47:17Z</time>
      </trkpt>
      <trkpt lat="44.12668" lon="7.25133">
        <ele>1830</ele>
        <time>2017-09-16T16:47:33Z</time>
      </trkpt>
      <trkpt lat="44.1267" lon="7.25129">
        <ele>1830</ele>
        <time>2017-09-16T16:47:33Z</time>
      </trkpt>
      <trkpt lat="44.12672" lon="7.25127">
        <ele>1830</ele>
        <time>2017-09-16T16:47:33Z</time>
      </trkpt>
      <trkpt lat="44.12674" lon="7.25123">
        <ele>1862</ele>
        <time>2017-09-16T16:47:33Z</time>
      </trkpt>
      <trkpt lat="44.12682" lon="7.25124">
        <ele>1862</ele>
        <time>2017-09-16T16:48:17Z</time>
      </trkpt>
      <trkpt lat="44.12683" lon="7.25126">
        <ele>1830</ele>
        <time>2017-09-16T16:48:17Z</time>
      </trkpt>
      <trkpt lat="44.12682" lon="7.25129">
        <ele>1830</ele>
        <time>2017-09-16T16:48:17Z</time>
      </trkpt>
      <trkpt lat="44.12678" lon="7.25133">
        <ele>1830</ele>
        <time>2017-09-16T16:48:17Z</time>
      </trkpt>
      <trkpt lat="44.12676" lon="7.2514">
        <ele>1830</ele>
        <time>2017-09-16T16:48:17Z</time>
      </trkpt>
      <trkpt lat="44.12675" lon="7.25144">
        <ele>1830</ele>
        <time>2017-09-16T16:48:33Z</time>
      </trkpt>
      <trkpt lat="44.12673" lon="7.2515">
        <ele>1830</ele>
        <time>2017-09-16T16:48:33Z</time>
      </trkpt>
      <trkpt lat="44.12673" lon="7.25156">
        <ele>1830</ele>
        <time>2017-09-16T16:48:33Z</time>
      </trkpt>
      <trkpt lat="44.12672" lon="7.25162">
        <ele>1830</ele>
        <time>2017-09-16T16:48:33Z</time>
      </trkpt>
      <trkpt lat="44.12675" lon="7.2517">
        <ele>1830</ele>
        <time>2017-09-16T16:49:25Z</time>
      </trkpt>
      <trkpt lat="44.12675" lon="7.25172">
        <ele>1830</ele>
        <time>2017-09-16T16:49:25Z</time>
      </trkpt>
      <trkpt lat="44.12676" lon="7.25173">
        <ele>1830</ele>
        <time>2017-09-16T16:49:25Z</time>
      </trkpt>
      <trkpt lat="44.12676" lon="7.25177">
        <ele>1830</ele>
        <time>2017-09-16T16:49:25Z</time>
      </trkpt>
      <trkpt lat="44.12675" lon="7.25182">
        <ele>1830</ele>
        <time>2017-09-16T16:49:25Z</time>
      </trkpt>
      <trkpt lat="44.12677" lon="7.25189">
        <ele>1830</ele>
        <time>2017-09-16T16:50:13Z</time>
      </trkpt>
      <trkpt lat="44.12677" lon="7.2519">
        <ele>1830</ele>
        <time>2017-09-16T16:50:13Z</time>
      </trkpt>
      <trkpt lat="44.12677" lon="7.25191">
        <ele>1830</ele>
        <time>2017-09-16T16:50:13Z</time>
      </trkpt>
      <trkpt lat="44.12679" lon="7.25193">
        <ele>1830</ele>
        <time>2017-09-16T16:50:13Z</time>
      </trkpt>
      <trkpt lat="44.12679" lon="7.25198">
        <ele>1830</ele>
        <time>2017-09-16T16:50:13Z</time>
      </trkpt>
      <trkpt lat="44.12681" lon="7.25209">
        <ele>1796</ele>
        <time>2017-09-16T16:50:49Z</time>
      </trkpt>
      <trkpt lat="44.12681" lon="7.2521">
        <ele>1796</ele>
        <time>2017-09-16T16:50:49Z</time>
      </trkpt>
      <trkpt lat="44.12681" lon="7.2521">
        <ele>1796</ele>
        <time>2017-09-16T16:50:49Z</time>
      </trkpt>
      <trkpt lat="44.12682" lon="7.25213">
        <ele>1796</ele>
        <time>2017-09-16T16:50:49Z</time>
      </trkpt>
      <trkpt lat="44.12682" lon="7.25217">
        <ele>1796</ele>
        <time>2017-09-16T16:50:49Z</time>
      </trkpt>
      <trkpt lat="44.12684" lon="7.25219">
        <ele>1796</ele>
        <time>2017-09-16T16:51:09Z</time>
      </trkpt>
      <trkpt lat="44.12685" lon="7.25224">
        <ele>1796</ele>
        <time>2017-09-16T16:51:09Z</time>
      </trkpt>
      <trkpt lat="44.12687" lon="7.25226">
        <ele>1796</ele>
        <time>2017-09-16T16:51:09Z</time>
      </trkpt>
      <trkpt lat="44.12688" lon="7.25229">
        <ele>1796</ele>
        <time>2017-09-16T16:51:09Z</time>
      </trkpt>
      <trkpt lat="44.1269" lon="7.25231">
        <ele>1796</ele>
        <time>2017-09-16T16:51:09Z</time>
      </trkpt>
      <trkpt lat="44.12694" lon="7.25244">
        <ele>1796</ele>
        <time>2017-09-16T16:51:49Z</time>
      </trkpt>
      <trkpt lat="44.12693" lon="7.25246">
        <ele>1796</ele>
        <time>2017-09-16T16:51:49Z</time>
      </trkpt>
      <trkpt lat="44.12693" lon="7.25249">
        <ele>1796</ele>
        <time>2017-09-16T16:51:49Z</time>
      </trkpt>
      <trkpt lat="44.12691" lon="7.25249">
        <ele>1796</ele>
        <time>2017-09-16T16:51:49Z</time>
      </trkpt>
      <trkpt lat="44.1269" lon="7.2525">
        <ele>1796</ele>
        <time>2017-09-16T16:51:49Z</time>
      </trkpt>
      <trkpt lat="44.12687" lon="7.25253">
        <ele>1796</ele>
        <time>2017-09-16T16:52:09Z</time>
      </trkpt>
      <trkpt lat="44.12685" lon="7.25254">
        <ele>1796</ele>
        <time>2017-09-16T16:52:09Z</time>
      </trkpt>
      <trkpt lat="44.12682" lon="7.25253">
        <ele>1796</ele>
        <time>2017-09-16T16:52:09Z</time>
      </trkpt>
      <trkpt lat="44.1268" lon="7.25253">
        <ele>1796</ele>
        <time>2017-09-16T16:52:09Z</time>
      </trkpt>
      <trkpt lat="44.12675" lon="7.25259">
        <ele>1796</ele>
        <time>2017-09-16T16:52:09Z</time>
      </trkpt>
      <trkpt lat="44.12672" lon="7.25261">
        <ele>1796</ele>
        <time>2017-09-16T16:52:29Z</time>
      </trkpt>
      <trkpt lat="44.12672" lon="7.25261">
        <ele>1796</ele>
        <time>2017-09-16T16:52:29Z</time>
      </trkpt>
      <trkpt lat="44.12676" lon="7.25256">
        <ele>1796</ele>
        <time>2017-09-16T16:52:29Z</time>
      </trkpt>
      <trkpt lat="44.12676" lon="7.25256">
        <ele>1796</ele>
        <time>2017-09-16T16:52:29Z</time>
      </trkpt>
      <trkpt lat="44.12679" lon="7.25254">
        <ele>1796</ele>
        <time>2017-09-16T16:52:29Z</time>
      </trkpt>
      <trkpt lat="44.12677" lon="7.25256">
        <ele>1796</ele>
        <time>2017-09-16T16:52:45Z</time>
      </trkpt>
      <trkpt lat="44.12673" lon="7.25256">
        <ele>1796</ele>
        <time>2017-09-16T16:52:45Z</time>
      </trkpt>
      <trkpt lat="44.12669" lon="7.25258">
        <ele>1796</ele>
        <time>2017-09-16T16:52:45Z</time>
      </trkpt>
      <trkpt lat="44.12665" lon="7.2526">
        <ele>1796</ele>
        <time>2017-09-16T16:52:45Z</time>
      </trkpt>
      <trkpt lat="44.12662" lon="7.25265">
        <ele>1796</ele>
        <time>2017-09-16T16:53:09Z</time>
      </trkpt>
      <trkpt lat="44.12661" lon="7.2527">
        <ele>1796</ele>
        <time>2017-09-16T16:53:09Z</time>
      </trkpt>
      <trkpt lat="44.12662" lon="7.25273">
        <ele>1796</ele>
        <time>2017-09-16T16:53:09Z</time>
      </trkpt>
      <trkpt lat="44.12662" lon="7.25274">
        <ele>1796</ele>
        <time>2017-09-16T16:53:09Z</time>
      </trkpt>
      <trkpt lat="44.12658" lon="7.25277">
        <ele>1796</ele>
        <time>2017-09-16T16:53:09Z</time>
      </trkpt>
      <trkpt lat="44.12665" lon="7.2528">
        <ele>1796</ele>
        <time>2017-09-16T16:53:57Z</time>
      </trkpt>
      <trkpt lat="44.12666" lon="7.25282">
        <ele>1796</ele>
        <time>2017-09-16T16:53:57Z</time>
      </trkpt>
      <trkpt lat="44.12669" lon="7.25284">
        <ele>1796</ele>
        <time>2017-09-16T16:53:57Z</time>
      </trkpt>
      <trkpt lat="44.12671" lon="7.25285">
        <ele>1796</ele>
        <time>2017-09-16T16:53:57Z</time>
      </trkpt>
      <trkpt lat="44.12673" lon="7.25286">
        <ele>1796</ele>
        <time>2017-09-16T16:53:57Z</time>
      </trkpt>
      <trkpt lat="44.12674" lon="7.25289">
        <ele>1796</ele>
        <time>2017-09-16T16:54:13Z</time>
      </trkpt>
      <trkpt lat="44.12676" lon="7.25292">
        <ele>1796</ele>
        <time>2017-09-16T16:54:13Z</time>
      </trkpt>
      <trkpt lat="44.12677" lon="7.25298">
        <ele>1769</ele>
        <time>2017-09-16T16:54:13Z</time>
      </trkpt>
      <trkpt lat="44.12681" lon="7.25307">
        <ele>1769</ele>
        <time>2017-09-16T16:54:13Z</time>
      </trkpt>
      <trkpt lat="44.12684" lon="7.25305">
        <ele>1769</ele>
        <time>2017-09-16T16:54:29Z</time>
      </trkpt>
      <trkpt lat="44.12688" lon="7.25304">
        <ele>1769</ele>
        <time>2017-09-16T16:54:29Z</time>
      </trkpt>
      <trkpt lat="44.12691" lon="7.25302">
        <ele>1769</ele>
        <time>2017-09-16T16:54:29Z</time>
      </trkpt>
      <trkpt lat="44.12694" lon="7.25303">
        <ele>1769</ele>
        <time>2017-09-16T16:54:29Z</time>
      </trkpt>
      <trkpt lat="44.12698" lon="7.25316">
        <ele>1769</ele>
        <time>2017-09-16T16:54:57Z</time>
      </trkpt>
      <trkpt lat="44.12698" lon="7.25317">
        <ele>1769</ele>
        <time>2017-09-16T16:54:57Z</time>
      </trkpt>
      <trkpt lat="44.12699" lon="7.25318">
        <ele>1769</ele>
        <time>2017-09-16T16:54:57Z</time>
      </trkpt>
      <trkpt lat="44.127" lon="7.25325">
        <ele>1769</ele>
        <time>2017-09-16T16:54:57Z</time>
      </trkpt>
      <trkpt lat="44.12702" lon="7.25331">
        <ele>1769</ele>
        <time>2017-09-16T16:54:57Z</time>
      </trkpt>
      <trkpt lat="44.12701" lon="7.25339">
        <ele>1769</ele>
        <time>2017-09-16T16:55:25Z</time>
      </trkpt>
      <trkpt lat="44.127" lon="7.2534">
        <ele>1769</ele>
        <time>2017-09-16T16:55:25Z</time>
      </trkpt>
      <trkpt lat="44.12701" lon="7.25341">
        <ele>1769</ele>
        <time>2017-09-16T16:55:25Z</time>
      </trkpt>
      <trkpt lat="44.12701" lon="7.25345">
        <ele>1769</ele>
        <time>2017-09-16T16:55:25Z</time>
      </trkpt>
      <trkpt lat="44.127" lon="7.2535">
        <ele>1769</ele>
        <time>2017-09-16T16:55:25Z</time>
      </trkpt>
      <trkpt lat="44.127" lon="7.25353">
        <ele>1769</ele>
        <time>2017-09-16T16:55:41Z</time>
      </trkpt>
      <trkpt lat="44.127" lon="7.2536">
        <ele>1769</ele>
        <time>2017-09-16T16:55:41Z</time>
      </trkpt>
      <trkpt lat="44.12699" lon="7.25365">
        <ele>1769</ele>
        <time>2017-09-16T16:55:41Z</time>
      </trkpt>
      <trkpt lat="44.12698" lon="7.25368">
        <ele>1769</ele>
        <time>2017-09-16T16:55:41Z</time>
      </trkpt>
      <trkpt lat="44.12697" lon="7.25374">
        <ele>1769</ele>
        <time>2017-09-16T16:55:57Z</time>
      </trkpt>
      <trkpt lat="44.12694" lon="7.25376">
        <ele>1754</ele>
        <time>2017-09-16T16:55:57Z</time>
      </trkpt>
      <trkpt lat="44.12693" lon="7.25384">
        <ele>1754</ele>
        <time>2017-09-16T16:55:57Z</time>
      </trkpt>
      <trkpt lat="44.1269" lon="7.25387">
        <ele>1754</ele>
        <time>2017-09-16T16:55:57Z</time>
      </trkpt>
      <trkpt lat="44.12687" lon="7.25394">
        <ele>1754</ele>
        <time>2017-09-16T16:56:13Z</time>
      </trkpt>
      <trkpt lat="44.12684" lon="7.25399">
        <ele>1754</ele>
        <time>2017-09-16T16:56:13Z</time>
      </trkpt>
      <trkpt lat="44.12683" lon="7.25401">
        <ele>1754</ele>
        <time>2017-09-16T16:56:13Z</time>
      </trkpt>
      <trkpt lat="44.12681" lon="7.25405">
        <ele>1754</ele>
        <time>2017-09-16T16:56:13Z</time>
      </trkpt>
      <trkpt lat="44.1268" lon="7.25413">
        <ele>1754</ele>
        <time>2017-09-16T16:56:33Z</time>
      </trkpt>
      <trkpt lat="44.12679" lon="7.25418">
        <ele>1754</ele>
        <time>2017-09-16T16:56:33Z</time>
      </trkpt>
      <trkpt lat="44.12679" lon="7.25418">
        <ele>1754</ele>
        <time>2017-09-16T16:56:33Z</time>
      </trkpt>
      <trkpt lat="44.12677" lon="7.2542">
        <ele>1754</ele>
        <time>2017-09-16T16:56:33Z</time>
      </trkpt>
      <trkpt lat="44.12676" lon="7.25425">
        <ele>1754</ele>
        <time>2017-09-16T16:56:33Z</time>
      </trkpt>
      <trkpt lat="44.12672" lon="7.25436">
        <ele>1754</ele>
        <time>2017-09-16T16:57:01Z</time>
      </trkpt>
      <trkpt lat="44.12671" lon="7.25439">
        <ele>1754</ele>
        <time>2017-09-16T16:57:01Z</time>
      </trkpt>
      <trkpt lat="44.1267" lon="7.25444">
        <ele>1754</ele>
        <time>2017-09-16T16:57:01Z</time>
      </trkpt>
      <trkpt lat="44.12668" lon="7.25447">
        <ele>1754</ele>
        <time>2017-09-16T16:57:01Z</time>
      </trkpt>
      <trkpt lat="44.12668" lon="7.25449">
        <ele>1754</ele>
        <time>2017-09-16T16:57:01Z</time>
      </trkpt>
      <trkpt lat="44.12668" lon="7.25452">
        <ele>1754</ele>
        <time>2017-09-16T16:57:25Z</time>
      </trkpt>
      <trkpt lat="44.12668" lon="7.25455">
        <ele>1754</ele>
        <time>2017-09-16T16:57:25Z</time>
      </trkpt>
      <trkpt lat="44.12667" lon="7.25459">
        <ele>1737</ele>
        <time>2017-09-16T16:57:25Z</time>
      </trkpt>
      <trkpt lat="44.12666" lon="7.25461">
        <ele>1737</ele>
        <time>2017-09-16T16:57:25Z</time>
      </trkpt>
      <trkpt lat="44.12665" lon="7.25466">
        <ele>1737</ele>
        <time>2017-09-16T16:57:25Z</time>
      </trkpt>
      <trkpt lat="44.12663" lon="7.25468">
        <ele>1737</ele>
        <time>2017-09-16T16:57:41Z</time>
      </trkpt>
      <trkpt lat="44.12662" lon="7.25475">
        <ele>1737</ele>
        <time>2017-09-16T16:57:41Z</time>
      </trkpt>
      <trkpt lat="44.1266" lon="7.25477">
        <ele>1737</ele>
        <time>2017-09-16T16:57:41Z</time>
      </trkpt>
      <trkpt lat="44.12659" lon="7.2548">
        <ele>1737</ele>
        <time>2017-09-16T16:57:41Z</time>
      </trkpt>
      <trkpt lat="44.12656" lon="7.2548">
        <ele>1737</ele>
        <time>2017-09-16T16:58:49Z</time>
      </trkpt>
      <trkpt lat="44.12654" lon="7.25486">
        <ele>1737</ele>
        <time>2017-09-16T16:58:49Z</time>
      </trkpt>
      <trkpt lat="44.12653" lon="7.25488">
        <ele>1737</ele>
        <time>2017-09-16T16:58:49Z</time>
      </trkpt>
      <trkpt lat="44.12651" lon="7.25492">
        <ele>1737</ele>
        <time>2017-09-16T16:58:49Z</time>
      </trkpt>
      <trkpt lat="44.12649" lon="7.25495">
        <ele>1737</ele>
        <time>2017-09-16T16:58:49Z</time>
      </trkpt>
      <trkpt lat="44.1265" lon="7.25499">
        <ele>1737</ele>
        <time>2017-09-16T16:59:29Z</time>
      </trkpt>
      <trkpt lat="44.12648" lon="7.25502">
        <ele>1737</ele>
        <time>2017-09-16T16:59:29Z</time>
      </trkpt>
      <trkpt lat="44.12648" lon="7.25505">
        <ele>1737</ele>
        <time>2017-09-16T16:59:29Z</time>
      </trkpt>
      <trkpt lat="44.12649" lon="7.25506">
        <ele>1737</ele>
        <time>2017-09-16T16:59:29Z</time>
      </trkpt>
      <trkpt lat="44.12648" lon="7.2551">
        <ele>1737</ele>
        <time>2017-09-16T16:59:29Z</time>
      </trkpt>
      <trkpt lat="44.12646" lon="7.25516">
        <ele>1737</ele>
        <time>2017-09-16T16:59:53Z</time>
      </trkpt>
      <trkpt lat="44.12644" lon="7.25521">
        <ele>1737</ele>
        <time>2017-09-16T16:59:53Z</time>
      </trkpt>
      <trkpt lat="44.12643" lon="7.25522">
        <ele>1737</ele>
        <time>2017-09-16T16:59:53Z</time>
      </trkpt>
      <trkpt lat="44.12643" lon="7.25524">
        <ele>1737</ele>
        <time>2017-09-16T16:59:53Z</time>
      </trkpt>
      <trkpt lat="44.12642" lon="7.25528">
        <ele>1737</ele>
        <time>2017-09-16T16:59:53Z</time>
      </trkpt>
      <trkpt lat="44.12642" lon="7.25536">
        <ele>1737</ele>
        <time>2017-09-16T17:00:09Z</time>
      </trkpt>
      <trkpt lat="44.12643" lon="7.25543">
        <ele>1727</ele>
        <time>2017-09-16T17:00:09Z</time>
      </trkpt>
      <trkpt lat="44.12643" lon="7.25548">
        <ele>1727</ele>
        <time>2017-09-16T17:00:09Z</time>
      </trkpt>
      <trkpt lat="44.12644" lon="7.25551">
        <ele>1727</ele>
        <time>2017-09-16T17:00:09Z</time>
      </trkpt>
      <trkpt lat="44.12644" lon="7.25556">
        <ele>1727</ele>
        <time>2017-09-16T17:00:25Z</time>
      </trkpt>
      <trkpt lat="44.12644" lon="7.25561">
        <ele>1727</ele>
        <time>2017-09-16T17:00:25Z</time>
      </trkpt>
      <trkpt lat="44.12642" lon="7.25568">
        <ele>1727</ele>
        <time>2017-09-16T17:00:25Z</time>
      </trkpt>
      <trkpt lat="44.1264" lon="7.25574">
        <ele>1727</ele>
        <time>2017-09-16T17:00:25Z</time>
      </trkpt>
      <trkpt lat="44.12639" lon="7.2558">
        <ele>1727</ele>
        <time>2017-09-16T17:00:41Z</time>
      </trkpt>
      <trkpt lat="44.1264" lon="7.25584">
        <ele>1727</ele>
        <time>2017-09-16T17:00:41Z</time>
      </trkpt>
      <trkpt lat="44.12638" lon="7.2559">
        <ele>1727</ele>
        <time>2017-09-16T17:00:41Z</time>
      </trkpt>
      <trkpt lat="44.12637" lon="7.25596">
        <ele>1727</ele>
        <time>2017-09-16T17:00:41Z</time>
      </trkpt>
      <trkpt lat="44.12637" lon="7.25603">
        <ele>1727</ele>
        <time>2017-09-16T17:01:09Z</time>
      </trkpt>
      <trkpt lat="44.12638" lon="7.25604">
        <ele>1727</ele>
        <time>2017-09-16T17:01:09Z</time>
      </trkpt>
      <trkpt lat="44.1264" lon="7.25605">
        <ele>1727</ele>
        <time>2017-09-16T17:01:09Z</time>
      </trkpt>
      <trkpt lat="44.1264" lon="7.25609">
        <ele>1727</ele>
        <time>2017-09-16T17:01:09Z</time>
      </trkpt>
      <trkpt lat="44.1264" lon="7.25612">
        <ele>1727</ele>
        <time>2017-09-16T17:01:09Z</time>
      </trkpt>
      <trkpt lat="44.1264" lon="7.25625">
        <ele>1719</ele>
        <time>2017-09-16T17:01:33Z</time>
      </trkpt>
      <trkpt lat="44.12641" lon="7.25626">
        <ele>1719</ele>
        <time>2017-09-16T17:01:33Z</time>
      </trkpt>
      <trkpt lat="44.12641" lon="7.2563">
        <ele>1719</ele>
        <time>2017-09-16T17:01:33Z</time>
      </trkpt>
      <trkpt lat="44.12642" lon="7.25634">
        <ele>1719</ele>
        <time>2017-09-16T17:01:33Z</time>
      </trkpt>
      <trkpt lat="44.12643" lon="7.25638">
        <ele>1719</ele>
        <time>2017-09-16T17:01:33Z</time>
      </trkpt>
      <trkpt lat="44.12644" lon="7.25642">
        <ele>1719</ele>
        <time>2017-09-16T17:02:17Z</time>
      </trkpt>
      <trkpt lat="44.12644" lon="7.25643">
        <ele>1719</ele>
        <time>2017-09-16T17:02:17Z</time>
      </trkpt>
      <trkpt lat="44.12644" lon="7.25649">
        <ele>1719</ele>
        <time>2017-09-16T17:02:17Z</time>
      </trkpt>
      <trkpt lat="44.12643" lon="7.25654">
        <ele>1719</ele>
        <time>2017-09-16T17:02:17Z</time>
      </trkpt>
      <trkpt lat="44.12645" lon="7.25658">
        <ele>1719</ele>
        <time>2017-09-16T17:02:17Z</time>
      </trkpt>
      <trkpt lat="44.12645" lon="7.25663">
        <ele>1719</ele>
        <time>2017-09-16T17:02:37Z</time>
      </trkpt>
      <trkpt lat="44.12644" lon="7.25668">
        <ele>1719</ele>
        <time>2017-09-16T17:02:37Z</time>
      </trkpt>
      <trkpt lat="44.12643" lon="7.25671">
        <ele>1719</ele>
        <time>2017-09-16T17:02:37Z</time>
      </trkpt>
      <trkpt lat="44.12642" lon="7.25674">
        <ele>1719</ele>
        <time>2017-09-16T17:02:37Z</time>
      </trkpt>
      <trkpt lat="44.12641" lon="7.25678">
        <ele>1719</ele>
        <time>2017-09-16T17:02:37Z</time>
      </trkpt>
      <trkpt lat="44.1264" lon="7.2568">
        <ele>1719</ele>
        <time>2017-09-16T17:03:01Z</time>
      </trkpt>
      <trkpt lat="44.12638" lon="7.25683">
        <ele>1719</ele>
        <time>2017-09-16T17:03:01Z</time>
      </trkpt>
      <trkpt lat="44.12636" lon="7.25684">
        <ele>1719</ele>
        <time>2017-09-16T17:03:01Z</time>
      </trkpt>
      <trkpt lat="44.12635" lon="7.25686">
        <ele>1719</ele>
        <time>2017-09-16T17:03:01Z</time>
      </trkpt>
      <trkpt lat="44.12634" lon="7.2569">
        <ele>1719</ele>
        <time>2017-09-16T17:03:01Z</time>
      </trkpt>
      <trkpt lat="44.12633" lon="7.25693">
        <ele>1719</ele>
        <time>2017-09-16T17:03:17Z</time>
      </trkpt>
      <trkpt lat="44.1263" lon="7.25699">
        <ele>1719</ele>
        <time>2017-09-16T17:03:17Z</time>
      </trkpt>
      <trkpt lat="44.12628" lon="7.25703">
        <ele>1719</ele>
        <time>2017-09-16T17:03:17Z</time>
      </trkpt>
      <trkpt lat="44.12627" lon="7.25708">
        <ele>1714</ele>
        <time>2017-09-16T17:03:17Z</time>
      </trkpt>
      <trkpt lat="44.12632" lon="7.25719">
        <ele>1714</ele>
        <time>2017-09-16T17:04:45Z</time>
      </trkpt>
      <trkpt lat="44.12635" lon="7.25715">
        <ele>1714</ele>
        <time>2017-09-16T17:04:45Z</time>
      </trkpt>
      <trkpt lat="44.12636" lon="7.25718">
        <ele>1714</ele>
        <time>2017-09-16T17:04:45Z</time>
      </trkpt>
      <trkpt lat="44.12635" lon="7.25723">
        <ele>1714</ele>
        <time>2017-09-16T17:04:45Z</time>
      </trkpt>
      <trkpt lat="44.12635" lon="7.25727">
        <ele>1714</ele>
        <time>2017-09-16T17:04:45Z</time>
      </trkpt>
      <trkpt lat="44.12635" lon="7.25728">
        <ele>1714</ele>
        <time>2017-09-16T17:05:09Z</time>
      </trkpt>
      <trkpt lat="44.12636" lon="7.25729">
        <ele>1714</ele>
        <time>2017-09-16T17:05:09Z</time>
      </trkpt>
      <trkpt lat="44.12637" lon="7.25729">
        <ele>1714</ele>
        <time>2017-09-16T17:05:09Z</time>
      </trkpt>
      <trkpt lat="44.12634" lon="7.25735">
        <ele>1714</ele>
        <time>2017-09-16T17:05:09Z</time>
      </trkpt>
      <trkpt lat="44.12631" lon="7.25741">
        <ele>1714</ele>
        <time>2017-09-16T17:05:09Z</time>
      </trkpt>
      <trkpt lat="44.12629" lon="7.25746">
        <ele>1714</ele>
        <time>2017-09-16T17:05:25Z</time>
      </trkpt>
      <trkpt lat="44.12627" lon="7.25752">
        <ele>1714</ele>
        <time>2017-09-16T17:05:25Z</time>
      </trkpt>
      <trkpt lat="44.12625" lon="7.2576">
        <ele>1717</ele>
        <time>2017-09-16T17:05:25Z</time>
      </trkpt>
      <trkpt lat="44.12624" lon="7.25761">
        <ele>1717</ele>
        <time>2017-09-16T17:05:25Z</time>
      </trkpt>
      <trkpt lat="44.12623" lon="7.25768">
        <ele>1717</ele>
        <time>2017-09-16T17:05:53Z</time>
      </trkpt>
      <trkpt lat="44.12622" lon="7.2577">
        <ele>1717</ele>
        <time>2017-09-16T17:05:53Z</time>
      </trkpt>
      <trkpt lat="44.12622" lon="7.2577">
        <ele>1717</ele>
        <time>2017-09-16T17:05:53Z</time>
      </trkpt>
      <trkpt lat="44.12622" lon="7.25771">
        <ele>1717</ele>
        <time>2017-09-16T17:05:53Z</time>
      </trkpt>
      <trkpt lat="44.1262" lon="7.25775">
        <ele>1717</ele>
        <time>2017-09-16T17:05:53Z</time>
      </trkpt>
      <trkpt lat="44.1262" lon="7.25777">
        <ele>1717</ele>
        <time>2017-09-16T17:06:13Z</time>
      </trkpt>
      <trkpt lat="44.12619" lon="7.25779">
        <ele>1717</ele>
        <time>2017-09-16T17:06:13Z</time>
      </trkpt>
      <trkpt lat="44.12616" lon="7.25783">
        <ele>1717</ele>
        <time>2017-09-16T17:06:13Z</time>
      </trkpt>
      <trkpt lat="44.12614" lon="7.25785">
        <ele>1717</ele>
        <time>2017-09-16T17:06:13Z</time>
      </trkpt>
      <trkpt lat="44.12612" lon="7.25787">
        <ele>1717</ele>
        <time>2017-09-16T17:06:13Z</time>
      </trkpt>
      <trkpt lat="44.1261" lon="7.25789">
        <ele>1717</ele>
        <time>2017-09-16T17:06:33Z</time>
      </trkpt>
      <trkpt lat="44.12608" lon="7.25792">
        <ele>1717</ele>
        <time>2017-09-16T17:06:33Z</time>
      </trkpt>
      <trkpt lat="44.12608" lon="7.25793">
        <ele>1702</ele>
        <time>2017-09-16T17:06:33Z</time>
      </trkpt>
      <trkpt lat="44.12606" lon="7.25796">
        <ele>1702</ele>
        <time>2017-09-16T17:06:33Z</time>
      </trkpt>
      <trkpt lat="44.12603" lon="7.258">
        <ele>1702</ele>
        <time>2017-09-16T17:06:33Z</time>
      </trkpt>
      <trkpt lat="44.126" lon="7.25805">
        <ele>1702</ele>
        <time>2017-09-16T17:06:49Z</time>
      </trkpt>
      <trkpt lat="44.12594" lon="7.25811">
        <ele>1702</ele>
        <time>2017-09-16T17:06:49Z</time>
      </trkpt>
      <trkpt lat="44.12592" lon="7.25814">
        <ele>1702</ele>
        <time>2017-09-16T17:06:49Z</time>
      </trkpt>
      <trkpt lat="44.12591" lon="7.25818">
        <ele>1702</ele>
        <time>2017-09-16T17:06:49Z</time>
      </trkpt>
      <trkpt lat="44.12589" lon="7.25824">
        <ele>1702</ele>
        <time>2017-09-16T17:07:09Z</time>
      </trkpt>
      <trkpt lat="44.12588" lon="7.25826">
        <ele>1702</ele>
        <time>2017-09-16T17:07:09Z</time>
      </trkpt>
      <trkpt lat="44.12588" lon="7.2583">
        <ele>1702</ele>
        <time>2017-09-16T17:07:09Z</time>
      </trkpt>
      <trkpt lat="44.12588" lon="7.25833">
        <ele>1702</ele>
        <time>2017-09-16T17:07:09Z</time>
      </trkpt>
      <trkpt lat="44.12587" lon="7.25838">
        <ele>1702</ele>
        <time>2017-09-16T17:07:09Z</time>
      </trkpt>
      <trkpt lat="44.12586" lon="7.25844">
        <ele>1702</ele>
        <time>2017-09-16T17:07:25Z</time>
      </trkpt>
      <trkpt lat="44.12587" lon="7.25848">
        <ele>1702</ele>
        <time>2017-09-16T17:07:25Z</time>
      </trkpt>
      <trkpt lat="44.12586" lon="7.25854">
        <ele>1702</ele>
        <time>2017-09-16T17:07:25Z</time>
      </trkpt>
      <trkpt lat="44.12585" lon="7.25858">
        <ele>1702</ele>
        <time>2017-09-16T17:07:25Z</time>
      </trkpt>
      <trkpt lat="44.12585" lon="7.25858">
        <ele>1702</ele>
        <time>2017-09-16T17:07:45Z</time>
      </trkpt>
      <trkpt lat="44.12585" lon="7.2586">
        <ele>1702</ele>
        <time>2017-09-16T17:07:45Z</time>
      </trkpt>
      <trkpt lat="44.12586" lon="7.25864">
        <ele>1702</ele>
        <time>2017-09-16T17:07:45Z</time>
      </trkpt>
      <trkpt lat="44.12586" lon="7.25868">
        <ele>1702</ele>
        <time>2017-09-16T17:07:45Z</time>
      </trkpt>
      <trkpt lat="44.12585" lon="7.25871">
        <ele>1702</ele>
        <time>2017-09-16T17:07:45Z</time>
      </trkpt>
      <trkpt lat="44.12586" lon="7.25877">
        <ele>1694</ele>
        <time>2017-09-16T17:08:09Z</time>
      </trkpt>
      <trkpt lat="44.12587" lon="7.25877">
        <ele>1694</ele>
        <time>2017-09-16T17:08:09Z</time>
      </trkpt>
      <trkpt lat="44.12587" lon="7.2588">
        <ele>1694</ele>
        <time>2017-09-16T17:08:09Z</time>
      </trkpt>
      <trkpt lat="44.1259" lon="7.25882">
        <ele>1694</ele>
        <time>2017-09-16T17:08:09Z</time>
      </trkpt>
      <trkpt lat="44.12592" lon="7.25887">
        <ele>1694</ele>
        <time>2017-09-16T17:08:09Z</time>
      </trkpt>
      <trkpt lat="44.12594" lon="7.2589">
        <ele>1694</ele>
        <time>2017-09-16T17:08:25Z</time>
      </trkpt>
      <trkpt lat="44.12595" lon="7.25894">
        <ele>1694</ele>
        <time>2017-09-16T17:08:25Z</time>
      </trkpt>
      <trkpt lat="44.12597" lon="7.25903">
        <ele>1694</ele>
        <time>2017-09-16T17:08:25Z</time>
      </trkpt>
      <trkpt lat="44.12599" lon="7.25912">
        <ele>1694</ele>
        <time>2017-09-16T17:08:25Z</time>
      </trkpt>
      <trkpt lat="44.12602" lon="7.25922">
        <ele>1694</ele>
        <time>2017-09-16T17:08:41Z</time>
      </trkpt>
      <trkpt lat="44.12606" lon="7.25932">
        <ele>1694</ele>
        <time>2017-09-16T17:08:41Z</time>
      </trkpt>
      <trkpt lat="44.12608" lon="7.25936">
        <ele>1694</ele>
        <time>2017-09-16T17:08:41Z</time>
      </trkpt>
      <trkpt lat="44.12611" lon="7.25942">
        <ele>1694</ele>
        <time>2017-09-16T17:08:41Z</time>
      </trkpt>
      <trkpt lat="44.12614" lon="7.25945">
        <ele>1694</ele>
        <time>2017-09-16T17:08:57Z</time>
      </trkpt>
      <trkpt lat="44.12617" lon="7.25944">
        <ele>1694</ele>
        <time>2017-09-16T17:08:57Z</time>
      </trkpt>
      <trkpt lat="44.1262" lon="7.25946">
        <ele>1694</ele>
        <time>2017-09-16T17:08:57Z</time>
      </trkpt>
      <trkpt lat="44.12622" lon="7.25953">
        <ele>1694</ele>
        <time>2017-09-16T17:08:57Z</time>
      </trkpt>
      <trkpt lat="44.12623" lon="7.25968">
        <ele>1684</ele>
        <time>2017-09-16T17:09:21Z</time>
      </trkpt>
      <trkpt lat="44.12623" lon="7.2597">
        <ele>1684</ele>
        <time>2017-09-16T17:09:21Z</time>
      </trkpt>
      <trkpt lat="44.12622" lon="7.25974">
        <ele>1684</ele>
        <time>2017-09-16T17:09:21Z</time>
      </trkpt>
      <trkpt lat="44.12622" lon="7.25975">
        <ele>1684</ele>
        <time>2017-09-16T17:09:21Z</time>
      </trkpt>
      <trkpt lat="44.12617" lon="7.25978">
        <ele>1684</ele>
        <time>2017-09-16T17:09:21Z</time>
      </trkpt>
      <trkpt lat="44.12614" lon="7.25986">
        <ele>1684</ele>
        <time>2017-09-16T17:09:37Z</time>
      </trkpt>
      <trkpt lat="44.12613" lon="7.25987">
        <ele>1684</ele>
        <time>2017-09-16T17:09:37Z</time>
      </trkpt>
      <trkpt lat="44.12611" lon="7.2599">
        <ele>1684</ele>
        <time>2017-09-16T17:09:37Z</time>
      </trkpt>
      <trkpt lat="44.12608" lon="7.25995">
        <ele>1684</ele>
        <time>2017-09-16T17:09:37Z</time>
      </trkpt>
      <trkpt lat="44.12605" lon="7.25997">
        <ele>1684</ele>
        <time>2017-09-16T17:09:53Z</time>
      </trkpt>
      <trkpt lat="44.12602" lon="7.26001">
        <ele>1684</ele>
        <time>2017-09-16T17:09:53Z</time>
      </trkpt>
      <trkpt lat="44.12599" lon="7.26006">
        <ele>1684</ele>
        <time>2017-09-16T17:09:53Z</time>
      </trkpt>
      <trkpt lat="44.12598" lon="7.26009">
        <ele>1684</ele>
        <time>2017-09-16T17:09:53Z</time>
      </trkpt>
      <trkpt lat="44.12596" lon="7.26012">
        <ele>1684</ele>
        <time>2017-09-16T17:10:09Z</time>
      </trkpt>
      <trkpt lat="44.12594" lon="7.26016">
        <ele>1684</ele>
        <time>2017-09-16T17:10:09Z</time>
      </trkpt>
      <trkpt lat="44.12592" lon="7.2602">
        <ele>1684</ele>
        <time>2017-09-16T17:10:09Z</time>
      </trkpt>
      <trkpt lat="44.12588" lon="7.26027">
        <ele>1684</ele>
        <time>2017-09-16T17:10:09Z</time>
      </trkpt>
      <trkpt lat="44.12587" lon="7.2603">
        <ele>1684</ele>
        <time>2017-09-16T17:10:29Z</time>
      </trkpt>
      <trkpt lat="44.12585" lon="7.26033">
        <ele>1684</ele>
        <time>2017-09-16T17:10:29Z</time>
      </trkpt>
      <trkpt lat="44.12584" lon="7.2604">
        <ele>1684</ele>
        <time>2017-09-16T17:10:29Z</time>
      </trkpt>
      <trkpt lat="44.12584" lon="7.26042">
        <ele>1684</ele>
        <time>2017-09-16T17:10:29Z</time>
      </trkpt>
      <trkpt lat="44.12583" lon="7.26046">
        <ele>1670</ele>
        <time>2017-09-16T17:10:29Z</time>
      </trkpt>
      <trkpt lat="44.12581" lon="7.26049">
        <ele>1670</ele>
        <time>2017-09-16T17:10:45Z</time>
      </trkpt>
      <trkpt lat="44.1258" lon="7.26055">
        <ele>1670</ele>
        <time>2017-09-16T17:10:45Z</time>
      </trkpt>
      <trkpt lat="44.12578" lon="7.26061">
        <ele>1670</ele>
        <time>2017-09-16T17:10:45Z</time>
      </trkpt>
      <trkpt lat="44.12578" lon="7.26062">
        <ele>1670</ele>
        <time>2017-09-16T17:10:45Z</time>
      </trkpt>
      <trkpt lat="44.12585" lon="7.26064">
        <ele>1670</ele>
        <time>2017-09-16T17:13:13Z</time>
      </trkpt>
      <trkpt lat="44.12586" lon="7.26069">
        <ele>1670</ele>
        <time>2017-09-16T17:13:13Z</time>
      </trkpt>
      <trkpt lat="44.12587" lon="7.2607">
        <ele>1670</ele>
        <time>2017-09-16T17:13:13Z</time>
      </trkpt>
      <trkpt lat="44.12587" lon="7.2607">
        <ele>1670</ele>
        <time>2017-09-16T17:13:13Z</time>
      </trkpt>
      <trkpt lat="44.12588" lon="7.26073">
        <ele>1670</ele>
        <time>2017-09-16T17:13:13Z</time>
      </trkpt>
    </trkseg>
  </trk>
</gpx>